<?xml version="1.0" encoding="UTF-8" standalone="no" ?>
<gpx xmlns="http://www.topografix.com/GPX/1/1" xmlns:xsi="http://www.w3.org/2001/XMLSchema-instance" xsi:schemaLocation="http://www.topografix.com/GPX/1/1 http://www.topografix.com/GPX/1/1/gpx.xsd" version="1.1" creator="VisuGPX - https://www.visugpx.com">
  <metadata>
    <name>randonnée des marrons 15 octobre2023</name>
  </metadata>
  <trk>
    <name><![CDATA[OCT-15-23 13:43:00]]></name>
    <trkseg>
      <trkpt lat="46.81041" lon="0.41246">
        <ele>-6.59</ele>
        <time>2023-10-15T06:20:13Z</time>
      </trkpt>
      <trkpt lat="46.81036" lon="0.41242">
        <ele>-8.51</ele>
        <time>2023-10-15T06:26:15Z</time>
      </trkpt>
      <trkpt lat="46.81034" lon="0.41244">
        <ele>-7.55</ele>
        <time>2023-10-15T06:26:18Z</time>
      </trkpt>
      <trkpt lat="46.81033" lon="0.41245">
        <ele>-7.55</ele>
        <time>2023-10-15T06:26:19Z</time>
      </trkpt>
      <trkpt lat="46.81031" lon="0.41246">
        <ele>-7.55</ele>
        <time>2023-10-15T06:26:20Z</time>
      </trkpt>
      <trkpt lat="46.81029" lon="0.41247">
        <ele>-7.55</ele>
        <time>2023-10-15T06:26:21Z</time>
      </trkpt>
      <trkpt lat="46.81027" lon="0.41247">
        <ele>-7.55</ele>
        <time>2023-10-15T06:26:22Z</time>
      </trkpt>
      <trkpt lat="46.81026" lon="0.41248">
        <ele>-7.07</ele>
        <time>2023-10-15T06:26:23Z</time>
      </trkpt>
      <trkpt lat="46.81024" lon="0.41249">
        <ele>-6.59</ele>
        <time>2023-10-15T06:26:24Z</time>
      </trkpt>
      <trkpt lat="46.81009" lon="0.41248">
        <ele>-7.55</ele>
        <time>2023-10-15T06:26:32Z</time>
      </trkpt>
      <trkpt lat="46.81002" lon="0.41242">
        <ele>-8.03</ele>
        <time>2023-10-15T06:26:37Z</time>
      </trkpt>
      <trkpt lat="46.81001" lon="0.4124">
        <ele>-6.59</ele>
        <time>2023-10-15T06:26:38Z</time>
      </trkpt>
      <trkpt lat="46.81001" lon="0.41238">
        <ele>-8.03</ele>
        <time>2023-10-15T06:26:39Z</time>
      </trkpt>
      <trkpt lat="46.81" lon="0.41236">
        <ele>-8.03</ele>
        <time>2023-10-15T06:26:40Z</time>
      </trkpt>
      <trkpt lat="46.80999" lon="0.41234">
        <ele>-7.55</ele>
        <time>2023-10-15T06:26:41Z</time>
      </trkpt>
      <trkpt lat="46.80998" lon="0.41232">
        <ele>-7.55</ele>
        <time>2023-10-15T06:26:42Z</time>
      </trkpt>
      <trkpt lat="46.80997" lon="0.4123">
        <ele>-7.07</ele>
        <time>2023-10-15T06:26:43Z</time>
      </trkpt>
      <trkpt lat="46.80987" lon="0.41216">
        <ele>-7.07</ele>
        <time>2023-10-15T06:26:51Z</time>
      </trkpt>
      <trkpt lat="46.80985" lon="0.41216">
        <ele>-7.07</ele>
        <time>2023-10-15T06:26:52Z</time>
      </trkpt>
      <trkpt lat="46.80984" lon="0.41216">
        <ele>-7.55</ele>
        <time>2023-10-15T06:26:53Z</time>
      </trkpt>
      <trkpt lat="46.80982" lon="0.41215">
        <ele>-7.07</ele>
        <time>2023-10-15T06:26:54Z</time>
      </trkpt>
      <trkpt lat="46.80979" lon="0.41215">
        <ele>-7.07</ele>
        <time>2023-10-15T06:26:55Z</time>
      </trkpt>
      <trkpt lat="46.80977" lon="0.41214">
        <ele>-6.59</ele>
        <time>2023-10-15T06:26:56Z</time>
      </trkpt>
      <trkpt lat="46.80975" lon="0.41213">
        <ele>-7.07</ele>
        <time>2023-10-15T06:26:57Z</time>
      </trkpt>
      <trkpt lat="46.80972" lon="0.41213">
        <ele>-6.59</ele>
        <time>2023-10-15T06:26:58Z</time>
      </trkpt>
      <trkpt lat="46.8097" lon="0.41212">
        <ele>-6.59</ele>
        <time>2023-10-15T06:26:59Z</time>
      </trkpt>
      <trkpt lat="46.80968" lon="0.41212">
        <ele>-7.07</ele>
        <time>2023-10-15T06:27:00Z</time>
      </trkpt>
      <trkpt lat="46.80957" lon="0.41208">
        <ele>-8.03</ele>
        <time>2023-10-15T06:27:05Z</time>
      </trkpt>
      <trkpt lat="46.80956" lon="0.41204">
        <ele>-7.07</ele>
        <time>2023-10-15T06:27:06Z</time>
      </trkpt>
      <trkpt lat="46.80957" lon="0.41201">
        <ele>-6.59</ele>
        <time>2023-10-15T06:27:07Z</time>
      </trkpt>
      <trkpt lat="46.80957" lon="0.41198">
        <ele>-7.07</ele>
        <time>2023-10-15T06:27:08Z</time>
      </trkpt>
      <trkpt lat="46.80957" lon="0.41194">
        <ele>-7.07</ele>
        <time>2023-10-15T06:27:09Z</time>
      </trkpt>
      <trkpt lat="46.80957" lon="0.41167">
        <ele>-7.55</ele>
        <time>2023-10-15T06:27:17Z</time>
      </trkpt>
      <trkpt lat="46.80948" lon="0.41144">
        <ele>-7.07</ele>
        <time>2023-10-15T06:27:25Z</time>
      </trkpt>
      <trkpt lat="46.80942" lon="0.41121">
        <ele>-7.07</ele>
        <time>2023-10-15T06:27:31Z</time>
      </trkpt>
      <trkpt lat="46.80932" lon="0.41075">
        <ele>-7.55</ele>
        <time>2023-10-15T06:27:41Z</time>
      </trkpt>
      <trkpt lat="46.80918" lon="0.41015">
        <ele>-7.07</ele>
        <time>2023-10-15T06:27:53Z</time>
      </trkpt>
      <trkpt lat="46.80909" lon="0.40982">
        <ele>-6.59</ele>
        <time>2023-10-15T06:28:00Z</time>
      </trkpt>
      <trkpt lat="46.80906" lon="0.4098">
        <ele>-7.07</ele>
        <time>2023-10-15T06:28:01Z</time>
      </trkpt>
      <trkpt lat="46.80903" lon="0.40979">
        <ele>-7.55</ele>
        <time>2023-10-15T06:28:02Z</time>
      </trkpt>
      <trkpt lat="46.80875" lon="0.4098">
        <ele>-9</ele>
        <time>2023-10-15T06:28:10Z</time>
      </trkpt>
      <trkpt lat="46.80836" lon="0.40982">
        <ele>-9</ele>
        <time>2023-10-15T06:28:20Z</time>
      </trkpt>
      <trkpt lat="46.80791" lon="0.40983">
        <ele>-8.51</ele>
        <time>2023-10-15T06:28:31Z</time>
      </trkpt>
      <trkpt lat="46.80747" lon="0.40986">
        <ele>-9</ele>
        <time>2023-10-15T06:28:42Z</time>
      </trkpt>
      <trkpt lat="46.80727" lon="0.40974">
        <ele>-9.96</ele>
        <time>2023-10-15T06:28:48Z</time>
      </trkpt>
      <trkpt lat="46.80725" lon="0.40969">
        <ele>-8.51</ele>
        <time>2023-10-15T06:28:49Z</time>
      </trkpt>
      <trkpt lat="46.80724" lon="0.40963">
        <ele>-9.96</ele>
        <time>2023-10-15T06:28:50Z</time>
      </trkpt>
      <trkpt lat="46.80723" lon="0.40957">
        <ele>-9.48</ele>
        <time>2023-10-15T06:28:51Z</time>
      </trkpt>
      <trkpt lat="46.80724" lon="0.40934">
        <ele>-9</ele>
        <time>2023-10-15T06:28:55Z</time>
      </trkpt>
      <trkpt lat="46.80723" lon="0.40928">
        <ele>-9</ele>
        <time>2023-10-15T06:28:56Z</time>
      </trkpt>
      <trkpt lat="46.80726" lon="0.40863">
        <ele>-8.51</ele>
        <time>2023-10-15T06:29:07Z</time>
      </trkpt>
      <trkpt lat="46.80727" lon="0.40804">
        <ele>-8.03</ele>
        <time>2023-10-15T06:29:17Z</time>
      </trkpt>
      <trkpt lat="46.80727" lon="0.40773">
        <ele>-8.03</ele>
        <time>2023-10-15T06:29:22Z</time>
      </trkpt>
      <trkpt lat="46.80728" lon="0.40756">
        <ele>-9.48</ele>
        <time>2023-10-15T06:29:25Z</time>
      </trkpt>
      <trkpt lat="46.80728" lon="0.40697">
        <ele>-9.96</ele>
        <time>2023-10-15T06:29:35Z</time>
      </trkpt>
      <trkpt lat="46.8073" lon="0.40628">
        <ele>-9.96</ele>
        <time>2023-10-15T06:29:47Z</time>
      </trkpt>
      <trkpt lat="46.8073" lon="0.40574">
        <ele>-10.92</ele>
        <time>2023-10-15T06:29:56Z</time>
      </trkpt>
      <trkpt lat="46.8073" lon="0.40526">
        <ele>-9.48</ele>
        <time>2023-10-15T06:30:04Z</time>
      </trkpt>
      <trkpt lat="46.80731" lon="0.40476">
        <ele>-11.4</ele>
        <time>2023-10-15T06:30:13Z</time>
      </trkpt>
      <trkpt lat="46.8073" lon="0.40448">
        <ele>-10.92</ele>
        <time>2023-10-15T06:30:20Z</time>
      </trkpt>
      <trkpt lat="46.80729" lon="0.40443">
        <ele>-10.44</ele>
        <time>2023-10-15T06:30:25Z</time>
      </trkpt>
      <trkpt lat="46.80729" lon="0.40443">
        <ele>-11.4</ele>
        <time>2023-10-15T06:30:39Z</time>
      </trkpt>
      <trkpt lat="46.80729" lon="0.40443">
        <ele>-11.88</ele>
        <time>2023-10-15T06:30:48Z</time>
      </trkpt>
      <trkpt lat="46.80729" lon="0.40443">
        <ele>-10.44</ele>
        <time>2023-10-15T06:31:02Z</time>
      </trkpt>
      <trkpt lat="46.80729" lon="0.40443">
        <ele>-10.92</ele>
        <time>2023-10-15T06:31:17Z</time>
      </trkpt>
      <trkpt lat="46.80729" lon="0.40442">
        <ele>-11.4</ele>
        <time>2023-10-15T06:31:21Z</time>
      </trkpt>
      <trkpt lat="46.8073" lon="0.4044">
        <ele>-11.88</ele>
        <time>2023-10-15T06:31:22Z</time>
      </trkpt>
      <trkpt lat="46.8073" lon="0.40437">
        <ele>-11.4</ele>
        <time>2023-10-15T06:31:23Z</time>
      </trkpt>
      <trkpt lat="46.8073" lon="0.40434">
        <ele>-10.44</ele>
        <time>2023-10-15T06:31:24Z</time>
      </trkpt>
      <trkpt lat="46.80731" lon="0.40429">
        <ele>-10.92</ele>
        <time>2023-10-15T06:31:25Z</time>
      </trkpt>
      <trkpt lat="46.80731" lon="0.40398">
        <ele>-10.92</ele>
        <time>2023-10-15T06:31:30Z</time>
      </trkpt>
      <trkpt lat="46.80733" lon="0.4034">
        <ele>-10.92</ele>
        <time>2023-10-15T06:31:38Z</time>
      </trkpt>
      <trkpt lat="46.80733" lon="0.40333">
        <ele>-10.92</ele>
        <time>2023-10-15T06:31:39Z</time>
      </trkpt>
      <trkpt lat="46.80733" lon="0.40325">
        <ele>-10.92</ele>
        <time>2023-10-15T06:31:40Z</time>
      </trkpt>
      <trkpt lat="46.80732" lon="0.40318">
        <ele>-10.44</ele>
        <time>2023-10-15T06:31:41Z</time>
      </trkpt>
      <trkpt lat="46.80732" lon="0.4031">
        <ele>-11.88</ele>
        <time>2023-10-15T06:31:42Z</time>
      </trkpt>
      <trkpt lat="46.80731" lon="0.40303">
        <ele>-10.92</ele>
        <time>2023-10-15T06:31:43Z</time>
      </trkpt>
      <trkpt lat="46.80731" lon="0.40246">
        <ele>-11.88</ele>
        <time>2023-10-15T06:31:50Z</time>
      </trkpt>
      <trkpt lat="46.80733" lon="0.40195">
        <ele>-10.92</ele>
        <time>2023-10-15T06:31:57Z</time>
      </trkpt>
      <trkpt lat="46.80733" lon="0.40189">
        <ele>-11.88</ele>
        <time>2023-10-15T06:31:58Z</time>
      </trkpt>
      <trkpt lat="46.80732" lon="0.40182">
        <ele>-12.36</ele>
        <time>2023-10-15T06:31:59Z</time>
      </trkpt>
      <trkpt lat="46.8073" lon="0.40178">
        <ele>-11.4</ele>
        <time>2023-10-15T06:32:00Z</time>
      </trkpt>
      <trkpt lat="46.80727" lon="0.40174">
        <ele>-11.88</ele>
        <time>2023-10-15T06:32:01Z</time>
      </trkpt>
      <trkpt lat="46.80723" lon="0.40172">
        <ele>-11.4</ele>
        <time>2023-10-15T06:32:02Z</time>
      </trkpt>
      <trkpt lat="46.80718" lon="0.40172">
        <ele>-10.92</ele>
        <time>2023-10-15T06:32:03Z</time>
      </trkpt>
      <trkpt lat="46.80714" lon="0.40172">
        <ele>-10.92</ele>
        <time>2023-10-15T06:32:04Z</time>
      </trkpt>
      <trkpt lat="46.80672" lon="0.40177">
        <ele>-10.92</ele>
        <time>2023-10-15T06:32:11Z</time>
      </trkpt>
      <trkpt lat="46.80619" lon="0.40184">
        <ele>-11.4</ele>
        <time>2023-10-15T06:32:20Z</time>
      </trkpt>
      <trkpt lat="46.80575" lon="0.40188">
        <ele>-11.4</ele>
        <time>2023-10-15T06:32:27Z</time>
      </trkpt>
      <trkpt lat="46.80533" lon="0.40192">
        <ele>-10.44</ele>
        <time>2023-10-15T06:32:34Z</time>
      </trkpt>
      <trkpt lat="46.80522" lon="0.40194">
        <ele>-10.92</ele>
        <time>2023-10-15T06:32:36Z</time>
      </trkpt>
      <trkpt lat="46.80516" lon="0.40195">
        <ele>-10.92</ele>
        <time>2023-10-15T06:32:37Z</time>
      </trkpt>
      <trkpt lat="46.8046" lon="0.40205">
        <ele>-10.44</ele>
        <time>2023-10-15T06:32:47Z</time>
      </trkpt>
      <trkpt lat="46.80417" lon="0.40211">
        <ele>-10.92</ele>
        <time>2023-10-15T06:32:55Z</time>
      </trkpt>
      <trkpt lat="46.80395" lon="0.40211">
        <ele>-10.92</ele>
        <time>2023-10-15T06:32:59Z</time>
      </trkpt>
      <trkpt lat="46.80384" lon="0.40212">
        <ele>-10.92</ele>
        <time>2023-10-15T06:33:01Z</time>
      </trkpt>
      <trkpt lat="46.80378" lon="0.40212">
        <ele>-11.4</ele>
        <time>2023-10-15T06:33:02Z</time>
      </trkpt>
      <trkpt lat="46.80351" lon="0.40211">
        <ele>-10.92</ele>
        <time>2023-10-15T06:33:07Z</time>
      </trkpt>
      <trkpt lat="46.8034" lon="0.40211">
        <ele>-10.92</ele>
        <time>2023-10-15T06:33:09Z</time>
      </trkpt>
      <trkpt lat="46.80301" lon="0.40215">
        <ele>-11.4</ele>
        <time>2023-10-15T06:33:16Z</time>
      </trkpt>
      <trkpt lat="46.80284" lon="0.40217">
        <ele>-11.4</ele>
        <time>2023-10-15T06:33:19Z</time>
      </trkpt>
      <trkpt lat="46.80279" lon="0.40218">
        <ele>-12.36</ele>
        <time>2023-10-15T06:33:20Z</time>
      </trkpt>
      <trkpt lat="46.80252" lon="0.40225">
        <ele>-11.88</ele>
        <time>2023-10-15T06:33:25Z</time>
      </trkpt>
      <trkpt lat="46.80247" lon="0.40225">
        <ele>-11.4</ele>
        <time>2023-10-15T06:33:26Z</time>
      </trkpt>
      <trkpt lat="46.80244" lon="0.40222">
        <ele>-13.32</ele>
        <time>2023-10-15T06:33:27Z</time>
      </trkpt>
      <trkpt lat="46.80242" lon="0.40219">
        <ele>-13.32</ele>
        <time>2023-10-15T06:33:28Z</time>
      </trkpt>
      <trkpt lat="46.80241" lon="0.40214">
        <ele>-12.84</ele>
        <time>2023-10-15T06:33:29Z</time>
      </trkpt>
      <trkpt lat="46.80241" lon="0.40207">
        <ele>-12.36</ele>
        <time>2023-10-15T06:33:30Z</time>
      </trkpt>
      <trkpt lat="46.8024" lon="0.402">
        <ele>-12.36</ele>
        <time>2023-10-15T06:33:31Z</time>
      </trkpt>
      <trkpt lat="46.8024" lon="0.40129">
        <ele>-12.84</ele>
        <time>2023-10-15T06:33:39Z</time>
      </trkpt>
      <trkpt lat="46.80239" lon="0.40071">
        <ele>-14.28</ele>
        <time>2023-10-15T06:33:45Z</time>
      </trkpt>
      <trkpt lat="46.80237" lon="0.40043">
        <ele>-14.28</ele>
        <time>2023-10-15T06:33:48Z</time>
      </trkpt>
      <trkpt lat="46.80237" lon="0.40024">
        <ele>-15.24</ele>
        <time>2023-10-15T06:33:50Z</time>
      </trkpt>
      <trkpt lat="46.80236" lon="0.39948">
        <ele>-14.76</ele>
        <time>2023-10-15T06:33:58Z</time>
      </trkpt>
      <trkpt lat="46.80235" lon="0.39871">
        <ele>-14.76</ele>
        <time>2023-10-15T06:34:08Z</time>
      </trkpt>
      <trkpt lat="46.80233" lon="0.39794">
        <ele>-17.17</ele>
        <time>2023-10-15T06:34:19Z</time>
      </trkpt>
      <trkpt lat="46.80231" lon="0.39769">
        <ele>-16.21</ele>
        <time>2023-10-15T06:34:24Z</time>
      </trkpt>
      <trkpt lat="46.80227" lon="0.39767">
        <ele>-16.69</ele>
        <time>2023-10-15T06:34:25Z</time>
      </trkpt>
      <trkpt lat="46.80223" lon="0.39766">
        <ele>-16.69</ele>
        <time>2023-10-15T06:34:26Z</time>
      </trkpt>
      <trkpt lat="46.80203" lon="0.39765">
        <ele>-17.65</ele>
        <time>2023-10-15T06:34:30Z</time>
      </trkpt>
      <trkpt lat="46.80187" lon="0.39761">
        <ele>-19.09</ele>
        <time>2023-10-15T06:34:33Z</time>
      </trkpt>
      <trkpt lat="46.80175" lon="0.39757">
        <ele>-20.05</ele>
        <time>2023-10-15T06:34:35Z</time>
      </trkpt>
      <trkpt lat="46.80148" lon="0.39742">
        <ele>-21.01</ele>
        <time>2023-10-15T06:34:40Z</time>
      </trkpt>
      <trkpt lat="46.80137" lon="0.39737">
        <ele>-20.53</ele>
        <time>2023-10-15T06:34:42Z</time>
      </trkpt>
      <trkpt lat="46.80131" lon="0.39736">
        <ele>-21.49</ele>
        <time>2023-10-15T06:34:43Z</time>
      </trkpt>
      <trkpt lat="46.80126" lon="0.39736">
        <ele>-21.49</ele>
        <time>2023-10-15T06:34:44Z</time>
      </trkpt>
      <trkpt lat="46.80122" lon="0.39738">
        <ele>-22.45</ele>
        <time>2023-10-15T06:34:45Z</time>
      </trkpt>
      <trkpt lat="46.80118" lon="0.39741">
        <ele>-22.45</ele>
        <time>2023-10-15T06:34:46Z</time>
      </trkpt>
      <trkpt lat="46.80114" lon="0.39746">
        <ele>-21.97</ele>
        <time>2023-10-15T06:34:47Z</time>
      </trkpt>
      <trkpt lat="46.80112" lon="0.3975">
        <ele>-22.45</ele>
        <time>2023-10-15T06:34:48Z</time>
      </trkpt>
      <trkpt lat="46.80103" lon="0.39764">
        <ele>-24.38</ele>
        <time>2023-10-15T06:34:51Z</time>
      </trkpt>
      <trkpt lat="46.80097" lon="0.39774">
        <ele>-22.93</ele>
        <time>2023-10-15T06:34:53Z</time>
      </trkpt>
      <trkpt lat="46.80091" lon="0.39783">
        <ele>-22.93</ele>
        <time>2023-10-15T06:34:55Z</time>
      </trkpt>
      <trkpt lat="46.8007" lon="0.39806">
        <ele>-24.38</ele>
        <time>2023-10-15T06:35:02Z</time>
      </trkpt>
      <trkpt lat="46.80062" lon="0.39816">
        <ele>-25.34</ele>
        <time>2023-10-15T06:35:05Z</time>
      </trkpt>
      <trkpt lat="46.80044" lon="0.39839">
        <ele>-26.78</ele>
        <time>2023-10-15T06:35:10Z</time>
      </trkpt>
      <trkpt lat="46.8001" lon="0.39868">
        <ele>-26.78</ele>
        <time>2023-10-15T06:35:18Z</time>
      </trkpt>
      <trkpt lat="46.7998" lon="0.39892">
        <ele>-28.22</ele>
        <time>2023-10-15T06:35:24Z</time>
      </trkpt>
      <trkpt lat="46.79939" lon="0.39915">
        <ele>-28.7</ele>
        <time>2023-10-15T06:35:30Z</time>
      </trkpt>
      <trkpt lat="46.79906" lon="0.3994">
        <ele>-30.14</ele>
        <time>2023-10-15T06:35:36Z</time>
      </trkpt>
      <trkpt lat="46.79901" lon="0.39944">
        <ele>-29.66</ele>
        <time>2023-10-15T06:35:37Z</time>
      </trkpt>
      <trkpt lat="46.79895" lon="0.39948">
        <ele>-29.66</ele>
        <time>2023-10-15T06:35:38Z</time>
      </trkpt>
      <trkpt lat="46.7986" lon="0.39987">
        <ele>-30.14</ele>
        <time>2023-10-15T06:35:46Z</time>
      </trkpt>
      <trkpt lat="46.79824" lon="0.40017">
        <ele>-30.62</ele>
        <time>2023-10-15T06:35:54Z</time>
      </trkpt>
      <trkpt lat="46.7982" lon="0.40016">
        <ele>-30.62</ele>
        <time>2023-10-15T06:35:55Z</time>
      </trkpt>
      <trkpt lat="46.79816" lon="0.40015">
        <ele>-31.59</ele>
        <time>2023-10-15T06:35:56Z</time>
      </trkpt>
      <trkpt lat="46.79812" lon="0.40012">
        <ele>-31.11</ele>
        <time>2023-10-15T06:35:57Z</time>
      </trkpt>
      <trkpt lat="46.79808" lon="0.40008">
        <ele>-31.59</ele>
        <time>2023-10-15T06:35:58Z</time>
      </trkpt>
      <trkpt lat="46.79806" lon="0.40002">
        <ele>-31.11</ele>
        <time>2023-10-15T06:35:59Z</time>
      </trkpt>
      <trkpt lat="46.79803" lon="0.39996">
        <ele>-31.11</ele>
        <time>2023-10-15T06:36:00Z</time>
      </trkpt>
      <trkpt lat="46.79801" lon="0.39989">
        <ele>-31.59</ele>
        <time>2023-10-15T06:36:01Z</time>
      </trkpt>
      <trkpt lat="46.79787" lon="0.39938">
        <ele>-31.11</ele>
        <time>2023-10-15T06:36:08Z</time>
      </trkpt>
      <trkpt lat="46.79769" lon="0.39893">
        <ele>-32.07</ele>
        <time>2023-10-15T06:36:15Z</time>
      </trkpt>
      <trkpt lat="46.79757" lon="0.39853">
        <ele>-31.59</ele>
        <time>2023-10-15T06:36:21Z</time>
      </trkpt>
      <trkpt lat="46.79754" lon="0.39848">
        <ele>-32.07</ele>
        <time>2023-10-15T06:36:22Z</time>
      </trkpt>
      <trkpt lat="46.79751" lon="0.39843">
        <ele>-31.59</ele>
        <time>2023-10-15T06:36:23Z</time>
      </trkpt>
      <trkpt lat="46.79747" lon="0.39838">
        <ele>-32.07</ele>
        <time>2023-10-15T06:36:24Z</time>
      </trkpt>
      <trkpt lat="46.79743" lon="0.39834">
        <ele>-32.55</ele>
        <time>2023-10-15T06:36:25Z</time>
      </trkpt>
      <trkpt lat="46.79739" lon="0.3983">
        <ele>-32.07</ele>
        <time>2023-10-15T06:36:26Z</time>
      </trkpt>
      <trkpt lat="46.79735" lon="0.39827">
        <ele>-32.55</ele>
        <time>2023-10-15T06:36:27Z</time>
      </trkpt>
      <trkpt lat="46.79697" lon="0.39792">
        <ele>-32.07</ele>
        <time>2023-10-15T06:36:36Z</time>
      </trkpt>
      <trkpt lat="46.79677" lon="0.39774">
        <ele>-32.07</ele>
        <time>2023-10-15T06:36:41Z</time>
      </trkpt>
      <trkpt lat="46.79668" lon="0.39767">
        <ele>-32.55</ele>
        <time>2023-10-15T06:36:43Z</time>
      </trkpt>
      <trkpt lat="46.79645" lon="0.39744">
        <ele>-32.55</ele>
        <time>2023-10-15T06:36:49Z</time>
      </trkpt>
      <trkpt lat="46.79641" lon="0.3974">
        <ele>-32.55</ele>
        <time>2023-10-15T06:36:50Z</time>
      </trkpt>
      <trkpt lat="46.79637" lon="0.39736">
        <ele>-32.55</ele>
        <time>2023-10-15T06:36:51Z</time>
      </trkpt>
      <trkpt lat="46.79633" lon="0.39732">
        <ele>-32.07</ele>
        <time>2023-10-15T06:36:52Z</time>
      </trkpt>
      <trkpt lat="46.7963" lon="0.39727">
        <ele>-32.55</ele>
        <time>2023-10-15T06:36:53Z</time>
      </trkpt>
      <trkpt lat="46.79606" lon="0.39704">
        <ele>-33.03</ele>
        <time>2023-10-15T06:36:59Z</time>
      </trkpt>
      <trkpt lat="46.79591" lon="0.39695">
        <ele>-32.55</ele>
        <time>2023-10-15T06:37:03Z</time>
      </trkpt>
      <trkpt lat="46.79563" lon="0.39689">
        <ele>-32.55</ele>
        <time>2023-10-15T06:37:09Z</time>
      </trkpt>
      <trkpt lat="46.79554" lon="0.39686">
        <ele>-32.55</ele>
        <time>2023-10-15T06:37:11Z</time>
      </trkpt>
      <trkpt lat="46.79535" lon="0.39672">
        <ele>-31.59</ele>
        <time>2023-10-15T06:37:16Z</time>
      </trkpt>
      <trkpt lat="46.79519" lon="0.39661">
        <ele>-32.07</ele>
        <time>2023-10-15T06:37:20Z</time>
      </trkpt>
      <trkpt lat="46.79514" lon="0.39661">
        <ele>-33.03</ele>
        <time>2023-10-15T06:37:21Z</time>
      </trkpt>
      <trkpt lat="46.79509" lon="0.39662">
        <ele>-32.07</ele>
        <time>2023-10-15T06:37:22Z</time>
      </trkpt>
      <trkpt lat="46.79505" lon="0.39665">
        <ele>-33.51</ele>
        <time>2023-10-15T06:37:23Z</time>
      </trkpt>
      <trkpt lat="46.79501" lon="0.39668">
        <ele>-33.03</ele>
        <time>2023-10-15T06:37:24Z</time>
      </trkpt>
      <trkpt lat="46.79497" lon="0.39672">
        <ele>-33.51</ele>
        <time>2023-10-15T06:37:25Z</time>
      </trkpt>
      <trkpt lat="46.79455" lon="0.39712">
        <ele>-33.51</ele>
        <time>2023-10-15T06:37:35Z</time>
      </trkpt>
      <trkpt lat="46.79412" lon="0.39749">
        <ele>-34.47</ele>
        <time>2023-10-15T06:37:45Z</time>
      </trkpt>
      <trkpt lat="46.79389" lon="0.39773">
        <ele>-33.51</ele>
        <time>2023-10-15T06:37:51Z</time>
      </trkpt>
      <trkpt lat="46.79386" lon="0.39778">
        <ele>-33.51</ele>
        <time>2023-10-15T06:37:52Z</time>
      </trkpt>
      <trkpt lat="46.79382" lon="0.39783">
        <ele>-33.03</ele>
        <time>2023-10-15T06:37:53Z</time>
      </trkpt>
      <trkpt lat="46.79376" lon="0.39792">
        <ele>-33.51</ele>
        <time>2023-10-15T06:37:55Z</time>
      </trkpt>
      <trkpt lat="46.79372" lon="0.39797">
        <ele>-33.03</ele>
        <time>2023-10-15T06:37:56Z</time>
      </trkpt>
      <trkpt lat="46.79369" lon="0.39802">
        <ele>-33.99</ele>
        <time>2023-10-15T06:37:57Z</time>
      </trkpt>
      <trkpt lat="46.79348" lon="0.39842">
        <ele>-33.99</ele>
        <time>2023-10-15T06:38:04Z</time>
      </trkpt>
      <trkpt lat="46.79324" lon="0.39902">
        <ele>-34.47</ele>
        <time>2023-10-15T06:38:13Z</time>
      </trkpt>
      <trkpt lat="46.79308" lon="0.39945">
        <ele>-33.99</ele>
        <time>2023-10-15T06:38:20Z</time>
      </trkpt>
      <trkpt lat="46.79287" lon="0.39996">
        <ele>-34.47</ele>
        <time>2023-10-15T06:38:28Z</time>
      </trkpt>
      <trkpt lat="46.79284" lon="0.40002">
        <ele>-33.51</ele>
        <time>2023-10-15T06:38:29Z</time>
      </trkpt>
      <trkpt lat="46.79272" lon="0.40036">
        <ele>-34.47</ele>
        <time>2023-10-15T06:38:34Z</time>
      </trkpt>
      <trkpt lat="46.79261" lon="0.40086">
        <ele>-34.47</ele>
        <time>2023-10-15T06:38:41Z</time>
      </trkpt>
      <trkpt lat="46.79259" lon="0.40092">
        <ele>-34.47</ele>
        <time>2023-10-15T06:38:42Z</time>
      </trkpt>
      <trkpt lat="46.7925" lon="0.40117">
        <ele>-33.99</ele>
        <time>2023-10-15T06:38:46Z</time>
      </trkpt>
      <trkpt lat="46.79241" lon="0.40133">
        <ele>-35.43</ele>
        <time>2023-10-15T06:38:51Z</time>
      </trkpt>
      <trkpt lat="46.79239" lon="0.40134">
        <ele>-33.99</ele>
        <time>2023-10-15T06:38:52Z</time>
      </trkpt>
      <trkpt lat="46.79236" lon="0.40134">
        <ele>-34.47</ele>
        <time>2023-10-15T06:38:53Z</time>
      </trkpt>
      <trkpt lat="46.79232" lon="0.40133">
        <ele>-34.47</ele>
        <time>2023-10-15T06:38:54Z</time>
      </trkpt>
      <trkpt lat="46.79229" lon="0.40133">
        <ele>-34.47</ele>
        <time>2023-10-15T06:38:55Z</time>
      </trkpt>
      <trkpt lat="46.79226" lon="0.40131">
        <ele>-33.99</ele>
        <time>2023-10-15T06:38:56Z</time>
      </trkpt>
      <trkpt lat="46.79224" lon="0.40129">
        <ele>-34.95</ele>
        <time>2023-10-15T06:38:57Z</time>
      </trkpt>
      <trkpt lat="46.79221" lon="0.40126">
        <ele>-33.99</ele>
        <time>2023-10-15T06:38:58Z</time>
      </trkpt>
      <trkpt lat="46.79218" lon="0.40123">
        <ele>-34.47</ele>
        <time>2023-10-15T06:38:59Z</time>
      </trkpt>
      <trkpt lat="46.79215" lon="0.40121">
        <ele>-34.95</ele>
        <time>2023-10-15T06:39:00Z</time>
      </trkpt>
      <trkpt lat="46.79211" lon="0.40119">
        <ele>-34.47</ele>
        <time>2023-10-15T06:39:01Z</time>
      </trkpt>
      <trkpt lat="46.79207" lon="0.40117">
        <ele>-34.95</ele>
        <time>2023-10-15T06:39:02Z</time>
      </trkpt>
      <trkpt lat="46.79204" lon="0.40114">
        <ele>-34.95</ele>
        <time>2023-10-15T06:39:03Z</time>
      </trkpt>
      <trkpt lat="46.79185" lon="0.40106">
        <ele>-34.95</ele>
        <time>2023-10-15T06:39:08Z</time>
      </trkpt>
      <trkpt lat="46.79164" lon="0.40101">
        <ele>-33.99</ele>
        <time>2023-10-15T06:39:13Z</time>
      </trkpt>
      <trkpt lat="46.7916" lon="0.401">
        <ele>-33.51</ele>
        <time>2023-10-15T06:39:14Z</time>
      </trkpt>
      <trkpt lat="46.79122" lon="0.4009">
        <ele>-33.51</ele>
        <time>2023-10-15T06:39:22Z</time>
      </trkpt>
      <trkpt lat="46.79095" lon="0.40086">
        <ele>-32.07</ele>
        <time>2023-10-15T06:39:28Z</time>
      </trkpt>
      <trkpt lat="46.79088" lon="0.40086">
        <ele>-31.59</ele>
        <time>2023-10-15T06:39:30Z</time>
      </trkpt>
      <trkpt lat="46.79067" lon="0.40076">
        <ele>-30.14</ele>
        <time>2023-10-15T06:39:36Z</time>
      </trkpt>
      <trkpt lat="46.79044" lon="0.40058">
        <ele>-29.66</ele>
        <time>2023-10-15T06:39:42Z</time>
      </trkpt>
      <trkpt lat="46.79022" lon="0.40035">
        <ele>-28.7</ele>
        <time>2023-10-15T06:39:48Z</time>
      </trkpt>
      <trkpt lat="46.78999" lon="0.40014">
        <ele>-28.7</ele>
        <time>2023-10-15T06:39:55Z</time>
      </trkpt>
      <trkpt lat="46.7899" lon="0.40004">
        <ele>-29.18</ele>
        <time>2023-10-15T06:40:00Z</time>
      </trkpt>
      <trkpt lat="46.78978" lon="0.39995">
        <ele>-31.11</ele>
        <time>2023-10-15T06:40:04Z</time>
      </trkpt>
      <trkpt lat="46.78972" lon="0.39989">
        <ele>-31.11</ele>
        <time>2023-10-15T06:40:06Z</time>
      </trkpt>
      <trkpt lat="46.78952" lon="0.39978">
        <ele>-31.59</ele>
        <time>2023-10-15T06:40:12Z</time>
      </trkpt>
      <trkpt lat="46.78944" lon="0.39973">
        <ele>-32.07</ele>
        <time>2023-10-15T06:40:14Z</time>
      </trkpt>
      <trkpt lat="46.78932" lon="0.39961">
        <ele>-31.59</ele>
        <time>2023-10-15T06:40:17Z</time>
      </trkpt>
      <trkpt lat="46.789" lon="0.39933">
        <ele>-32.07</ele>
        <time>2023-10-15T06:40:24Z</time>
      </trkpt>
      <trkpt lat="46.78866" lon="0.39904">
        <ele>-33.03</ele>
        <time>2023-10-15T06:40:31Z</time>
      </trkpt>
      <trkpt lat="46.78859" lon="0.39895">
        <ele>-33.51</ele>
        <time>2023-10-15T06:40:33Z</time>
      </trkpt>
      <trkpt lat="46.78855" lon="0.3989">
        <ele>-32.55</ele>
        <time>2023-10-15T06:40:34Z</time>
      </trkpt>
      <trkpt lat="46.78851" lon="0.39885">
        <ele>-32.55</ele>
        <time>2023-10-15T06:40:35Z</time>
      </trkpt>
      <trkpt lat="46.78825" lon="0.39858">
        <ele>-32.55</ele>
        <time>2023-10-15T06:40:42Z</time>
      </trkpt>
      <trkpt lat="46.78805" lon="0.39844">
        <ele>-31.59</ele>
        <time>2023-10-15T06:40:48Z</time>
      </trkpt>
      <trkpt lat="46.78803" lon="0.39845">
        <ele>-31.59</ele>
        <time>2023-10-15T06:40:49Z</time>
      </trkpt>
      <trkpt lat="46.78801" lon="0.39846">
        <ele>-32.07</ele>
        <time>2023-10-15T06:40:50Z</time>
      </trkpt>
      <trkpt lat="46.788" lon="0.39849">
        <ele>-31.11</ele>
        <time>2023-10-15T06:40:51Z</time>
      </trkpt>
      <trkpt lat="46.78798" lon="0.39852">
        <ele>-32.07</ele>
        <time>2023-10-15T06:40:52Z</time>
      </trkpt>
      <trkpt lat="46.78796" lon="0.39856">
        <ele>-31.59</ele>
        <time>2023-10-15T06:40:53Z</time>
      </trkpt>
      <trkpt lat="46.78795" lon="0.3986">
        <ele>-31.11</ele>
        <time>2023-10-15T06:40:54Z</time>
      </trkpt>
      <trkpt lat="46.78788" lon="0.39886">
        <ele>-31.11</ele>
        <time>2023-10-15T06:40:59Z</time>
      </trkpt>
      <trkpt lat="46.78786" lon="0.39892">
        <ele>-31.59</ele>
        <time>2023-10-15T06:41:00Z</time>
      </trkpt>
      <trkpt lat="46.78774" lon="0.39935">
        <ele>-31.59</ele>
        <time>2023-10-15T06:41:07Z</time>
      </trkpt>
      <trkpt lat="46.78756" lon="0.39976">
        <ele>-32.07</ele>
        <time>2023-10-15T06:41:14Z</time>
      </trkpt>
      <trkpt lat="46.78752" lon="0.39981">
        <ele>-31.59</ele>
        <time>2023-10-15T06:41:15Z</time>
      </trkpt>
      <trkpt lat="46.78728" lon="0.40005">
        <ele>-31.11</ele>
        <time>2023-10-15T06:41:21Z</time>
      </trkpt>
      <trkpt lat="46.78692" lon="0.40036">
        <ele>-32.07</ele>
        <time>2023-10-15T06:41:29Z</time>
      </trkpt>
      <trkpt lat="46.78683" lon="0.40044">
        <ele>-33.51</ele>
        <time>2023-10-15T06:41:31Z</time>
      </trkpt>
      <trkpt lat="46.78678" lon="0.40047">
        <ele>-33.51</ele>
        <time>2023-10-15T06:41:32Z</time>
      </trkpt>
      <trkpt lat="46.78673" lon="0.40049">
        <ele>-33.51</ele>
        <time>2023-10-15T06:41:33Z</time>
      </trkpt>
      <trkpt lat="46.7864" lon="0.40074">
        <ele>-33.99</ele>
        <time>2023-10-15T06:41:40Z</time>
      </trkpt>
      <trkpt lat="46.78635" lon="0.40078">
        <ele>-33.99</ele>
        <time>2023-10-15T06:41:41Z</time>
      </trkpt>
      <trkpt lat="46.78631" lon="0.40082">
        <ele>-33.99</ele>
        <time>2023-10-15T06:41:42Z</time>
      </trkpt>
      <trkpt lat="46.78594" lon="0.40126">
        <ele>-34.47</ele>
        <time>2023-10-15T06:41:51Z</time>
      </trkpt>
      <trkpt lat="46.78578" lon="0.40151">
        <ele>-34.95</ele>
        <time>2023-10-15T06:41:57Z</time>
      </trkpt>
      <trkpt lat="46.78571" lon="0.40184">
        <ele>-33.51</ele>
        <time>2023-10-15T06:42:04Z</time>
      </trkpt>
      <trkpt lat="46.78566" lon="0.40217">
        <ele>-33.51</ele>
        <time>2023-10-15T06:42:10Z</time>
      </trkpt>
      <trkpt lat="46.78555" lon="0.40273">
        <ele>-32.55</ele>
        <time>2023-10-15T06:42:19Z</time>
      </trkpt>
      <trkpt lat="46.78545" lon="0.40324">
        <ele>-32.55</ele>
        <time>2023-10-15T06:42:27Z</time>
      </trkpt>
      <trkpt lat="46.78531" lon="0.40386">
        <ele>-32.07</ele>
        <time>2023-10-15T06:42:36Z</time>
      </trkpt>
      <trkpt lat="46.78525" lon="0.40415">
        <ele>-32.07</ele>
        <time>2023-10-15T06:42:40Z</time>
      </trkpt>
      <trkpt lat="46.78523" lon="0.40431">
        <ele>-32.55</ele>
        <time>2023-10-15T06:42:42Z</time>
      </trkpt>
      <trkpt lat="46.7852" lon="0.4052">
        <ele>-33.99</ele>
        <time>2023-10-15T06:42:53Z</time>
      </trkpt>
      <trkpt lat="46.7852" lon="0.40528">
        <ele>-34.47</ele>
        <time>2023-10-15T06:42:54Z</time>
      </trkpt>
      <trkpt lat="46.7852" lon="0.40536">
        <ele>-33.99</ele>
        <time>2023-10-15T06:42:55Z</time>
      </trkpt>
      <trkpt lat="46.7852" lon="0.40551">
        <ele>-34.47</ele>
        <time>2023-10-15T06:42:57Z</time>
      </trkpt>
      <trkpt lat="46.7852" lon="0.40559">
        <ele>-34.95</ele>
        <time>2023-10-15T06:42:58Z</time>
      </trkpt>
      <trkpt lat="46.7852" lon="0.40639">
        <ele>-34.95</ele>
        <time>2023-10-15T06:43:08Z</time>
      </trkpt>
      <trkpt lat="46.7852" lon="0.40661">
        <ele>-35.43</ele>
        <time>2023-10-15T06:43:11Z</time>
      </trkpt>
      <trkpt lat="46.78518" lon="0.40683">
        <ele>-35.43</ele>
        <time>2023-10-15T06:43:14Z</time>
      </trkpt>
      <trkpt lat="46.78518" lon="0.4069">
        <ele>-35.43</ele>
        <time>2023-10-15T06:43:15Z</time>
      </trkpt>
      <trkpt lat="46.78518" lon="0.4071">
        <ele>-35.91</ele>
        <time>2023-10-15T06:43:18Z</time>
      </trkpt>
      <trkpt lat="46.78518" lon="0.40749">
        <ele>-36.39</ele>
        <time>2023-10-15T06:43:23Z</time>
      </trkpt>
      <trkpt lat="46.78516" lon="0.40782">
        <ele>-35.43</ele>
        <time>2023-10-15T06:43:27Z</time>
      </trkpt>
      <trkpt lat="46.78516" lon="0.4079">
        <ele>-36.39</ele>
        <time>2023-10-15T06:43:28Z</time>
      </trkpt>
      <trkpt lat="46.78519" lon="0.40816">
        <ele>-36.39</ele>
        <time>2023-10-15T06:43:31Z</time>
      </trkpt>
      <trkpt lat="46.78524" lon="0.40842">
        <ele>-36.39</ele>
        <time>2023-10-15T06:43:34Z</time>
      </trkpt>
      <trkpt lat="46.78526" lon="0.4085">
        <ele>-36.87</ele>
        <time>2023-10-15T06:43:35Z</time>
      </trkpt>
      <trkpt lat="46.78527" lon="0.40859">
        <ele>-37.83</ele>
        <time>2023-10-15T06:43:36Z</time>
      </trkpt>
      <trkpt lat="46.78536" lon="0.40906">
        <ele>-36.87</ele>
        <time>2023-10-15T06:43:42Z</time>
      </trkpt>
      <trkpt lat="46.78547" lon="0.40952">
        <ele>-36.39</ele>
        <time>2023-10-15T06:43:48Z</time>
      </trkpt>
      <trkpt lat="46.78548" lon="0.40961">
        <ele>-36.87</ele>
        <time>2023-10-15T06:43:49Z</time>
      </trkpt>
      <trkpt lat="46.78548" lon="0.40969">
        <ele>-36.39</ele>
        <time>2023-10-15T06:43:50Z</time>
      </trkpt>
      <trkpt lat="46.78547" lon="0.40978">
        <ele>-36.87</ele>
        <time>2023-10-15T06:43:51Z</time>
      </trkpt>
      <trkpt lat="46.78546" lon="0.40987">
        <ele>-37.35</ele>
        <time>2023-10-15T06:43:52Z</time>
      </trkpt>
      <trkpt lat="46.78543" lon="0.41003">
        <ele>-36.87</ele>
        <time>2023-10-15T06:43:54Z</time>
      </trkpt>
      <trkpt lat="46.78532" lon="0.4105">
        <ele>-37.35</ele>
        <time>2023-10-15T06:44:00Z</time>
      </trkpt>
      <trkpt lat="46.78523" lon="0.41073">
        <ele>-37.35</ele>
        <time>2023-10-15T06:44:03Z</time>
      </trkpt>
      <trkpt lat="46.78521" lon="0.41081">
        <ele>-37.35</ele>
        <time>2023-10-15T06:44:04Z</time>
      </trkpt>
      <trkpt lat="46.78521" lon="0.41089">
        <ele>-37.83</ele>
        <time>2023-10-15T06:44:05Z</time>
      </trkpt>
      <trkpt lat="46.78522" lon="0.41096">
        <ele>-36.87</ele>
        <time>2023-10-15T06:44:06Z</time>
      </trkpt>
      <trkpt lat="46.78523" lon="0.41104">
        <ele>-37.83</ele>
        <time>2023-10-15T06:44:07Z</time>
      </trkpt>
      <trkpt lat="46.78525" lon="0.41111">
        <ele>-37.35</ele>
        <time>2023-10-15T06:44:08Z</time>
      </trkpt>
      <trkpt lat="46.78528" lon="0.41118">
        <ele>-37.35</ele>
        <time>2023-10-15T06:44:09Z</time>
      </trkpt>
      <trkpt lat="46.7853" lon="0.41125">
        <ele>-37.35</ele>
        <time>2023-10-15T06:44:10Z</time>
      </trkpt>
      <trkpt lat="46.78536" lon="0.41148">
        <ele>-38.32</ele>
        <time>2023-10-15T06:44:13Z</time>
      </trkpt>
      <trkpt lat="46.78537" lon="0.41157">
        <ele>-38.32</ele>
        <time>2023-10-15T06:44:14Z</time>
      </trkpt>
      <trkpt lat="46.78538" lon="0.41165">
        <ele>-36.87</ele>
        <time>2023-10-15T06:44:15Z</time>
      </trkpt>
      <trkpt lat="46.78538" lon="0.41173">
        <ele>-37.35</ele>
        <time>2023-10-15T06:44:16Z</time>
      </trkpt>
      <trkpt lat="46.78538" lon="0.41181">
        <ele>-36.87</ele>
        <time>2023-10-15T06:44:17Z</time>
      </trkpt>
      <trkpt lat="46.78537" lon="0.41189">
        <ele>-37.35</ele>
        <time>2023-10-15T06:44:18Z</time>
      </trkpt>
      <trkpt lat="46.78536" lon="0.41196">
        <ele>-37.83</ele>
        <time>2023-10-15T06:44:19Z</time>
      </trkpt>
      <trkpt lat="46.78534" lon="0.41203">
        <ele>-37.83</ele>
        <time>2023-10-15T06:44:20Z</time>
      </trkpt>
      <trkpt lat="46.78534" lon="0.4121">
        <ele>-38.32</ele>
        <time>2023-10-15T06:44:21Z</time>
      </trkpt>
      <trkpt lat="46.78535" lon="0.41217">
        <ele>-37.83</ele>
        <time>2023-10-15T06:44:22Z</time>
      </trkpt>
      <trkpt lat="46.78537" lon="0.41224">
        <ele>-37.35</ele>
        <time>2023-10-15T06:44:23Z</time>
      </trkpt>
      <trkpt lat="46.7854" lon="0.4123">
        <ele>-37.35</ele>
        <time>2023-10-15T06:44:24Z</time>
      </trkpt>
      <trkpt lat="46.78547" lon="0.4125">
        <ele>-38.32</ele>
        <time>2023-10-15T06:44:27Z</time>
      </trkpt>
      <trkpt lat="46.7855" lon="0.41256">
        <ele>-38.32</ele>
        <time>2023-10-15T06:44:28Z</time>
      </trkpt>
      <trkpt lat="46.78571" lon="0.4131">
        <ele>-38.8</ele>
        <time>2023-10-15T06:44:36Z</time>
      </trkpt>
      <trkpt lat="46.78573" lon="0.41318">
        <ele>-38.8</ele>
        <time>2023-10-15T06:44:37Z</time>
      </trkpt>
      <trkpt lat="46.78575" lon="0.41326">
        <ele>-38.8</ele>
        <time>2023-10-15T06:44:38Z</time>
      </trkpt>
      <trkpt lat="46.78575" lon="0.41334">
        <ele>-37.83</ele>
        <time>2023-10-15T06:44:39Z</time>
      </trkpt>
      <trkpt lat="46.78576" lon="0.41342">
        <ele>-37.35</ele>
        <time>2023-10-15T06:44:40Z</time>
      </trkpt>
      <trkpt lat="46.78575" lon="0.4135">
        <ele>-38.32</ele>
        <time>2023-10-15T06:44:41Z</time>
      </trkpt>
      <trkpt lat="46.78575" lon="0.41357">
        <ele>-38.8</ele>
        <time>2023-10-15T06:44:42Z</time>
      </trkpt>
      <trkpt lat="46.78574" lon="0.41364">
        <ele>-38.8</ele>
        <time>2023-10-15T06:44:43Z</time>
      </trkpt>
      <trkpt lat="46.78572" lon="0.41387">
        <ele>-37.35</ele>
        <time>2023-10-15T06:44:46Z</time>
      </trkpt>
      <trkpt lat="46.78562" lon="0.41452">
        <ele>-37.35</ele>
        <time>2023-10-15T06:44:54Z</time>
      </trkpt>
      <trkpt lat="46.78546" lon="0.41532">
        <ele>-38.32</ele>
        <time>2023-10-15T06:45:04Z</time>
      </trkpt>
      <trkpt lat="46.78537" lon="0.41597">
        <ele>-37.83</ele>
        <time>2023-10-15T06:45:12Z</time>
      </trkpt>
      <trkpt lat="46.78532" lon="0.41655">
        <ele>-38.32</ele>
        <time>2023-10-15T06:45:19Z</time>
      </trkpt>
      <trkpt lat="46.78532" lon="0.41663">
        <ele>-37.83</ele>
        <time>2023-10-15T06:45:20Z</time>
      </trkpt>
      <trkpt lat="46.78533" lon="0.41671">
        <ele>-37.35</ele>
        <time>2023-10-15T06:45:21Z</time>
      </trkpt>
      <trkpt lat="46.78544" lon="0.41734">
        <ele>-36.87</ele>
        <time>2023-10-15T06:45:29Z</time>
      </trkpt>
      <trkpt lat="46.78561" lon="0.41802">
        <ele>-37.83</ele>
        <time>2023-10-15T06:45:38Z</time>
      </trkpt>
      <trkpt lat="46.78588" lon="0.41881">
        <ele>-36.87</ele>
        <time>2023-10-15T06:45:49Z</time>
      </trkpt>
      <trkpt lat="46.78615" lon="0.41964">
        <ele>-37.35</ele>
        <time>2023-10-15T06:46:00Z</time>
      </trkpt>
      <trkpt lat="46.7864" lon="0.42041">
        <ele>-36.87</ele>
        <time>2023-10-15T06:46:11Z</time>
      </trkpt>
      <trkpt lat="46.78656" lon="0.42091">
        <ele>-36.87</ele>
        <time>2023-10-15T06:46:19Z</time>
      </trkpt>
      <trkpt lat="46.78658" lon="0.42096">
        <ele>-36.87</ele>
        <time>2023-10-15T06:46:20Z</time>
      </trkpt>
      <trkpt lat="46.78674" lon="0.42142">
        <ele>-37.83</ele>
        <time>2023-10-15T06:46:28Z</time>
      </trkpt>
      <trkpt lat="46.78693" lon="0.42198">
        <ele>-36.87</ele>
        <time>2023-10-15T06:46:36Z</time>
      </trkpt>
      <trkpt lat="46.78709" lon="0.4226">
        <ele>-36.87</ele>
        <time>2023-10-15T06:46:44Z</time>
      </trkpt>
      <trkpt lat="46.78726" lon="0.42339">
        <ele>-37.83</ele>
        <time>2023-10-15T06:46:54Z</time>
      </trkpt>
      <trkpt lat="46.78739" lon="0.424">
        <ele>-36.87</ele>
        <time>2023-10-15T06:47:02Z</time>
      </trkpt>
      <trkpt lat="46.78756" lon="0.42476">
        <ele>-37.35</ele>
        <time>2023-10-15T06:47:12Z</time>
      </trkpt>
      <trkpt lat="46.78775" lon="0.4256">
        <ele>-38.32</ele>
        <time>2023-10-15T06:47:23Z</time>
      </trkpt>
      <trkpt lat="46.78791" lon="0.42635">
        <ele>-37.83</ele>
        <time>2023-10-15T06:47:33Z</time>
      </trkpt>
      <trkpt lat="46.78805" lon="0.42701">
        <ele>-37.35</ele>
        <time>2023-10-15T06:47:42Z</time>
      </trkpt>
      <trkpt lat="46.78814" lon="0.42731">
        <ele>-37.83</ele>
        <time>2023-10-15T06:47:46Z</time>
      </trkpt>
      <trkpt lat="46.78823" lon="0.42751">
        <ele>-38.8</ele>
        <time>2023-10-15T06:47:49Z</time>
      </trkpt>
      <trkpt lat="46.78847" lon="0.42814">
        <ele>-37.83</ele>
        <time>2023-10-15T06:47:58Z</time>
      </trkpt>
      <trkpt lat="46.78859" lon="0.42841">
        <ele>-38.32</ele>
        <time>2023-10-15T06:48:02Z</time>
      </trkpt>
      <trkpt lat="46.78861" lon="0.42848">
        <ele>-37.83</ele>
        <time>2023-10-15T06:48:03Z</time>
      </trkpt>
      <trkpt lat="46.78868" lon="0.42863">
        <ele>-37.83</ele>
        <time>2023-10-15T06:48:05Z</time>
      </trkpt>
      <trkpt lat="46.78871" lon="0.4287">
        <ele>-37.83</ele>
        <time>2023-10-15T06:48:06Z</time>
      </trkpt>
      <trkpt lat="46.78885" lon="0.42895">
        <ele>-39.28</ele>
        <time>2023-10-15T06:48:10Z</time>
      </trkpt>
      <trkpt lat="46.78889" lon="0.429">
        <ele>-38.32</ele>
        <time>2023-10-15T06:48:11Z</time>
      </trkpt>
      <trkpt lat="46.78894" lon="0.42904">
        <ele>-36.87</ele>
        <time>2023-10-15T06:48:12Z</time>
      </trkpt>
      <trkpt lat="46.78898" lon="0.42908">
        <ele>-36.87</ele>
        <time>2023-10-15T06:48:13Z</time>
      </trkpt>
      <trkpt lat="46.78934" lon="0.42942">
        <ele>-37.35</ele>
        <time>2023-10-15T06:48:21Z</time>
      </trkpt>
      <trkpt lat="46.78945" lon="0.42955">
        <ele>-37.35</ele>
        <time>2023-10-15T06:48:24Z</time>
      </trkpt>
      <trkpt lat="46.78946" lon="0.42962">
        <ele>-36.87</ele>
        <time>2023-10-15T06:48:25Z</time>
      </trkpt>
      <trkpt lat="46.78946" lon="0.42969">
        <ele>-37.83</ele>
        <time>2023-10-15T06:48:26Z</time>
      </trkpt>
      <trkpt lat="46.78946" lon="0.42976">
        <ele>-37.83</ele>
        <time>2023-10-15T06:48:27Z</time>
      </trkpt>
      <trkpt lat="46.78946" lon="0.42983">
        <ele>-37.83</ele>
        <time>2023-10-15T06:48:28Z</time>
      </trkpt>
      <trkpt lat="46.78942" lon="0.43059">
        <ele>-37.83</ele>
        <time>2023-10-15T06:48:38Z</time>
      </trkpt>
      <trkpt lat="46.78937" lon="0.43141">
        <ele>-37.83</ele>
        <time>2023-10-15T06:48:48Z</time>
      </trkpt>
      <trkpt lat="46.78935" lon="0.43164">
        <ele>-37.83</ele>
        <time>2023-10-15T06:48:51Z</time>
      </trkpt>
      <trkpt lat="46.78931" lon="0.43179">
        <ele>-38.32</ele>
        <time>2023-10-15T06:48:53Z</time>
      </trkpt>
      <trkpt lat="46.78911" lon="0.43234">
        <ele>-36.87</ele>
        <time>2023-10-15T06:49:01Z</time>
      </trkpt>
      <trkpt lat="46.78906" lon="0.43247">
        <ele>-37.83</ele>
        <time>2023-10-15T06:49:03Z</time>
      </trkpt>
      <trkpt lat="46.78894" lon="0.43296">
        <ele>-36.87</ele>
        <time>2023-10-15T06:49:10Z</time>
      </trkpt>
      <trkpt lat="46.78891" lon="0.4331">
        <ele>-35.91</ele>
        <time>2023-10-15T06:49:12Z</time>
      </trkpt>
      <trkpt lat="46.78886" lon="0.43355">
        <ele>-36.87</ele>
        <time>2023-10-15T06:49:18Z</time>
      </trkpt>
      <trkpt lat="46.78887" lon="0.434">
        <ele>-36.87</ele>
        <time>2023-10-15T06:49:24Z</time>
      </trkpt>
      <trkpt lat="46.78888" lon="0.43414">
        <ele>-36.39</ele>
        <time>2023-10-15T06:49:26Z</time>
      </trkpt>
      <trkpt lat="46.78892" lon="0.43459">
        <ele>-36.39</ele>
        <time>2023-10-15T06:49:32Z</time>
      </trkpt>
      <trkpt lat="46.78894" lon="0.43517">
        <ele>-37.83</ele>
        <time>2023-10-15T06:49:39Z</time>
      </trkpt>
      <trkpt lat="46.78897" lon="0.43557">
        <ele>-38.8</ele>
        <time>2023-10-15T06:49:44Z</time>
      </trkpt>
      <trkpt lat="46.78913" lon="0.43616">
        <ele>-37.83</ele>
        <time>2023-10-15T06:49:52Z</time>
      </trkpt>
      <trkpt lat="46.78927" lon="0.43656">
        <ele>-37.83</ele>
        <time>2023-10-15T06:49:58Z</time>
      </trkpt>
      <trkpt lat="46.78931" lon="0.43661">
        <ele>-37.83</ele>
        <time>2023-10-15T06:49:59Z</time>
      </trkpt>
      <trkpt lat="46.78935" lon="0.43665">
        <ele>-37.83</ele>
        <time>2023-10-15T06:50:00Z</time>
      </trkpt>
      <trkpt lat="46.7894" lon="0.43668">
        <ele>-38.32</ele>
        <time>2023-10-15T06:50:01Z</time>
      </trkpt>
      <trkpt lat="46.78945" lon="0.43669">
        <ele>-38.32</ele>
        <time>2023-10-15T06:50:02Z</time>
      </trkpt>
      <trkpt lat="46.7895" lon="0.43672">
        <ele>-38.32</ele>
        <time>2023-10-15T06:50:03Z</time>
      </trkpt>
      <trkpt lat="46.78955" lon="0.43675">
        <ele>-37.83</ele>
        <time>2023-10-15T06:50:04Z</time>
      </trkpt>
      <trkpt lat="46.78958" lon="0.43679">
        <ele>-38.32</ele>
        <time>2023-10-15T06:50:05Z</time>
      </trkpt>
      <trkpt lat="46.78975" lon="0.43712">
        <ele>-38.32</ele>
        <time>2023-10-15T06:50:11Z</time>
      </trkpt>
      <trkpt lat="46.7898" lon="0.4373">
        <ele>-38.32</ele>
        <time>2023-10-15T06:50:14Z</time>
      </trkpt>
      <trkpt lat="46.78988" lon="0.43747">
        <ele>-37.35</ele>
        <time>2023-10-15T06:50:17Z</time>
      </trkpt>
      <trkpt lat="46.78993" lon="0.43758">
        <ele>-38.32</ele>
        <time>2023-10-15T06:50:19Z</time>
      </trkpt>
      <trkpt lat="46.79013" lon="0.4379">
        <ele>-37.83</ele>
        <time>2023-10-15T06:50:25Z</time>
      </trkpt>
      <trkpt lat="46.79016" lon="0.43796">
        <ele>-37.83</ele>
        <time>2023-10-15T06:50:26Z</time>
      </trkpt>
      <trkpt lat="46.79019" lon="0.43801">
        <ele>-37.35</ele>
        <time>2023-10-15T06:50:27Z</time>
      </trkpt>
      <trkpt lat="46.79021" lon="0.43807">
        <ele>-37.35</ele>
        <time>2023-10-15T06:50:28Z</time>
      </trkpt>
      <trkpt lat="46.79026" lon="0.43813">
        <ele>-37.83</ele>
        <time>2023-10-15T06:50:29Z</time>
      </trkpt>
      <trkpt lat="46.7903" lon="0.43819">
        <ele>-36.87</ele>
        <time>2023-10-15T06:50:30Z</time>
      </trkpt>
      <trkpt lat="46.79034" lon="0.43825">
        <ele>-36.87</ele>
        <time>2023-10-15T06:50:31Z</time>
      </trkpt>
      <trkpt lat="46.79038" lon="0.43831">
        <ele>-37.35</ele>
        <time>2023-10-15T06:50:32Z</time>
      </trkpt>
      <trkpt lat="46.79043" lon="0.43836">
        <ele>-37.83</ele>
        <time>2023-10-15T06:50:33Z</time>
      </trkpt>
      <trkpt lat="46.79047" lon="0.43842">
        <ele>-37.83</ele>
        <time>2023-10-15T06:50:34Z</time>
      </trkpt>
      <trkpt lat="46.79052" lon="0.43848">
        <ele>-38.32</ele>
        <time>2023-10-15T06:50:35Z</time>
      </trkpt>
      <trkpt lat="46.79066" lon="0.43863">
        <ele>-37.83</ele>
        <time>2023-10-15T06:50:38Z</time>
      </trkpt>
      <trkpt lat="46.79098" lon="0.43896">
        <ele>-37.35</ele>
        <time>2023-10-15T06:50:45Z</time>
      </trkpt>
      <trkpt lat="46.79133" lon="0.43931">
        <ele>-37.35</ele>
        <time>2023-10-15T06:50:53Z</time>
      </trkpt>
      <trkpt lat="46.79138" lon="0.43935">
        <ele>-37.35</ele>
        <time>2023-10-15T06:50:54Z</time>
      </trkpt>
      <trkpt lat="46.79174" lon="0.43973">
        <ele>-37.83</ele>
        <time>2023-10-15T06:51:02Z</time>
      </trkpt>
      <trkpt lat="46.79183" lon="0.43983">
        <ele>-37.35</ele>
        <time>2023-10-15T06:51:04Z</time>
      </trkpt>
      <trkpt lat="46.79187" lon="0.43988">
        <ele>-37.35</ele>
        <time>2023-10-15T06:51:05Z</time>
      </trkpt>
      <trkpt lat="46.79206" lon="0.44008">
        <ele>-36.87</ele>
        <time>2023-10-15T06:51:09Z</time>
      </trkpt>
      <trkpt lat="46.79211" lon="0.44013">
        <ele>-37.35</ele>
        <time>2023-10-15T06:51:10Z</time>
      </trkpt>
      <trkpt lat="46.79244" lon="0.44047">
        <ele>-37.35</ele>
        <time>2023-10-15T06:51:17Z</time>
      </trkpt>
      <trkpt lat="46.7927" lon="0.44076">
        <ele>-37.35</ele>
        <time>2023-10-15T06:51:23Z</time>
      </trkpt>
      <trkpt lat="46.79274" lon="0.44082">
        <ele>-37.35</ele>
        <time>2023-10-15T06:51:24Z</time>
      </trkpt>
      <trkpt lat="46.79298" lon="0.4412">
        <ele>-36.87</ele>
        <time>2023-10-15T06:51:31Z</time>
      </trkpt>
      <trkpt lat="46.79301" lon="0.44126">
        <ele>-36.87</ele>
        <time>2023-10-15T06:51:32Z</time>
      </trkpt>
      <trkpt lat="46.79308" lon="0.44137">
        <ele>-37.35</ele>
        <time>2023-10-15T06:51:34Z</time>
      </trkpt>
      <trkpt lat="46.79314" lon="0.44142">
        <ele>-37.83</ele>
        <time>2023-10-15T06:51:35Z</time>
      </trkpt>
      <trkpt lat="46.79348" lon="0.44176">
        <ele>-36.87</ele>
        <time>2023-10-15T06:51:42Z</time>
      </trkpt>
      <trkpt lat="46.79356" lon="0.44187">
        <ele>-37.35</ele>
        <time>2023-10-15T06:51:44Z</time>
      </trkpt>
      <trkpt lat="46.79374" lon="0.44218">
        <ele>-38.32</ele>
        <time>2023-10-15T06:51:49Z</time>
      </trkpt>
      <trkpt lat="46.79378" lon="0.44224">
        <ele>-37.35</ele>
        <time>2023-10-15T06:51:50Z</time>
      </trkpt>
      <trkpt lat="46.79387" lon="0.44235">
        <ele>-38.32</ele>
        <time>2023-10-15T06:51:52Z</time>
      </trkpt>
      <trkpt lat="46.79397" lon="0.44244">
        <ele>-37.35</ele>
        <time>2023-10-15T06:51:54Z</time>
      </trkpt>
      <trkpt lat="46.79402" lon="0.44248">
        <ele>-37.35</ele>
        <time>2023-10-15T06:51:55Z</time>
      </trkpt>
      <trkpt lat="46.79407" lon="0.44252">
        <ele>-37.83</ele>
        <time>2023-10-15T06:51:56Z</time>
      </trkpt>
      <trkpt lat="46.79444" lon="0.4428">
        <ele>-37.35</ele>
        <time>2023-10-15T06:52:03Z</time>
      </trkpt>
      <trkpt lat="46.79449" lon="0.44284">
        <ele>-36.39</ele>
        <time>2023-10-15T06:52:04Z</time>
      </trkpt>
      <trkpt lat="46.79454" lon="0.44289">
        <ele>-38.32</ele>
        <time>2023-10-15T06:52:05Z</time>
      </trkpt>
      <trkpt lat="46.795" lon="0.44329">
        <ele>-39.28</ele>
        <time>2023-10-15T06:52:14Z</time>
      </trkpt>
      <trkpt lat="46.79534" lon="0.44362">
        <ele>-38.8</ele>
        <time>2023-10-15T06:52:22Z</time>
      </trkpt>
      <trkpt lat="46.79562" lon="0.44387">
        <ele>-39.76</ele>
        <time>2023-10-15T06:52:28Z</time>
      </trkpt>
      <trkpt lat="46.79565" lon="0.44392">
        <ele>-39.76</ele>
        <time>2023-10-15T06:52:29Z</time>
      </trkpt>
      <trkpt lat="46.79567" lon="0.44396">
        <ele>-39.76</ele>
        <time>2023-10-15T06:52:30Z</time>
      </trkpt>
      <trkpt lat="46.79568" lon="0.44401">
        <ele>-40.24</ele>
        <time>2023-10-15T06:52:31Z</time>
      </trkpt>
      <trkpt lat="46.79569" lon="0.44405">
        <ele>-39.76</ele>
        <time>2023-10-15T06:52:32Z</time>
      </trkpt>
      <trkpt lat="46.79569" lon="0.4441">
        <ele>-39.76</ele>
        <time>2023-10-15T06:52:33Z</time>
      </trkpt>
      <trkpt lat="46.79571" lon="0.4442">
        <ele>-38.8</ele>
        <time>2023-10-15T06:52:35Z</time>
      </trkpt>
      <trkpt lat="46.79574" lon="0.44424">
        <ele>-38.8</ele>
        <time>2023-10-15T06:52:36Z</time>
      </trkpt>
      <trkpt lat="46.79579" lon="0.44427">
        <ele>-39.76</ele>
        <time>2023-10-15T06:52:37Z</time>
      </trkpt>
      <trkpt lat="46.79612" lon="0.44451">
        <ele>-40.24</ele>
        <time>2023-10-15T06:52:44Z</time>
      </trkpt>
      <trkpt lat="46.79621" lon="0.4446">
        <ele>-40.24</ele>
        <time>2023-10-15T06:52:46Z</time>
      </trkpt>
      <trkpt lat="46.79625" lon="0.44466">
        <ele>-39.76</ele>
        <time>2023-10-15T06:52:47Z</time>
      </trkpt>
      <trkpt lat="46.79648" lon="0.44504">
        <ele>-39.76</ele>
        <time>2023-10-15T06:52:54Z</time>
      </trkpt>
      <trkpt lat="46.7967" lon="0.44537">
        <ele>-39.76</ele>
        <time>2023-10-15T06:53:00Z</time>
      </trkpt>
      <trkpt lat="46.79681" lon="0.44552">
        <ele>-39.28</ele>
        <time>2023-10-15T06:53:03Z</time>
      </trkpt>
      <trkpt lat="46.79709" lon="0.44588">
        <ele>-38.8</ele>
        <time>2023-10-15T06:53:11Z</time>
      </trkpt>
      <trkpt lat="46.79712" lon="0.44592">
        <ele>-38.8</ele>
        <time>2023-10-15T06:53:12Z</time>
      </trkpt>
      <trkpt lat="46.79715" lon="0.44596">
        <ele>-37.35</ele>
        <time>2023-10-15T06:53:13Z</time>
      </trkpt>
      <trkpt lat="46.79718" lon="0.446">
        <ele>-38.32</ele>
        <time>2023-10-15T06:53:14Z</time>
      </trkpt>
      <trkpt lat="46.79721" lon="0.44605">
        <ele>-37.35</ele>
        <time>2023-10-15T06:53:15Z</time>
      </trkpt>
      <trkpt lat="46.79725" lon="0.4461">
        <ele>-36.87</ele>
        <time>2023-10-15T06:53:16Z</time>
      </trkpt>
      <trkpt lat="46.79747" lon="0.44634">
        <ele>-35.91</ele>
        <time>2023-10-15T06:53:23Z</time>
      </trkpt>
      <trkpt lat="46.79756" lon="0.44641">
        <ele>-34.95</ele>
        <time>2023-10-15T06:53:26Z</time>
      </trkpt>
      <trkpt lat="46.79777" lon="0.44653">
        <ele>-33.51</ele>
        <time>2023-10-15T06:53:33Z</time>
      </trkpt>
      <trkpt lat="46.79787" lon="0.44657">
        <ele>-32.07</ele>
        <time>2023-10-15T06:53:36Z</time>
      </trkpt>
      <trkpt lat="46.79812" lon="0.44669">
        <ele>-30.62</ele>
        <time>2023-10-15T06:53:43Z</time>
      </trkpt>
      <trkpt lat="46.79837" lon="0.44683">
        <ele>-30.14</ele>
        <time>2023-10-15T06:53:49Z</time>
      </trkpt>
      <trkpt lat="46.79861" lon="0.44701">
        <ele>-29.18</ele>
        <time>2023-10-15T06:53:55Z</time>
      </trkpt>
      <trkpt lat="46.79895" lon="0.44735">
        <ele>-29.18</ele>
        <time>2023-10-15T06:54:03Z</time>
      </trkpt>
      <trkpt lat="46.799" lon="0.44738">
        <ele>-29.18</ele>
        <time>2023-10-15T06:54:04Z</time>
      </trkpt>
      <trkpt lat="46.79905" lon="0.44742">
        <ele>-29.66</ele>
        <time>2023-10-15T06:54:05Z</time>
      </trkpt>
      <trkpt lat="46.79909" lon="0.44744">
        <ele>-29.18</ele>
        <time>2023-10-15T06:54:06Z</time>
      </trkpt>
      <trkpt lat="46.79917" lon="0.4475">
        <ele>-29.66</ele>
        <time>2023-10-15T06:54:08Z</time>
      </trkpt>
      <trkpt lat="46.79921" lon="0.44752">
        <ele>-28.7</ele>
        <time>2023-10-15T06:54:09Z</time>
      </trkpt>
      <trkpt lat="46.79926" lon="0.44755">
        <ele>-29.66</ele>
        <time>2023-10-15T06:54:10Z</time>
      </trkpt>
      <trkpt lat="46.7993" lon="0.44757">
        <ele>-30.14</ele>
        <time>2023-10-15T06:54:11Z</time>
      </trkpt>
      <trkpt lat="46.79935" lon="0.44759">
        <ele>-30.14</ele>
        <time>2023-10-15T06:54:12Z</time>
      </trkpt>
      <trkpt lat="46.79946" lon="0.44763">
        <ele>-31.59</ele>
        <time>2023-10-15T06:54:14Z</time>
      </trkpt>
      <trkpt lat="46.79951" lon="0.44764">
        <ele>-31.59</ele>
        <time>2023-10-15T06:54:15Z</time>
      </trkpt>
      <trkpt lat="46.79962" lon="0.44769">
        <ele>-31.59</ele>
        <time>2023-10-15T06:54:17Z</time>
      </trkpt>
      <trkpt lat="46.80011" lon="0.44787">
        <ele>-33.03</ele>
        <time>2023-10-15T06:54:25Z</time>
      </trkpt>
      <trkpt lat="46.80037" lon="0.44796">
        <ele>-32.55</ele>
        <time>2023-10-15T06:54:29Z</time>
      </trkpt>
      <trkpt lat="46.80043" lon="0.44797">
        <ele>-31.59</ele>
        <time>2023-10-15T06:54:30Z</time>
      </trkpt>
      <trkpt lat="46.80049" lon="0.44799">
        <ele>-32.07</ele>
        <time>2023-10-15T06:54:31Z</time>
      </trkpt>
      <trkpt lat="46.80055" lon="0.448">
        <ele>-32.07</ele>
        <time>2023-10-15T06:54:32Z</time>
      </trkpt>
      <trkpt lat="46.8006" lon="0.448">
        <ele>-31.11</ele>
        <time>2023-10-15T06:54:33Z</time>
      </trkpt>
      <trkpt lat="46.80065" lon="0.44801">
        <ele>-31.59</ele>
        <time>2023-10-15T06:54:34Z</time>
      </trkpt>
      <trkpt lat="46.80069" lon="0.44802">
        <ele>-32.07</ele>
        <time>2023-10-15T06:54:35Z</time>
      </trkpt>
      <trkpt lat="46.80097" lon="0.44806">
        <ele>-32.07</ele>
        <time>2023-10-15T06:54:40Z</time>
      </trkpt>
      <trkpt lat="46.80116" lon="0.44811">
        <ele>-32.55</ele>
        <time>2023-10-15T06:54:43Z</time>
      </trkpt>
      <trkpt lat="46.80134" lon="0.44812">
        <ele>-32.07</ele>
        <time>2023-10-15T06:54:46Z</time>
      </trkpt>
      <trkpt lat="46.80165" lon="0.44812">
        <ele>-32.07</ele>
        <time>2023-10-15T06:54:52Z</time>
      </trkpt>
      <trkpt lat="46.8017" lon="0.44811">
        <ele>-32.07</ele>
        <time>2023-10-15T06:54:53Z</time>
      </trkpt>
      <trkpt lat="46.80198" lon="0.44807">
        <ele>-33.03</ele>
        <time>2023-10-15T06:54:58Z</time>
      </trkpt>
      <trkpt lat="46.80203" lon="0.44806">
        <ele>-32.07</ele>
        <time>2023-10-15T06:54:59Z</time>
      </trkpt>
      <trkpt lat="46.80207" lon="0.44805">
        <ele>-32.07</ele>
        <time>2023-10-15T06:55:00Z</time>
      </trkpt>
      <trkpt lat="46.80212" lon="0.44804">
        <ele>-32.07</ele>
        <time>2023-10-15T06:55:01Z</time>
      </trkpt>
      <trkpt lat="46.80217" lon="0.44802">
        <ele>-31.11</ele>
        <time>2023-10-15T06:55:02Z</time>
      </trkpt>
      <trkpt lat="46.80222" lon="0.448">
        <ele>-32.55</ele>
        <time>2023-10-15T06:55:03Z</time>
      </trkpt>
      <trkpt lat="46.80227" lon="0.44799">
        <ele>-31.11</ele>
        <time>2023-10-15T06:55:04Z</time>
      </trkpt>
      <trkpt lat="46.80252" lon="0.44795">
        <ele>-32.07</ele>
        <time>2023-10-15T06:55:10Z</time>
      </trkpt>
      <trkpt lat="46.80273" lon="0.44789">
        <ele>-31.59</ele>
        <time>2023-10-15T06:55:16Z</time>
      </trkpt>
      <trkpt lat="46.8028" lon="0.44788">
        <ele>-31.11</ele>
        <time>2023-10-15T06:55:18Z</time>
      </trkpt>
      <trkpt lat="46.80294" lon="0.44785">
        <ele>-32.07</ele>
        <time>2023-10-15T06:55:23Z</time>
      </trkpt>
      <trkpt lat="46.80297" lon="0.44784">
        <ele>-32.07</ele>
        <time>2023-10-15T06:55:24Z</time>
      </trkpt>
      <trkpt lat="46.803" lon="0.44784">
        <ele>-31.11</ele>
        <time>2023-10-15T06:55:25Z</time>
      </trkpt>
      <trkpt lat="46.80304" lon="0.4478">
        <ele>-31.59</ele>
        <time>2023-10-15T06:55:29Z</time>
      </trkpt>
      <trkpt lat="46.80305" lon="0.44775">
        <ele>-30.14</ele>
        <time>2023-10-15T06:55:30Z</time>
      </trkpt>
      <trkpt lat="46.80307" lon="0.4477">
        <ele>-30.62</ele>
        <time>2023-10-15T06:55:31Z</time>
      </trkpt>
      <trkpt lat="46.80306" lon="0.44766">
        <ele>-30.62</ele>
        <time>2023-10-15T06:55:32Z</time>
      </trkpt>
      <trkpt lat="46.80306" lon="0.44762">
        <ele>-30.14</ele>
        <time>2023-10-15T06:55:33Z</time>
      </trkpt>
      <trkpt lat="46.80306" lon="0.44754">
        <ele>-29.66</ele>
        <time>2023-10-15T06:55:36Z</time>
      </trkpt>
      <trkpt lat="46.80307" lon="0.44734">
        <ele>-29.66</ele>
        <time>2023-10-15T06:55:42Z</time>
      </trkpt>
      <trkpt lat="46.80305" lon="0.44715">
        <ele>-28.22</ele>
        <time>2023-10-15T06:55:47Z</time>
      </trkpt>
      <trkpt lat="46.80304" lon="0.4471">
        <ele>-28.22</ele>
        <time>2023-10-15T06:55:49Z</time>
      </trkpt>
      <trkpt lat="46.80293" lon="0.44707">
        <ele>-29.18</ele>
        <time>2023-10-15T06:55:56Z</time>
      </trkpt>
      <trkpt lat="46.80293" lon="0.44703">
        <ele>-28.7</ele>
        <time>2023-10-15T06:55:58Z</time>
      </trkpt>
      <trkpt lat="46.80296" lon="0.44696">
        <ele>-27.74</ele>
        <time>2023-10-15T06:56:01Z</time>
      </trkpt>
      <trkpt lat="46.80296" lon="0.44682">
        <ele>-27.74</ele>
        <time>2023-10-15T06:56:06Z</time>
      </trkpt>
      <trkpt lat="46.80284" lon="0.4466">
        <ele>-27.26</ele>
        <time>2023-10-15T06:56:12Z</time>
      </trkpt>
      <trkpt lat="46.80275" lon="0.44646">
        <ele>-26.3</ele>
        <time>2023-10-15T06:56:16Z</time>
      </trkpt>
      <trkpt lat="46.80263" lon="0.44627">
        <ele>-24.38</ele>
        <time>2023-10-15T06:56:22Z</time>
      </trkpt>
      <trkpt lat="46.80263" lon="0.44609">
        <ele>-23.41</ele>
        <time>2023-10-15T06:56:27Z</time>
      </trkpt>
      <trkpt lat="46.80266" lon="0.44609">
        <ele>-24.38</ele>
        <time>2023-10-15T06:56:29Z</time>
      </trkpt>
      <trkpt lat="46.80277" lon="0.44594">
        <ele>-23.41</ele>
        <time>2023-10-15T06:56:36Z</time>
      </trkpt>
      <trkpt lat="46.80279" lon="0.44592">
        <ele>-23.9</ele>
        <time>2023-10-15T06:56:37Z</time>
      </trkpt>
      <trkpt lat="46.80286" lon="0.44586">
        <ele>-23.41</ele>
        <time>2023-10-15T06:56:40Z</time>
      </trkpt>
      <trkpt lat="46.80286" lon="0.44567">
        <ele>-23.41</ele>
        <time>2023-10-15T06:56:46Z</time>
      </trkpt>
      <trkpt lat="46.80276" lon="0.44553">
        <ele>-22.45</ele>
        <time>2023-10-15T06:56:51Z</time>
      </trkpt>
      <trkpt lat="46.80275" lon="0.44549">
        <ele>-22.45</ele>
        <time>2023-10-15T06:56:52Z</time>
      </trkpt>
      <trkpt lat="46.80271" lon="0.44541">
        <ele>-21.49</ele>
        <time>2023-10-15T06:56:55Z</time>
      </trkpt>
      <trkpt lat="46.80267" lon="0.44539">
        <ele>-20.53</ele>
        <time>2023-10-15T06:56:58Z</time>
      </trkpt>
      <trkpt lat="46.8026" lon="0.44519">
        <ele>-20.05</ele>
        <time>2023-10-15T06:57:03Z</time>
      </trkpt>
      <trkpt lat="46.80248" lon="0.445">
        <ele>-18.13</ele>
        <time>2023-10-15T06:57:10Z</time>
      </trkpt>
      <trkpt lat="46.80242" lon="0.44491">
        <ele>-19.09</ele>
        <time>2023-10-15T06:57:13Z</time>
      </trkpt>
      <trkpt lat="46.80238" lon="0.44474">
        <ele>-18.61</ele>
        <time>2023-10-15T06:57:18Z</time>
      </trkpt>
      <trkpt lat="46.80242" lon="0.44443">
        <ele>-17.65</ele>
        <time>2023-10-15T06:57:26Z</time>
      </trkpt>
      <trkpt lat="46.80254" lon="0.44435">
        <ele>-17.17</ele>
        <time>2023-10-15T06:57:31Z</time>
      </trkpt>
      <trkpt lat="46.80263" lon="0.4441">
        <ele>-16.69</ele>
        <time>2023-10-15T06:57:37Z</time>
      </trkpt>
      <trkpt lat="46.80276" lon="0.44394">
        <ele>-17.17</ele>
        <time>2023-10-15T06:57:42Z</time>
      </trkpt>
      <trkpt lat="46.80278" lon="0.44387">
        <ele>-17.65</ele>
        <time>2023-10-15T06:57:44Z</time>
      </trkpt>
      <trkpt lat="46.80261" lon="0.44351">
        <ele>-20.05</ele>
        <time>2023-10-15T06:57:50Z</time>
      </trkpt>
      <trkpt lat="46.80257" lon="0.44344">
        <ele>-20.05</ele>
        <time>2023-10-15T06:57:51Z</time>
      </trkpt>
      <trkpt lat="46.80253" lon="0.44335">
        <ele>-20.53</ele>
        <time>2023-10-15T06:57:52Z</time>
      </trkpt>
      <trkpt lat="46.80232" lon="0.44289">
        <ele>-24.38</ele>
        <time>2023-10-15T06:57:57Z</time>
      </trkpt>
      <trkpt lat="46.80204" lon="0.44227">
        <ele>-25.82</ele>
        <time>2023-10-15T06:58:04Z</time>
      </trkpt>
      <trkpt lat="46.802" lon="0.44219">
        <ele>-25.82</ele>
        <time>2023-10-15T06:58:05Z</time>
      </trkpt>
      <trkpt lat="46.8019" lon="0.44202">
        <ele>-29.18</ele>
        <time>2023-10-15T06:58:07Z</time>
      </trkpt>
      <trkpt lat="46.80187" lon="0.44194">
        <ele>-29.66</ele>
        <time>2023-10-15T06:58:08Z</time>
      </trkpt>
      <trkpt lat="46.80174" lon="0.44167">
        <ele>-27.74</ele>
        <time>2023-10-15T06:58:11Z</time>
      </trkpt>
      <trkpt lat="46.80149" lon="0.44117">
        <ele>-30.14</ele>
        <time>2023-10-15T06:58:17Z</time>
      </trkpt>
      <trkpt lat="46.80145" lon="0.44109">
        <ele>-29.66</ele>
        <time>2023-10-15T06:58:18Z</time>
      </trkpt>
      <trkpt lat="46.80114" lon="0.44056">
        <ele>-31.11</ele>
        <time>2023-10-15T06:58:25Z</time>
      </trkpt>
      <trkpt lat="46.80089" lon="0.44017">
        <ele>-33.03</ele>
        <time>2023-10-15T06:58:31Z</time>
      </trkpt>
      <trkpt lat="46.80087" lon="0.44013">
        <ele>-33.51</ele>
        <time>2023-10-15T06:58:32Z</time>
      </trkpt>
      <trkpt lat="46.80084" lon="0.44009">
        <ele>-34.47</ele>
        <time>2023-10-15T06:58:33Z</time>
      </trkpt>
      <trkpt lat="46.80083" lon="0.44004">
        <ele>-33.51</ele>
        <time>2023-10-15T06:58:34Z</time>
      </trkpt>
      <trkpt lat="46.80083" lon="0.44">
        <ele>-33.51</ele>
        <time>2023-10-15T06:58:35Z</time>
      </trkpt>
      <trkpt lat="46.80084" lon="0.43995">
        <ele>-33.51</ele>
        <time>2023-10-15T06:58:36Z</time>
      </trkpt>
      <trkpt lat="46.80086" lon="0.43991">
        <ele>-33.51</ele>
        <time>2023-10-15T06:58:37Z</time>
      </trkpt>
      <trkpt lat="46.80098" lon="0.43967">
        <ele>-33.03</ele>
        <time>2023-10-15T06:58:42Z</time>
      </trkpt>
      <trkpt lat="46.80101" lon="0.43962">
        <ele>-33.03</ele>
        <time>2023-10-15T06:58:43Z</time>
      </trkpt>
      <trkpt lat="46.80104" lon="0.43957">
        <ele>-32.07</ele>
        <time>2023-10-15T06:58:44Z</time>
      </trkpt>
      <trkpt lat="46.80119" lon="0.43931">
        <ele>-32.55</ele>
        <time>2023-10-15T06:58:49Z</time>
      </trkpt>
      <trkpt lat="46.80122" lon="0.43926">
        <ele>-32.55</ele>
        <time>2023-10-15T06:58:50Z</time>
      </trkpt>
      <trkpt lat="46.80126" lon="0.43921">
        <ele>-33.03</ele>
        <time>2023-10-15T06:58:51Z</time>
      </trkpt>
      <trkpt lat="46.80129" lon="0.43917">
        <ele>-33.03</ele>
        <time>2023-10-15T06:58:52Z</time>
      </trkpt>
      <trkpt lat="46.80134" lon="0.43913">
        <ele>-32.55</ele>
        <time>2023-10-15T06:58:53Z</time>
      </trkpt>
      <trkpt lat="46.80142" lon="0.43904">
        <ele>-32.07</ele>
        <time>2023-10-15T06:58:55Z</time>
      </trkpt>
      <trkpt lat="46.80147" lon="0.439">
        <ele>-31.59</ele>
        <time>2023-10-15T06:58:56Z</time>
      </trkpt>
      <trkpt lat="46.80151" lon="0.43897">
        <ele>-31.59</ele>
        <time>2023-10-15T06:58:57Z</time>
      </trkpt>
      <trkpt lat="46.80156" lon="0.43894">
        <ele>-31.59</ele>
        <time>2023-10-15T06:58:58Z</time>
      </trkpt>
      <trkpt lat="46.80161" lon="0.4389">
        <ele>-32.07</ele>
        <time>2023-10-15T06:58:59Z</time>
      </trkpt>
      <trkpt lat="46.80188" lon="0.43867">
        <ele>-31.59</ele>
        <time>2023-10-15T06:59:05Z</time>
      </trkpt>
      <trkpt lat="46.80197" lon="0.43858">
        <ele>-31.59</ele>
        <time>2023-10-15T06:59:07Z</time>
      </trkpt>
      <trkpt lat="46.80228" lon="0.43833">
        <ele>-32.07</ele>
        <time>2023-10-15T06:59:14Z</time>
      </trkpt>
      <trkpt lat="46.80236" lon="0.43825">
        <ele>-30.62</ele>
        <time>2023-10-15T06:59:16Z</time>
      </trkpt>
      <trkpt lat="46.8024" lon="0.43821">
        <ele>-31.59</ele>
        <time>2023-10-15T06:59:17Z</time>
      </trkpt>
      <trkpt lat="46.80261" lon="0.43798">
        <ele>-30.14</ele>
        <time>2023-10-15T06:59:22Z</time>
      </trkpt>
      <trkpt lat="46.80282" lon="0.43778">
        <ele>-29.18</ele>
        <time>2023-10-15T06:59:27Z</time>
      </trkpt>
      <trkpt lat="46.80289" lon="0.43768">
        <ele>-28.22</ele>
        <time>2023-10-15T06:59:29Z</time>
      </trkpt>
      <trkpt lat="46.80309" lon="0.43742">
        <ele>-28.7</ele>
        <time>2023-10-15T06:59:35Z</time>
      </trkpt>
      <trkpt lat="46.80313" lon="0.43738">
        <ele>-27.26</ele>
        <time>2023-10-15T06:59:36Z</time>
      </trkpt>
      <trkpt lat="46.80317" lon="0.43735">
        <ele>-26.78</ele>
        <time>2023-10-15T06:59:37Z</time>
      </trkpt>
      <trkpt lat="46.80326" lon="0.43728">
        <ele>-27.74</ele>
        <time>2023-10-15T06:59:39Z</time>
      </trkpt>
      <trkpt lat="46.80331" lon="0.43726">
        <ele>-26.3</ele>
        <time>2023-10-15T06:59:40Z</time>
      </trkpt>
      <trkpt lat="46.80336" lon="0.43723">
        <ele>-26.78</ele>
        <time>2023-10-15T06:59:41Z</time>
      </trkpt>
      <trkpt lat="46.8034" lon="0.43719">
        <ele>-27.26</ele>
        <time>2023-10-15T06:59:42Z</time>
      </trkpt>
      <trkpt lat="46.80345" lon="0.43715">
        <ele>-27.74</ele>
        <time>2023-10-15T06:59:43Z</time>
      </trkpt>
      <trkpt lat="46.80355" lon="0.43701">
        <ele>-26.78</ele>
        <time>2023-10-15T06:59:46Z</time>
      </trkpt>
      <trkpt lat="46.80362" lon="0.43693">
        <ele>-25.82</ele>
        <time>2023-10-15T06:59:48Z</time>
      </trkpt>
      <trkpt lat="46.80364" lon="0.43687">
        <ele>-25.82</ele>
        <time>2023-10-15T06:59:49Z</time>
      </trkpt>
      <trkpt lat="46.80368" lon="0.43682">
        <ele>-25.34</ele>
        <time>2023-10-15T06:59:50Z</time>
      </trkpt>
      <trkpt lat="46.80391" lon="0.43651">
        <ele>-23.9</ele>
        <time>2023-10-15T06:59:57Z</time>
      </trkpt>
      <trkpt lat="46.80408" lon="0.43632">
        <ele>-23.9</ele>
        <time>2023-10-15T07:00:03Z</time>
      </trkpt>
      <trkpt lat="46.80434" lon="0.43612">
        <ele>-23.41</ele>
        <time>2023-10-15T07:00:10Z</time>
      </trkpt>
      <trkpt lat="46.80437" lon="0.4361">
        <ele>-23.41</ele>
        <time>2023-10-15T07:00:11Z</time>
      </trkpt>
      <trkpt lat="46.80439" lon="0.43609">
        <ele>-22.93</ele>
        <time>2023-10-15T07:00:12Z</time>
      </trkpt>
      <trkpt lat="46.80444" lon="0.4361">
        <ele>-23.41</ele>
        <time>2023-10-15T07:00:13Z</time>
      </trkpt>
      <trkpt lat="46.80447" lon="0.43609">
        <ele>-22.93</ele>
        <time>2023-10-15T07:00:14Z</time>
      </trkpt>
      <trkpt lat="46.80457" lon="0.43608">
        <ele>-21.01</ele>
        <time>2023-10-15T07:00:18Z</time>
      </trkpt>
      <trkpt lat="46.80459" lon="0.43607">
        <ele>-21.01</ele>
        <time>2023-10-15T07:00:19Z</time>
      </trkpt>
      <trkpt lat="46.80479" lon="0.43606">
        <ele>-20.53</ele>
        <time>2023-10-15T07:00:25Z</time>
      </trkpt>
      <trkpt lat="46.80502" lon="0.43608">
        <ele>-21.01</ele>
        <time>2023-10-15T07:00:32Z</time>
      </trkpt>
      <trkpt lat="46.80525" lon="0.43607">
        <ele>-20.53</ele>
        <time>2023-10-15T07:00:38Z</time>
      </trkpt>
      <trkpt lat="46.8055" lon="0.4361">
        <ele>-20.05</ele>
        <time>2023-10-15T07:00:44Z</time>
      </trkpt>
      <trkpt lat="46.80579" lon="0.43613">
        <ele>-20.53</ele>
        <time>2023-10-15T07:00:50Z</time>
      </trkpt>
      <trkpt lat="46.80612" lon="0.43614">
        <ele>-19.09</ele>
        <time>2023-10-15T07:00:57Z</time>
      </trkpt>
      <trkpt lat="46.8063" lon="0.43614">
        <ele>-21.49</ele>
        <time>2023-10-15T07:01:01Z</time>
      </trkpt>
      <trkpt lat="46.80647" lon="0.43616">
        <ele>-22.93</ele>
        <time>2023-10-15T07:01:04Z</time>
      </trkpt>
      <trkpt lat="46.80657" lon="0.43618">
        <ele>-21.49</ele>
        <time>2023-10-15T07:01:06Z</time>
      </trkpt>
      <trkpt lat="46.80692" lon="0.43625">
        <ele>-21.97</ele>
        <time>2023-10-15T07:01:13Z</time>
      </trkpt>
      <trkpt lat="46.807" lon="0.43626">
        <ele>-21.49</ele>
        <time>2023-10-15T07:01:15Z</time>
      </trkpt>
      <trkpt lat="46.80703" lon="0.43624">
        <ele>-21.97</ele>
        <time>2023-10-15T07:01:16Z</time>
      </trkpt>
      <trkpt lat="46.80704" lon="0.4362">
        <ele>-21.01</ele>
        <time>2023-10-15T07:01:17Z</time>
      </trkpt>
      <trkpt lat="46.80705" lon="0.43616">
        <ele>-21.49</ele>
        <time>2023-10-15T07:01:18Z</time>
      </trkpt>
      <trkpt lat="46.80705" lon="0.43611">
        <ele>-21.01</ele>
        <time>2023-10-15T07:01:19Z</time>
      </trkpt>
      <trkpt lat="46.80705" lon="0.43606">
        <ele>-21.01</ele>
        <time>2023-10-15T07:01:20Z</time>
      </trkpt>
      <trkpt lat="46.80706" lon="0.436">
        <ele>-21.01</ele>
        <time>2023-10-15T07:01:21Z</time>
      </trkpt>
      <trkpt lat="46.80708" lon="0.43588">
        <ele>-19.57</ele>
        <time>2023-10-15T07:01:23Z</time>
      </trkpt>
      <trkpt lat="46.80714" lon="0.43546">
        <ele>-21.49</ele>
        <time>2023-10-15T07:01:30Z</time>
      </trkpt>
      <trkpt lat="46.80716" lon="0.43527">
        <ele>-21.01</ele>
        <time>2023-10-15T07:01:33Z</time>
      </trkpt>
      <trkpt lat="46.80717" lon="0.43471">
        <ele>-21.01</ele>
        <time>2023-10-15T07:01:41Z</time>
      </trkpt>
      <trkpt lat="46.80719" lon="0.43409">
        <ele>-21.97</ele>
        <time>2023-10-15T07:01:49Z</time>
      </trkpt>
      <trkpt lat="46.80719" lon="0.43393">
        <ele>-21.97</ele>
        <time>2023-10-15T07:01:51Z</time>
      </trkpt>
      <trkpt lat="46.80719" lon="0.43342">
        <ele>-22.93</ele>
        <time>2023-10-15T07:01:57Z</time>
      </trkpt>
      <trkpt lat="46.80718" lon="0.43333">
        <ele>-22.93</ele>
        <time>2023-10-15T07:01:58Z</time>
      </trkpt>
      <trkpt lat="46.80717" lon="0.43324">
        <ele>-22.45</ele>
        <time>2023-10-15T07:01:59Z</time>
      </trkpt>
      <trkpt lat="46.80718" lon="0.43316">
        <ele>-22.93</ele>
        <time>2023-10-15T07:02:00Z</time>
      </trkpt>
      <trkpt lat="46.80718" lon="0.43307">
        <ele>-22.93</ele>
        <time>2023-10-15T07:02:01Z</time>
      </trkpt>
      <trkpt lat="46.80718" lon="0.43298">
        <ele>-22.93</ele>
        <time>2023-10-15T07:02:02Z</time>
      </trkpt>
      <trkpt lat="46.80718" lon="0.4325">
        <ele>-23.41</ele>
        <time>2023-10-15T07:02:08Z</time>
      </trkpt>
      <trkpt lat="46.80718" lon="0.43242">
        <ele>-23.41</ele>
        <time>2023-10-15T07:02:09Z</time>
      </trkpt>
      <trkpt lat="46.80717" lon="0.43233">
        <ele>-23.41</ele>
        <time>2023-10-15T07:02:10Z</time>
      </trkpt>
      <trkpt lat="46.80717" lon="0.43191">
        <ele>-23.9</ele>
        <time>2023-10-15T07:02:15Z</time>
      </trkpt>
      <trkpt lat="46.80717" lon="0.43183">
        <ele>-23.41</ele>
        <time>2023-10-15T07:02:16Z</time>
      </trkpt>
      <trkpt lat="46.80717" lon="0.43175">
        <ele>-24.38</ele>
        <time>2023-10-15T07:02:17Z</time>
      </trkpt>
      <trkpt lat="46.80716" lon="0.43143">
        <ele>-23.41</ele>
        <time>2023-10-15T07:02:21Z</time>
      </trkpt>
      <trkpt lat="46.80716" lon="0.43135">
        <ele>-23.41</ele>
        <time>2023-10-15T07:02:22Z</time>
      </trkpt>
      <trkpt lat="46.80716" lon="0.43127">
        <ele>-23.9</ele>
        <time>2023-10-15T07:02:23Z</time>
      </trkpt>
      <trkpt lat="46.80716" lon="0.4312">
        <ele>-24.86</ele>
        <time>2023-10-15T07:02:24Z</time>
      </trkpt>
      <trkpt lat="46.80716" lon="0.43113">
        <ele>-24.38</ele>
        <time>2023-10-15T07:02:25Z</time>
      </trkpt>
      <trkpt lat="46.80716" lon="0.43094">
        <ele>-24.38</ele>
        <time>2023-10-15T07:02:28Z</time>
      </trkpt>
      <trkpt lat="46.80715" lon="0.43088">
        <ele>-24.38</ele>
        <time>2023-10-15T07:02:29Z</time>
      </trkpt>
      <trkpt lat="46.80715" lon="0.43082">
        <ele>-24.86</ele>
        <time>2023-10-15T07:02:30Z</time>
      </trkpt>
      <trkpt lat="46.80714" lon="0.43068">
        <ele>-25.34</ele>
        <time>2023-10-15T07:02:35Z</time>
      </trkpt>
      <trkpt lat="46.80716" lon="0.43064">
        <ele>-24.86</ele>
        <time>2023-10-15T07:02:41Z</time>
      </trkpt>
      <trkpt lat="46.80716" lon="0.43065">
        <ele>-24.38</ele>
        <time>2023-10-15T07:02:42Z</time>
      </trkpt>
      <trkpt lat="46.80718" lon="0.43066">
        <ele>-23.41</ele>
        <time>2023-10-15T07:02:47Z</time>
      </trkpt>
      <trkpt lat="46.8072" lon="0.43067">
        <ele>-24.38</ele>
        <time>2023-10-15T07:02:49Z</time>
      </trkpt>
      <trkpt lat="46.80722" lon="0.43068">
        <ele>-23.9</ele>
        <time>2023-10-15T07:02:50Z</time>
      </trkpt>
      <trkpt lat="46.80723" lon="0.4307">
        <ele>-23.9</ele>
        <time>2023-10-15T07:02:51Z</time>
      </trkpt>
      <trkpt lat="46.80724" lon="0.43072">
        <ele>-23.9</ele>
        <time>2023-10-15T07:02:52Z</time>
      </trkpt>
      <trkpt lat="46.80725" lon="0.43074">
        <ele>-23.41</ele>
        <time>2023-10-15T07:02:53Z</time>
      </trkpt>
      <trkpt lat="46.80726" lon="0.43076">
        <ele>-23.41</ele>
        <time>2023-10-15T07:02:54Z</time>
      </trkpt>
      <trkpt lat="46.80727" lon="0.43078">
        <ele>-23.9</ele>
        <time>2023-10-15T07:02:55Z</time>
      </trkpt>
      <trkpt lat="46.80727" lon="0.43081">
        <ele>-23.9</ele>
        <time>2023-10-15T07:02:56Z</time>
      </trkpt>
      <trkpt lat="46.8073" lon="0.43086">
        <ele>-24.38</ele>
        <time>2023-10-15T07:02:59Z</time>
      </trkpt>
      <trkpt lat="46.80731" lon="0.43088">
        <ele>-23.9</ele>
        <time>2023-10-15T07:03:00Z</time>
      </trkpt>
      <trkpt lat="46.80735" lon="0.43094">
        <ele>-23.9</ele>
        <time>2023-10-15T07:03:03Z</time>
      </trkpt>
      <trkpt lat="46.80739" lon="0.43104">
        <ele>-23.41</ele>
        <time>2023-10-15T07:03:07Z</time>
      </trkpt>
      <trkpt lat="46.80733" lon="0.43132">
        <ele>-23.9</ele>
        <time>2023-10-15T07:03:15Z</time>
      </trkpt>
      <trkpt lat="46.80732" lon="0.43136">
        <ele>-23.9</ele>
        <time>2023-10-15T07:03:16Z</time>
      </trkpt>
      <trkpt lat="46.80732" lon="0.43155">
        <ele>-22.93</ele>
        <time>2023-10-15T07:03:21Z</time>
      </trkpt>
      <trkpt lat="46.80733" lon="0.43163">
        <ele>-22.45</ele>
        <time>2023-10-15T07:03:23Z</time>
      </trkpt>
      <trkpt lat="46.80733" lon="0.43172">
        <ele>-22.93</ele>
        <time>2023-10-15T07:03:25Z</time>
      </trkpt>
      <trkpt lat="46.80735" lon="0.4319">
        <ele>-22.45</ele>
        <time>2023-10-15T07:03:31Z</time>
      </trkpt>
      <trkpt lat="46.80731" lon="0.43204">
        <ele>-22.93</ele>
        <time>2023-10-15T07:03:36Z</time>
      </trkpt>
      <trkpt lat="46.80739" lon="0.43206">
        <ele>-22.45</ele>
        <time>2023-10-15T07:03:42Z</time>
      </trkpt>
      <trkpt lat="46.80741" lon="0.43178">
        <ele>-22.93</ele>
        <time>2023-10-15T07:03:49Z</time>
      </trkpt>
      <trkpt lat="46.80742" lon="0.43175">
        <ele>-21.97</ele>
        <time>2023-10-15T07:03:50Z</time>
      </trkpt>
      <trkpt lat="46.80755" lon="0.43176">
        <ele>-22.93</ele>
        <time>2023-10-15T07:03:56Z</time>
      </trkpt>
      <trkpt lat="46.80758" lon="0.43173">
        <ele>-21.01</ele>
        <time>2023-10-15T07:03:58Z</time>
      </trkpt>
      <trkpt lat="46.8076" lon="0.43163">
        <ele>-21.49</ele>
        <time>2023-10-15T07:04:02Z</time>
      </trkpt>
      <trkpt lat="46.8076" lon="0.43163">
        <ele>-21.97</ele>
        <time>2023-10-15T07:04:03Z</time>
      </trkpt>
      <trkpt lat="46.80774" lon="0.43159">
        <ele>-21.49</ele>
        <time>2023-10-15T07:04:08Z</time>
      </trkpt>
      <trkpt lat="46.80791" lon="0.43178">
        <ele>-21.49</ele>
        <time>2023-10-15T07:04:15Z</time>
      </trkpt>
      <trkpt lat="46.80799" lon="0.43185">
        <ele>-22.45</ele>
        <time>2023-10-15T07:04:17Z</time>
      </trkpt>
      <trkpt lat="46.808" lon="0.43187">
        <ele>-22.93</ele>
        <time>2023-10-15T07:04:18Z</time>
      </trkpt>
      <trkpt lat="46.80801" lon="0.43194">
        <ele>-22.93</ele>
        <time>2023-10-15T07:04:21Z</time>
      </trkpt>
      <trkpt lat="46.80802" lon="0.43205">
        <ele>-22.93</ele>
        <time>2023-10-15T07:04:26Z</time>
      </trkpt>
      <trkpt lat="46.80805" lon="0.43214">
        <ele>-22.45</ele>
        <time>2023-10-15T07:04:31Z</time>
      </trkpt>
      <trkpt lat="46.80806" lon="0.43213">
        <ele>-21.97</ele>
        <time>2023-10-15T07:04:32Z</time>
      </trkpt>
      <trkpt lat="46.80808" lon="0.4322">
        <ele>-21.97</ele>
        <time>2023-10-15T07:04:36Z</time>
      </trkpt>
      <trkpt lat="46.80807" lon="0.43228">
        <ele>-22.93</ele>
        <time>2023-10-15T07:04:40Z</time>
      </trkpt>
      <trkpt lat="46.80811" lon="0.43231">
        <ele>-22.45</ele>
        <time>2023-10-15T07:04:44Z</time>
      </trkpt>
      <trkpt lat="46.80812" lon="0.43245">
        <ele>-22.45</ele>
        <time>2023-10-15T07:04:49Z</time>
      </trkpt>
      <trkpt lat="46.80817" lon="0.4326">
        <ele>-22.45</ele>
        <time>2023-10-15T07:04:54Z</time>
      </trkpt>
      <trkpt lat="46.80822" lon="0.43263">
        <ele>-23.41</ele>
        <time>2023-10-15T07:04:57Z</time>
      </trkpt>
      <trkpt lat="46.8083" lon="0.43268">
        <ele>-22.45</ele>
        <time>2023-10-15T07:05:02Z</time>
      </trkpt>
      <trkpt lat="46.80834" lon="0.43263">
        <ele>-21.01</ele>
        <time>2023-10-15T07:05:05Z</time>
      </trkpt>
      <trkpt lat="46.80836" lon="0.4326">
        <ele>-21.49</ele>
        <time>2023-10-15T07:05:06Z</time>
      </trkpt>
      <trkpt lat="46.80841" lon="0.43245">
        <ele>-21.49</ele>
        <time>2023-10-15T07:05:11Z</time>
      </trkpt>
      <trkpt lat="46.8084" lon="0.43228">
        <ele>-22.45</ele>
        <time>2023-10-15T07:05:16Z</time>
      </trkpt>
      <trkpt lat="46.80841" lon="0.4321">
        <ele>-21.97</ele>
        <time>2023-10-15T07:05:21Z</time>
      </trkpt>
      <trkpt lat="46.80847" lon="0.43202">
        <ele>-22.93</ele>
        <time>2023-10-15T07:05:27Z</time>
      </trkpt>
      <trkpt lat="46.80846" lon="0.432">
        <ele>-21.97</ele>
        <time>2023-10-15T07:05:30Z</time>
      </trkpt>
      <trkpt lat="46.80847" lon="0.43183">
        <ele>-21.97</ele>
        <time>2023-10-15T07:05:38Z</time>
      </trkpt>
      <trkpt lat="46.80847" lon="0.43181">
        <ele>-21.49</ele>
        <time>2023-10-15T07:05:39Z</time>
      </trkpt>
      <trkpt lat="46.80838" lon="0.43172">
        <ele>-22.45</ele>
        <time>2023-10-15T07:05:44Z</time>
      </trkpt>
      <trkpt lat="46.80841" lon="0.43158">
        <ele>-21.49</ele>
        <time>2023-10-15T07:05:50Z</time>
      </trkpt>
      <trkpt lat="46.80846" lon="0.43143">
        <ele>-22.93</ele>
        <time>2023-10-15T07:05:55Z</time>
      </trkpt>
      <trkpt lat="46.80854" lon="0.43113">
        <ele>-21.49</ele>
        <time>2023-10-15T07:06:02Z</time>
      </trkpt>
      <trkpt lat="46.80854" lon="0.43109">
        <ele>-22.45</ele>
        <time>2023-10-15T07:06:03Z</time>
      </trkpt>
      <trkpt lat="46.80848" lon="0.43091">
        <ele>-22.45</ele>
        <time>2023-10-15T07:06:09Z</time>
      </trkpt>
      <trkpt lat="46.8085" lon="0.43086">
        <ele>-21.49</ele>
        <time>2023-10-15T07:06:11Z</time>
      </trkpt>
      <trkpt lat="46.80843" lon="0.43083">
        <ele>-22.45</ele>
        <time>2023-10-15T07:06:16Z</time>
      </trkpt>
      <trkpt lat="46.80835" lon="0.43074">
        <ele>-23.41</ele>
        <time>2023-10-15T07:06:20Z</time>
      </trkpt>
      <trkpt lat="46.80836" lon="0.43072">
        <ele>-23.41</ele>
        <time>2023-10-15T07:06:21Z</time>
      </trkpt>
      <trkpt lat="46.80834" lon="0.43059">
        <ele>-23.41</ele>
        <time>2023-10-15T07:06:27Z</time>
      </trkpt>
      <trkpt lat="46.80828" lon="0.43048">
        <ele>-23.9</ele>
        <time>2023-10-15T07:06:32Z</time>
      </trkpt>
      <trkpt lat="46.80827" lon="0.43046">
        <ele>-23.9</ele>
        <time>2023-10-15T07:06:33Z</time>
      </trkpt>
      <trkpt lat="46.80823" lon="0.43041">
        <ele>-24.38</ele>
        <time>2023-10-15T07:06:36Z</time>
      </trkpt>
      <trkpt lat="46.80815" lon="0.43045">
        <ele>-24.86</ele>
        <time>2023-10-15T07:06:42Z</time>
      </trkpt>
      <trkpt lat="46.80813" lon="0.43047">
        <ele>-23.9</ele>
        <time>2023-10-15T07:06:44Z</time>
      </trkpt>
      <trkpt lat="46.80803" lon="0.43033">
        <ele>-24.38</ele>
        <time>2023-10-15T07:06:51Z</time>
      </trkpt>
      <trkpt lat="46.80807" lon="0.43018">
        <ele>-24.86</ele>
        <time>2023-10-15T07:06:57Z</time>
      </trkpt>
      <trkpt lat="46.80802" lon="0.43007">
        <ele>-23.9</ele>
        <time>2023-10-15T07:07:01Z</time>
      </trkpt>
      <trkpt lat="46.80805" lon="0.4299">
        <ele>-24.38</ele>
        <time>2023-10-15T07:07:06Z</time>
      </trkpt>
      <trkpt lat="46.80805" lon="0.42979">
        <ele>-24.38</ele>
        <time>2023-10-15T07:07:10Z</time>
      </trkpt>
      <trkpt lat="46.808" lon="0.42973">
        <ele>-23.9</ele>
        <time>2023-10-15T07:07:13Z</time>
      </trkpt>
      <trkpt lat="46.80798" lon="0.42954">
        <ele>-24.86</ele>
        <time>2023-10-15T07:07:19Z</time>
      </trkpt>
      <trkpt lat="46.80798" lon="0.42952">
        <ele>-25.34</ele>
        <time>2023-10-15T07:07:20Z</time>
      </trkpt>
      <trkpt lat="46.80804" lon="0.42942">
        <ele>-24.38</ele>
        <time>2023-10-15T07:07:25Z</time>
      </trkpt>
      <trkpt lat="46.80805" lon="0.42934">
        <ele>-24.38</ele>
        <time>2023-10-15T07:07:27Z</time>
      </trkpt>
      <trkpt lat="46.8081" lon="0.42921">
        <ele>-23.9</ele>
        <time>2023-10-15T07:07:32Z</time>
      </trkpt>
      <trkpt lat="46.80813" lon="0.42925">
        <ele>-24.86</ele>
        <time>2023-10-15T07:07:36Z</time>
      </trkpt>
      <trkpt lat="46.80821" lon="0.42951">
        <ele>-23.41</ele>
        <time>2023-10-15T07:07:43Z</time>
      </trkpt>
      <trkpt lat="46.80829" lon="0.42981">
        <ele>-23.41</ele>
        <time>2023-10-15T07:07:50Z</time>
      </trkpt>
      <trkpt lat="46.80837" lon="0.43018">
        <ele>-22.93</ele>
        <time>2023-10-15T07:07:58Z</time>
      </trkpt>
      <trkpt lat="46.80841" lon="0.43048">
        <ele>-22.93</ele>
        <time>2023-10-15T07:08:04Z</time>
      </trkpt>
      <trkpt lat="46.80849" lon="0.43075">
        <ele>-21.97</ele>
        <time>2023-10-15T07:08:09Z</time>
      </trkpt>
      <trkpt lat="46.80865" lon="0.43121">
        <ele>-21.97</ele>
        <time>2023-10-15T07:08:17Z</time>
      </trkpt>
      <trkpt lat="46.80877" lon="0.43158">
        <ele>-20.53</ele>
        <time>2023-10-15T07:08:23Z</time>
      </trkpt>
      <trkpt lat="46.80885" lon="0.43191">
        <ele>-21.49</ele>
        <time>2023-10-15T07:08:29Z</time>
      </trkpt>
      <trkpt lat="46.80895" lon="0.43225">
        <ele>-21.49</ele>
        <time>2023-10-15T07:08:35Z</time>
      </trkpt>
      <trkpt lat="46.80902" lon="0.4325">
        <ele>-21.01</ele>
        <time>2023-10-15T07:08:39Z</time>
      </trkpt>
      <trkpt lat="46.8091" lon="0.4327">
        <ele>-20.53</ele>
        <time>2023-10-15T07:08:43Z</time>
      </trkpt>
      <trkpt lat="46.80914" lon="0.43275">
        <ele>-20.53</ele>
        <time>2023-10-15T07:08:44Z</time>
      </trkpt>
      <trkpt lat="46.8093" lon="0.43295">
        <ele>-20.05</ele>
        <time>2023-10-15T07:08:48Z</time>
      </trkpt>
      <trkpt lat="46.80934" lon="0.433">
        <ele>-21.49</ele>
        <time>2023-10-15T07:08:49Z</time>
      </trkpt>
      <trkpt lat="46.80957" lon="0.43324">
        <ele>-20.05</ele>
        <time>2023-10-15T07:08:55Z</time>
      </trkpt>
      <trkpt lat="46.80985" lon="0.43357">
        <ele>-20.05</ele>
        <time>2023-10-15T07:09:03Z</time>
      </trkpt>
      <trkpt lat="46.81013" lon="0.43391">
        <ele>-19.57</ele>
        <time>2023-10-15T07:09:10Z</time>
      </trkpt>
      <trkpt lat="46.81015" lon="0.43396">
        <ele>-20.53</ele>
        <time>2023-10-15T07:09:11Z</time>
      </trkpt>
      <trkpt lat="46.81018" lon="0.43402">
        <ele>-20.05</ele>
        <time>2023-10-15T07:09:12Z</time>
      </trkpt>
      <trkpt lat="46.81022" lon="0.43414">
        <ele>-20.53</ele>
        <time>2023-10-15T07:09:14Z</time>
      </trkpt>
      <trkpt lat="46.81027" lon="0.43435">
        <ele>-21.01</ele>
        <time>2023-10-15T07:09:17Z</time>
      </trkpt>
      <trkpt lat="46.81028" lon="0.43443">
        <ele>-21.01</ele>
        <time>2023-10-15T07:09:18Z</time>
      </trkpt>
      <trkpt lat="46.81027" lon="0.4345">
        <ele>-21.01</ele>
        <time>2023-10-15T07:09:19Z</time>
      </trkpt>
      <trkpt lat="46.81026" lon="0.43456">
        <ele>-20.53</ele>
        <time>2023-10-15T07:09:20Z</time>
      </trkpt>
      <trkpt lat="46.81026" lon="0.43463">
        <ele>-21.49</ele>
        <time>2023-10-15T07:09:21Z</time>
      </trkpt>
      <trkpt lat="46.81024" lon="0.43478">
        <ele>-21.49</ele>
        <time>2023-10-15T07:09:23Z</time>
      </trkpt>
      <trkpt lat="46.81019" lon="0.43508">
        <ele>-22.45</ele>
        <time>2023-10-15T07:09:27Z</time>
      </trkpt>
      <trkpt lat="46.81011" lon="0.43565">
        <ele>-22.93</ele>
        <time>2023-10-15T07:09:34Z</time>
      </trkpt>
      <trkpt lat="46.80999" lon="0.43618">
        <ele>-22.93</ele>
        <time>2023-10-15T07:09:41Z</time>
      </trkpt>
      <trkpt lat="46.80988" lon="0.43657">
        <ele>-22.93</ele>
        <time>2023-10-15T07:09:46Z</time>
      </trkpt>
      <trkpt lat="46.80986" lon="0.43665">
        <ele>-24.38</ele>
        <time>2023-10-15T07:09:47Z</time>
      </trkpt>
      <trkpt lat="46.8097" lon="0.43718">
        <ele>-24.38</ele>
        <time>2023-10-15T07:09:54Z</time>
      </trkpt>
      <trkpt lat="46.80962" lon="0.43741">
        <ele>-26.3</ele>
        <time>2023-10-15T07:09:57Z</time>
      </trkpt>
      <trkpt lat="46.80942" lon="0.43804">
        <ele>-26.3</ele>
        <time>2023-10-15T07:10:05Z</time>
      </trkpt>
      <trkpt lat="46.80932" lon="0.43836">
        <ele>-24.86</ele>
        <time>2023-10-15T07:10:09Z</time>
      </trkpt>
      <trkpt lat="46.80929" lon="0.43844">
        <ele>-25.82</ele>
        <time>2023-10-15T07:10:10Z</time>
      </trkpt>
      <trkpt lat="46.80911" lon="0.439">
        <ele>-26.78</ele>
        <time>2023-10-15T07:10:17Z</time>
      </trkpt>
      <trkpt lat="46.80907" lon="0.43917">
        <ele>-27.26</ele>
        <time>2023-10-15T07:10:19Z</time>
      </trkpt>
      <trkpt lat="46.80903" lon="0.43924">
        <ele>-27.26</ele>
        <time>2023-10-15T07:10:20Z</time>
      </trkpt>
      <trkpt lat="46.80901" lon="0.43932">
        <ele>-26.78</ele>
        <time>2023-10-15T07:10:21Z</time>
      </trkpt>
      <trkpt lat="46.80898" lon="0.4394">
        <ele>-27.26</ele>
        <time>2023-10-15T07:10:22Z</time>
      </trkpt>
      <trkpt lat="46.80896" lon="0.43948">
        <ele>-27.26</ele>
        <time>2023-10-15T07:10:23Z</time>
      </trkpt>
      <trkpt lat="46.8089" lon="0.43973">
        <ele>-26.78</ele>
        <time>2023-10-15T07:10:26Z</time>
      </trkpt>
      <trkpt lat="46.80884" lon="0.44021">
        <ele>-27.26</ele>
        <time>2023-10-15T07:10:32Z</time>
      </trkpt>
      <trkpt lat="46.80884" lon="0.4406">
        <ele>-27.74</ele>
        <time>2023-10-15T07:10:37Z</time>
      </trkpt>
      <trkpt lat="46.80885" lon="0.44066">
        <ele>-28.22</ele>
        <time>2023-10-15T07:10:38Z</time>
      </trkpt>
      <trkpt lat="46.80887" lon="0.44074">
        <ele>-27.26</ele>
        <time>2023-10-15T07:10:39Z</time>
      </trkpt>
      <trkpt lat="46.8089" lon="0.44081">
        <ele>-28.22</ele>
        <time>2023-10-15T07:10:40Z</time>
      </trkpt>
      <trkpt lat="46.80893" lon="0.44089">
        <ele>-26.78</ele>
        <time>2023-10-15T07:10:41Z</time>
      </trkpt>
      <trkpt lat="46.80901" lon="0.44114">
        <ele>-28.22</ele>
        <time>2023-10-15T07:10:44Z</time>
      </trkpt>
      <trkpt lat="46.80903" lon="0.44122">
        <ele>-28.22</ele>
        <time>2023-10-15T07:10:45Z</time>
      </trkpt>
      <trkpt lat="46.8091" lon="0.44167">
        <ele>-28.22</ele>
        <time>2023-10-15T07:10:50Z</time>
      </trkpt>
      <trkpt lat="46.80912" lon="0.44175">
        <ele>-28.22</ele>
        <time>2023-10-15T07:10:51Z</time>
      </trkpt>
      <trkpt lat="46.80914" lon="0.44182">
        <ele>-28.22</ele>
        <time>2023-10-15T07:10:52Z</time>
      </trkpt>
      <trkpt lat="46.80915" lon="0.4419">
        <ele>-28.22</ele>
        <time>2023-10-15T07:10:53Z</time>
      </trkpt>
      <trkpt lat="46.80916" lon="0.44198">
        <ele>-28.7</ele>
        <time>2023-10-15T07:10:54Z</time>
      </trkpt>
      <trkpt lat="46.80916" lon="0.44207">
        <ele>-29.66</ele>
        <time>2023-10-15T07:10:55Z</time>
      </trkpt>
      <trkpt lat="46.80916" lon="0.44215">
        <ele>-29.18</ele>
        <time>2023-10-15T07:10:56Z</time>
      </trkpt>
      <trkpt lat="46.80917" lon="0.44223">
        <ele>-28.7</ele>
        <time>2023-10-15T07:10:57Z</time>
      </trkpt>
      <trkpt lat="46.80922" lon="0.44271">
        <ele>-28.7</ele>
        <time>2023-10-15T07:11:03Z</time>
      </trkpt>
      <trkpt lat="46.80929" lon="0.44314">
        <ele>-30.14</ele>
        <time>2023-10-15T07:11:09Z</time>
      </trkpt>
      <trkpt lat="46.80932" lon="0.44334">
        <ele>-29.18</ele>
        <time>2023-10-15T07:11:12Z</time>
      </trkpt>
      <trkpt lat="46.80934" lon="0.44342">
        <ele>-30.14</ele>
        <time>2023-10-15T07:11:13Z</time>
      </trkpt>
      <trkpt lat="46.80936" lon="0.44352">
        <ele>-30.14</ele>
        <time>2023-10-15T07:11:14Z</time>
      </trkpt>
      <trkpt lat="46.80937" lon="0.44361">
        <ele>-29.66</ele>
        <time>2023-10-15T07:11:15Z</time>
      </trkpt>
      <trkpt lat="46.80938" lon="0.4437">
        <ele>-30.62</ele>
        <time>2023-10-15T07:11:16Z</time>
      </trkpt>
      <trkpt lat="46.8094" lon="0.44387">
        <ele>-30.62</ele>
        <time>2023-10-15T07:11:18Z</time>
      </trkpt>
      <trkpt lat="46.8094" lon="0.44396">
        <ele>-31.11</ele>
        <time>2023-10-15T07:11:19Z</time>
      </trkpt>
      <trkpt lat="46.8094" lon="0.44405">
        <ele>-30.62</ele>
        <time>2023-10-15T07:11:20Z</time>
      </trkpt>
      <trkpt lat="46.80938" lon="0.44449">
        <ele>-30.62</ele>
        <time>2023-10-15T07:11:25Z</time>
      </trkpt>
      <trkpt lat="46.80936" lon="0.44465">
        <ele>-32.07</ele>
        <time>2023-10-15T07:11:27Z</time>
      </trkpt>
      <trkpt lat="46.80933" lon="0.44473">
        <ele>-30.62</ele>
        <time>2023-10-15T07:11:28Z</time>
      </trkpt>
      <trkpt lat="46.80927" lon="0.44487">
        <ele>-31.59</ele>
        <time>2023-10-15T07:11:30Z</time>
      </trkpt>
      <trkpt lat="46.80924" lon="0.44495">
        <ele>-30.62</ele>
        <time>2023-10-15T07:11:31Z</time>
      </trkpt>
      <trkpt lat="46.80922" lon="0.44502">
        <ele>-31.59</ele>
        <time>2023-10-15T07:11:32Z</time>
      </trkpt>
      <trkpt lat="46.80911" lon="0.44531">
        <ele>-31.59</ele>
        <time>2023-10-15T07:11:36Z</time>
      </trkpt>
      <trkpt lat="46.80892" lon="0.44582">
        <ele>-30.62</ele>
        <time>2023-10-15T07:11:43Z</time>
      </trkpt>
      <trkpt lat="46.80888" lon="0.4459">
        <ele>-30.62</ele>
        <time>2023-10-15T07:11:44Z</time>
      </trkpt>
      <trkpt lat="46.8087" lon="0.44632">
        <ele>-30.62</ele>
        <time>2023-10-15T07:11:50Z</time>
      </trkpt>
      <trkpt lat="46.80867" lon="0.4464">
        <ele>-30.62</ele>
        <time>2023-10-15T07:11:51Z</time>
      </trkpt>
      <trkpt lat="46.80855" lon="0.44669">
        <ele>-30.62</ele>
        <time>2023-10-15T07:11:55Z</time>
      </trkpt>
      <trkpt lat="46.80853" lon="0.44676">
        <ele>-32.07</ele>
        <time>2023-10-15T07:11:56Z</time>
      </trkpt>
      <trkpt lat="46.80849" lon="0.44684">
        <ele>-32.55</ele>
        <time>2023-10-15T07:11:57Z</time>
      </trkpt>
      <trkpt lat="46.80829" lon="0.44733">
        <ele>-32.55</ele>
        <time>2023-10-15T07:12:04Z</time>
      </trkpt>
      <trkpt lat="46.80826" lon="0.44739">
        <ele>-32.55</ele>
        <time>2023-10-15T07:12:05Z</time>
      </trkpt>
      <trkpt lat="46.80813" lon="0.44773">
        <ele>-32.55</ele>
        <time>2023-10-15T07:12:10Z</time>
      </trkpt>
      <trkpt lat="46.80793" lon="0.44821">
        <ele>-33.03</ele>
        <time>2023-10-15T07:12:17Z</time>
      </trkpt>
      <trkpt lat="46.80785" lon="0.44841">
        <ele>-33.51</ele>
        <time>2023-10-15T07:12:20Z</time>
      </trkpt>
      <trkpt lat="46.80771" lon="0.4487">
        <ele>-33.51</ele>
        <time>2023-10-15T07:12:25Z</time>
      </trkpt>
      <trkpt lat="46.80769" lon="0.44876">
        <ele>-33.99</ele>
        <time>2023-10-15T07:12:26Z</time>
      </trkpt>
      <trkpt lat="46.80767" lon="0.4488">
        <ele>-34.95</ele>
        <time>2023-10-15T07:12:27Z</time>
      </trkpt>
      <trkpt lat="46.80765" lon="0.44888">
        <ele>-33.51</ele>
        <time>2023-10-15T07:12:29Z</time>
      </trkpt>
      <trkpt lat="46.80766" lon="0.4489">
        <ele>-34.47</ele>
        <time>2023-10-15T07:12:30Z</time>
      </trkpt>
      <trkpt lat="46.80767" lon="0.44891">
        <ele>-33.99</ele>
        <time>2023-10-15T07:12:31Z</time>
      </trkpt>
      <trkpt lat="46.80769" lon="0.44892">
        <ele>-33.99</ele>
        <time>2023-10-15T07:12:32Z</time>
      </trkpt>
      <trkpt lat="46.80771" lon="0.44892">
        <ele>-33.51</ele>
        <time>2023-10-15T07:12:33Z</time>
      </trkpt>
      <trkpt lat="46.80773" lon="0.44892">
        <ele>-33.99</ele>
        <time>2023-10-15T07:12:34Z</time>
      </trkpt>
      <trkpt lat="46.80776" lon="0.44893">
        <ele>-33.51</ele>
        <time>2023-10-15T07:12:35Z</time>
      </trkpt>
      <trkpt lat="46.80799" lon="0.44906">
        <ele>-35.43</ele>
        <time>2023-10-15T07:12:42Z</time>
      </trkpt>
      <trkpt lat="46.80802" lon="0.44912">
        <ele>-34.47</ele>
        <time>2023-10-15T07:12:43Z</time>
      </trkpt>
      <trkpt lat="46.80803" lon="0.44918">
        <ele>-34.95</ele>
        <time>2023-10-15T07:12:44Z</time>
      </trkpt>
      <trkpt lat="46.80802" lon="0.44924">
        <ele>-35.43</ele>
        <time>2023-10-15T07:12:45Z</time>
      </trkpt>
      <trkpt lat="46.80801" lon="0.44929">
        <ele>-35.43</ele>
        <time>2023-10-15T07:12:46Z</time>
      </trkpt>
      <trkpt lat="46.80795" lon="0.44952">
        <ele>-35.43</ele>
        <time>2023-10-15T07:12:50Z</time>
      </trkpt>
      <trkpt lat="46.80781" lon="0.44994">
        <ele>-34.47</ele>
        <time>2023-10-15T07:12:57Z</time>
      </trkpt>
      <trkpt lat="46.80776" lon="0.45004">
        <ele>-35.43</ele>
        <time>2023-10-15T07:12:59Z</time>
      </trkpt>
      <trkpt lat="46.80748" lon="0.45034">
        <ele>-35.43</ele>
        <time>2023-10-15T07:13:06Z</time>
      </trkpt>
      <trkpt lat="46.80706" lon="0.45065">
        <ele>-36.39</ele>
        <time>2023-10-15T07:13:15Z</time>
      </trkpt>
      <trkpt lat="46.80702" lon="0.45067">
        <ele>-36.39</ele>
        <time>2023-10-15T07:13:16Z</time>
      </trkpt>
      <trkpt lat="46.80687" lon="0.45075">
        <ele>-36.39</ele>
        <time>2023-10-15T07:13:19Z</time>
      </trkpt>
      <trkpt lat="46.80683" lon="0.45079">
        <ele>-36.87</ele>
        <time>2023-10-15T07:13:20Z</time>
      </trkpt>
      <trkpt lat="46.80661" lon="0.451">
        <ele>-35.43</ele>
        <time>2023-10-15T07:13:25Z</time>
      </trkpt>
      <trkpt lat="46.80634" lon="0.4512">
        <ele>-36.39</ele>
        <time>2023-10-15T07:13:31Z</time>
      </trkpt>
      <trkpt lat="46.8061" lon="0.45142">
        <ele>-35.91</ele>
        <time>2023-10-15T07:13:38Z</time>
      </trkpt>
      <trkpt lat="46.80594" lon="0.45154">
        <ele>-36.39</ele>
        <time>2023-10-15T07:13:42Z</time>
      </trkpt>
      <trkpt lat="46.80591" lon="0.45157">
        <ele>-35.91</ele>
        <time>2023-10-15T07:13:43Z</time>
      </trkpt>
      <trkpt lat="46.80575" lon="0.4517">
        <ele>-35.91</ele>
        <time>2023-10-15T07:13:47Z</time>
      </trkpt>
      <trkpt lat="46.80571" lon="0.45173">
        <ele>-35.91</ele>
        <time>2023-10-15T07:13:48Z</time>
      </trkpt>
      <trkpt lat="46.80536" lon="0.45198">
        <ele>-34.95</ele>
        <time>2023-10-15T07:13:56Z</time>
      </trkpt>
      <trkpt lat="46.80516" lon="0.45207">
        <ele>-35.43</ele>
        <time>2023-10-15T07:14:00Z</time>
      </trkpt>
      <trkpt lat="46.80511" lon="0.45209">
        <ele>-35.43</ele>
        <time>2023-10-15T07:14:01Z</time>
      </trkpt>
      <trkpt lat="46.80506" lon="0.45211">
        <ele>-35.43</ele>
        <time>2023-10-15T07:14:02Z</time>
      </trkpt>
      <trkpt lat="46.80502" lon="0.45214">
        <ele>-35.43</ele>
        <time>2023-10-15T07:14:03Z</time>
      </trkpt>
      <trkpt lat="46.80497" lon="0.45216">
        <ele>-36.39</ele>
        <time>2023-10-15T07:14:04Z</time>
      </trkpt>
      <trkpt lat="46.80492" lon="0.45219">
        <ele>-36.39</ele>
        <time>2023-10-15T07:14:05Z</time>
      </trkpt>
      <trkpt lat="46.80473" lon="0.45231">
        <ele>-36.39</ele>
        <time>2023-10-15T07:14:09Z</time>
      </trkpt>
      <trkpt lat="46.80469" lon="0.45235">
        <ele>-35.91</ele>
        <time>2023-10-15T07:14:10Z</time>
      </trkpt>
      <trkpt lat="46.80459" lon="0.45241">
        <ele>-36.87</ele>
        <time>2023-10-15T07:14:12Z</time>
      </trkpt>
      <trkpt lat="46.8045" lon="0.45249">
        <ele>-36.87</ele>
        <time>2023-10-15T07:14:14Z</time>
      </trkpt>
      <trkpt lat="46.80441" lon="0.45258">
        <ele>-36.39</ele>
        <time>2023-10-15T07:14:16Z</time>
      </trkpt>
      <trkpt lat="46.80413" lon="0.45282">
        <ele>-37.83</ele>
        <time>2023-10-15T07:14:22Z</time>
      </trkpt>
      <trkpt lat="46.80409" lon="0.45286">
        <ele>-38.32</ele>
        <time>2023-10-15T07:14:23Z</time>
      </trkpt>
      <trkpt lat="46.80406" lon="0.45292">
        <ele>-38.8</ele>
        <time>2023-10-15T07:14:24Z</time>
      </trkpt>
      <trkpt lat="46.80404" lon="0.45299">
        <ele>-38.8</ele>
        <time>2023-10-15T07:14:25Z</time>
      </trkpt>
      <trkpt lat="46.80404" lon="0.45305">
        <ele>-38.32</ele>
        <time>2023-10-15T07:14:26Z</time>
      </trkpt>
      <trkpt lat="46.80405" lon="0.45312">
        <ele>-37.83</ele>
        <time>2023-10-15T07:14:27Z</time>
      </trkpt>
      <trkpt lat="46.80407" lon="0.45317">
        <ele>-38.32</ele>
        <time>2023-10-15T07:14:28Z</time>
      </trkpt>
      <trkpt lat="46.80419" lon="0.45357">
        <ele>-37.83</ele>
        <time>2023-10-15T07:14:35Z</time>
      </trkpt>
      <trkpt lat="46.80435" lon="0.45399">
        <ele>-38.8</ele>
        <time>2023-10-15T07:14:42Z</time>
      </trkpt>
      <trkpt lat="46.80441" lon="0.4541">
        <ele>-39.28</ele>
        <time>2023-10-15T07:14:44Z</time>
      </trkpt>
      <trkpt lat="46.80452" lon="0.45426">
        <ele>-39.76</ele>
        <time>2023-10-15T07:14:47Z</time>
      </trkpt>
      <trkpt lat="46.80471" lon="0.45444">
        <ele>-38.8</ele>
        <time>2023-10-15T07:14:52Z</time>
      </trkpt>
      <trkpt lat="46.80488" lon="0.45467">
        <ele>-39.28</ele>
        <time>2023-10-15T07:14:57Z</time>
      </trkpt>
      <trkpt lat="46.80513" lon="0.455">
        <ele>-39.28</ele>
        <time>2023-10-15T07:15:03Z</time>
      </trkpt>
      <trkpt lat="46.80526" lon="0.45513">
        <ele>-39.28</ele>
        <time>2023-10-15T07:15:06Z</time>
      </trkpt>
      <trkpt lat="46.80544" lon="0.45539">
        <ele>-40.24</ele>
        <time>2023-10-15T07:15:10Z</time>
      </trkpt>
      <trkpt lat="46.80556" lon="0.45563">
        <ele>-40.24</ele>
        <time>2023-10-15T07:15:14Z</time>
      </trkpt>
      <trkpt lat="46.80563" lon="0.45589">
        <ele>-39.76</ele>
        <time>2023-10-15T07:15:19Z</time>
      </trkpt>
      <trkpt lat="46.80562" lon="0.45595">
        <ele>-40.72</ele>
        <time>2023-10-15T07:15:20Z</time>
      </trkpt>
      <trkpt lat="46.8056" lon="0.456">
        <ele>-39.76</ele>
        <time>2023-10-15T07:15:21Z</time>
      </trkpt>
      <trkpt lat="46.80558" lon="0.45606">
        <ele>-39.76</ele>
        <time>2023-10-15T07:15:22Z</time>
      </trkpt>
      <trkpt lat="46.80556" lon="0.45612">
        <ele>-39.76</ele>
        <time>2023-10-15T07:15:23Z</time>
      </trkpt>
      <trkpt lat="46.80555" lon="0.45618">
        <ele>-40.24</ele>
        <time>2023-10-15T07:15:24Z</time>
      </trkpt>
      <trkpt lat="46.80555" lon="0.45624">
        <ele>-39.76</ele>
        <time>2023-10-15T07:15:25Z</time>
      </trkpt>
      <trkpt lat="46.80554" lon="0.45631">
        <ele>-40.24</ele>
        <time>2023-10-15T07:15:26Z</time>
      </trkpt>
      <trkpt lat="46.80553" lon="0.45637">
        <ele>-40.24</ele>
        <time>2023-10-15T07:15:27Z</time>
      </trkpt>
      <trkpt lat="46.80552" lon="0.45643">
        <ele>-38.8</ele>
        <time>2023-10-15T07:15:28Z</time>
      </trkpt>
      <trkpt lat="46.8055" lon="0.45649">
        <ele>-40.24</ele>
        <time>2023-10-15T07:15:29Z</time>
      </trkpt>
      <trkpt lat="46.8055" lon="0.45655">
        <ele>-39.28</ele>
        <time>2023-10-15T07:15:30Z</time>
      </trkpt>
      <trkpt lat="46.80549" lon="0.45668">
        <ele>-39.76</ele>
        <time>2023-10-15T07:15:32Z</time>
      </trkpt>
      <trkpt lat="46.80546" lon="0.45682">
        <ele>-39.28</ele>
        <time>2023-10-15T07:15:34Z</time>
      </trkpt>
      <trkpt lat="46.80543" lon="0.45695">
        <ele>-39.76</ele>
        <time>2023-10-15T07:15:36Z</time>
      </trkpt>
      <trkpt lat="46.80542" lon="0.45701">
        <ele>-39.28</ele>
        <time>2023-10-15T07:15:37Z</time>
      </trkpt>
      <trkpt lat="46.80542" lon="0.45706">
        <ele>-39.76</ele>
        <time>2023-10-15T07:15:38Z</time>
      </trkpt>
      <trkpt lat="46.80542" lon="0.45737">
        <ele>-39.76</ele>
        <time>2023-10-15T07:15:44Z</time>
      </trkpt>
      <trkpt lat="46.8054" lon="0.45752">
        <ele>-39.76</ele>
        <time>2023-10-15T07:15:46Z</time>
      </trkpt>
      <trkpt lat="46.80539" lon="0.45761">
        <ele>-39.76</ele>
        <time>2023-10-15T07:15:47Z</time>
      </trkpt>
      <trkpt lat="46.80537" lon="0.45769">
        <ele>-39.28</ele>
        <time>2023-10-15T07:15:48Z</time>
      </trkpt>
      <trkpt lat="46.80535" lon="0.45777">
        <ele>-38.8</ele>
        <time>2023-10-15T07:15:49Z</time>
      </trkpt>
      <trkpt lat="46.80534" lon="0.45786">
        <ele>-39.28</ele>
        <time>2023-10-15T07:15:50Z</time>
      </trkpt>
      <trkpt lat="46.80533" lon="0.45795">
        <ele>-39.28</ele>
        <time>2023-10-15T07:15:51Z</time>
      </trkpt>
      <trkpt lat="46.80528" lon="0.4587">
        <ele>-39.28</ele>
        <time>2023-10-15T07:16:00Z</time>
      </trkpt>
      <trkpt lat="46.80522" lon="0.45936">
        <ele>-39.76</ele>
        <time>2023-10-15T07:16:09Z</time>
      </trkpt>
      <trkpt lat="46.80518" lon="0.45989">
        <ele>-39.76</ele>
        <time>2023-10-15T07:16:17Z</time>
      </trkpt>
      <trkpt lat="46.80518" lon="0.45995">
        <ele>-38.32</ele>
        <time>2023-10-15T07:16:18Z</time>
      </trkpt>
      <trkpt lat="46.8052" lon="0.45999">
        <ele>-38.8</ele>
        <time>2023-10-15T07:16:19Z</time>
      </trkpt>
      <trkpt lat="46.80523" lon="0.46002">
        <ele>-38.8</ele>
        <time>2023-10-15T07:16:20Z</time>
      </trkpt>
      <trkpt lat="46.80526" lon="0.46002">
        <ele>-37.83</ele>
        <time>2023-10-15T07:16:21Z</time>
      </trkpt>
      <trkpt lat="46.80529" lon="0.46002">
        <ele>-38.8</ele>
        <time>2023-10-15T07:16:22Z</time>
      </trkpt>
      <trkpt lat="46.80532" lon="0.46">
        <ele>-37.83</ele>
        <time>2023-10-15T07:16:23Z</time>
      </trkpt>
      <trkpt lat="46.80536" lon="0.46">
        <ele>-37.35</ele>
        <time>2023-10-15T07:16:24Z</time>
      </trkpt>
      <trkpt lat="46.80558" lon="0.45991">
        <ele>-36.87</ele>
        <time>2023-10-15T07:16:30Z</time>
      </trkpt>
      <trkpt lat="46.80582" lon="0.45981">
        <ele>-36.87</ele>
        <time>2023-10-15T07:16:36Z</time>
      </trkpt>
      <trkpt lat="46.80608" lon="0.45969">
        <ele>-35.91</ele>
        <time>2023-10-15T07:16:42Z</time>
      </trkpt>
      <trkpt lat="46.80612" lon="0.45967">
        <ele>-35.91</ele>
        <time>2023-10-15T07:16:43Z</time>
      </trkpt>
      <trkpt lat="46.80641" lon="0.45951">
        <ele>-35.91</ele>
        <time>2023-10-15T07:16:50Z</time>
      </trkpt>
      <trkpt lat="46.80663" lon="0.4594">
        <ele>-34.95</ele>
        <time>2023-10-15T07:16:55Z</time>
      </trkpt>
      <trkpt lat="46.8068" lon="0.4593">
        <ele>-34.95</ele>
        <time>2023-10-15T07:17:00Z</time>
      </trkpt>
      <trkpt lat="46.80682" lon="0.45925">
        <ele>-34.47</ele>
        <time>2023-10-15T07:17:01Z</time>
      </trkpt>
      <trkpt lat="46.80687" lon="0.45904">
        <ele>-34.95</ele>
        <time>2023-10-15T07:17:04Z</time>
      </trkpt>
      <trkpt lat="46.80689" lon="0.45898">
        <ele>-34.47</ele>
        <time>2023-10-15T07:17:05Z</time>
      </trkpt>
      <trkpt lat="46.80692" lon="0.45893">
        <ele>-35.43</ele>
        <time>2023-10-15T07:17:06Z</time>
      </trkpt>
      <trkpt lat="46.80696" lon="0.45888">
        <ele>-34.95</ele>
        <time>2023-10-15T07:17:07Z</time>
      </trkpt>
      <trkpt lat="46.80699" lon="0.45883">
        <ele>-35.43</ele>
        <time>2023-10-15T07:17:08Z</time>
      </trkpt>
      <trkpt lat="46.80711" lon="0.45869">
        <ele>-34.95</ele>
        <time>2023-10-15T07:17:11Z</time>
      </trkpt>
      <trkpt lat="46.80714" lon="0.45864">
        <ele>-35.91</ele>
        <time>2023-10-15T07:17:12Z</time>
      </trkpt>
      <trkpt lat="46.80717" lon="0.45859">
        <ele>-35.43</ele>
        <time>2023-10-15T07:17:13Z</time>
      </trkpt>
      <trkpt lat="46.80723" lon="0.45849">
        <ele>-34.95</ele>
        <time>2023-10-15T07:17:15Z</time>
      </trkpt>
      <trkpt lat="46.80726" lon="0.45844">
        <ele>-34.95</ele>
        <time>2023-10-15T07:17:16Z</time>
      </trkpt>
      <trkpt lat="46.80736" lon="0.45822">
        <ele>-34.95</ele>
        <time>2023-10-15T07:17:20Z</time>
      </trkpt>
      <trkpt lat="46.80739" lon="0.45816">
        <ele>-34.95</ele>
        <time>2023-10-15T07:17:21Z</time>
      </trkpt>
      <trkpt lat="46.80742" lon="0.45809">
        <ele>-34.95</ele>
        <time>2023-10-15T07:17:22Z</time>
      </trkpt>
      <trkpt lat="46.8075" lon="0.45791">
        <ele>-34.47</ele>
        <time>2023-10-15T07:17:25Z</time>
      </trkpt>
      <trkpt lat="46.80752" lon="0.45784">
        <ele>-34.47</ele>
        <time>2023-10-15T07:17:26Z</time>
      </trkpt>
      <trkpt lat="46.80753" lon="0.45777">
        <ele>-34.95</ele>
        <time>2023-10-15T07:17:27Z</time>
      </trkpt>
      <trkpt lat="46.80755" lon="0.4577">
        <ele>-34.95</ele>
        <time>2023-10-15T07:17:28Z</time>
      </trkpt>
      <trkpt lat="46.80758" lon="0.45764">
        <ele>-33.99</ele>
        <time>2023-10-15T07:17:29Z</time>
      </trkpt>
      <trkpt lat="46.80761" lon="0.45758">
        <ele>-34.47</ele>
        <time>2023-10-15T07:17:30Z</time>
      </trkpt>
      <trkpt lat="46.80786" lon="0.45708">
        <ele>-33.99</ele>
        <time>2023-10-15T07:17:39Z</time>
      </trkpt>
      <trkpt lat="46.80802" lon="0.45676">
        <ele>-33.03</ele>
        <time>2023-10-15T07:17:45Z</time>
      </trkpt>
      <trkpt lat="46.80806" lon="0.45671">
        <ele>-33.03</ele>
        <time>2023-10-15T07:17:46Z</time>
      </trkpt>
      <trkpt lat="46.80809" lon="0.45667">
        <ele>-33.51</ele>
        <time>2023-10-15T07:17:47Z</time>
      </trkpt>
      <trkpt lat="46.80813" lon="0.45663">
        <ele>-33.99</ele>
        <time>2023-10-15T07:17:48Z</time>
      </trkpt>
      <trkpt lat="46.80815" lon="0.45662">
        <ele>-33.03</ele>
        <time>2023-10-15T07:17:49Z</time>
      </trkpt>
      <trkpt lat="46.80818" lon="0.45662">
        <ele>-33.03</ele>
        <time>2023-10-15T07:17:50Z</time>
      </trkpt>
      <trkpt lat="46.80821" lon="0.45662">
        <ele>-33.03</ele>
        <time>2023-10-15T07:17:51Z</time>
      </trkpt>
      <trkpt lat="46.80824" lon="0.45661">
        <ele>-32.07</ele>
        <time>2023-10-15T07:17:52Z</time>
      </trkpt>
      <trkpt lat="46.80827" lon="0.45658">
        <ele>-32.07</ele>
        <time>2023-10-15T07:17:53Z</time>
      </trkpt>
      <trkpt lat="46.80829" lon="0.45654">
        <ele>-32.07</ele>
        <time>2023-10-15T07:17:54Z</time>
      </trkpt>
      <trkpt lat="46.80838" lon="0.45638">
        <ele>-31.11</ele>
        <time>2023-10-15T07:17:57Z</time>
      </trkpt>
      <trkpt lat="46.8084" lon="0.45632">
        <ele>-32.07</ele>
        <time>2023-10-15T07:17:58Z</time>
      </trkpt>
      <trkpt lat="46.8085" lon="0.45611">
        <ele>-31.11</ele>
        <time>2023-10-15T07:18:02Z</time>
      </trkpt>
      <trkpt lat="46.80856" lon="0.45594">
        <ele>-31.11</ele>
        <time>2023-10-15T07:18:05Z</time>
      </trkpt>
      <trkpt lat="46.80874" lon="0.45543">
        <ele>-30.62</ele>
        <time>2023-10-15T07:18:13Z</time>
      </trkpt>
      <trkpt lat="46.8089" lon="0.45485">
        <ele>-29.66</ele>
        <time>2023-10-15T07:18:22Z</time>
      </trkpt>
      <trkpt lat="46.80896" lon="0.45457">
        <ele>-30.14</ele>
        <time>2023-10-15T07:18:27Z</time>
      </trkpt>
      <trkpt lat="46.80897" lon="0.45452">
        <ele>-30.14</ele>
        <time>2023-10-15T07:18:28Z</time>
      </trkpt>
      <trkpt lat="46.80903" lon="0.4542">
        <ele>-30.62</ele>
        <time>2023-10-15T07:18:34Z</time>
      </trkpt>
      <trkpt lat="46.80902" lon="0.45413">
        <ele>-30.14</ele>
        <time>2023-10-15T07:18:36Z</time>
      </trkpt>
      <trkpt lat="46.80895" lon="0.45408">
        <ele>-31.59</ele>
        <time>2023-10-15T07:18:39Z</time>
      </trkpt>
      <trkpt lat="46.80879" lon="0.454">
        <ele>-32.55</ele>
        <time>2023-10-15T07:18:44Z</time>
      </trkpt>
      <trkpt lat="46.80859" lon="0.45405">
        <ele>-33.51</ele>
        <time>2023-10-15T07:18:49Z</time>
      </trkpt>
      <trkpt lat="46.80855" lon="0.45407">
        <ele>-33.03</ele>
        <time>2023-10-15T07:18:50Z</time>
      </trkpt>
      <trkpt lat="46.80841" lon="0.45408">
        <ele>-33.99</ele>
        <time>2023-10-15T07:18:53Z</time>
      </trkpt>
      <trkpt lat="46.80833" lon="0.45402">
        <ele>-33.03</ele>
        <time>2023-10-15T07:18:55Z</time>
      </trkpt>
      <trkpt lat="46.8083" lon="0.45398">
        <ele>-33.99</ele>
        <time>2023-10-15T07:18:56Z</time>
      </trkpt>
      <trkpt lat="46.80827" lon="0.45393">
        <ele>-33.99</ele>
        <time>2023-10-15T07:18:57Z</time>
      </trkpt>
      <trkpt lat="46.80823" lon="0.45389">
        <ele>-34.47</ele>
        <time>2023-10-15T07:18:58Z</time>
      </trkpt>
      <trkpt lat="46.8082" lon="0.45384">
        <ele>-34.47</ele>
        <time>2023-10-15T07:18:59Z</time>
      </trkpt>
      <trkpt lat="46.80813" lon="0.45375">
        <ele>-34.47</ele>
        <time>2023-10-15T07:19:01Z</time>
      </trkpt>
      <trkpt lat="46.80794" lon="0.4535">
        <ele>-34.95</ele>
        <time>2023-10-15T07:19:07Z</time>
      </trkpt>
      <trkpt lat="46.80786" lon="0.45339">
        <ele>-34.47</ele>
        <time>2023-10-15T07:19:10Z</time>
      </trkpt>
      <trkpt lat="46.80791" lon="0.4533">
        <ele>-35.43</ele>
        <time>2023-10-15T07:19:14Z</time>
      </trkpt>
      <trkpt lat="46.80803" lon="0.45329">
        <ele>-34.95</ele>
        <time>2023-10-15T07:19:18Z</time>
      </trkpt>
      <trkpt lat="46.80819" lon="0.45312">
        <ele>-33.99</ele>
        <time>2023-10-15T07:19:23Z</time>
      </trkpt>
      <trkpt lat="46.80833" lon="0.4528">
        <ele>-33.03</ele>
        <time>2023-10-15T07:19:29Z</time>
      </trkpt>
      <trkpt lat="46.80841" lon="0.45256">
        <ele>-33.99</ele>
        <time>2023-10-15T07:19:33Z</time>
      </trkpt>
      <trkpt lat="46.8085" lon="0.45231">
        <ele>-34.47</ele>
        <time>2023-10-15T07:19:37Z</time>
      </trkpt>
      <trkpt lat="46.80851" lon="0.452">
        <ele>-33.51</ele>
        <time>2023-10-15T07:19:41Z</time>
      </trkpt>
      <trkpt lat="46.80859" lon="0.45149">
        <ele>-33.51</ele>
        <time>2023-10-15T07:19:48Z</time>
      </trkpt>
      <trkpt lat="46.80862" lon="0.45138">
        <ele>-33.03</ele>
        <time>2023-10-15T07:19:50Z</time>
      </trkpt>
      <trkpt lat="46.80868" lon="0.45115">
        <ele>-32.55</ele>
        <time>2023-10-15T07:19:54Z</time>
      </trkpt>
      <trkpt lat="46.80878" lon="0.45066">
        <ele>-33.03</ele>
        <time>2023-10-15T07:20:02Z</time>
      </trkpt>
      <trkpt lat="46.80882" lon="0.45048">
        <ele>-31.59</ele>
        <time>2023-10-15T07:20:05Z</time>
      </trkpt>
      <trkpt lat="46.80885" lon="0.45035">
        <ele>-32.55</ele>
        <time>2023-10-15T07:20:07Z</time>
      </trkpt>
      <trkpt lat="46.80892" lon="0.45001">
        <ele>-31.11</ele>
        <time>2023-10-15T07:20:13Z</time>
      </trkpt>
      <trkpt lat="46.80899" lon="0.44976">
        <ele>-30.62</ele>
        <time>2023-10-15T07:20:19Z</time>
      </trkpt>
      <trkpt lat="46.80912" lon="0.44982">
        <ele>-29.66</ele>
        <time>2023-10-15T07:20:25Z</time>
      </trkpt>
      <trkpt lat="46.80936" lon="0.45001">
        <ele>-28.22</ele>
        <time>2023-10-15T07:20:33Z</time>
      </trkpt>
      <trkpt lat="46.80951" lon="0.45013">
        <ele>-27.74</ele>
        <time>2023-10-15T07:20:39Z</time>
      </trkpt>
      <trkpt lat="46.80969" lon="0.45028">
        <ele>-27.26</ele>
        <time>2023-10-15T07:20:47Z</time>
      </trkpt>
      <trkpt lat="46.80968" lon="0.45051">
        <ele>-27.26</ele>
        <time>2023-10-15T07:20:53Z</time>
      </trkpt>
      <trkpt lat="46.80963" lon="0.4508">
        <ele>-27.74</ele>
        <time>2023-10-15T07:20:58Z</time>
      </trkpt>
      <trkpt lat="46.80956" lon="0.45121">
        <ele>-29.66</ele>
        <time>2023-10-15T07:21:04Z</time>
      </trkpt>
      <trkpt lat="46.80955" lon="0.45128">
        <ele>-28.22</ele>
        <time>2023-10-15T07:21:05Z</time>
      </trkpt>
      <trkpt lat="46.80945" lon="0.45185">
        <ele>-28.22</ele>
        <time>2023-10-15T07:21:14Z</time>
      </trkpt>
      <trkpt lat="46.80939" lon="0.45213">
        <ele>-29.18</ele>
        <time>2023-10-15T07:21:19Z</time>
      </trkpt>
      <trkpt lat="46.80938" lon="0.45219">
        <ele>-29.18</ele>
        <time>2023-10-15T07:21:20Z</time>
      </trkpt>
      <trkpt lat="46.80937" lon="0.45225">
        <ele>-29.18</ele>
        <time>2023-10-15T07:21:21Z</time>
      </trkpt>
      <trkpt lat="46.80937" lon="0.4523">
        <ele>-29.18</ele>
        <time>2023-10-15T07:21:22Z</time>
      </trkpt>
      <trkpt lat="46.80939" lon="0.45233">
        <ele>-29.18</ele>
        <time>2023-10-15T07:21:23Z</time>
      </trkpt>
      <trkpt lat="46.80949" lon="0.45237">
        <ele>-29.18</ele>
        <time>2023-10-15T07:21:28Z</time>
      </trkpt>
      <trkpt lat="46.80962" lon="0.45244">
        <ele>-28.22</ele>
        <time>2023-10-15T07:21:34Z</time>
      </trkpt>
      <trkpt lat="46.80967" lon="0.45236">
        <ele>-27.74</ele>
        <time>2023-10-15T07:21:38Z</time>
      </trkpt>
      <trkpt lat="46.80961" lon="0.45225">
        <ele>-27.74</ele>
        <time>2023-10-15T07:21:43Z</time>
      </trkpt>
      <trkpt lat="46.80957" lon="0.45214">
        <ele>-28.22</ele>
        <time>2023-10-15T07:21:48Z</time>
      </trkpt>
      <trkpt lat="46.80957" lon="0.45212">
        <ele>-28.22</ele>
        <time>2023-10-15T07:21:49Z</time>
      </trkpt>
      <trkpt lat="46.80959" lon="0.45206">
        <ele>-29.18</ele>
        <time>2023-10-15T07:21:52Z</time>
      </trkpt>
      <trkpt lat="46.80964" lon="0.45199">
        <ele>-28.7</ele>
        <time>2023-10-15T07:21:57Z</time>
      </trkpt>
      <trkpt lat="46.80965" lon="0.45198">
        <ele>-29.18</ele>
        <time>2023-10-15T07:21:58Z</time>
      </trkpt>
      <trkpt lat="46.8097" lon="0.45192">
        <ele>-28.7</ele>
        <time>2023-10-15T07:22:03Z</time>
      </trkpt>
      <trkpt lat="46.80978" lon="0.45197">
        <ele>-26.3</ele>
        <time>2023-10-15T07:22:07Z</time>
      </trkpt>
      <trkpt lat="46.80987" lon="0.45201">
        <ele>-26.78</ele>
        <time>2023-10-15T07:22:13Z</time>
      </trkpt>
      <trkpt lat="46.80994" lon="0.45204">
        <ele>-26.3</ele>
        <time>2023-10-15T07:22:17Z</time>
      </trkpt>
      <trkpt lat="46.81001" lon="0.45214">
        <ele>-25.82</ele>
        <time>2023-10-15T07:22:22Z</time>
      </trkpt>
      <trkpt lat="46.81014" lon="0.45211">
        <ele>-24.86</ele>
        <time>2023-10-15T07:22:28Z</time>
      </trkpt>
      <trkpt lat="46.81017" lon="0.45212">
        <ele>-23.41</ele>
        <time>2023-10-15T07:22:30Z</time>
      </trkpt>
      <trkpt lat="46.81022" lon="0.45218">
        <ele>-23.9</ele>
        <time>2023-10-15T07:22:33Z</time>
      </trkpt>
      <trkpt lat="46.81033" lon="0.45217">
        <ele>-22.93</ele>
        <time>2023-10-15T07:22:39Z</time>
      </trkpt>
      <trkpt lat="46.81035" lon="0.45205">
        <ele>-22.93</ele>
        <time>2023-10-15T07:22:43Z</time>
      </trkpt>
      <trkpt lat="46.81041" lon="0.45212">
        <ele>-22.93</ele>
        <time>2023-10-15T07:22:47Z</time>
      </trkpt>
      <trkpt lat="46.81047" lon="0.45208">
        <ele>-21.01</ele>
        <time>2023-10-15T07:22:52Z</time>
      </trkpt>
      <trkpt lat="46.8106" lon="0.45207">
        <ele>-21.01</ele>
        <time>2023-10-15T07:22:57Z</time>
      </trkpt>
      <trkpt lat="46.81065" lon="0.45207">
        <ele>-19.57</ele>
        <time>2023-10-15T07:22:59Z</time>
      </trkpt>
      <trkpt lat="46.81065" lon="0.45215">
        <ele>-20.53</ele>
        <time>2023-10-15T07:23:04Z</time>
      </trkpt>
      <trkpt lat="46.81063" lon="0.45227">
        <ele>-20.05</ele>
        <time>2023-10-15T07:23:08Z</time>
      </trkpt>
      <trkpt lat="46.81066" lon="0.45222">
        <ele>-19.09</ele>
        <time>2023-10-15T07:23:11Z</time>
      </trkpt>
      <trkpt lat="46.81075" lon="0.4522">
        <ele>-17.65</ele>
        <time>2023-10-15T07:23:15Z</time>
      </trkpt>
      <trkpt lat="46.81076" lon="0.45219">
        <ele>-18.13</ele>
        <time>2023-10-15T07:23:16Z</time>
      </trkpt>
      <trkpt lat="46.81079" lon="0.45213">
        <ele>-18.13</ele>
        <time>2023-10-15T07:23:20Z</time>
      </trkpt>
      <trkpt lat="46.81087" lon="0.45221">
        <ele>-17.17</ele>
        <time>2023-10-15T07:23:25Z</time>
      </trkpt>
      <trkpt lat="46.81087" lon="0.45222">
        <ele>-15.72</ele>
        <time>2023-10-15T07:23:26Z</time>
      </trkpt>
      <trkpt lat="46.81097" lon="0.45217">
        <ele>-15.24</ele>
        <time>2023-10-15T07:23:32Z</time>
      </trkpt>
      <trkpt lat="46.81097" lon="0.45214">
        <ele>-14.76</ele>
        <time>2023-10-15T07:23:34Z</time>
      </trkpt>
      <trkpt lat="46.81088" lon="0.45203">
        <ele>-16.21</ele>
        <time>2023-10-15T07:23:39Z</time>
      </trkpt>
      <trkpt lat="46.81085" lon="0.45199">
        <ele>-17.17</ele>
        <time>2023-10-15T07:23:40Z</time>
      </trkpt>
      <trkpt lat="46.81081" lon="0.45195">
        <ele>-18.13</ele>
        <time>2023-10-15T07:23:41Z</time>
      </trkpt>
      <trkpt lat="46.81076" lon="0.45191">
        <ele>-17.65</ele>
        <time>2023-10-15T07:23:42Z</time>
      </trkpt>
      <trkpt lat="46.8107" lon="0.45189">
        <ele>-18.13</ele>
        <time>2023-10-15T07:23:43Z</time>
      </trkpt>
      <trkpt lat="46.81064" lon="0.45186">
        <ele>-19.09</ele>
        <time>2023-10-15T07:23:44Z</time>
      </trkpt>
      <trkpt lat="46.81059" lon="0.45185">
        <ele>-20.53</ele>
        <time>2023-10-15T07:23:45Z</time>
      </trkpt>
      <trkpt lat="46.81054" lon="0.45184">
        <ele>-20.53</ele>
        <time>2023-10-15T07:23:46Z</time>
      </trkpt>
      <trkpt lat="46.81049" lon="0.45181">
        <ele>-20.05</ele>
        <time>2023-10-15T07:23:47Z</time>
      </trkpt>
      <trkpt lat="46.81044" lon="0.45177">
        <ele>-21.49</ele>
        <time>2023-10-15T07:23:48Z</time>
      </trkpt>
      <trkpt lat="46.81039" lon="0.45175">
        <ele>-22.93</ele>
        <time>2023-10-15T07:23:49Z</time>
      </trkpt>
      <trkpt lat="46.81037" lon="0.45172">
        <ele>-23.9</ele>
        <time>2023-10-15T07:23:50Z</time>
      </trkpt>
      <trkpt lat="46.81035" lon="0.45169">
        <ele>-23.41</ele>
        <time>2023-10-15T07:23:51Z</time>
      </trkpt>
      <trkpt lat="46.81034" lon="0.45165">
        <ele>-23.9</ele>
        <time>2023-10-15T07:23:52Z</time>
      </trkpt>
      <trkpt lat="46.81032" lon="0.45161">
        <ele>-23.41</ele>
        <time>2023-10-15T07:23:53Z</time>
      </trkpt>
      <trkpt lat="46.81031" lon="0.45156">
        <ele>-23.9</ele>
        <time>2023-10-15T07:23:54Z</time>
      </trkpt>
      <trkpt lat="46.81029" lon="0.45152">
        <ele>-23.41</ele>
        <time>2023-10-15T07:23:55Z</time>
      </trkpt>
      <trkpt lat="46.81027" lon="0.45148">
        <ele>-23.9</ele>
        <time>2023-10-15T07:23:56Z</time>
      </trkpt>
      <trkpt lat="46.81025" lon="0.45143">
        <ele>-24.38</ele>
        <time>2023-10-15T07:23:57Z</time>
      </trkpt>
      <trkpt lat="46.81024" lon="0.45139">
        <ele>-24.38</ele>
        <time>2023-10-15T07:23:58Z</time>
      </trkpt>
      <trkpt lat="46.81024" lon="0.45136">
        <ele>-23.9</ele>
        <time>2023-10-15T07:23:59Z</time>
      </trkpt>
      <trkpt lat="46.81024" lon="0.45133">
        <ele>-23.9</ele>
        <time>2023-10-15T07:24:00Z</time>
      </trkpt>
      <trkpt lat="46.81027" lon="0.45124">
        <ele>-23.9</ele>
        <time>2023-10-15T07:24:03Z</time>
      </trkpt>
      <trkpt lat="46.8103" lon="0.4511">
        <ele>-23.41</ele>
        <time>2023-10-15T07:24:07Z</time>
      </trkpt>
      <trkpt lat="46.81035" lon="0.45103">
        <ele>-22.93</ele>
        <time>2023-10-15T07:24:10Z</time>
      </trkpt>
      <trkpt lat="46.81036" lon="0.45094">
        <ele>-22.45</ele>
        <time>2023-10-15T07:24:15Z</time>
      </trkpt>
      <trkpt lat="46.81026" lon="0.45079">
        <ele>-24.38</ele>
        <time>2023-10-15T07:24:22Z</time>
      </trkpt>
      <trkpt lat="46.81026" lon="0.45079">
        <ele>-24.38</ele>
        <time>2023-10-15T07:24:36Z</time>
      </trkpt>
      <trkpt lat="46.81027" lon="0.45076">
        <ele>-24.38</ele>
        <time>2023-10-15T07:25:14Z</time>
      </trkpt>
      <trkpt lat="46.81026" lon="0.45075">
        <ele>-25.82</ele>
        <time>2023-10-15T07:25:21Z</time>
      </trkpt>
      <trkpt lat="46.81017" lon="0.45066">
        <ele>-25.34</ele>
        <time>2023-10-15T07:25:26Z</time>
      </trkpt>
      <trkpt lat="46.81005" lon="0.45054">
        <ele>-26.78</ele>
        <time>2023-10-15T07:25:30Z</time>
      </trkpt>
      <trkpt lat="46.80994" lon="0.45044">
        <ele>-27.26</ele>
        <time>2023-10-15T07:25:33Z</time>
      </trkpt>
      <trkpt lat="46.8099" lon="0.4504">
        <ele>-26.78</ele>
        <time>2023-10-15T07:25:34Z</time>
      </trkpt>
      <trkpt lat="46.80986" lon="0.45037">
        <ele>-26.3</ele>
        <time>2023-10-15T07:25:35Z</time>
      </trkpt>
      <trkpt lat="46.80984" lon="0.45033">
        <ele>-27.74</ele>
        <time>2023-10-15T07:25:36Z</time>
      </trkpt>
      <trkpt lat="46.80983" lon="0.45029">
        <ele>-27.26</ele>
        <time>2023-10-15T07:25:37Z</time>
      </trkpt>
      <trkpt lat="46.80983" lon="0.45024">
        <ele>-27.26</ele>
        <time>2023-10-15T07:25:38Z</time>
      </trkpt>
      <trkpt lat="46.80985" lon="0.45021">
        <ele>-26.78</ele>
        <time>2023-10-15T07:25:39Z</time>
      </trkpt>
      <trkpt lat="46.80987" lon="0.45016">
        <ele>-27.74</ele>
        <time>2023-10-15T07:25:40Z</time>
      </trkpt>
      <trkpt lat="46.80988" lon="0.45011">
        <ele>-27.74</ele>
        <time>2023-10-15T07:25:41Z</time>
      </trkpt>
      <trkpt lat="46.80988" lon="0.45007">
        <ele>-27.74</ele>
        <time>2023-10-15T07:25:42Z</time>
      </trkpt>
      <trkpt lat="46.8099" lon="0.45002">
        <ele>-28.22</ele>
        <time>2023-10-15T07:25:43Z</time>
      </trkpt>
      <trkpt lat="46.80992" lon="0.44999">
        <ele>-27.26</ele>
        <time>2023-10-15T07:25:44Z</time>
      </trkpt>
      <trkpt lat="46.80994" lon="0.44995">
        <ele>-27.74</ele>
        <time>2023-10-15T07:25:45Z</time>
      </trkpt>
      <trkpt lat="46.80998" lon="0.44984">
        <ele>-27.74</ele>
        <time>2023-10-15T07:25:47Z</time>
      </trkpt>
      <trkpt lat="46.81001" lon="0.4497">
        <ele>-26.78</ele>
        <time>2023-10-15T07:25:49Z</time>
      </trkpt>
      <trkpt lat="46.81001" lon="0.44962">
        <ele>-27.26</ele>
        <time>2023-10-15T07:25:50Z</time>
      </trkpt>
      <trkpt lat="46.81001" lon="0.44955">
        <ele>-27.26</ele>
        <time>2023-10-15T07:25:51Z</time>
      </trkpt>
      <trkpt lat="46.81002" lon="0.44948">
        <ele>-26.78</ele>
        <time>2023-10-15T07:25:52Z</time>
      </trkpt>
      <trkpt lat="46.81003" lon="0.44942">
        <ele>-26.78</ele>
        <time>2023-10-15T07:25:53Z</time>
      </trkpt>
      <trkpt lat="46.81004" lon="0.44935">
        <ele>-27.26</ele>
        <time>2023-10-15T07:25:54Z</time>
      </trkpt>
      <trkpt lat="46.81005" lon="0.44927">
        <ele>-27.26</ele>
        <time>2023-10-15T07:25:55Z</time>
      </trkpt>
      <trkpt lat="46.81006" lon="0.44919">
        <ele>-26.78</ele>
        <time>2023-10-15T07:25:56Z</time>
      </trkpt>
      <trkpt lat="46.81007" lon="0.44912">
        <ele>-25.82</ele>
        <time>2023-10-15T07:25:57Z</time>
      </trkpt>
      <trkpt lat="46.81009" lon="0.44903">
        <ele>-27.26</ele>
        <time>2023-10-15T07:25:58Z</time>
      </trkpt>
      <trkpt lat="46.8101" lon="0.44896">
        <ele>-27.26</ele>
        <time>2023-10-15T07:25:59Z</time>
      </trkpt>
      <trkpt lat="46.81021" lon="0.44842">
        <ele>-25.82</ele>
        <time>2023-10-15T07:26:06Z</time>
      </trkpt>
      <trkpt lat="46.81031" lon="0.44788">
        <ele>-25.34</ele>
        <time>2023-10-15T07:26:13Z</time>
      </trkpt>
      <trkpt lat="46.81036" lon="0.44767">
        <ele>-25.82</ele>
        <time>2023-10-15T07:26:16Z</time>
      </trkpt>
      <trkpt lat="46.81038" lon="0.44759">
        <ele>-25.34</ele>
        <time>2023-10-15T07:26:17Z</time>
      </trkpt>
      <trkpt lat="46.81046" lon="0.44715">
        <ele>-25.34</ele>
        <time>2023-10-15T07:26:24Z</time>
      </trkpt>
      <trkpt lat="46.81048" lon="0.4471">
        <ele>-24.86</ele>
        <time>2023-10-15T07:26:25Z</time>
      </trkpt>
      <trkpt lat="46.81052" lon="0.44709">
        <ele>-25.34</ele>
        <time>2023-10-15T07:26:26Z</time>
      </trkpt>
      <trkpt lat="46.81056" lon="0.44707">
        <ele>-25.82</ele>
        <time>2023-10-15T07:26:27Z</time>
      </trkpt>
      <trkpt lat="46.81059" lon="0.44705">
        <ele>-26.3</ele>
        <time>2023-10-15T07:26:28Z</time>
      </trkpt>
      <trkpt lat="46.81073" lon="0.44703">
        <ele>-23.41</ele>
        <time>2023-10-15T07:26:34Z</time>
      </trkpt>
      <trkpt lat="46.81084" lon="0.44705">
        <ele>-21.97</ele>
        <time>2023-10-15T07:26:39Z</time>
      </trkpt>
      <trkpt lat="46.81091" lon="0.44706">
        <ele>-20.53</ele>
        <time>2023-10-15T07:26:42Z</time>
      </trkpt>
      <trkpt lat="46.81103" lon="0.44706">
        <ele>-19.57</ele>
        <time>2023-10-15T07:26:47Z</time>
      </trkpt>
      <trkpt lat="46.81122" lon="0.44705">
        <ele>-17.65</ele>
        <time>2023-10-15T07:26:53Z</time>
      </trkpt>
      <trkpt lat="46.81125" lon="0.44705">
        <ele>-18.13</ele>
        <time>2023-10-15T07:26:54Z</time>
      </trkpt>
      <trkpt lat="46.8114" lon="0.44705">
        <ele>-17.17</ele>
        <time>2023-10-15T07:26:59Z</time>
      </trkpt>
      <trkpt lat="46.81159" lon="0.44707">
        <ele>-17.17</ele>
        <time>2023-10-15T07:27:05Z</time>
      </trkpt>
      <trkpt lat="46.81178" lon="0.44709">
        <ele>-15.72</ele>
        <time>2023-10-15T07:27:11Z</time>
      </trkpt>
      <trkpt lat="46.81192" lon="0.44708">
        <ele>-15.24</ele>
        <time>2023-10-15T07:27:17Z</time>
      </trkpt>
      <trkpt lat="46.81211" lon="0.44707">
        <ele>-14.28</ele>
        <time>2023-10-15T07:27:23Z</time>
      </trkpt>
      <trkpt lat="46.81234" lon="0.4471">
        <ele>-13.32</ele>
        <time>2023-10-15T07:27:29Z</time>
      </trkpt>
      <trkpt lat="46.81248" lon="0.44712">
        <ele>-12.36</ele>
        <time>2023-10-15T07:27:34Z</time>
      </trkpt>
      <trkpt lat="46.81266" lon="0.44713">
        <ele>-10.44</ele>
        <time>2023-10-15T07:27:41Z</time>
      </trkpt>
      <trkpt lat="46.81279" lon="0.44714">
        <ele>-9</ele>
        <time>2023-10-15T07:27:47Z</time>
      </trkpt>
      <trkpt lat="46.81294" lon="0.44714">
        <ele>-8.03</ele>
        <time>2023-10-15T07:27:53Z</time>
      </trkpt>
      <trkpt lat="46.81301" lon="0.44714">
        <ele>-6.59</ele>
        <time>2023-10-15T07:27:56Z</time>
      </trkpt>
      <trkpt lat="46.81315" lon="0.44714">
        <ele>-6.11</ele>
        <time>2023-10-15T07:28:01Z</time>
      </trkpt>
      <trkpt lat="46.81333" lon="0.44713">
        <ele>-4.67</ele>
        <time>2023-10-15T07:28:08Z</time>
      </trkpt>
      <trkpt lat="46.81351" lon="0.44709">
        <ele>-4.67</ele>
        <time>2023-10-15T07:28:15Z</time>
      </trkpt>
      <trkpt lat="46.81376" lon="0.44711">
        <ele>-3.71</ele>
        <time>2023-10-15T07:28:22Z</time>
      </trkpt>
      <trkpt lat="46.8141" lon="0.44717">
        <ele>-5.63</ele>
        <time>2023-10-15T07:28:29Z</time>
      </trkpt>
      <trkpt lat="46.81467" lon="0.44729">
        <ele>-6.59</ele>
        <time>2023-10-15T07:28:40Z</time>
      </trkpt>
      <trkpt lat="46.81512" lon="0.44738">
        <ele>-4.19</ele>
        <time>2023-10-15T07:28:49Z</time>
      </trkpt>
      <trkpt lat="46.81554" lon="0.44746">
        <ele>-8.03</ele>
        <time>2023-10-15T07:28:58Z</time>
      </trkpt>
      <trkpt lat="46.81583" lon="0.44752">
        <ele>-7.07</ele>
        <time>2023-10-15T07:29:05Z</time>
      </trkpt>
      <trkpt lat="46.81596" lon="0.44752">
        <ele>-7.55</ele>
        <time>2023-10-15T07:29:09Z</time>
      </trkpt>
      <trkpt lat="46.81638" lon="0.44737">
        <ele>-6.59</ele>
        <time>2023-10-15T07:29:17Z</time>
      </trkpt>
      <trkpt lat="46.81679" lon="0.44732">
        <ele>-8.51</ele>
        <time>2023-10-15T07:29:24Z</time>
      </trkpt>
      <trkpt lat="46.81698" lon="0.44738">
        <ele>-9.96</ele>
        <time>2023-10-15T07:29:27Z</time>
      </trkpt>
      <trkpt lat="46.81769" lon="0.4476">
        <ele>-12.36</ele>
        <time>2023-10-15T07:29:38Z</time>
      </trkpt>
      <trkpt lat="46.8182" lon="0.44775">
        <ele>-15.24</ele>
        <time>2023-10-15T07:29:45Z</time>
      </trkpt>
      <trkpt lat="46.81877" lon="0.44791">
        <ele>-15.24</ele>
        <time>2023-10-15T07:29:53Z</time>
      </trkpt>
      <trkpt lat="46.81897" lon="0.44797">
        <ele>-16.21</ele>
        <time>2023-10-15T07:29:56Z</time>
      </trkpt>
      <trkpt lat="46.81903" lon="0.44801">
        <ele>-16.21</ele>
        <time>2023-10-15T07:29:57Z</time>
      </trkpt>
      <trkpt lat="46.81909" lon="0.44806">
        <ele>-16.21</ele>
        <time>2023-10-15T07:29:58Z</time>
      </trkpt>
      <trkpt lat="46.81915" lon="0.44812">
        <ele>-16.21</ele>
        <time>2023-10-15T07:29:59Z</time>
      </trkpt>
      <trkpt lat="46.8192" lon="0.44818">
        <ele>-15.72</ele>
        <time>2023-10-15T07:30:00Z</time>
      </trkpt>
      <trkpt lat="46.81943" lon="0.44845">
        <ele>-14.76</ele>
        <time>2023-10-15T07:30:05Z</time>
      </trkpt>
      <trkpt lat="46.81946" lon="0.44853">
        <ele>-15.72</ele>
        <time>2023-10-15T07:30:06Z</time>
      </trkpt>
      <trkpt lat="46.81946" lon="0.44861">
        <ele>-14.28</ele>
        <time>2023-10-15T07:30:07Z</time>
      </trkpt>
      <trkpt lat="46.81946" lon="0.44869">
        <ele>-13.8</ele>
        <time>2023-10-15T07:30:08Z</time>
      </trkpt>
      <trkpt lat="46.81946" lon="0.44877">
        <ele>-13.8</ele>
        <time>2023-10-15T07:30:09Z</time>
      </trkpt>
      <trkpt lat="46.81945" lon="0.44886">
        <ele>-12.84</ele>
        <time>2023-10-15T07:30:10Z</time>
      </trkpt>
      <trkpt lat="46.81944" lon="0.44894">
        <ele>-13.32</ele>
        <time>2023-10-15T07:30:11Z</time>
      </trkpt>
      <trkpt lat="46.81943" lon="0.44903">
        <ele>-13.32</ele>
        <time>2023-10-15T07:30:12Z</time>
      </trkpt>
      <trkpt lat="46.81943" lon="0.44911">
        <ele>-13.8</ele>
        <time>2023-10-15T07:30:13Z</time>
      </trkpt>
      <trkpt lat="46.81943" lon="0.4492">
        <ele>-13.32</ele>
        <time>2023-10-15T07:30:14Z</time>
      </trkpt>
      <trkpt lat="46.81942" lon="0.44929">
        <ele>-13.32</ele>
        <time>2023-10-15T07:30:15Z</time>
      </trkpt>
      <trkpt lat="46.8194" lon="0.44936">
        <ele>-13.32</ele>
        <time>2023-10-15T07:30:16Z</time>
      </trkpt>
      <trkpt lat="46.81937" lon="0.44943">
        <ele>-14.76</ele>
        <time>2023-10-15T07:30:17Z</time>
      </trkpt>
      <trkpt lat="46.81934" lon="0.4495">
        <ele>-12.84</ele>
        <time>2023-10-15T07:30:18Z</time>
      </trkpt>
      <trkpt lat="46.81931" lon="0.44957">
        <ele>-13.32</ele>
        <time>2023-10-15T07:30:19Z</time>
      </trkpt>
      <trkpt lat="46.81929" lon="0.44964">
        <ele>-14.28</ele>
        <time>2023-10-15T07:30:20Z</time>
      </trkpt>
      <trkpt lat="46.81927" lon="0.44972">
        <ele>-14.28</ele>
        <time>2023-10-15T07:30:21Z</time>
      </trkpt>
      <trkpt lat="46.81926" lon="0.44979">
        <ele>-13.8</ele>
        <time>2023-10-15T07:30:22Z</time>
      </trkpt>
      <trkpt lat="46.81922" lon="0.45001">
        <ele>-14.28</ele>
        <time>2023-10-15T07:30:25Z</time>
      </trkpt>
      <trkpt lat="46.81921" lon="0.45008">
        <ele>-14.28</ele>
        <time>2023-10-15T07:30:26Z</time>
      </trkpt>
      <trkpt lat="46.81921" lon="0.45022">
        <ele>-13.32</ele>
        <time>2023-10-15T07:30:28Z</time>
      </trkpt>
      <trkpt lat="46.81924" lon="0.45077">
        <ele>-13.8</ele>
        <time>2023-10-15T07:30:34Z</time>
      </trkpt>
      <trkpt lat="46.81927" lon="0.45103">
        <ele>-14.28</ele>
        <time>2023-10-15T07:30:37Z</time>
      </trkpt>
      <trkpt lat="46.81923" lon="0.45155">
        <ele>-13.8</ele>
        <time>2023-10-15T07:30:43Z</time>
      </trkpt>
      <trkpt lat="46.81911" lon="0.45248">
        <ele>-15.72</ele>
        <time>2023-10-15T07:30:53Z</time>
      </trkpt>
      <trkpt lat="46.81903" lon="0.45332">
        <ele>-18.13</ele>
        <time>2023-10-15T07:31:01Z</time>
      </trkpt>
      <trkpt lat="46.81894" lon="0.45422">
        <ele>-17.65</ele>
        <time>2023-10-15T07:31:10Z</time>
      </trkpt>
      <trkpt lat="46.81894" lon="0.45431">
        <ele>-17.17</ele>
        <time>2023-10-15T07:31:11Z</time>
      </trkpt>
      <trkpt lat="46.81894" lon="0.45447">
        <ele>-16.21</ele>
        <time>2023-10-15T07:31:13Z</time>
      </trkpt>
      <trkpt lat="46.81893" lon="0.45478">
        <ele>-17.17</ele>
        <time>2023-10-15T07:31:17Z</time>
      </trkpt>
      <trkpt lat="46.81892" lon="0.45485">
        <ele>-15.24</ele>
        <time>2023-10-15T07:31:18Z</time>
      </trkpt>
      <trkpt lat="46.8189" lon="0.45493">
        <ele>-15.72</ele>
        <time>2023-10-15T07:31:19Z</time>
      </trkpt>
      <trkpt lat="46.81881" lon="0.45524">
        <ele>-16.69</ele>
        <time>2023-10-15T07:31:23Z</time>
      </trkpt>
      <trkpt lat="46.81879" lon="0.45531">
        <ele>-16.69</ele>
        <time>2023-10-15T07:31:24Z</time>
      </trkpt>
      <trkpt lat="46.81878" lon="0.45538">
        <ele>-16.69</ele>
        <time>2023-10-15T07:31:25Z</time>
      </trkpt>
      <trkpt lat="46.81879" lon="0.45545">
        <ele>-16.69</ele>
        <time>2023-10-15T07:31:26Z</time>
      </trkpt>
      <trkpt lat="46.81881" lon="0.45551">
        <ele>-16.21</ele>
        <time>2023-10-15T07:31:27Z</time>
      </trkpt>
      <trkpt lat="46.81885" lon="0.45556">
        <ele>-16.69</ele>
        <time>2023-10-15T07:31:28Z</time>
      </trkpt>
      <trkpt lat="46.81888" lon="0.4556">
        <ele>-15.24</ele>
        <time>2023-10-15T07:31:29Z</time>
      </trkpt>
      <trkpt lat="46.81892" lon="0.45564">
        <ele>-15.24</ele>
        <time>2023-10-15T07:31:30Z</time>
      </trkpt>
      <trkpt lat="46.81903" lon="0.45577">
        <ele>-15.24</ele>
        <time>2023-10-15T07:31:33Z</time>
      </trkpt>
      <trkpt lat="46.81906" lon="0.45582">
        <ele>-14.76</ele>
        <time>2023-10-15T07:31:34Z</time>
      </trkpt>
      <trkpt lat="46.8191" lon="0.45586">
        <ele>-15.72</ele>
        <time>2023-10-15T07:31:35Z</time>
      </trkpt>
      <trkpt lat="46.81937" lon="0.45621">
        <ele>-15.24</ele>
        <time>2023-10-15T07:31:42Z</time>
      </trkpt>
      <trkpt lat="46.81964" lon="0.45651">
        <ele>-14.76</ele>
        <time>2023-10-15T07:31:49Z</time>
      </trkpt>
      <trkpt lat="46.8199" lon="0.45678">
        <ele>-13.32</ele>
        <time>2023-10-15T07:31:56Z</time>
      </trkpt>
      <trkpt lat="46.8202" lon="0.4571">
        <ele>-13.8</ele>
        <time>2023-10-15T07:32:04Z</time>
      </trkpt>
      <trkpt lat="46.82049" lon="0.4574">
        <ele>-11.88</ele>
        <time>2023-10-15T07:32:12Z</time>
      </trkpt>
      <trkpt lat="46.8208" lon="0.45772">
        <ele>-11.4</ele>
        <time>2023-10-15T07:32:21Z</time>
      </trkpt>
      <trkpt lat="46.8211" lon="0.45801">
        <ele>-12.36</ele>
        <time>2023-10-15T07:32:30Z</time>
      </trkpt>
      <trkpt lat="46.82116" lon="0.45808">
        <ele>-11.4</ele>
        <time>2023-10-15T07:32:32Z</time>
      </trkpt>
      <trkpt lat="46.82134" lon="0.45827">
        <ele>-10.44</ele>
        <time>2023-10-15T07:32:38Z</time>
      </trkpt>
      <trkpt lat="46.82139" lon="0.45827">
        <ele>-9.96</ele>
        <time>2023-10-15T07:32:40Z</time>
      </trkpt>
      <trkpt lat="46.82141" lon="0.45825">
        <ele>-9.48</ele>
        <time>2023-10-15T07:32:41Z</time>
      </trkpt>
      <trkpt lat="46.82144" lon="0.45821">
        <ele>-10.44</ele>
        <time>2023-10-15T07:32:42Z</time>
      </trkpt>
      <trkpt lat="46.82159" lon="0.45787">
        <ele>-9.96</ele>
        <time>2023-10-15T07:32:50Z</time>
      </trkpt>
      <trkpt lat="46.82175" lon="0.45763">
        <ele>-9.96</ele>
        <time>2023-10-15T07:32:56Z</time>
      </trkpt>
      <trkpt lat="46.82177" lon="0.45759">
        <ele>-9</ele>
        <time>2023-10-15T07:32:57Z</time>
      </trkpt>
      <trkpt lat="46.82191" lon="0.45735">
        <ele>-10.44</ele>
        <time>2023-10-15T07:33:02Z</time>
      </trkpt>
      <trkpt lat="46.82217" lon="0.45693">
        <ele>-9.96</ele>
        <time>2023-10-15T07:33:11Z</time>
      </trkpt>
      <trkpt lat="46.82237" lon="0.45659">
        <ele>-9.48</ele>
        <time>2023-10-15T07:33:18Z</time>
      </trkpt>
      <trkpt lat="46.82266" lon="0.45612">
        <ele>-9</ele>
        <time>2023-10-15T07:33:28Z</time>
      </trkpt>
      <trkpt lat="46.8229" lon="0.45576">
        <ele>-9.96</ele>
        <time>2023-10-15T07:33:36Z</time>
      </trkpt>
      <trkpt lat="46.82294" lon="0.45573">
        <ele>-9</ele>
        <time>2023-10-15T07:33:37Z</time>
      </trkpt>
      <trkpt lat="46.82302" lon="0.45568">
        <ele>-9.48</ele>
        <time>2023-10-15T07:33:39Z</time>
      </trkpt>
      <trkpt lat="46.82336" lon="0.45546">
        <ele>-7.07</ele>
        <time>2023-10-15T07:33:48Z</time>
      </trkpt>
      <trkpt lat="46.82373" lon="0.45521">
        <ele>-6.59</ele>
        <time>2023-10-15T07:33:58Z</time>
      </trkpt>
      <trkpt lat="46.82377" lon="0.45519">
        <ele>-6.11</ele>
        <time>2023-10-15T07:33:59Z</time>
      </trkpt>
      <trkpt lat="46.82381" lon="0.45518">
        <ele>-7.07</ele>
        <time>2023-10-15T07:34:00Z</time>
      </trkpt>
      <trkpt lat="46.82386" lon="0.45518">
        <ele>-7.07</ele>
        <time>2023-10-15T07:34:01Z</time>
      </trkpt>
      <trkpt lat="46.82416" lon="0.45519">
        <ele>-5.63</ele>
        <time>2023-10-15T07:34:09Z</time>
      </trkpt>
      <trkpt lat="46.82447" lon="0.4552">
        <ele>-4.19</ele>
        <time>2023-10-15T07:34:18Z</time>
      </trkpt>
      <trkpt lat="46.82476" lon="0.45523">
        <ele>-1.79</ele>
        <time>2023-10-15T07:34:27Z</time>
      </trkpt>
      <trkpt lat="46.82501" lon="0.45524">
        <ele>-0.82</ele>
        <time>2023-10-15T07:34:35Z</time>
      </trkpt>
      <trkpt lat="46.82524" lon="0.45525">
        <ele>0.14</ele>
        <time>2023-10-15T07:34:43Z</time>
      </trkpt>
      <trkpt lat="46.82552" lon="0.45527">
        <ele>1.1</ele>
        <time>2023-10-15T07:34:51Z</time>
      </trkpt>
      <trkpt lat="46.82582" lon="0.45527">
        <ele>0.62</ele>
        <time>2023-10-15T07:34:59Z</time>
      </trkpt>
      <trkpt lat="46.82619" lon="0.45529">
        <ele>-0.34</ele>
        <time>2023-10-15T07:35:08Z</time>
      </trkpt>
      <trkpt lat="46.82655" lon="0.45533">
        <ele>-1.79</ele>
        <time>2023-10-15T07:35:16Z</time>
      </trkpt>
      <trkpt lat="46.82674" lon="0.45536">
        <ele>-2.75</ele>
        <time>2023-10-15T07:35:20Z</time>
      </trkpt>
      <trkpt lat="46.82679" lon="0.45537">
        <ele>-2.75</ele>
        <time>2023-10-15T07:35:21Z</time>
      </trkpt>
      <trkpt lat="46.82718" lon="0.4555">
        <ele>-3.23</ele>
        <time>2023-10-15T07:35:29Z</time>
      </trkpt>
      <trkpt lat="46.82727" lon="0.45552">
        <ele>-3.71</ele>
        <time>2023-10-15T07:35:31Z</time>
      </trkpt>
      <trkpt lat="46.82736" lon="0.45554">
        <ele>-3.23</ele>
        <time>2023-10-15T07:35:33Z</time>
      </trkpt>
      <trkpt lat="46.82746" lon="0.45555">
        <ele>-3.23</ele>
        <time>2023-10-15T07:35:35Z</time>
      </trkpt>
      <trkpt lat="46.8275" lon="0.45553">
        <ele>-2.75</ele>
        <time>2023-10-15T07:35:36Z</time>
      </trkpt>
      <trkpt lat="46.82754" lon="0.4555">
        <ele>-2.75</ele>
        <time>2023-10-15T07:35:37Z</time>
      </trkpt>
      <trkpt lat="46.82757" lon="0.45544">
        <ele>-3.71</ele>
        <time>2023-10-15T07:35:38Z</time>
      </trkpt>
      <trkpt lat="46.82759" lon="0.45538">
        <ele>-3.71</ele>
        <time>2023-10-15T07:35:39Z</time>
      </trkpt>
      <trkpt lat="46.82761" lon="0.45532">
        <ele>-2.75</ele>
        <time>2023-10-15T07:35:40Z</time>
      </trkpt>
      <trkpt lat="46.82773" lon="0.4547">
        <ele>-2.27</ele>
        <time>2023-10-15T07:35:50Z</time>
      </trkpt>
      <trkpt lat="46.82784" lon="0.45417">
        <ele>-0.82</ele>
        <time>2023-10-15T07:35:59Z</time>
      </trkpt>
      <trkpt lat="46.82794" lon="0.45364">
        <ele>0.14</ele>
        <time>2023-10-15T07:36:08Z</time>
      </trkpt>
      <trkpt lat="46.82804" lon="0.45316">
        <ele>0.14</ele>
        <time>2023-10-15T07:36:17Z</time>
      </trkpt>
      <trkpt lat="46.82806" lon="0.45289">
        <ele>0.62</ele>
        <time>2023-10-15T07:36:24Z</time>
      </trkpt>
      <trkpt lat="46.82803" lon="0.45286">
        <ele>0.62</ele>
        <time>2023-10-15T07:36:25Z</time>
      </trkpt>
      <trkpt lat="46.82801" lon="0.45283">
        <ele>0.62</ele>
        <time>2023-10-15T07:36:26Z</time>
      </trkpt>
      <trkpt lat="46.82789" lon="0.45265">
        <ele>2.06</ele>
        <time>2023-10-15T07:36:31Z</time>
      </trkpt>
      <trkpt lat="46.82789" lon="0.45259">
        <ele>0.62</ele>
        <time>2023-10-15T07:36:32Z</time>
      </trkpt>
      <trkpt lat="46.8279" lon="0.45253">
        <ele>1.1</ele>
        <time>2023-10-15T07:36:33Z</time>
      </trkpt>
      <trkpt lat="46.82791" lon="0.45247">
        <ele>1.1</ele>
        <time>2023-10-15T07:36:34Z</time>
      </trkpt>
      <trkpt lat="46.82792" lon="0.45241">
        <ele>1.58</ele>
        <time>2023-10-15T07:36:35Z</time>
      </trkpt>
      <trkpt lat="46.82803" lon="0.45188">
        <ele>3.02</ele>
        <time>2023-10-15T07:36:44Z</time>
      </trkpt>
      <trkpt lat="46.82807" lon="0.45135">
        <ele>3.98</ele>
        <time>2023-10-15T07:36:53Z</time>
      </trkpt>
      <trkpt lat="46.82807" lon="0.45077">
        <ele>5.91</ele>
        <time>2023-10-15T07:37:03Z</time>
      </trkpt>
      <trkpt lat="46.82805" lon="0.45031">
        <ele>6.87</ele>
        <time>2023-10-15T07:37:11Z</time>
      </trkpt>
      <trkpt lat="46.828" lon="0.45009">
        <ele>7.83</ele>
        <time>2023-10-15T07:37:15Z</time>
      </trkpt>
      <trkpt lat="46.82783" lon="0.44967">
        <ele>9.75</ele>
        <time>2023-10-15T07:37:23Z</time>
      </trkpt>
      <trkpt lat="46.82769" lon="0.44926">
        <ele>10.23</ele>
        <time>2023-10-15T07:37:31Z</time>
      </trkpt>
      <trkpt lat="46.82764" lon="0.44885">
        <ele>11.67</ele>
        <time>2023-10-15T07:37:39Z</time>
      </trkpt>
      <trkpt lat="46.82761" lon="0.44838">
        <ele>13.6</ele>
        <time>2023-10-15T07:37:49Z</time>
      </trkpt>
      <trkpt lat="46.82756" lon="0.44791">
        <ele>14.56</ele>
        <time>2023-10-15T07:37:59Z</time>
      </trkpt>
      <trkpt lat="46.82745" lon="0.44754">
        <ele>16.48</ele>
        <time>2023-10-15T07:38:08Z</time>
      </trkpt>
      <trkpt lat="46.82738" lon="0.44727">
        <ele>18.4</ele>
        <time>2023-10-15T07:38:15Z</time>
      </trkpt>
      <trkpt lat="46.8274" lon="0.44724">
        <ele>17.92</ele>
        <time>2023-10-15T07:38:16Z</time>
      </trkpt>
      <trkpt lat="46.82741" lon="0.44723">
        <ele>18.4</ele>
        <time>2023-10-15T07:38:17Z</time>
      </trkpt>
      <trkpt lat="46.82754" lon="0.44707">
        <ele>19.36</ele>
        <time>2023-10-15T07:38:24Z</time>
      </trkpt>
      <trkpt lat="46.82765" lon="0.44691">
        <ele>21.29</ele>
        <time>2023-10-15T07:38:31Z</time>
      </trkpt>
      <trkpt lat="46.82779" lon="0.4467">
        <ele>22.73</ele>
        <time>2023-10-15T07:38:40Z</time>
      </trkpt>
      <trkpt lat="46.82787" lon="0.44653">
        <ele>24.17</ele>
        <time>2023-10-15T07:38:47Z</time>
      </trkpt>
      <trkpt lat="46.82795" lon="0.44636">
        <ele>25.61</ele>
        <time>2023-10-15T07:38:56Z</time>
      </trkpt>
      <trkpt lat="46.82803" lon="0.44622">
        <ele>27.05</ele>
        <time>2023-10-15T07:39:05Z</time>
      </trkpt>
      <trkpt lat="46.82808" lon="0.44611">
        <ele>30.42</ele>
        <time>2023-10-15T07:39:11Z</time>
      </trkpt>
      <trkpt lat="46.82809" lon="0.44609">
        <ele>29.94</ele>
        <time>2023-10-15T07:39:12Z</time>
      </trkpt>
      <trkpt lat="46.82815" lon="0.44598">
        <ele>31.38</ele>
        <time>2023-10-15T07:39:19Z</time>
      </trkpt>
      <trkpt lat="46.82821" lon="0.44587">
        <ele>32.82</ele>
        <time>2023-10-15T07:39:26Z</time>
      </trkpt>
      <trkpt lat="46.82822" lon="0.44586">
        <ele>32.82</ele>
        <time>2023-10-15T07:39:27Z</time>
      </trkpt>
      <trkpt lat="46.8283" lon="0.44572">
        <ele>34.26</ele>
        <time>2023-10-15T07:39:36Z</time>
      </trkpt>
      <trkpt lat="46.8283" lon="0.44569">
        <ele>34.26</ele>
        <time>2023-10-15T07:39:38Z</time>
      </trkpt>
      <trkpt lat="46.82831" lon="0.44568">
        <ele>35.23</ele>
        <time>2023-10-15T07:39:39Z</time>
      </trkpt>
      <trkpt lat="46.82835" lon="0.44558">
        <ele>36.67</ele>
        <time>2023-10-15T07:39:45Z</time>
      </trkpt>
      <trkpt lat="46.82841" lon="0.44544">
        <ele>37.63</ele>
        <time>2023-10-15T07:39:54Z</time>
      </trkpt>
      <trkpt lat="46.82846" lon="0.44534">
        <ele>39.07</ele>
        <time>2023-10-15T07:40:00Z</time>
      </trkpt>
      <trkpt lat="46.82853" lon="0.44522">
        <ele>41.47</ele>
        <time>2023-10-15T07:40:08Z</time>
      </trkpt>
      <trkpt lat="46.8286" lon="0.44513">
        <ele>41.95</ele>
        <time>2023-10-15T07:40:16Z</time>
      </trkpt>
      <trkpt lat="46.8286" lon="0.44511">
        <ele>42.44</ele>
        <time>2023-10-15T07:40:17Z</time>
      </trkpt>
      <trkpt lat="46.82865" lon="0.44496">
        <ele>43.4</ele>
        <time>2023-10-15T07:40:25Z</time>
      </trkpt>
      <trkpt lat="46.82868" lon="0.44485">
        <ele>44.84</ele>
        <time>2023-10-15T07:40:31Z</time>
      </trkpt>
      <trkpt lat="46.82871" lon="0.44473">
        <ele>46.76</ele>
        <time>2023-10-15T07:40:38Z</time>
      </trkpt>
      <trkpt lat="46.82873" lon="0.44466">
        <ele>45.8</ele>
        <time>2023-10-15T07:40:42Z</time>
      </trkpt>
      <trkpt lat="46.82874" lon="0.44465">
        <ele>46.76</ele>
        <time>2023-10-15T07:40:43Z</time>
      </trkpt>
      <trkpt lat="46.82876" lon="0.44449">
        <ele>47.72</ele>
        <time>2023-10-15T07:40:51Z</time>
      </trkpt>
      <trkpt lat="46.82879" lon="0.44432">
        <ele>49.16</ele>
        <time>2023-10-15T07:40:58Z</time>
      </trkpt>
      <trkpt lat="46.82879" lon="0.4443">
        <ele>48.68</ele>
        <time>2023-10-15T07:40:59Z</time>
      </trkpt>
      <trkpt lat="46.82881" lon="0.44427">
        <ele>49.16</ele>
        <time>2023-10-15T07:41:00Z</time>
      </trkpt>
      <trkpt lat="46.82881" lon="0.44425">
        <ele>49.65</ele>
        <time>2023-10-15T07:41:01Z</time>
      </trkpt>
      <trkpt lat="46.82882" lon="0.44422">
        <ele>49.65</ele>
        <time>2023-10-15T07:41:02Z</time>
      </trkpt>
      <trkpt lat="46.82883" lon="0.4442">
        <ele>49.16</ele>
        <time>2023-10-15T07:41:03Z</time>
      </trkpt>
      <trkpt lat="46.82884" lon="0.44418">
        <ele>49.65</ele>
        <time>2023-10-15T07:41:04Z</time>
      </trkpt>
      <trkpt lat="46.82886" lon="0.44416">
        <ele>49.16</ele>
        <time>2023-10-15T07:41:05Z</time>
      </trkpt>
      <trkpt lat="46.82888" lon="0.44414">
        <ele>49.65</ele>
        <time>2023-10-15T07:41:06Z</time>
      </trkpt>
      <trkpt lat="46.82889" lon="0.44413">
        <ele>49.16</ele>
        <time>2023-10-15T07:41:07Z</time>
      </trkpt>
      <trkpt lat="46.82891" lon="0.44412">
        <ele>50.13</ele>
        <time>2023-10-15T07:41:08Z</time>
      </trkpt>
      <trkpt lat="46.82904" lon="0.44415">
        <ele>51.57</ele>
        <time>2023-10-15T07:41:15Z</time>
      </trkpt>
      <trkpt lat="46.82917" lon="0.44425">
        <ele>52.05</ele>
        <time>2023-10-15T07:41:24Z</time>
      </trkpt>
      <trkpt lat="46.82921" lon="0.44427">
        <ele>53.01</ele>
        <time>2023-10-15T07:41:26Z</time>
      </trkpt>
      <trkpt lat="46.82932" lon="0.44438">
        <ele>52.53</ele>
        <time>2023-10-15T07:41:35Z</time>
      </trkpt>
      <trkpt lat="46.82934" lon="0.44441">
        <ele>53.01</ele>
        <time>2023-10-15T07:41:42Z</time>
      </trkpt>
      <trkpt lat="46.82936" lon="0.44448">
        <ele>51.57</ele>
        <time>2023-10-15T07:41:50Z</time>
      </trkpt>
      <trkpt lat="46.82935" lon="0.44449">
        <ele>51.57</ele>
        <time>2023-10-15T07:43:23Z</time>
      </trkpt>
      <trkpt lat="46.82935" lon="0.44449">
        <ele>52.05</ele>
        <time>2023-10-15T07:44:39Z</time>
      </trkpt>
      <trkpt lat="46.82932" lon="0.44443">
        <ele>51.57</ele>
        <time>2023-10-15T07:48:33Z</time>
      </trkpt>
      <trkpt lat="46.82932" lon="0.44442">
        <ele>52.53</ele>
        <time>2023-10-15T07:48:43Z</time>
      </trkpt>
      <trkpt lat="46.82932" lon="0.44442">
        <ele>51.57</ele>
        <time>2023-10-15T07:49:08Z</time>
      </trkpt>
      <trkpt lat="46.82932" lon="0.44441">
        <ele>52.53</ele>
        <time>2023-10-15T07:49:24Z</time>
      </trkpt>
      <trkpt lat="46.82921" lon="0.44431">
        <ele>52.53</ele>
        <time>2023-10-15T07:49:30Z</time>
      </trkpt>
      <trkpt lat="46.82914" lon="0.44425">
        <ele>51.09</ele>
        <time>2023-10-15T07:49:33Z</time>
      </trkpt>
      <trkpt lat="46.82895" lon="0.44409">
        <ele>50.13</ele>
        <time>2023-10-15T07:49:41Z</time>
      </trkpt>
      <trkpt lat="46.82893" lon="0.44407">
        <ele>49.65</ele>
        <time>2023-10-15T07:49:42Z</time>
      </trkpt>
      <trkpt lat="46.82896" lon="0.44393">
        <ele>49.16</ele>
        <time>2023-10-15T07:49:47Z</time>
      </trkpt>
      <trkpt lat="46.82901" lon="0.44388">
        <ele>49.16</ele>
        <time>2023-10-15T07:49:50Z</time>
      </trkpt>
      <trkpt lat="46.82916" lon="0.44368">
        <ele>50.61</ele>
        <time>2023-10-15T07:49:58Z</time>
      </trkpt>
      <trkpt lat="46.82926" lon="0.44349">
        <ele>52.05</ele>
        <time>2023-10-15T07:50:04Z</time>
      </trkpt>
      <trkpt lat="46.82935" lon="0.44329">
        <ele>52.53</ele>
        <time>2023-10-15T07:50:10Z</time>
      </trkpt>
      <trkpt lat="46.82943" lon="0.44313">
        <ele>53.97</ele>
        <time>2023-10-15T07:50:15Z</time>
      </trkpt>
      <trkpt lat="46.82946" lon="0.44281">
        <ele>53.97</ele>
        <time>2023-10-15T07:50:22Z</time>
      </trkpt>
      <trkpt lat="46.82943" lon="0.44245">
        <ele>53.97</ele>
        <time>2023-10-15T07:50:30Z</time>
      </trkpt>
      <trkpt lat="46.82941" lon="0.44212">
        <ele>54.45</ele>
        <time>2023-10-15T07:50:37Z</time>
      </trkpt>
      <trkpt lat="46.82939" lon="0.44179">
        <ele>54.45</ele>
        <time>2023-10-15T07:50:44Z</time>
      </trkpt>
      <trkpt lat="46.82939" lon="0.44145">
        <ele>54.93</ele>
        <time>2023-10-15T07:50:52Z</time>
      </trkpt>
      <trkpt lat="46.82937" lon="0.44128">
        <ele>55.41</ele>
        <time>2023-10-15T07:50:57Z</time>
      </trkpt>
      <trkpt lat="46.82924" lon="0.44125">
        <ele>55.89</ele>
        <time>2023-10-15T07:51:03Z</time>
      </trkpt>
      <trkpt lat="46.82909" lon="0.44129">
        <ele>55.89</ele>
        <time>2023-10-15T07:51:09Z</time>
      </trkpt>
      <trkpt lat="46.82892" lon="0.44135">
        <ele>56.37</ele>
        <time>2023-10-15T07:51:15Z</time>
      </trkpt>
      <trkpt lat="46.82872" lon="0.44145">
        <ele>55.89</ele>
        <time>2023-10-15T07:51:22Z</time>
      </trkpt>
      <trkpt lat="46.82865" lon="0.4415">
        <ele>55.41</ele>
        <time>2023-10-15T07:51:24Z</time>
      </trkpt>
      <trkpt lat="46.82857" lon="0.44157">
        <ele>54.45</ele>
        <time>2023-10-15T07:51:26Z</time>
      </trkpt>
      <trkpt lat="46.82853" lon="0.44161">
        <ele>53.49</ele>
        <time>2023-10-15T07:51:27Z</time>
      </trkpt>
      <trkpt lat="46.8284" lon="0.44175">
        <ele>53.01</ele>
        <time>2023-10-15T07:51:30Z</time>
      </trkpt>
      <trkpt lat="46.8283" lon="0.44182">
        <ele>53.01</ele>
        <time>2023-10-15T07:51:32Z</time>
      </trkpt>
      <trkpt lat="46.8281" lon="0.44208">
        <ele>48.68</ele>
        <time>2023-10-15T07:51:36Z</time>
      </trkpt>
      <trkpt lat="46.82807" lon="0.44213">
        <ele>48.68</ele>
        <time>2023-10-15T07:51:37Z</time>
      </trkpt>
      <trkpt lat="46.82801" lon="0.44223">
        <ele>47.24</ele>
        <time>2023-10-15T07:51:40Z</time>
      </trkpt>
      <trkpt lat="46.82796" lon="0.44228">
        <ele>48.2</ele>
        <time>2023-10-15T07:51:45Z</time>
      </trkpt>
      <trkpt lat="46.82794" lon="0.44227">
        <ele>48.2</ele>
        <time>2023-10-15T07:51:50Z</time>
      </trkpt>
      <trkpt lat="46.82788" lon="0.44219">
        <ele>48.2</ele>
        <time>2023-10-15T07:51:55Z</time>
      </trkpt>
      <trkpt lat="46.82787" lon="0.44214">
        <ele>48.68</ele>
        <time>2023-10-15T07:51:57Z</time>
      </trkpt>
      <trkpt lat="46.82788" lon="0.44204">
        <ele>49.16</ele>
        <time>2023-10-15T07:52:01Z</time>
      </trkpt>
      <trkpt lat="46.8279" lon="0.44197">
        <ele>50.13</ele>
        <time>2023-10-15T07:52:04Z</time>
      </trkpt>
      <trkpt lat="46.82781" lon="0.44185">
        <ele>49.65</ele>
        <time>2023-10-15T07:52:09Z</time>
      </trkpt>
      <trkpt lat="46.82774" lon="0.4417">
        <ele>49.16</ele>
        <time>2023-10-15T07:52:14Z</time>
      </trkpt>
      <trkpt lat="46.82765" lon="0.44154">
        <ele>49.65</ele>
        <time>2023-10-15T07:52:18Z</time>
      </trkpt>
      <trkpt lat="46.82765" lon="0.44136">
        <ele>48.68</ele>
        <time>2023-10-15T07:52:23Z</time>
      </trkpt>
      <trkpt lat="46.82767" lon="0.4413">
        <ele>49.16</ele>
        <time>2023-10-15T07:52:28Z</time>
      </trkpt>
      <trkpt lat="46.82756" lon="0.4412">
        <ele>47.72</ele>
        <time>2023-10-15T07:52:33Z</time>
      </trkpt>
      <trkpt lat="46.82755" lon="0.44118">
        <ele>47.24</ele>
        <time>2023-10-15T07:52:35Z</time>
      </trkpt>
      <trkpt lat="46.82753" lon="0.44087">
        <ele>48.2</ele>
        <time>2023-10-15T07:52:43Z</time>
      </trkpt>
      <trkpt lat="46.82753" lon="0.44072">
        <ele>47.72</ele>
        <time>2023-10-15T07:52:48Z</time>
      </trkpt>
      <trkpt lat="46.82752" lon="0.44049">
        <ele>46.76</ele>
        <time>2023-10-15T07:52:53Z</time>
      </trkpt>
      <trkpt lat="46.82752" lon="0.44042">
        <ele>46.76</ele>
        <time>2023-10-15T07:52:55Z</time>
      </trkpt>
      <trkpt lat="46.82759" lon="0.44025">
        <ele>48.2</ele>
        <time>2023-10-15T07:53:01Z</time>
      </trkpt>
      <trkpt lat="46.82752" lon="0.44009">
        <ele>47.24</ele>
        <time>2023-10-15T07:53:05Z</time>
      </trkpt>
      <trkpt lat="46.82749" lon="0.43996">
        <ele>45.8</ele>
        <time>2023-10-15T07:53:07Z</time>
      </trkpt>
      <trkpt lat="46.82752" lon="0.43976">
        <ele>46.76</ele>
        <time>2023-10-15T07:53:12Z</time>
      </trkpt>
      <trkpt lat="46.82744" lon="0.4396">
        <ele>45.8</ele>
        <time>2023-10-15T07:53:17Z</time>
      </trkpt>
      <trkpt lat="46.82738" lon="0.43952">
        <ele>45.32</ele>
        <time>2023-10-15T07:53:19Z</time>
      </trkpt>
      <trkpt lat="46.82728" lon="0.43935">
        <ele>41.95</ele>
        <time>2023-10-15T07:53:24Z</time>
      </trkpt>
      <trkpt lat="46.82728" lon="0.43927">
        <ele>40.99</ele>
        <time>2023-10-15T07:53:26Z</time>
      </trkpt>
      <trkpt lat="46.82734" lon="0.43921">
        <ele>41.95</ele>
        <time>2023-10-15T07:53:30Z</time>
      </trkpt>
      <trkpt lat="46.82739" lon="0.43917">
        <ele>43.4</ele>
        <time>2023-10-15T07:53:33Z</time>
      </trkpt>
      <trkpt lat="46.82749" lon="0.43901">
        <ele>44.36</ele>
        <time>2023-10-15T07:53:39Z</time>
      </trkpt>
      <trkpt lat="46.82753" lon="0.43884">
        <ele>42.92</ele>
        <time>2023-10-15T07:53:43Z</time>
      </trkpt>
      <trkpt lat="46.82746" lon="0.43869">
        <ele>41.47</ele>
        <time>2023-10-15T07:53:47Z</time>
      </trkpt>
      <trkpt lat="46.82744" lon="0.43865">
        <ele>41.95</ele>
        <time>2023-10-15T07:53:48Z</time>
      </trkpt>
      <trkpt lat="46.82735" lon="0.43852">
        <ele>38.11</ele>
        <time>2023-10-15T07:53:52Z</time>
      </trkpt>
      <trkpt lat="46.82733" lon="0.43844">
        <ele>37.15</ele>
        <time>2023-10-15T07:53:56Z</time>
      </trkpt>
      <trkpt lat="46.82739" lon="0.43827">
        <ele>37.15</ele>
        <time>2023-10-15T07:54:02Z</time>
      </trkpt>
      <trkpt lat="46.82744" lon="0.43811">
        <ele>36.67</ele>
        <time>2023-10-15T07:54:06Z</time>
      </trkpt>
      <trkpt lat="46.82747" lon="0.43809">
        <ele>36.67</ele>
        <time>2023-10-15T07:54:07Z</time>
      </trkpt>
      <trkpt lat="46.8275" lon="0.43806">
        <ele>38.11</ele>
        <time>2023-10-15T07:54:09Z</time>
      </trkpt>
      <trkpt lat="46.82758" lon="0.43805">
        <ele>40.03</ele>
        <time>2023-10-15T07:54:15Z</time>
      </trkpt>
      <trkpt lat="46.82766" lon="0.43802">
        <ele>41.47</ele>
        <time>2023-10-15T07:54:19Z</time>
      </trkpt>
      <trkpt lat="46.82773" lon="0.438">
        <ele>43.4</ele>
        <time>2023-10-15T07:54:24Z</time>
      </trkpt>
      <trkpt lat="46.82778" lon="0.43798">
        <ele>43.88</ele>
        <time>2023-10-15T07:54:30Z</time>
      </trkpt>
      <trkpt lat="46.82782" lon="0.43796">
        <ele>44.36</ele>
        <time>2023-10-15T07:54:33Z</time>
      </trkpt>
      <trkpt lat="46.82793" lon="0.43799">
        <ele>46.28</ele>
        <time>2023-10-15T07:54:41Z</time>
      </trkpt>
      <trkpt lat="46.828" lon="0.43791">
        <ele>47.72</ele>
        <time>2023-10-15T07:54:47Z</time>
      </trkpt>
      <trkpt lat="46.82802" lon="0.43787">
        <ele>47.72</ele>
        <time>2023-10-15T07:54:49Z</time>
      </trkpt>
      <trkpt lat="46.82808" lon="0.4378">
        <ele>46.76</ele>
        <time>2023-10-15T07:54:54Z</time>
      </trkpt>
      <trkpt lat="46.8281" lon="0.43778">
        <ele>48.2</ele>
        <time>2023-10-15T07:54:56Z</time>
      </trkpt>
      <trkpt lat="46.82821" lon="0.43779">
        <ele>50.13</ele>
        <time>2023-10-15T07:55:03Z</time>
      </trkpt>
      <trkpt lat="46.82824" lon="0.43768">
        <ele>50.13</ele>
        <time>2023-10-15T07:55:10Z</time>
      </trkpt>
      <trkpt lat="46.82823" lon="0.43747">
        <ele>48.2</ele>
        <time>2023-10-15T07:55:16Z</time>
      </trkpt>
      <trkpt lat="46.82824" lon="0.43727">
        <ele>48.68</ele>
        <time>2023-10-15T07:55:22Z</time>
      </trkpt>
      <trkpt lat="46.82824" lon="0.4371">
        <ele>47.72</ele>
        <time>2023-10-15T07:55:26Z</time>
      </trkpt>
      <trkpt lat="46.82836" lon="0.43685">
        <ele>46.28</ele>
        <time>2023-10-15T07:55:32Z</time>
      </trkpt>
      <trkpt lat="46.82841" lon="0.43668">
        <ele>45.32</ele>
        <time>2023-10-15T07:55:36Z</time>
      </trkpt>
      <trkpt lat="46.82841" lon="0.43647">
        <ele>42.44</ele>
        <time>2023-10-15T07:55:40Z</time>
      </trkpt>
      <trkpt lat="46.82842" lon="0.4364">
        <ele>40.03</ele>
        <time>2023-10-15T07:55:42Z</time>
      </trkpt>
      <trkpt lat="46.82832" lon="0.43618">
        <ele>37.15</ele>
        <time>2023-10-15T07:55:47Z</time>
      </trkpt>
      <trkpt lat="46.82828" lon="0.43611">
        <ele>36.67</ele>
        <time>2023-10-15T07:55:49Z</time>
      </trkpt>
      <trkpt lat="46.82818" lon="0.43601">
        <ele>34.74</ele>
        <time>2023-10-15T07:55:52Z</time>
      </trkpt>
      <trkpt lat="46.82815" lon="0.43596">
        <ele>35.71</ele>
        <time>2023-10-15T07:55:53Z</time>
      </trkpt>
      <trkpt lat="46.82812" lon="0.43593">
        <ele>36.19</ele>
        <time>2023-10-15T07:55:54Z</time>
      </trkpt>
      <trkpt lat="46.8281" lon="0.4359">
        <ele>34.74</ele>
        <time>2023-10-15T07:55:55Z</time>
      </trkpt>
      <trkpt lat="46.82806" lon="0.43588">
        <ele>34.26</ele>
        <time>2023-10-15T07:55:56Z</time>
      </trkpt>
      <trkpt lat="46.82803" lon="0.43586">
        <ele>34.26</ele>
        <time>2023-10-15T07:55:57Z</time>
      </trkpt>
      <trkpt lat="46.82797" lon="0.43583">
        <ele>34.26</ele>
        <time>2023-10-15T07:55:59Z</time>
      </trkpt>
      <trkpt lat="46.82794" lon="0.43582">
        <ele>33.78</ele>
        <time>2023-10-15T07:56:00Z</time>
      </trkpt>
      <trkpt lat="46.82791" lon="0.4358">
        <ele>35.23</ele>
        <time>2023-10-15T07:56:01Z</time>
      </trkpt>
      <trkpt lat="46.82782" lon="0.43565">
        <ele>34.74</ele>
        <time>2023-10-15T07:56:06Z</time>
      </trkpt>
      <trkpt lat="46.82782" lon="0.43561">
        <ele>35.23</ele>
        <time>2023-10-15T07:56:07Z</time>
      </trkpt>
      <trkpt lat="46.82778" lon="0.4355">
        <ele>34.26</ele>
        <time>2023-10-15T07:56:11Z</time>
      </trkpt>
      <trkpt lat="46.82776" lon="0.43544">
        <ele>35.23</ele>
        <time>2023-10-15T07:56:13Z</time>
      </trkpt>
      <trkpt lat="46.82783" lon="0.43537">
        <ele>34.74</ele>
        <time>2023-10-15T07:56:18Z</time>
      </trkpt>
      <trkpt lat="46.82784" lon="0.43537">
        <ele>36.19</ele>
        <time>2023-10-15T07:56:19Z</time>
      </trkpt>
      <trkpt lat="46.82793" lon="0.43538">
        <ele>36.19</ele>
        <time>2023-10-15T07:56:24Z</time>
      </trkpt>
      <trkpt lat="46.82807" lon="0.43538">
        <ele>39.55</ele>
        <time>2023-10-15T07:56:32Z</time>
      </trkpt>
      <trkpt lat="46.8281" lon="0.43537">
        <ele>39.07</ele>
        <time>2023-10-15T07:56:34Z</time>
      </trkpt>
      <trkpt lat="46.82813" lon="0.43534">
        <ele>40.03</ele>
        <time>2023-10-15T07:56:37Z</time>
      </trkpt>
      <trkpt lat="46.82823" lon="0.43529">
        <ele>41.95</ele>
        <time>2023-10-15T07:56:44Z</time>
      </trkpt>
      <trkpt lat="46.82833" lon="0.43524">
        <ele>42.92</ele>
        <time>2023-10-15T07:56:51Z</time>
      </trkpt>
      <trkpt lat="46.8284" lon="0.4352">
        <ele>43.88</ele>
        <time>2023-10-15T07:56:57Z</time>
      </trkpt>
      <trkpt lat="46.82842" lon="0.43516">
        <ele>45.8</ele>
        <time>2023-10-15T07:57:00Z</time>
      </trkpt>
      <trkpt lat="46.82852" lon="0.43508">
        <ele>46.76</ele>
        <time>2023-10-15T07:57:08Z</time>
      </trkpt>
      <trkpt lat="46.82862" lon="0.43498">
        <ele>47.24</ele>
        <time>2023-10-15T07:57:15Z</time>
      </trkpt>
      <trkpt lat="46.82877" lon="0.43485">
        <ele>48.2</ele>
        <time>2023-10-15T07:57:23Z</time>
      </trkpt>
      <trkpt lat="46.82879" lon="0.43484">
        <ele>49.16</ele>
        <time>2023-10-15T07:57:24Z</time>
      </trkpt>
      <trkpt lat="46.82887" lon="0.43479">
        <ele>49.65</ele>
        <time>2023-10-15T07:57:28Z</time>
      </trkpt>
      <trkpt lat="46.82889" lon="0.43477">
        <ele>50.13</ele>
        <time>2023-10-15T07:57:30Z</time>
      </trkpt>
      <trkpt lat="46.82897" lon="0.43473">
        <ele>50.13</ele>
        <time>2023-10-15T07:57:35Z</time>
      </trkpt>
      <trkpt lat="46.82902" lon="0.4347">
        <ele>51.09</ele>
        <time>2023-10-15T07:57:38Z</time>
      </trkpt>
      <trkpt lat="46.82905" lon="0.43469">
        <ele>50.61</ele>
        <time>2023-10-15T07:57:40Z</time>
      </trkpt>
      <trkpt lat="46.82912" lon="0.43465">
        <ele>52.05</ele>
        <time>2023-10-15T07:57:46Z</time>
      </trkpt>
      <trkpt lat="46.82898" lon="0.43452">
        <ele>51.57</ele>
        <time>2023-10-15T07:57:54Z</time>
      </trkpt>
      <trkpt lat="46.82895" lon="0.4345">
        <ele>51.57</ele>
        <time>2023-10-15T07:57:55Z</time>
      </trkpt>
      <trkpt lat="46.82883" lon="0.43435">
        <ele>52.05</ele>
        <time>2023-10-15T07:58:01Z</time>
      </trkpt>
      <trkpt lat="46.82874" lon="0.43424">
        <ele>52.05</ele>
        <time>2023-10-15T07:58:05Z</time>
      </trkpt>
      <trkpt lat="46.82862" lon="0.434">
        <ele>52.05</ele>
        <time>2023-10-15T07:58:12Z</time>
      </trkpt>
      <trkpt lat="46.82855" lon="0.4338">
        <ele>52.05</ele>
        <time>2023-10-15T07:58:17Z</time>
      </trkpt>
      <trkpt lat="46.8285" lon="0.43369">
        <ele>51.57</ele>
        <time>2023-10-15T07:58:20Z</time>
      </trkpt>
      <trkpt lat="46.82837" lon="0.43355">
        <ele>49.16</ele>
        <time>2023-10-15T07:58:25Z</time>
      </trkpt>
      <trkpt lat="46.82836" lon="0.4334">
        <ele>48.68</ele>
        <time>2023-10-15T07:58:29Z</time>
      </trkpt>
      <trkpt lat="46.8284" lon="0.43319">
        <ele>50.61</ele>
        <time>2023-10-15T07:58:34Z</time>
      </trkpt>
      <trkpt lat="46.8284" lon="0.43301">
        <ele>51.09</ele>
        <time>2023-10-15T07:58:38Z</time>
      </trkpt>
      <trkpt lat="46.82843" lon="0.43294">
        <ele>51.57</ele>
        <time>2023-10-15T07:58:40Z</time>
      </trkpt>
      <trkpt lat="46.8285" lon="0.43282">
        <ele>52.53</ele>
        <time>2023-10-15T07:58:45Z</time>
      </trkpt>
      <trkpt lat="46.82851" lon="0.43278">
        <ele>52.53</ele>
        <time>2023-10-15T07:58:47Z</time>
      </trkpt>
      <trkpt lat="46.82855" lon="0.43271">
        <ele>53.01</ele>
        <time>2023-10-15T07:58:51Z</time>
      </trkpt>
      <trkpt lat="46.8286" lon="0.43265">
        <ele>53.97</ele>
        <time>2023-10-15T07:58:56Z</time>
      </trkpt>
      <trkpt lat="46.82865" lon="0.43239">
        <ele>54.93</ele>
        <time>2023-10-15T07:59:04Z</time>
      </trkpt>
      <trkpt lat="46.82866" lon="0.43222">
        <ele>55.41</ele>
        <time>2023-10-15T07:59:09Z</time>
      </trkpt>
      <trkpt lat="46.82867" lon="0.43219">
        <ele>54.93</ele>
        <time>2023-10-15T07:59:11Z</time>
      </trkpt>
      <trkpt lat="46.82856" lon="0.43204">
        <ele>54.45</ele>
        <time>2023-10-15T07:59:17Z</time>
      </trkpt>
      <trkpt lat="46.82852" lon="0.43189">
        <ele>53.97</ele>
        <time>2023-10-15T07:59:20Z</time>
      </trkpt>
      <trkpt lat="46.82857" lon="0.43172">
        <ele>54.45</ele>
        <time>2023-10-15T07:59:27Z</time>
      </trkpt>
      <trkpt lat="46.82874" lon="0.43169">
        <ele>57.34</ele>
        <time>2023-10-15T07:59:34Z</time>
      </trkpt>
      <trkpt lat="46.82884" lon="0.4317">
        <ele>57.34</ele>
        <time>2023-10-15T07:59:38Z</time>
      </trkpt>
      <trkpt lat="46.82902" lon="0.43165">
        <ele>58.78</ele>
        <time>2023-10-15T07:59:45Z</time>
      </trkpt>
      <trkpt lat="46.82927" lon="0.43157">
        <ele>59.26</ele>
        <time>2023-10-15T07:59:53Z</time>
      </trkpt>
      <trkpt lat="46.82949" lon="0.43155">
        <ele>58.78</ele>
        <time>2023-10-15T07:59:59Z</time>
      </trkpt>
      <trkpt lat="46.82967" lon="0.43147">
        <ele>57.34</ele>
        <time>2023-10-15T08:00:04Z</time>
      </trkpt>
      <trkpt lat="46.82972" lon="0.43145">
        <ele>57.34</ele>
        <time>2023-10-15T08:00:05Z</time>
      </trkpt>
      <trkpt lat="46.82991" lon="0.43138">
        <ele>56.37</ele>
        <time>2023-10-15T08:00:09Z</time>
      </trkpt>
      <trkpt lat="46.83002" lon="0.43133">
        <ele>54.93</ele>
        <time>2023-10-15T08:00:11Z</time>
      </trkpt>
      <trkpt lat="46.83007" lon="0.43132">
        <ele>54.93</ele>
        <time>2023-10-15T08:00:12Z</time>
      </trkpt>
      <trkpt lat="46.83013" lon="0.43131">
        <ele>55.41</ele>
        <time>2023-10-15T08:00:13Z</time>
      </trkpt>
      <trkpt lat="46.83023" lon="0.43131">
        <ele>54.45</ele>
        <time>2023-10-15T08:00:15Z</time>
      </trkpt>
      <trkpt lat="46.83033" lon="0.43128">
        <ele>53.97</ele>
        <time>2023-10-15T08:00:17Z</time>
      </trkpt>
      <trkpt lat="46.83037" lon="0.43123">
        <ele>53.49</ele>
        <time>2023-10-15T08:00:18Z</time>
      </trkpt>
      <trkpt lat="46.8304" lon="0.43119">
        <ele>54.45</ele>
        <time>2023-10-15T08:00:19Z</time>
      </trkpt>
      <trkpt lat="46.83043" lon="0.43115">
        <ele>54.45</ele>
        <time>2023-10-15T08:00:20Z</time>
      </trkpt>
      <trkpt lat="46.83046" lon="0.43112">
        <ele>54.45</ele>
        <time>2023-10-15T08:00:21Z</time>
      </trkpt>
      <trkpt lat="46.83049" lon="0.43108">
        <ele>54.45</ele>
        <time>2023-10-15T08:00:22Z</time>
      </trkpt>
      <trkpt lat="46.83052" lon="0.43106">
        <ele>55.89</ele>
        <time>2023-10-15T08:00:23Z</time>
      </trkpt>
      <trkpt lat="46.83054" lon="0.43103">
        <ele>54.93</ele>
        <time>2023-10-15T08:00:24Z</time>
      </trkpt>
      <trkpt lat="46.83057" lon="0.431">
        <ele>56.86</ele>
        <time>2023-10-15T08:00:25Z</time>
      </trkpt>
      <trkpt lat="46.83059" lon="0.43097">
        <ele>56.86</ele>
        <time>2023-10-15T08:00:26Z</time>
      </trkpt>
      <trkpt lat="46.83075" lon="0.43081">
        <ele>58.78</ele>
        <time>2023-10-15T08:00:32Z</time>
      </trkpt>
      <trkpt lat="46.8308" lon="0.43075">
        <ele>59.74</ele>
        <time>2023-10-15T08:00:34Z</time>
      </trkpt>
      <trkpt lat="46.83098" lon="0.43066">
        <ele>61.18</ele>
        <time>2023-10-15T08:00:41Z</time>
      </trkpt>
      <trkpt lat="46.83119" lon="0.43057">
        <ele>62.62</ele>
        <time>2023-10-15T08:00:49Z</time>
      </trkpt>
      <trkpt lat="46.83138" lon="0.43053">
        <ele>63.58</ele>
        <time>2023-10-15T08:00:56Z</time>
      </trkpt>
      <trkpt lat="46.83161" lon="0.43048">
        <ele>62.62</ele>
        <time>2023-10-15T08:01:03Z</time>
      </trkpt>
      <trkpt lat="46.83175" lon="0.43044">
        <ele>64.07</ele>
        <time>2023-10-15T08:01:07Z</time>
      </trkpt>
      <trkpt lat="46.83188" lon="0.4302">
        <ele>63.1</ele>
        <time>2023-10-15T08:01:13Z</time>
      </trkpt>
      <trkpt lat="46.83204" lon="0.42979">
        <ele>64.07</ele>
        <time>2023-10-15T08:01:21Z</time>
      </trkpt>
      <trkpt lat="46.8322" lon="0.4294">
        <ele>63.58</ele>
        <time>2023-10-15T08:01:28Z</time>
      </trkpt>
      <trkpt lat="46.83223" lon="0.42935">
        <ele>63.58</ele>
        <time>2023-10-15T08:01:29Z</time>
      </trkpt>
      <trkpt lat="46.8323" lon="0.42919">
        <ele>63.58</ele>
        <time>2023-10-15T08:01:32Z</time>
      </trkpt>
      <trkpt lat="46.83233" lon="0.42915">
        <ele>62.62</ele>
        <time>2023-10-15T08:01:33Z</time>
      </trkpt>
      <trkpt lat="46.83235" lon="0.42909">
        <ele>62.14</ele>
        <time>2023-10-15T08:01:34Z</time>
      </trkpt>
      <trkpt lat="46.83236" lon="0.42903">
        <ele>62.62</ele>
        <time>2023-10-15T08:01:35Z</time>
      </trkpt>
      <trkpt lat="46.83238" lon="0.42896">
        <ele>63.58</ele>
        <time>2023-10-15T08:01:36Z</time>
      </trkpt>
      <trkpt lat="46.8324" lon="0.42889">
        <ele>63.1</ele>
        <time>2023-10-15T08:01:37Z</time>
      </trkpt>
      <trkpt lat="46.83241" lon="0.42882">
        <ele>63.58</ele>
        <time>2023-10-15T08:01:38Z</time>
      </trkpt>
      <trkpt lat="46.83244" lon="0.42869">
        <ele>63.58</ele>
        <time>2023-10-15T08:01:40Z</time>
      </trkpt>
      <trkpt lat="46.83246" lon="0.42862">
        <ele>63.1</ele>
        <time>2023-10-15T08:01:41Z</time>
      </trkpt>
      <trkpt lat="46.83247" lon="0.42856">
        <ele>62.62</ele>
        <time>2023-10-15T08:01:42Z</time>
      </trkpt>
      <trkpt lat="46.83248" lon="0.42849">
        <ele>63.1</ele>
        <time>2023-10-15T08:01:43Z</time>
      </trkpt>
      <trkpt lat="46.83249" lon="0.42841">
        <ele>62.62</ele>
        <time>2023-10-15T08:01:44Z</time>
      </trkpt>
      <trkpt lat="46.83254" lon="0.42806">
        <ele>62.14</ele>
        <time>2023-10-15T08:01:49Z</time>
      </trkpt>
      <trkpt lat="46.83256" lon="0.42753">
        <ele>62.62</ele>
        <time>2023-10-15T08:01:57Z</time>
      </trkpt>
      <trkpt lat="46.83256" lon="0.42728">
        <ele>61.66</ele>
        <time>2023-10-15T08:02:02Z</time>
      </trkpt>
      <trkpt lat="46.83258" lon="0.42726">
        <ele>62.62</ele>
        <time>2023-10-15T08:02:03Z</time>
      </trkpt>
      <trkpt lat="46.83261" lon="0.42725">
        <ele>62.14</ele>
        <time>2023-10-15T08:02:05Z</time>
      </trkpt>
      <trkpt lat="46.83271" lon="0.42722">
        <ele>62.62</ele>
        <time>2023-10-15T08:02:11Z</time>
      </trkpt>
      <trkpt lat="46.83282" lon="0.42721">
        <ele>62.14</ele>
        <time>2023-10-15T08:02:16Z</time>
      </trkpt>
      <trkpt lat="46.83287" lon="0.42719">
        <ele>63.58</ele>
        <time>2023-10-15T08:02:18Z</time>
      </trkpt>
      <trkpt lat="46.83294" lon="0.42714">
        <ele>62.62</ele>
        <time>2023-10-15T08:02:21Z</time>
      </trkpt>
      <trkpt lat="46.83312" lon="0.42716">
        <ele>63.1</ele>
        <time>2023-10-15T08:02:28Z</time>
      </trkpt>
      <trkpt lat="46.83318" lon="0.42716">
        <ele>63.58</ele>
        <time>2023-10-15T08:02:32Z</time>
      </trkpt>
      <trkpt lat="46.83332" lon="0.42683">
        <ele>64.07</ele>
        <time>2023-10-15T08:02:39Z</time>
      </trkpt>
      <trkpt lat="46.83337" lon="0.42674">
        <ele>63.1</ele>
        <time>2023-10-15T08:02:41Z</time>
      </trkpt>
      <trkpt lat="46.83351" lon="0.42658">
        <ele>63.58</ele>
        <time>2023-10-15T08:02:45Z</time>
      </trkpt>
      <trkpt lat="46.83362" lon="0.4265">
        <ele>63.58</ele>
        <time>2023-10-15T08:02:48Z</time>
      </trkpt>
      <trkpt lat="46.83373" lon="0.42665">
        <ele>63.58</ele>
        <time>2023-10-15T08:02:53Z</time>
      </trkpt>
      <trkpt lat="46.83376" lon="0.4267">
        <ele>62.62</ele>
        <time>2023-10-15T08:02:54Z</time>
      </trkpt>
      <trkpt lat="46.83387" lon="0.4269">
        <ele>64.07</ele>
        <time>2023-10-15T08:02:58Z</time>
      </trkpt>
      <trkpt lat="46.83404" lon="0.42721">
        <ele>62.62</ele>
        <time>2023-10-15T08:03:04Z</time>
      </trkpt>
      <trkpt lat="46.83409" lon="0.42732">
        <ele>63.58</ele>
        <time>2023-10-15T08:03:06Z</time>
      </trkpt>
      <trkpt lat="46.83412" lon="0.42737">
        <ele>62.62</ele>
        <time>2023-10-15T08:03:07Z</time>
      </trkpt>
      <trkpt lat="46.83414" lon="0.42743">
        <ele>62.62</ele>
        <time>2023-10-15T08:03:08Z</time>
      </trkpt>
      <trkpt lat="46.83421" lon="0.4276">
        <ele>62.14</ele>
        <time>2023-10-15T08:03:11Z</time>
      </trkpt>
      <trkpt lat="46.83433" lon="0.42794">
        <ele>61.66</ele>
        <time>2023-10-15T08:03:17Z</time>
      </trkpt>
      <trkpt lat="46.83437" lon="0.42811">
        <ele>61.66</ele>
        <time>2023-10-15T08:03:20Z</time>
      </trkpt>
      <trkpt lat="46.83449" lon="0.42847">
        <ele>61.18</ele>
        <time>2023-10-15T08:03:26Z</time>
      </trkpt>
      <trkpt lat="46.83451" lon="0.42854">
        <ele>60.7</ele>
        <time>2023-10-15T08:03:27Z</time>
      </trkpt>
      <trkpt lat="46.83453" lon="0.4286">
        <ele>61.18</ele>
        <time>2023-10-15T08:03:28Z</time>
      </trkpt>
      <trkpt lat="46.83456" lon="0.42866">
        <ele>61.18</ele>
        <time>2023-10-15T08:03:29Z</time>
      </trkpt>
      <trkpt lat="46.83457" lon="0.42871">
        <ele>62.14</ele>
        <time>2023-10-15T08:03:30Z</time>
      </trkpt>
      <trkpt lat="46.83458" lon="0.42876">
        <ele>61.18</ele>
        <time>2023-10-15T08:03:31Z</time>
      </trkpt>
      <trkpt lat="46.8346" lon="0.42881">
        <ele>61.18</ele>
        <time>2023-10-15T08:03:32Z</time>
      </trkpt>
      <trkpt lat="46.8347" lon="0.42907">
        <ele>59.74</ele>
        <time>2023-10-15T08:03:37Z</time>
      </trkpt>
      <trkpt lat="46.83472" lon="0.42911">
        <ele>60.7</ele>
        <time>2023-10-15T08:03:38Z</time>
      </trkpt>
      <trkpt lat="46.83475" lon="0.42915">
        <ele>60.22</ele>
        <time>2023-10-15T08:03:39Z</time>
      </trkpt>
      <trkpt lat="46.83477" lon="0.4292">
        <ele>60.7</ele>
        <time>2023-10-15T08:03:40Z</time>
      </trkpt>
      <trkpt lat="46.8348" lon="0.42923">
        <ele>60.22</ele>
        <time>2023-10-15T08:03:41Z</time>
      </trkpt>
      <trkpt lat="46.83487" lon="0.42938">
        <ele>60.7</ele>
        <time>2023-10-15T08:03:45Z</time>
      </trkpt>
      <trkpt lat="46.83488" lon="0.42942">
        <ele>60.7</ele>
        <time>2023-10-15T08:03:46Z</time>
      </trkpt>
      <trkpt lat="46.83489" lon="0.42946">
        <ele>60.22</ele>
        <time>2023-10-15T08:03:47Z</time>
      </trkpt>
      <trkpt lat="46.83492" lon="0.42951">
        <ele>60.7</ele>
        <time>2023-10-15T08:03:48Z</time>
      </trkpt>
      <trkpt lat="46.83494" lon="0.42954">
        <ele>59.74</ele>
        <time>2023-10-15T08:03:49Z</time>
      </trkpt>
      <trkpt lat="46.83514" lon="0.42973">
        <ele>61.18</ele>
        <time>2023-10-15T08:03:55Z</time>
      </trkpt>
      <trkpt lat="46.83541" lon="0.42994">
        <ele>61.18</ele>
        <time>2023-10-15T08:04:02Z</time>
      </trkpt>
      <trkpt lat="46.83557" lon="0.43007">
        <ele>61.18</ele>
        <time>2023-10-15T08:04:06Z</time>
      </trkpt>
      <trkpt lat="46.83589" lon="0.43035">
        <ele>61.66</ele>
        <time>2023-10-15T08:04:14Z</time>
      </trkpt>
      <trkpt lat="46.83616" lon="0.43055">
        <ele>61.66</ele>
        <time>2023-10-15T08:04:21Z</time>
      </trkpt>
      <trkpt lat="46.83642" lon="0.43074">
        <ele>63.1</ele>
        <time>2023-10-15T08:04:28Z</time>
      </trkpt>
      <trkpt lat="46.83646" lon="0.43076">
        <ele>62.62</ele>
        <time>2023-10-15T08:04:29Z</time>
      </trkpt>
      <trkpt lat="46.8365" lon="0.43079">
        <ele>63.1</ele>
        <time>2023-10-15T08:04:30Z</time>
      </trkpt>
      <trkpt lat="46.83671" lon="0.43094">
        <ele>64.55</ele>
        <time>2023-10-15T08:04:36Z</time>
      </trkpt>
      <trkpt lat="46.83682" lon="0.43101">
        <ele>63.1</ele>
        <time>2023-10-15T08:04:39Z</time>
      </trkpt>
      <trkpt lat="46.83686" lon="0.43103">
        <ele>63.58</ele>
        <time>2023-10-15T08:04:40Z</time>
      </trkpt>
      <trkpt lat="46.83716" lon="0.43127">
        <ele>64.07</ele>
        <time>2023-10-15T08:04:48Z</time>
      </trkpt>
      <trkpt lat="46.8374" lon="0.43149">
        <ele>65.03</ele>
        <time>2023-10-15T08:04:54Z</time>
      </trkpt>
      <trkpt lat="46.83765" lon="0.43169">
        <ele>64.55</ele>
        <time>2023-10-15T08:05:00Z</time>
      </trkpt>
      <trkpt lat="46.83789" lon="0.43186">
        <ele>65.03</ele>
        <time>2023-10-15T08:05:05Z</time>
      </trkpt>
      <trkpt lat="46.83793" lon="0.4319">
        <ele>65.51</ele>
        <time>2023-10-15T08:05:06Z</time>
      </trkpt>
      <trkpt lat="46.83821" lon="0.43226">
        <ele>65.51</ele>
        <time>2023-10-15T08:05:13Z</time>
      </trkpt>
      <trkpt lat="46.83841" lon="0.43257">
        <ele>64.55</ele>
        <time>2023-10-15T08:05:18Z</time>
      </trkpt>
      <trkpt lat="46.83855" lon="0.43282">
        <ele>65.03</ele>
        <time>2023-10-15T08:05:22Z</time>
      </trkpt>
      <trkpt lat="46.83877" lon="0.43336">
        <ele>65.99</ele>
        <time>2023-10-15T08:05:30Z</time>
      </trkpt>
      <trkpt lat="46.8388" lon="0.43342">
        <ele>64.55</ele>
        <time>2023-10-15T08:05:31Z</time>
      </trkpt>
      <trkpt lat="46.83882" lon="0.43348">
        <ele>65.03</ele>
        <time>2023-10-15T08:05:32Z</time>
      </trkpt>
      <trkpt lat="46.83885" lon="0.43354">
        <ele>65.99</ele>
        <time>2023-10-15T08:05:33Z</time>
      </trkpt>
      <trkpt lat="46.83887" lon="0.43361">
        <ele>65.51</ele>
        <time>2023-10-15T08:05:34Z</time>
      </trkpt>
      <trkpt lat="46.8389" lon="0.43367">
        <ele>65.51</ele>
        <time>2023-10-15T08:05:35Z</time>
      </trkpt>
      <trkpt lat="46.83894" lon="0.43379">
        <ele>65.51</ele>
        <time>2023-10-15T08:05:37Z</time>
      </trkpt>
      <trkpt lat="46.83898" lon="0.43385">
        <ele>65.03</ele>
        <time>2023-10-15T08:05:38Z</time>
      </trkpt>
      <trkpt lat="46.83902" lon="0.43391">
        <ele>65.03</ele>
        <time>2023-10-15T08:05:39Z</time>
      </trkpt>
      <trkpt lat="46.83905" lon="0.43397">
        <ele>65.51</ele>
        <time>2023-10-15T08:05:40Z</time>
      </trkpt>
      <trkpt lat="46.83909" lon="0.43403">
        <ele>65.99</ele>
        <time>2023-10-15T08:05:41Z</time>
      </trkpt>
      <trkpt lat="46.83913" lon="0.43408">
        <ele>65.51</ele>
        <time>2023-10-15T08:05:42Z</time>
      </trkpt>
      <trkpt lat="46.83946" lon="0.43458">
        <ele>65.51</ele>
        <time>2023-10-15T08:05:50Z</time>
      </trkpt>
      <trkpt lat="46.83973" lon="0.43497">
        <ele>65.99</ele>
        <time>2023-10-15T08:05:57Z</time>
      </trkpt>
      <trkpt lat="46.84001" lon="0.43532">
        <ele>65.03</ele>
        <time>2023-10-15T08:06:04Z</time>
      </trkpt>
      <trkpt lat="46.84029" lon="0.43567">
        <ele>65.51</ele>
        <time>2023-10-15T08:06:11Z</time>
      </trkpt>
      <trkpt lat="46.84037" lon="0.43577">
        <ele>65.99</ele>
        <time>2023-10-15T08:06:13Z</time>
      </trkpt>
      <trkpt lat="46.84045" lon="0.43585">
        <ele>64.55</ele>
        <time>2023-10-15T08:06:15Z</time>
      </trkpt>
      <trkpt lat="46.84049" lon="0.43589">
        <ele>65.51</ele>
        <time>2023-10-15T08:06:16Z</time>
      </trkpt>
      <trkpt lat="46.84054" lon="0.43594">
        <ele>65.51</ele>
        <time>2023-10-15T08:06:17Z</time>
      </trkpt>
      <trkpt lat="46.84067" lon="0.43606">
        <ele>65.99</ele>
        <time>2023-10-15T08:06:20Z</time>
      </trkpt>
      <trkpt lat="46.8407" lon="0.43609">
        <ele>65.99</ele>
        <time>2023-10-15T08:06:21Z</time>
      </trkpt>
      <trkpt lat="46.84085" lon="0.43625">
        <ele>66.47</ele>
        <time>2023-10-15T08:06:25Z</time>
      </trkpt>
      <trkpt lat="46.84097" lon="0.43639">
        <ele>65.51</ele>
        <time>2023-10-15T08:06:28Z</time>
      </trkpt>
      <trkpt lat="46.84101" lon="0.43642">
        <ele>65.51</ele>
        <time>2023-10-15T08:06:29Z</time>
      </trkpt>
      <trkpt lat="46.84115" lon="0.4366">
        <ele>65.51</ele>
        <time>2023-10-15T08:06:34Z</time>
      </trkpt>
      <trkpt lat="46.84129" lon="0.43675">
        <ele>65.99</ele>
        <time>2023-10-15T08:06:37Z</time>
      </trkpt>
      <trkpt lat="46.84133" lon="0.43681">
        <ele>65.03</ele>
        <time>2023-10-15T08:06:38Z</time>
      </trkpt>
      <trkpt lat="46.84137" lon="0.43686">
        <ele>65.03</ele>
        <time>2023-10-15T08:06:39Z</time>
      </trkpt>
      <trkpt lat="46.84142" lon="0.43691">
        <ele>65.03</ele>
        <time>2023-10-15T08:06:40Z</time>
      </trkpt>
      <trkpt lat="46.84146" lon="0.43695">
        <ele>65.99</ele>
        <time>2023-10-15T08:06:41Z</time>
      </trkpt>
      <trkpt lat="46.8415" lon="0.437">
        <ele>65.03</ele>
        <time>2023-10-15T08:06:42Z</time>
      </trkpt>
      <trkpt lat="46.84169" lon="0.43727">
        <ele>64.55</ele>
        <time>2023-10-15T08:06:48Z</time>
      </trkpt>
      <trkpt lat="46.84187" lon="0.4375">
        <ele>65.03</ele>
        <time>2023-10-15T08:06:53Z</time>
      </trkpt>
      <trkpt lat="46.84215" lon="0.43794">
        <ele>64.55</ele>
        <time>2023-10-15T08:07:01Z</time>
      </trkpt>
      <trkpt lat="46.84251" lon="0.43847">
        <ele>64.55</ele>
        <time>2023-10-15T08:07:11Z</time>
      </trkpt>
      <trkpt lat="46.84284" lon="0.43896">
        <ele>62.62</ele>
        <time>2023-10-15T08:07:20Z</time>
      </trkpt>
      <trkpt lat="46.84313" lon="0.43939">
        <ele>61.66</ele>
        <time>2023-10-15T08:07:28Z</time>
      </trkpt>
      <trkpt lat="46.84315" lon="0.43945">
        <ele>61.66</ele>
        <time>2023-10-15T08:07:29Z</time>
      </trkpt>
      <trkpt lat="46.84319" lon="0.43958">
        <ele>60.7</ele>
        <time>2023-10-15T08:07:31Z</time>
      </trkpt>
      <trkpt lat="46.84322" lon="0.43964">
        <ele>60.7</ele>
        <time>2023-10-15T08:07:32Z</time>
      </trkpt>
      <trkpt lat="46.8436" lon="0.44029">
        <ele>59.74</ele>
        <time>2023-10-15T08:07:43Z</time>
      </trkpt>
      <trkpt lat="46.84396" lon="0.44091">
        <ele>59.74</ele>
        <time>2023-10-15T08:07:53Z</time>
      </trkpt>
      <trkpt lat="46.84424" lon="0.44145">
        <ele>57.82</ele>
        <time>2023-10-15T08:08:01Z</time>
      </trkpt>
      <trkpt lat="46.84461" lon="0.44213">
        <ele>58.3</ele>
        <time>2023-10-15T08:08:11Z</time>
      </trkpt>
      <trkpt lat="46.8449" lon="0.44269">
        <ele>58.78</ele>
        <time>2023-10-15T08:08:20Z</time>
      </trkpt>
      <trkpt lat="46.84493" lon="0.44275">
        <ele>59.26</ele>
        <time>2023-10-15T08:08:21Z</time>
      </trkpt>
      <trkpt lat="46.84502" lon="0.44292">
        <ele>59.26</ele>
        <time>2023-10-15T08:08:24Z</time>
      </trkpt>
      <trkpt lat="46.84522" lon="0.4433">
        <ele>59.74</ele>
        <time>2023-10-15T08:08:31Z</time>
      </trkpt>
      <trkpt lat="46.84551" lon="0.44383">
        <ele>60.22</ele>
        <time>2023-10-15T08:08:41Z</time>
      </trkpt>
      <trkpt lat="46.84566" lon="0.44424">
        <ele>60.22</ele>
        <time>2023-10-15T08:08:48Z</time>
      </trkpt>
      <trkpt lat="46.84582" lon="0.44476">
        <ele>60.7</ele>
        <time>2023-10-15T08:08:56Z</time>
      </trkpt>
      <trkpt lat="46.84587" lon="0.44495">
        <ele>61.18</ele>
        <time>2023-10-15T08:08:59Z</time>
      </trkpt>
      <trkpt lat="46.84589" lon="0.44502">
        <ele>61.18</ele>
        <time>2023-10-15T08:09:00Z</time>
      </trkpt>
      <trkpt lat="46.84601" lon="0.44557">
        <ele>59.74</ele>
        <time>2023-10-15T08:09:08Z</time>
      </trkpt>
      <trkpt lat="46.84601" lon="0.44565">
        <ele>60.7</ele>
        <time>2023-10-15T08:09:09Z</time>
      </trkpt>
      <trkpt lat="46.846" lon="0.446">
        <ele>59.74</ele>
        <time>2023-10-15T08:09:14Z</time>
      </trkpt>
      <trkpt lat="46.84599" lon="0.44654">
        <ele>58.3</ele>
        <time>2023-10-15T08:09:22Z</time>
      </trkpt>
      <trkpt lat="46.84595" lon="0.44666">
        <ele>58.3</ele>
        <time>2023-10-15T08:09:25Z</time>
      </trkpt>
      <trkpt lat="46.84577" lon="0.44682">
        <ele>57.82</ele>
        <time>2023-10-15T08:09:31Z</time>
      </trkpt>
      <trkpt lat="46.84555" lon="0.44699">
        <ele>57.34</ele>
        <time>2023-10-15T08:09:36Z</time>
      </trkpt>
      <trkpt lat="46.84536" lon="0.44716">
        <ele>56.37</ele>
        <time>2023-10-15T08:09:40Z</time>
      </trkpt>
      <trkpt lat="46.84506" lon="0.44742">
        <ele>54.93</ele>
        <time>2023-10-15T08:09:46Z</time>
      </trkpt>
      <trkpt lat="46.84469" lon="0.44771">
        <ele>52.05</ele>
        <time>2023-10-15T08:09:53Z</time>
      </trkpt>
      <trkpt lat="46.84437" lon="0.44802">
        <ele>52.05</ele>
        <time>2023-10-15T08:09:59Z</time>
      </trkpt>
      <trkpt lat="46.84399" lon="0.44839">
        <ele>50.13</ele>
        <time>2023-10-15T08:10:05Z</time>
      </trkpt>
      <trkpt lat="46.84364" lon="0.44866">
        <ele>46.76</ele>
        <time>2023-10-15T08:10:10Z</time>
      </trkpt>
      <trkpt lat="46.84324" lon="0.44894">
        <ele>43.4</ele>
        <time>2023-10-15T08:10:15Z</time>
      </trkpt>
      <trkpt lat="46.84309" lon="0.44906">
        <ele>41.47</ele>
        <time>2023-10-15T08:10:17Z</time>
      </trkpt>
      <trkpt lat="46.84302" lon="0.44913">
        <ele>40.03</ele>
        <time>2023-10-15T08:10:18Z</time>
      </trkpt>
      <trkpt lat="46.84295" lon="0.44923">
        <ele>38.59</ele>
        <time>2023-10-15T08:10:19Z</time>
      </trkpt>
      <trkpt lat="46.84283" lon="0.44946">
        <ele>37.15</ele>
        <time>2023-10-15T08:10:21Z</time>
      </trkpt>
      <trkpt lat="46.84252" lon="0.44988">
        <ele>32.82</ele>
        <time>2023-10-15T08:10:25Z</time>
      </trkpt>
      <trkpt lat="46.84226" lon="0.4502">
        <ele>29.46</ele>
        <time>2023-10-15T08:10:28Z</time>
      </trkpt>
      <trkpt lat="46.84198" lon="0.4505">
        <ele>25.13</ele>
        <time>2023-10-15T08:10:31Z</time>
      </trkpt>
      <trkpt lat="46.84189" lon="0.45059">
        <ele>26.09</ele>
        <time>2023-10-15T08:10:32Z</time>
      </trkpt>
      <trkpt lat="46.84153" lon="0.45094">
        <ele>22.73</ele>
        <time>2023-10-15T08:10:36Z</time>
      </trkpt>
      <trkpt lat="46.8411" lon="0.45146">
        <ele>21.29</ele>
        <time>2023-10-15T08:10:42Z</time>
      </trkpt>
      <trkpt lat="46.84098" lon="0.4516">
        <ele>21.29</ele>
        <time>2023-10-15T08:10:44Z</time>
      </trkpt>
      <trkpt lat="46.84079" lon="0.45179">
        <ele>20.32</ele>
        <time>2023-10-15T08:10:48Z</time>
      </trkpt>
      <trkpt lat="46.84074" lon="0.45182">
        <ele>20.81</ele>
        <time>2023-10-15T08:10:49Z</time>
      </trkpt>
      <trkpt lat="46.84056" lon="0.45192">
        <ele>21.29</ele>
        <time>2023-10-15T08:10:53Z</time>
      </trkpt>
      <trkpt lat="46.84052" lon="0.45195">
        <ele>22.25</ele>
        <time>2023-10-15T08:10:54Z</time>
      </trkpt>
      <trkpt lat="46.84027" lon="0.4521">
        <ele>23.69</ele>
        <time>2023-10-15T08:11:00Z</time>
      </trkpt>
      <trkpt lat="46.84004" lon="0.45219">
        <ele>25.13</ele>
        <time>2023-10-15T08:11:06Z</time>
      </trkpt>
      <trkpt lat="46.83986" lon="0.45229">
        <ele>26.09</ele>
        <time>2023-10-15T08:11:11Z</time>
      </trkpt>
      <trkpt lat="46.83985" lon="0.45233">
        <ele>25.61</ele>
        <time>2023-10-15T08:11:12Z</time>
      </trkpt>
      <trkpt lat="46.83985" lon="0.45239">
        <ele>27.53</ele>
        <time>2023-10-15T08:11:13Z</time>
      </trkpt>
      <trkpt lat="46.83984" lon="0.45244">
        <ele>27.53</ele>
        <time>2023-10-15T08:11:14Z</time>
      </trkpt>
      <trkpt lat="46.83985" lon="0.45249">
        <ele>26.57</ele>
        <time>2023-10-15T08:11:15Z</time>
      </trkpt>
      <trkpt lat="46.83986" lon="0.45253">
        <ele>26.57</ele>
        <time>2023-10-15T08:11:16Z</time>
      </trkpt>
      <trkpt lat="46.83987" lon="0.45258">
        <ele>27.05</ele>
        <time>2023-10-15T08:11:17Z</time>
      </trkpt>
      <trkpt lat="46.83989" lon="0.45263">
        <ele>26.57</ele>
        <time>2023-10-15T08:11:18Z</time>
      </trkpt>
      <trkpt lat="46.8399" lon="0.45268">
        <ele>26.57</ele>
        <time>2023-10-15T08:11:19Z</time>
      </trkpt>
      <trkpt lat="46.83992" lon="0.45274">
        <ele>26.57</ele>
        <time>2023-10-15T08:11:20Z</time>
      </trkpt>
      <trkpt lat="46.83993" lon="0.4528">
        <ele>26.09</ele>
        <time>2023-10-15T08:11:21Z</time>
      </trkpt>
      <trkpt lat="46.83996" lon="0.45337">
        <ele>25.13</ele>
        <time>2023-10-15T08:11:29Z</time>
      </trkpt>
      <trkpt lat="46.84002" lon="0.45422">
        <ele>23.69</ele>
        <time>2023-10-15T08:11:40Z</time>
      </trkpt>
      <trkpt lat="46.84002" lon="0.45487">
        <ele>21.77</ele>
        <time>2023-10-15T08:11:47Z</time>
      </trkpt>
      <trkpt lat="46.84" lon="0.45522">
        <ele>19.84</ele>
        <time>2023-10-15T08:11:51Z</time>
      </trkpt>
      <trkpt lat="46.84001" lon="0.45529">
        <ele>19.84</ele>
        <time>2023-10-15T08:11:52Z</time>
      </trkpt>
      <trkpt lat="46.84004" lon="0.45533">
        <ele>18.88</ele>
        <time>2023-10-15T08:11:53Z</time>
      </trkpt>
      <trkpt lat="46.84008" lon="0.45535">
        <ele>18.4</ele>
        <time>2023-10-15T08:11:54Z</time>
      </trkpt>
      <trkpt lat="46.84014" lon="0.45535">
        <ele>18.4</ele>
        <time>2023-10-15T08:11:55Z</time>
      </trkpt>
      <trkpt lat="46.8402" lon="0.45533">
        <ele>17.44</ele>
        <time>2023-10-15T08:11:56Z</time>
      </trkpt>
      <trkpt lat="46.84026" lon="0.45533">
        <ele>16.96</ele>
        <time>2023-10-15T08:11:57Z</time>
      </trkpt>
      <trkpt lat="46.84047" lon="0.45531">
        <ele>15.52</ele>
        <time>2023-10-15T08:12:00Z</time>
      </trkpt>
      <trkpt lat="46.84087" lon="0.45532">
        <ele>13.12</ele>
        <time>2023-10-15T08:12:05Z</time>
      </trkpt>
      <trkpt lat="46.84159" lon="0.45539">
        <ele>11.19</ele>
        <time>2023-10-15T08:12:14Z</time>
      </trkpt>
      <trkpt lat="46.84216" lon="0.45553">
        <ele>11.67</ele>
        <time>2023-10-15T08:12:22Z</time>
      </trkpt>
      <trkpt lat="46.84264" lon="0.45571">
        <ele>12.63</ele>
        <time>2023-10-15T08:12:30Z</time>
      </trkpt>
      <trkpt lat="46.84304" lon="0.45585">
        <ele>13.6</ele>
        <time>2023-10-15T08:12:38Z</time>
      </trkpt>
      <trkpt lat="46.84339" lon="0.45593">
        <ele>15.52</ele>
        <time>2023-10-15T08:12:46Z</time>
      </trkpt>
      <trkpt lat="46.8437" lon="0.45599">
        <ele>18.4</ele>
        <time>2023-10-15T08:12:55Z</time>
      </trkpt>
      <trkpt lat="46.84391" lon="0.45599">
        <ele>20.32</ele>
        <time>2023-10-15T08:13:03Z</time>
      </trkpt>
      <trkpt lat="46.84404" lon="0.45601">
        <ele>21.29</ele>
        <time>2023-10-15T08:13:09Z</time>
      </trkpt>
      <trkpt lat="46.84419" lon="0.45601">
        <ele>22.73</ele>
        <time>2023-10-15T08:13:17Z</time>
      </trkpt>
      <trkpt lat="46.84437" lon="0.456">
        <ele>24.17</ele>
        <time>2023-10-15T08:13:26Z</time>
      </trkpt>
      <trkpt lat="46.84452" lon="0.45599">
        <ele>26.09</ele>
        <time>2023-10-15T08:13:33Z</time>
      </trkpt>
      <trkpt lat="46.84468" lon="0.456">
        <ele>27.05</ele>
        <time>2023-10-15T08:13:41Z</time>
      </trkpt>
      <trkpt lat="46.8447" lon="0.45602">
        <ele>26.57</ele>
        <time>2023-10-15T08:13:42Z</time>
      </trkpt>
      <trkpt lat="46.84472" lon="0.45603">
        <ele>27.53</ele>
        <time>2023-10-15T08:13:43Z</time>
      </trkpt>
      <trkpt lat="46.84474" lon="0.45604">
        <ele>28.02</ele>
        <time>2023-10-15T08:13:44Z</time>
      </trkpt>
      <trkpt lat="46.84475" lon="0.45607">
        <ele>28.02</ele>
        <time>2023-10-15T08:13:45Z</time>
      </trkpt>
      <trkpt lat="46.84477" lon="0.4561">
        <ele>28.98</ele>
        <time>2023-10-15T08:13:46Z</time>
      </trkpt>
      <trkpt lat="46.84477" lon="0.45629">
        <ele>29.46</ele>
        <time>2023-10-15T08:13:53Z</time>
      </trkpt>
      <trkpt lat="46.84482" lon="0.45641">
        <ele>30.42</ele>
        <time>2023-10-15T08:13:57Z</time>
      </trkpt>
      <trkpt lat="46.84484" lon="0.45642">
        <ele>28.98</ele>
        <time>2023-10-15T08:13:58Z</time>
      </trkpt>
      <trkpt lat="46.84486" lon="0.45643">
        <ele>30.42</ele>
        <time>2023-10-15T08:13:59Z</time>
      </trkpt>
      <trkpt lat="46.84487" lon="0.45643">
        <ele>30.42</ele>
        <time>2023-10-15T08:14:00Z</time>
      </trkpt>
      <trkpt lat="46.84489" lon="0.45643">
        <ele>30.9</ele>
        <time>2023-10-15T08:14:01Z</time>
      </trkpt>
      <trkpt lat="46.84506" lon="0.45642">
        <ele>32.82</ele>
        <time>2023-10-15T08:14:10Z</time>
      </trkpt>
      <trkpt lat="46.84524" lon="0.45642">
        <ele>33.78</ele>
        <time>2023-10-15T08:14:19Z</time>
      </trkpt>
      <trkpt lat="46.84542" lon="0.45644">
        <ele>36.19</ele>
        <time>2023-10-15T08:14:28Z</time>
      </trkpt>
      <trkpt lat="46.84558" lon="0.45651">
        <ele>38.59</ele>
        <time>2023-10-15T08:14:37Z</time>
      </trkpt>
      <trkpt lat="46.84568" lon="0.45665">
        <ele>40.03</ele>
        <time>2023-10-15T08:14:44Z</time>
      </trkpt>
      <trkpt lat="46.84578" lon="0.45684">
        <ele>41.47</ele>
        <time>2023-10-15T08:14:51Z</time>
      </trkpt>
      <trkpt lat="46.84588" lon="0.45706">
        <ele>41.95</ele>
        <time>2023-10-15T08:14:58Z</time>
      </trkpt>
      <trkpt lat="46.84599" lon="0.4573">
        <ele>42.92</ele>
        <time>2023-10-15T08:15:05Z</time>
      </trkpt>
      <trkpt lat="46.84616" lon="0.45765">
        <ele>43.4</ele>
        <time>2023-10-15T08:15:15Z</time>
      </trkpt>
      <trkpt lat="46.84635" lon="0.45802">
        <ele>42.92</ele>
        <time>2023-10-15T08:15:25Z</time>
      </trkpt>
      <trkpt lat="46.84634" lon="0.45835">
        <ele>41.47</ele>
        <time>2023-10-15T08:15:30Z</time>
      </trkpt>
      <trkpt lat="46.8463" lon="0.45841">
        <ele>40.03</ele>
        <time>2023-10-15T08:15:31Z</time>
      </trkpt>
      <trkpt lat="46.84592" lon="0.45901">
        <ele>36.19</ele>
        <time>2023-10-15T08:15:39Z</time>
      </trkpt>
      <trkpt lat="46.8457" lon="0.45936">
        <ele>32.82</ele>
        <time>2023-10-15T08:15:43Z</time>
      </trkpt>
      <trkpt lat="46.84565" lon="0.45944">
        <ele>32.82</ele>
        <time>2023-10-15T08:15:44Z</time>
      </trkpt>
      <trkpt lat="46.84547" lon="0.45972">
        <ele>31.38</ele>
        <time>2023-10-15T08:15:47Z</time>
      </trkpt>
      <trkpt lat="46.84517" lon="0.46022">
        <ele>27.53</ele>
        <time>2023-10-15T08:15:52Z</time>
      </trkpt>
      <trkpt lat="46.84493" lon="0.46059">
        <ele>26.57</ele>
        <time>2023-10-15T08:15:56Z</time>
      </trkpt>
      <trkpt lat="46.84472" lon="0.46093">
        <ele>24.65</ele>
        <time>2023-10-15T08:16:00Z</time>
      </trkpt>
      <trkpt lat="46.84455" lon="0.46151">
        <ele>23.69</ele>
        <time>2023-10-15T08:16:06Z</time>
      </trkpt>
      <trkpt lat="46.84432" lon="0.46186">
        <ele>22.73</ele>
        <time>2023-10-15T08:16:11Z</time>
      </trkpt>
      <trkpt lat="46.84426" lon="0.4619">
        <ele>23.21</ele>
        <time>2023-10-15T08:16:12Z</time>
      </trkpt>
      <trkpt lat="46.8442" lon="0.46194">
        <ele>23.21</ele>
        <time>2023-10-15T08:16:13Z</time>
      </trkpt>
      <trkpt lat="46.84382" lon="0.46224">
        <ele>22.73</ele>
        <time>2023-10-15T08:16:20Z</time>
      </trkpt>
      <trkpt lat="46.84379" lon="0.46228">
        <ele>22.73</ele>
        <time>2023-10-15T08:16:21Z</time>
      </trkpt>
      <trkpt lat="46.84372" lon="0.46237">
        <ele>23.21</ele>
        <time>2023-10-15T08:16:23Z</time>
      </trkpt>
      <trkpt lat="46.84369" lon="0.46242">
        <ele>22.73</ele>
        <time>2023-10-15T08:16:24Z</time>
      </trkpt>
      <trkpt lat="46.84367" lon="0.46247">
        <ele>23.69</ele>
        <time>2023-10-15T08:16:25Z</time>
      </trkpt>
      <trkpt lat="46.84365" lon="0.46252">
        <ele>24.65</ele>
        <time>2023-10-15T08:16:26Z</time>
      </trkpt>
      <trkpt lat="46.84363" lon="0.46256">
        <ele>24.65</ele>
        <time>2023-10-15T08:16:27Z</time>
      </trkpt>
      <trkpt lat="46.84362" lon="0.46261">
        <ele>24.65</ele>
        <time>2023-10-15T08:16:28Z</time>
      </trkpt>
      <trkpt lat="46.8436" lon="0.46266">
        <ele>25.61</ele>
        <time>2023-10-15T08:16:29Z</time>
      </trkpt>
      <trkpt lat="46.84358" lon="0.4627">
        <ele>25.61</ele>
        <time>2023-10-15T08:16:30Z</time>
      </trkpt>
      <trkpt lat="46.84343" lon="0.46302">
        <ele>27.05</ele>
        <time>2023-10-15T08:16:37Z</time>
      </trkpt>
      <trkpt lat="46.84329" lon="0.46332">
        <ele>27.53</ele>
        <time>2023-10-15T08:16:44Z</time>
      </trkpt>
      <trkpt lat="46.84325" lon="0.46341">
        <ele>28.5</ele>
        <time>2023-10-15T08:16:46Z</time>
      </trkpt>
      <trkpt lat="46.84307" lon="0.46373">
        <ele>28.5</ele>
        <time>2023-10-15T08:16:54Z</time>
      </trkpt>
      <trkpt lat="46.84295" lon="0.46389">
        <ele>28.98</ele>
        <time>2023-10-15T08:16:58Z</time>
      </trkpt>
      <trkpt lat="46.84292" lon="0.46392">
        <ele>28.5</ele>
        <time>2023-10-15T08:16:59Z</time>
      </trkpt>
      <trkpt lat="46.84261" lon="0.46411">
        <ele>25.61</ele>
        <time>2023-10-15T08:17:06Z</time>
      </trkpt>
      <trkpt lat="46.84256" lon="0.46414">
        <ele>25.13</ele>
        <time>2023-10-15T08:17:07Z</time>
      </trkpt>
      <trkpt lat="46.84251" lon="0.46417">
        <ele>25.13</ele>
        <time>2023-10-15T08:17:08Z</time>
      </trkpt>
      <trkpt lat="46.84245" lon="0.4642">
        <ele>24.65</ele>
        <time>2023-10-15T08:17:09Z</time>
      </trkpt>
      <trkpt lat="46.84206" lon="0.46457">
        <ele>21.77</ele>
        <time>2023-10-15T08:17:16Z</time>
      </trkpt>
      <trkpt lat="46.84199" lon="0.46463">
        <ele>21.77</ele>
        <time>2023-10-15T08:17:17Z</time>
      </trkpt>
      <trkpt lat="46.84169" lon="0.4649">
        <ele>18.4</ele>
        <time>2023-10-15T08:17:21Z</time>
      </trkpt>
      <trkpt lat="46.84146" lon="0.46513">
        <ele>13.12</ele>
        <time>2023-10-15T08:17:24Z</time>
      </trkpt>
      <trkpt lat="46.84139" lon="0.46525">
        <ele>12.15</ele>
        <time>2023-10-15T08:17:25Z</time>
      </trkpt>
      <trkpt lat="46.84133" lon="0.46538">
        <ele>12.15</ele>
        <time>2023-10-15T08:17:26Z</time>
      </trkpt>
      <trkpt lat="46.84121" lon="0.46565">
        <ele>7.83</ele>
        <time>2023-10-15T08:17:28Z</time>
      </trkpt>
      <trkpt lat="46.84115" lon="0.46578">
        <ele>7.83</ele>
        <time>2023-10-15T08:17:29Z</time>
      </trkpt>
      <trkpt lat="46.84103" lon="0.46601">
        <ele>4.94</ele>
        <time>2023-10-15T08:17:31Z</time>
      </trkpt>
      <trkpt lat="46.84093" lon="0.46621">
        <ele>3.5</ele>
        <time>2023-10-15T08:17:33Z</time>
      </trkpt>
      <trkpt lat="46.84083" lon="0.46644">
        <ele>-0.82</ele>
        <time>2023-10-15T08:17:36Z</time>
      </trkpt>
      <trkpt lat="46.84082" lon="0.46649">
        <ele>-1.79</ele>
        <time>2023-10-15T08:17:37Z</time>
      </trkpt>
      <trkpt lat="46.84083" lon="0.46653">
        <ele>-0.34</ele>
        <time>2023-10-15T08:17:38Z</time>
      </trkpt>
      <trkpt lat="46.84085" lon="0.46656">
        <ele>-1.3</ele>
        <time>2023-10-15T08:17:39Z</time>
      </trkpt>
      <trkpt lat="46.84087" lon="0.46658">
        <ele>-0.82</ele>
        <time>2023-10-15T08:17:40Z</time>
      </trkpt>
      <trkpt lat="46.84089" lon="0.46659">
        <ele>-0.82</ele>
        <time>2023-10-15T08:17:41Z</time>
      </trkpt>
      <trkpt lat="46.8409" lon="0.46658">
        <ele>-1.3</ele>
        <time>2023-10-15T08:17:42Z</time>
      </trkpt>
      <trkpt lat="46.84092" lon="0.46657">
        <ele>0.14</ele>
        <time>2023-10-15T08:17:43Z</time>
      </trkpt>
      <trkpt lat="46.84093" lon="0.46657">
        <ele>0.14</ele>
        <time>2023-10-15T08:17:44Z</time>
      </trkpt>
      <trkpt lat="46.84095" lon="0.46657">
        <ele>0.14</ele>
        <time>2023-10-15T08:17:45Z</time>
      </trkpt>
      <trkpt lat="46.84096" lon="0.46657">
        <ele>0.14</ele>
        <time>2023-10-15T08:17:46Z</time>
      </trkpt>
      <trkpt lat="46.84098" lon="0.46657">
        <ele>0.62</ele>
        <time>2023-10-15T08:17:47Z</time>
      </trkpt>
      <trkpt lat="46.84099" lon="0.46657">
        <ele>1.1</ele>
        <time>2023-10-15T08:17:48Z</time>
      </trkpt>
      <trkpt lat="46.84101" lon="0.46657">
        <ele>1.58</ele>
        <time>2023-10-15T08:17:49Z</time>
      </trkpt>
      <trkpt lat="46.84103" lon="0.46657">
        <ele>2.06</ele>
        <time>2023-10-15T08:17:50Z</time>
      </trkpt>
      <trkpt lat="46.84104" lon="0.46657">
        <ele>2.06</ele>
        <time>2023-10-15T08:17:51Z</time>
      </trkpt>
      <trkpt lat="46.84106" lon="0.46657">
        <ele>2.54</ele>
        <time>2023-10-15T08:17:52Z</time>
      </trkpt>
      <trkpt lat="46.84108" lon="0.46657">
        <ele>2.06</ele>
        <time>2023-10-15T08:17:53Z</time>
      </trkpt>
      <trkpt lat="46.84109" lon="0.46656">
        <ele>3.5</ele>
        <time>2023-10-15T08:17:54Z</time>
      </trkpt>
      <trkpt lat="46.8411" lon="0.46656">
        <ele>2.06</ele>
        <time>2023-10-15T08:17:55Z</time>
      </trkpt>
      <trkpt lat="46.84112" lon="0.46656">
        <ele>3.98</ele>
        <time>2023-10-15T08:17:56Z</time>
      </trkpt>
      <trkpt lat="46.84113" lon="0.46656">
        <ele>3.5</ele>
        <time>2023-10-15T08:17:57Z</time>
      </trkpt>
      <trkpt lat="46.84115" lon="0.46656">
        <ele>3.98</ele>
        <time>2023-10-15T08:17:58Z</time>
      </trkpt>
      <trkpt lat="46.84128" lon="0.46657">
        <ele>7.35</ele>
        <time>2023-10-15T08:18:06Z</time>
      </trkpt>
      <trkpt lat="46.84138" lon="0.46659">
        <ele>8.31</ele>
        <time>2023-10-15T08:18:13Z</time>
      </trkpt>
      <trkpt lat="46.84148" lon="0.46659">
        <ele>8.79</ele>
        <time>2023-10-15T08:18:21Z</time>
      </trkpt>
      <trkpt lat="46.84158" lon="0.46661">
        <ele>11.67</ele>
        <time>2023-10-15T08:18:29Z</time>
      </trkpt>
      <trkpt lat="46.84171" lon="0.46663">
        <ele>13.12</ele>
        <time>2023-10-15T08:18:38Z</time>
      </trkpt>
      <trkpt lat="46.84184" lon="0.46665">
        <ele>14.08</ele>
        <time>2023-10-15T08:18:46Z</time>
      </trkpt>
      <trkpt lat="46.84196" lon="0.46668">
        <ele>16</ele>
        <time>2023-10-15T08:18:54Z</time>
      </trkpt>
      <trkpt lat="46.84209" lon="0.46672">
        <ele>17.44</ele>
        <time>2023-10-15T08:19:02Z</time>
      </trkpt>
      <trkpt lat="46.84222" lon="0.46674">
        <ele>18.4</ele>
        <time>2023-10-15T08:19:09Z</time>
      </trkpt>
      <trkpt lat="46.84236" lon="0.46679">
        <ele>17.92</ele>
        <time>2023-10-15T08:19:16Z</time>
      </trkpt>
      <trkpt lat="46.84252" lon="0.46683">
        <ele>20.32</ele>
        <time>2023-10-15T08:19:24Z</time>
      </trkpt>
      <trkpt lat="46.84266" lon="0.46687">
        <ele>20.32</ele>
        <time>2023-10-15T08:19:31Z</time>
      </trkpt>
      <trkpt lat="46.84281" lon="0.4669">
        <ele>21.77</ele>
        <time>2023-10-15T08:19:39Z</time>
      </trkpt>
      <trkpt lat="46.84297" lon="0.46693">
        <ele>23.21</ele>
        <time>2023-10-15T08:19:47Z</time>
      </trkpt>
      <trkpt lat="46.84313" lon="0.46698">
        <ele>24.17</ele>
        <time>2023-10-15T08:19:56Z</time>
      </trkpt>
      <trkpt lat="46.8432" lon="0.467">
        <ele>26.09</ele>
        <time>2023-10-15T08:19:59Z</time>
      </trkpt>
      <trkpt lat="46.8433" lon="0.46706">
        <ele>27.05</ele>
        <time>2023-10-15T08:20:05Z</time>
      </trkpt>
      <trkpt lat="46.84343" lon="0.46709">
        <ele>28.02</ele>
        <time>2023-10-15T08:20:13Z</time>
      </trkpt>
      <trkpt lat="46.84355" lon="0.46709">
        <ele>28.02</ele>
        <time>2023-10-15T08:20:21Z</time>
      </trkpt>
      <trkpt lat="46.84358" lon="0.4671">
        <ele>29.94</ele>
        <time>2023-10-15T08:20:23Z</time>
      </trkpt>
      <trkpt lat="46.8436" lon="0.46711">
        <ele>30.42</ele>
        <time>2023-10-15T08:20:24Z</time>
      </trkpt>
      <trkpt lat="46.84361" lon="0.46711">
        <ele>29.46</ele>
        <time>2023-10-15T08:20:25Z</time>
      </trkpt>
      <trkpt lat="46.84373" lon="0.46711">
        <ele>31.38</ele>
        <time>2023-10-15T08:20:33Z</time>
      </trkpt>
      <trkpt lat="46.84385" lon="0.46714">
        <ele>31.86</ele>
        <time>2023-10-15T08:20:41Z</time>
      </trkpt>
      <trkpt lat="46.84399" lon="0.46712">
        <ele>33.78</ele>
        <time>2023-10-15T08:20:49Z</time>
      </trkpt>
      <trkpt lat="46.84409" lon="0.4671">
        <ele>34.74</ele>
        <time>2023-10-15T08:20:56Z</time>
      </trkpt>
      <trkpt lat="46.8441" lon="0.46709">
        <ele>35.23</ele>
        <time>2023-10-15T08:20:57Z</time>
      </trkpt>
      <trkpt lat="46.84412" lon="0.46709">
        <ele>34.74</ele>
        <time>2023-10-15T08:20:58Z</time>
      </trkpt>
      <trkpt lat="46.84424" lon="0.46705">
        <ele>37.15</ele>
        <time>2023-10-15T08:21:05Z</time>
      </trkpt>
      <trkpt lat="46.84436" lon="0.46699">
        <ele>37.15</ele>
        <time>2023-10-15T08:21:13Z</time>
      </trkpt>
      <trkpt lat="46.84444" lon="0.46694">
        <ele>38.11</ele>
        <time>2023-10-15T08:21:19Z</time>
      </trkpt>
      <trkpt lat="46.84445" lon="0.46694">
        <ele>39.07</ele>
        <time>2023-10-15T08:21:20Z</time>
      </trkpt>
      <trkpt lat="46.84447" lon="0.46694">
        <ele>38.59</ele>
        <time>2023-10-15T08:21:21Z</time>
      </trkpt>
      <trkpt lat="46.84457" lon="0.4669">
        <ele>40.03</ele>
        <time>2023-10-15T08:21:27Z</time>
      </trkpt>
      <trkpt lat="46.84471" lon="0.46692">
        <ele>41.47</ele>
        <time>2023-10-15T08:21:34Z</time>
      </trkpt>
      <trkpt lat="46.84485" lon="0.46695">
        <ele>41.47</ele>
        <time>2023-10-15T08:21:40Z</time>
      </trkpt>
      <trkpt lat="46.84499" lon="0.46702">
        <ele>41.95</ele>
        <time>2023-10-15T08:21:46Z</time>
      </trkpt>
      <trkpt lat="46.84516" lon="0.4671">
        <ele>43.4</ele>
        <time>2023-10-15T08:21:53Z</time>
      </trkpt>
      <trkpt lat="46.8453" lon="0.46718">
        <ele>43.4</ele>
        <time>2023-10-15T08:21:59Z</time>
      </trkpt>
      <trkpt lat="46.84546" lon="0.46727">
        <ele>43.4</ele>
        <time>2023-10-15T08:22:05Z</time>
      </trkpt>
      <trkpt lat="46.84566" lon="0.46736">
        <ele>44.84</ele>
        <time>2023-10-15T08:22:12Z</time>
      </trkpt>
      <trkpt lat="46.84586" lon="0.46749">
        <ele>44.84</ele>
        <time>2023-10-15T08:22:19Z</time>
      </trkpt>
      <trkpt lat="46.84589" lon="0.46755">
        <ele>44.84</ele>
        <time>2023-10-15T08:22:21Z</time>
      </trkpt>
      <trkpt lat="46.84589" lon="0.46758">
        <ele>45.32</ele>
        <time>2023-10-15T08:22:22Z</time>
      </trkpt>
      <trkpt lat="46.8459" lon="0.46762">
        <ele>45.32</ele>
        <time>2023-10-15T08:22:23Z</time>
      </trkpt>
      <trkpt lat="46.84591" lon="0.46781">
        <ele>45.32</ele>
        <time>2023-10-15T08:22:29Z</time>
      </trkpt>
      <trkpt lat="46.84593" lon="0.4681">
        <ele>45.8</ele>
        <time>2023-10-15T08:22:36Z</time>
      </trkpt>
      <trkpt lat="46.84596" lon="0.46827">
        <ele>45.32</ele>
        <time>2023-10-15T08:22:41Z</time>
      </trkpt>
      <trkpt lat="46.84597" lon="0.46838">
        <ele>46.28</ele>
        <time>2023-10-15T08:22:44Z</time>
      </trkpt>
      <trkpt lat="46.84599" lon="0.46863">
        <ele>46.28</ele>
        <time>2023-10-15T08:22:50Z</time>
      </trkpt>
      <trkpt lat="46.84594" lon="0.46899">
        <ele>46.28</ele>
        <time>2023-10-15T08:22:56Z</time>
      </trkpt>
      <trkpt lat="46.84591" lon="0.46912">
        <ele>47.24</ele>
        <time>2023-10-15T08:22:58Z</time>
      </trkpt>
      <trkpt lat="46.84591" lon="0.46918">
        <ele>46.76</ele>
        <time>2023-10-15T08:22:59Z</time>
      </trkpt>
      <trkpt lat="46.84579" lon="0.46971">
        <ele>47.24</ele>
        <time>2023-10-15T08:23:06Z</time>
      </trkpt>
      <trkpt lat="46.84572" lon="0.47024">
        <ele>47.24</ele>
        <time>2023-10-15T08:23:14Z</time>
      </trkpt>
      <trkpt lat="46.84567" lon="0.47073">
        <ele>48.2</ele>
        <time>2023-10-15T08:23:21Z</time>
      </trkpt>
      <trkpt lat="46.84563" lon="0.47105">
        <ele>48.2</ele>
        <time>2023-10-15T08:23:27Z</time>
      </trkpt>
      <trkpt lat="46.84562" lon="0.4714">
        <ele>48.2</ele>
        <time>2023-10-15T08:23:33Z</time>
      </trkpt>
      <trkpt lat="46.84562" lon="0.47189">
        <ele>48.68</ele>
        <time>2023-10-15T08:23:41Z</time>
      </trkpt>
      <trkpt lat="46.84562" lon="0.47229">
        <ele>47.72</ele>
        <time>2023-10-15T08:23:48Z</time>
      </trkpt>
      <trkpt lat="46.84564" lon="0.47255">
        <ele>47.24</ele>
        <time>2023-10-15T08:23:53Z</time>
      </trkpt>
      <trkpt lat="46.84571" lon="0.47275">
        <ele>47.24</ele>
        <time>2023-10-15T08:23:57Z</time>
      </trkpt>
      <trkpt lat="46.84574" lon="0.47277">
        <ele>47.72</ele>
        <time>2023-10-15T08:23:58Z</time>
      </trkpt>
      <trkpt lat="46.84577" lon="0.47279">
        <ele>47.24</ele>
        <time>2023-10-15T08:23:59Z</time>
      </trkpt>
      <trkpt lat="46.8459" lon="0.47278">
        <ele>47.24</ele>
        <time>2023-10-15T08:24:02Z</time>
      </trkpt>
      <trkpt lat="46.84594" lon="0.47277">
        <ele>47.24</ele>
        <time>2023-10-15T08:24:03Z</time>
      </trkpt>
      <trkpt lat="46.84611" lon="0.47277">
        <ele>46.76</ele>
        <time>2023-10-15T08:24:07Z</time>
      </trkpt>
      <trkpt lat="46.84633" lon="0.47274">
        <ele>43.4</ele>
        <time>2023-10-15T08:24:13Z</time>
      </trkpt>
      <trkpt lat="46.84638" lon="0.47275">
        <ele>43.4</ele>
        <time>2023-10-15T08:24:14Z</time>
      </trkpt>
      <trkpt lat="46.8466" lon="0.4728">
        <ele>42.44</ele>
        <time>2023-10-15T08:24:18Z</time>
      </trkpt>
      <trkpt lat="46.84666" lon="0.47283">
        <ele>42.92</ele>
        <time>2023-10-15T08:24:19Z</time>
      </trkpt>
      <trkpt lat="46.84695" lon="0.47304">
        <ele>40.03</ele>
        <time>2023-10-15T08:24:24Z</time>
      </trkpt>
      <trkpt lat="46.84707" lon="0.47312">
        <ele>38.11</ele>
        <time>2023-10-15T08:24:26Z</time>
      </trkpt>
      <trkpt lat="46.84714" lon="0.47318">
        <ele>36.67</ele>
        <time>2023-10-15T08:24:27Z</time>
      </trkpt>
      <trkpt lat="46.84744" lon="0.47345">
        <ele>34.74</ele>
        <time>2023-10-15T08:24:31Z</time>
      </trkpt>
      <trkpt lat="46.84752" lon="0.47354">
        <ele>32.82</ele>
        <time>2023-10-15T08:24:32Z</time>
      </trkpt>
      <trkpt lat="46.84758" lon="0.47362">
        <ele>32.34</ele>
        <time>2023-10-15T08:24:33Z</time>
      </trkpt>
      <trkpt lat="46.84764" lon="0.47371">
        <ele>32.34</ele>
        <time>2023-10-15T08:24:34Z</time>
      </trkpt>
      <trkpt lat="46.84773" lon="0.47388">
        <ele>29.46</ele>
        <time>2023-10-15T08:24:36Z</time>
      </trkpt>
      <trkpt lat="46.84779" lon="0.47396">
        <ele>29.46</ele>
        <time>2023-10-15T08:24:37Z</time>
      </trkpt>
      <trkpt lat="46.84815" lon="0.47435">
        <ele>24.65</ele>
        <time>2023-10-15T08:24:42Z</time>
      </trkpt>
      <trkpt lat="46.84835" lon="0.47455">
        <ele>22.73</ele>
        <time>2023-10-15T08:24:45Z</time>
      </trkpt>
      <trkpt lat="46.84868" lon="0.47488">
        <ele>19.84</ele>
        <time>2023-10-15T08:24:50Z</time>
      </trkpt>
      <trkpt lat="46.84912" lon="0.47535">
        <ele>17.44</ele>
        <time>2023-10-15T08:24:58Z</time>
      </trkpt>
      <trkpt lat="46.84921" lon="0.47546">
        <ele>16.96</ele>
        <time>2023-10-15T08:25:02Z</time>
      </trkpt>
      <trkpt lat="46.84937" lon="0.47569">
        <ele>16.96</ele>
        <time>2023-10-15T08:25:09Z</time>
      </trkpt>
      <trkpt lat="46.84942" lon="0.47578">
        <ele>16.48</ele>
        <time>2023-10-15T08:25:11Z</time>
      </trkpt>
      <trkpt lat="46.84952" lon="0.47599">
        <ele>18.4</ele>
        <time>2023-10-15T08:25:15Z</time>
      </trkpt>
      <trkpt lat="46.8497" lon="0.47636">
        <ele>16</ele>
        <time>2023-10-15T08:25:23Z</time>
      </trkpt>
      <trkpt lat="46.84974" lon="0.47636">
        <ele>14.56</ele>
        <time>2023-10-15T08:25:24Z</time>
      </trkpt>
      <trkpt lat="46.84977" lon="0.47634">
        <ele>13.12</ele>
        <time>2023-10-15T08:25:25Z</time>
      </trkpt>
      <trkpt lat="46.84985" lon="0.47629">
        <ele>13.6</ele>
        <time>2023-10-15T08:25:27Z</time>
      </trkpt>
      <trkpt lat="46.85024" lon="0.476">
        <ele>11.67</ele>
        <time>2023-10-15T08:25:36Z</time>
      </trkpt>
      <trkpt lat="46.85056" lon="0.47578">
        <ele>8.31</ele>
        <time>2023-10-15T08:25:42Z</time>
      </trkpt>
      <trkpt lat="46.85062" lon="0.47572">
        <ele>8.31</ele>
        <time>2023-10-15T08:25:43Z</time>
      </trkpt>
      <trkpt lat="46.85108" lon="0.47536">
        <ele>5.91</ele>
        <time>2023-10-15T08:25:50Z</time>
      </trkpt>
      <trkpt lat="46.85128" lon="0.47522">
        <ele>4.46</ele>
        <time>2023-10-15T08:25:53Z</time>
      </trkpt>
      <trkpt lat="46.85158" lon="0.47499">
        <ele>3.02</ele>
        <time>2023-10-15T08:25:59Z</time>
      </trkpt>
      <trkpt lat="46.85171" lon="0.47487">
        <ele>4.94</ele>
        <time>2023-10-15T08:26:02Z</time>
      </trkpt>
      <trkpt lat="46.85174" lon="0.47483">
        <ele>3.98</ele>
        <time>2023-10-15T08:26:03Z</time>
      </trkpt>
      <trkpt lat="46.85176" lon="0.47477">
        <ele>5.91</ele>
        <time>2023-10-15T08:26:04Z</time>
      </trkpt>
      <trkpt lat="46.85179" lon="0.47472">
        <ele>4.94</ele>
        <time>2023-10-15T08:26:05Z</time>
      </trkpt>
      <trkpt lat="46.8518" lon="0.47467">
        <ele>5.42</ele>
        <time>2023-10-15T08:26:06Z</time>
      </trkpt>
      <trkpt lat="46.85182" lon="0.47461">
        <ele>5.42</ele>
        <time>2023-10-15T08:26:07Z</time>
      </trkpt>
      <trkpt lat="46.85197" lon="0.47417">
        <ele>8.31</ele>
        <time>2023-10-15T08:26:16Z</time>
      </trkpt>
      <trkpt lat="46.85199" lon="0.47413">
        <ele>8.31</ele>
        <time>2023-10-15T08:26:17Z</time>
      </trkpt>
      <trkpt lat="46.85203" lon="0.47384">
        <ele>8.31</ele>
        <time>2023-10-15T08:26:24Z</time>
      </trkpt>
      <trkpt lat="46.85203" lon="0.47376">
        <ele>9.27</ele>
        <time>2023-10-15T08:26:26Z</time>
      </trkpt>
      <trkpt lat="46.85201" lon="0.47369">
        <ele>10.71</ele>
        <time>2023-10-15T08:26:28Z</time>
      </trkpt>
      <trkpt lat="46.8519" lon="0.47341">
        <ele>11.67</ele>
        <time>2023-10-15T08:26:36Z</time>
      </trkpt>
      <trkpt lat="46.85183" lon="0.47313">
        <ele>12.63</ele>
        <time>2023-10-15T08:26:44Z</time>
      </trkpt>
      <trkpt lat="46.85182" lon="0.47298">
        <ele>13.12</ele>
        <time>2023-10-15T08:26:48Z</time>
      </trkpt>
      <trkpt lat="46.85183" lon="0.47296">
        <ele>13.6</ele>
        <time>2023-10-15T08:26:49Z</time>
      </trkpt>
      <trkpt lat="46.85185" lon="0.47294">
        <ele>13.6</ele>
        <time>2023-10-15T08:26:50Z</time>
      </trkpt>
      <trkpt lat="46.85186" lon="0.47292">
        <ele>13.6</ele>
        <time>2023-10-15T08:26:51Z</time>
      </trkpt>
      <trkpt lat="46.85187" lon="0.4729">
        <ele>14.56</ele>
        <time>2023-10-15T08:26:52Z</time>
      </trkpt>
      <trkpt lat="46.85188" lon="0.47288">
        <ele>15.04</ele>
        <time>2023-10-15T08:26:53Z</time>
      </trkpt>
      <trkpt lat="46.85199" lon="0.47267">
        <ele>14.08</ele>
        <time>2023-10-15T08:27:02Z</time>
      </trkpt>
      <trkpt lat="46.85206" lon="0.47252">
        <ele>16</ele>
        <time>2023-10-15T08:27:08Z</time>
      </trkpt>
      <trkpt lat="46.85213" lon="0.4724">
        <ele>15.52</ele>
        <time>2023-10-15T08:27:13Z</time>
      </trkpt>
      <trkpt lat="46.85223" lon="0.47218">
        <ele>18.4</ele>
        <time>2023-10-15T08:27:22Z</time>
      </trkpt>
      <trkpt lat="46.85236" lon="0.47196">
        <ele>18.88</ele>
        <time>2023-10-15T08:27:32Z</time>
      </trkpt>
      <trkpt lat="46.85249" lon="0.47174">
        <ele>19.84</ele>
        <time>2023-10-15T08:27:43Z</time>
      </trkpt>
      <trkpt lat="46.8526" lon="0.47158">
        <ele>21.77</ele>
        <time>2023-10-15T08:27:51Z</time>
      </trkpt>
      <trkpt lat="46.85273" lon="0.47144">
        <ele>23.21</ele>
        <time>2023-10-15T08:28:00Z</time>
      </trkpt>
      <trkpt lat="46.85282" lon="0.47133">
        <ele>24.65</ele>
        <time>2023-10-15T08:28:07Z</time>
      </trkpt>
      <trkpt lat="46.85283" lon="0.47132">
        <ele>25.61</ele>
        <time>2023-10-15T08:28:08Z</time>
      </trkpt>
      <trkpt lat="46.85284" lon="0.4713">
        <ele>25.61</ele>
        <time>2023-10-15T08:28:09Z</time>
      </trkpt>
      <trkpt lat="46.85286" lon="0.47129">
        <ele>25.13</ele>
        <time>2023-10-15T08:28:10Z</time>
      </trkpt>
      <trkpt lat="46.85287" lon="0.47127">
        <ele>25.13</ele>
        <time>2023-10-15T08:28:11Z</time>
      </trkpt>
      <trkpt lat="46.85289" lon="0.47125">
        <ele>25.61</ele>
        <time>2023-10-15T08:28:12Z</time>
      </trkpt>
      <trkpt lat="46.8529" lon="0.47124">
        <ele>25.61</ele>
        <time>2023-10-15T08:28:13Z</time>
      </trkpt>
      <trkpt lat="46.85292" lon="0.47123">
        <ele>26.09</ele>
        <time>2023-10-15T08:28:14Z</time>
      </trkpt>
      <trkpt lat="46.85301" lon="0.47114">
        <ele>27.53</ele>
        <time>2023-10-15T08:28:20Z</time>
      </trkpt>
      <trkpt lat="46.85314" lon="0.471">
        <ele>28.5</ele>
        <time>2023-10-15T08:28:28Z</time>
      </trkpt>
      <trkpt lat="46.8532" lon="0.47092">
        <ele>28.5</ele>
        <time>2023-10-15T08:28:33Z</time>
      </trkpt>
      <trkpt lat="46.85326" lon="0.47086">
        <ele>29.94</ele>
        <time>2023-10-15T08:28:37Z</time>
      </trkpt>
      <trkpt lat="46.85338" lon="0.47071">
        <ele>31.38</ele>
        <time>2023-10-15T08:28:45Z</time>
      </trkpt>
      <trkpt lat="46.85349" lon="0.4706">
        <ele>32.34</ele>
        <time>2023-10-15T08:28:52Z</time>
      </trkpt>
      <trkpt lat="46.85357" lon="0.47053">
        <ele>32.82</ele>
        <time>2023-10-15T08:28:58Z</time>
      </trkpt>
      <trkpt lat="46.85369" lon="0.47041">
        <ele>34.26</ele>
        <time>2023-10-15T08:29:05Z</time>
      </trkpt>
      <trkpt lat="46.85383" lon="0.47025">
        <ele>35.71</ele>
        <time>2023-10-15T08:29:13Z</time>
      </trkpt>
      <trkpt lat="46.85386" lon="0.47022">
        <ele>35.23</ele>
        <time>2023-10-15T08:29:15Z</time>
      </trkpt>
      <trkpt lat="46.85393" lon="0.47014">
        <ele>37.15</ele>
        <time>2023-10-15T08:29:20Z</time>
      </trkpt>
      <trkpt lat="46.85403" lon="0.47004">
        <ele>36.19</ele>
        <time>2023-10-15T08:29:26Z</time>
      </trkpt>
      <trkpt lat="46.85407" lon="0.46998">
        <ele>38.11</ele>
        <time>2023-10-15T08:29:30Z</time>
      </trkpt>
      <trkpt lat="46.85409" lon="0.46996">
        <ele>37.63</ele>
        <time>2023-10-15T08:29:31Z</time>
      </trkpt>
      <trkpt lat="46.85422" lon="0.46973">
        <ele>38.11</ele>
        <time>2023-10-15T08:29:39Z</time>
      </trkpt>
      <trkpt lat="46.85434" lon="0.46949">
        <ele>39.07</ele>
        <time>2023-10-15T08:29:46Z</time>
      </trkpt>
      <trkpt lat="46.8544" lon="0.46924">
        <ele>39.07</ele>
        <time>2023-10-15T08:29:52Z</time>
      </trkpt>
      <trkpt lat="46.8545" lon="0.46894">
        <ele>39.07</ele>
        <time>2023-10-15T08:29:59Z</time>
      </trkpt>
      <trkpt lat="46.8546" lon="0.46868">
        <ele>40.03</ele>
        <time>2023-10-15T08:30:05Z</time>
      </trkpt>
      <trkpt lat="46.85472" lon="0.46839">
        <ele>40.03</ele>
        <time>2023-10-15T08:30:13Z</time>
      </trkpt>
      <trkpt lat="46.85484" lon="0.46808">
        <ele>42.44</ele>
        <time>2023-10-15T08:30:21Z</time>
      </trkpt>
      <trkpt lat="46.85492" lon="0.46784">
        <ele>42.44</ele>
        <time>2023-10-15T08:30:28Z</time>
      </trkpt>
      <trkpt lat="46.85498" lon="0.46755">
        <ele>44.84</ele>
        <time>2023-10-15T08:30:35Z</time>
      </trkpt>
      <trkpt lat="46.855" lon="0.46729">
        <ele>45.8</ele>
        <time>2023-10-15T08:30:41Z</time>
      </trkpt>
      <trkpt lat="46.855" lon="0.46709">
        <ele>46.76</ele>
        <time>2023-10-15T08:30:46Z</time>
      </trkpt>
      <trkpt lat="46.85498" lon="0.46683">
        <ele>47.24</ele>
        <time>2023-10-15T08:30:52Z</time>
      </trkpt>
      <trkpt lat="46.85497" lon="0.46654">
        <ele>47.72</ele>
        <time>2023-10-15T08:30:59Z</time>
      </trkpt>
      <trkpt lat="46.85495" lon="0.46621">
        <ele>49.65</ele>
        <time>2023-10-15T08:31:07Z</time>
      </trkpt>
      <trkpt lat="46.85495" lon="0.46598">
        <ele>49.16</ele>
        <time>2023-10-15T08:31:13Z</time>
      </trkpt>
      <trkpt lat="46.85499" lon="0.46567">
        <ele>50.61</ele>
        <time>2023-10-15T08:31:20Z</time>
      </trkpt>
      <trkpt lat="46.85505" lon="0.46537">
        <ele>50.61</ele>
        <time>2023-10-15T08:31:27Z</time>
      </trkpt>
      <trkpt lat="46.85507" lon="0.46528">
        <ele>51.57</ele>
        <time>2023-10-15T08:31:29Z</time>
      </trkpt>
      <trkpt lat="46.85516" lon="0.46499">
        <ele>50.61</ele>
        <time>2023-10-15T08:31:36Z</time>
      </trkpt>
      <trkpt lat="46.85525" lon="0.46455">
        <ele>50.13</ele>
        <time>2023-10-15T08:31:44Z</time>
      </trkpt>
      <trkpt lat="46.85526" lon="0.46448">
        <ele>49.65</ele>
        <time>2023-10-15T08:31:45Z</time>
      </trkpt>
      <trkpt lat="46.85533" lon="0.46417">
        <ele>49.16</ele>
        <time>2023-10-15T08:31:50Z</time>
      </trkpt>
      <trkpt lat="46.85536" lon="0.46413">
        <ele>48.68</ele>
        <time>2023-10-15T08:31:51Z</time>
      </trkpt>
      <trkpt lat="46.8554" lon="0.46409">
        <ele>48.68</ele>
        <time>2023-10-15T08:31:52Z</time>
      </trkpt>
      <trkpt lat="46.85543" lon="0.46407">
        <ele>48.68</ele>
        <time>2023-10-15T08:31:53Z</time>
      </trkpt>
      <trkpt lat="46.85547" lon="0.46406">
        <ele>47.72</ele>
        <time>2023-10-15T08:31:54Z</time>
      </trkpt>
      <trkpt lat="46.85551" lon="0.46407">
        <ele>48.2</ele>
        <time>2023-10-15T08:31:55Z</time>
      </trkpt>
      <trkpt lat="46.85584" lon="0.46406">
        <ele>48.2</ele>
        <time>2023-10-15T08:32:03Z</time>
      </trkpt>
      <trkpt lat="46.85597" lon="0.46401">
        <ele>49.16</ele>
        <time>2023-10-15T08:32:06Z</time>
      </trkpt>
      <trkpt lat="46.85601" lon="0.464">
        <ele>48.2</ele>
        <time>2023-10-15T08:32:07Z</time>
      </trkpt>
      <trkpt lat="46.85626" lon="0.46389">
        <ele>49.16</ele>
        <time>2023-10-15T08:32:14Z</time>
      </trkpt>
      <trkpt lat="46.85651" lon="0.46374">
        <ele>49.16</ele>
        <time>2023-10-15T08:32:22Z</time>
      </trkpt>
      <trkpt lat="46.85653" lon="0.4637">
        <ele>49.16</ele>
        <time>2023-10-15T08:32:23Z</time>
      </trkpt>
      <trkpt lat="46.85655" lon="0.46367">
        <ele>50.13</ele>
        <time>2023-10-15T08:32:24Z</time>
      </trkpt>
      <trkpt lat="46.85659" lon="0.46355">
        <ele>49.16</ele>
        <time>2023-10-15T08:32:27Z</time>
      </trkpt>
      <trkpt lat="46.85664" lon="0.46335">
        <ele>49.16</ele>
        <time>2023-10-15T08:32:33Z</time>
      </trkpt>
      <trkpt lat="46.85665" lon="0.46311">
        <ele>49.65</ele>
        <time>2023-10-15T08:32:39Z</time>
      </trkpt>
      <trkpt lat="46.85666" lon="0.46308">
        <ele>49.65</ele>
        <time>2023-10-15T08:32:40Z</time>
      </trkpt>
      <trkpt lat="46.85667" lon="0.46305">
        <ele>49.65</ele>
        <time>2023-10-15T08:32:41Z</time>
      </trkpt>
      <trkpt lat="46.85669" lon="0.46302">
        <ele>50.13</ele>
        <time>2023-10-15T08:32:42Z</time>
      </trkpt>
      <trkpt lat="46.85671" lon="0.46301">
        <ele>50.13</ele>
        <time>2023-10-15T08:32:43Z</time>
      </trkpt>
      <trkpt lat="46.85672" lon="0.46299">
        <ele>50.13</ele>
        <time>2023-10-15T08:32:44Z</time>
      </trkpt>
      <trkpt lat="46.85673" lon="0.46295">
        <ele>50.13</ele>
        <time>2023-10-15T08:32:45Z</time>
      </trkpt>
      <trkpt lat="46.85674" lon="0.46292">
        <ele>50.61</ele>
        <time>2023-10-15T08:32:46Z</time>
      </trkpt>
      <trkpt lat="46.85674" lon="0.46288">
        <ele>50.13</ele>
        <time>2023-10-15T08:32:47Z</time>
      </trkpt>
      <trkpt lat="46.85673" lon="0.46286">
        <ele>50.13</ele>
        <time>2023-10-15T08:32:48Z</time>
      </trkpt>
      <trkpt lat="46.85673" lon="0.46284">
        <ele>50.13</ele>
        <time>2023-10-15T08:32:49Z</time>
      </trkpt>
      <trkpt lat="46.85673" lon="0.46281">
        <ele>51.09</ele>
        <time>2023-10-15T08:32:50Z</time>
      </trkpt>
      <trkpt lat="46.85674" lon="0.46279">
        <ele>50.61</ele>
        <time>2023-10-15T08:32:51Z</time>
      </trkpt>
      <trkpt lat="46.85676" lon="0.46277">
        <ele>51.09</ele>
        <time>2023-10-15T08:32:52Z</time>
      </trkpt>
      <trkpt lat="46.85678" lon="0.46274">
        <ele>51.57</ele>
        <time>2023-10-15T08:32:53Z</time>
      </trkpt>
      <trkpt lat="46.85679" lon="0.4627">
        <ele>51.09</ele>
        <time>2023-10-15T08:32:54Z</time>
      </trkpt>
      <trkpt lat="46.85683" lon="0.46232">
        <ele>52.53</ele>
        <time>2023-10-15T08:33:03Z</time>
      </trkpt>
      <trkpt lat="46.85686" lon="0.46197">
        <ele>53.49</ele>
        <time>2023-10-15T08:33:11Z</time>
      </trkpt>
      <trkpt lat="46.8569" lon="0.46168">
        <ele>54.45</ele>
        <time>2023-10-15T08:33:18Z</time>
      </trkpt>
      <trkpt lat="46.85693" lon="0.4614">
        <ele>55.41</ele>
        <time>2023-10-15T08:33:25Z</time>
      </trkpt>
      <trkpt lat="46.85696" lon="0.46116">
        <ele>55.89</ele>
        <time>2023-10-15T08:33:31Z</time>
      </trkpt>
      <trkpt lat="46.85698" lon="0.46083">
        <ele>56.86</ele>
        <time>2023-10-15T08:33:39Z</time>
      </trkpt>
      <trkpt lat="46.85701" lon="0.46053">
        <ele>57.82</ele>
        <time>2023-10-15T08:33:46Z</time>
      </trkpt>
      <trkpt lat="46.85705" lon="0.46027">
        <ele>57.82</ele>
        <time>2023-10-15T08:33:52Z</time>
      </trkpt>
      <trkpt lat="46.85709" lon="0.45997">
        <ele>58.78</ele>
        <time>2023-10-15T08:33:59Z</time>
      </trkpt>
      <trkpt lat="46.85717" lon="0.45953">
        <ele>57.82</ele>
        <time>2023-10-15T08:34:08Z</time>
      </trkpt>
      <trkpt lat="46.85722" lon="0.45917">
        <ele>58.78</ele>
        <time>2023-10-15T08:34:15Z</time>
      </trkpt>
      <trkpt lat="46.85729" lon="0.45875">
        <ele>58.3</ele>
        <time>2023-10-15T08:34:23Z</time>
      </trkpt>
      <trkpt lat="46.85732" lon="0.45852">
        <ele>58.3</ele>
        <time>2023-10-15T08:34:27Z</time>
      </trkpt>
      <trkpt lat="46.8573" lon="0.45847">
        <ele>58.3</ele>
        <time>2023-10-15T08:34:28Z</time>
      </trkpt>
      <trkpt lat="46.85727" lon="0.45842">
        <ele>58.3</ele>
        <time>2023-10-15T08:34:29Z</time>
      </trkpt>
      <trkpt lat="46.85724" lon="0.45838">
        <ele>58.3</ele>
        <time>2023-10-15T08:34:30Z</time>
      </trkpt>
      <trkpt lat="46.85721" lon="0.45833">
        <ele>59.26</ele>
        <time>2023-10-15T08:34:31Z</time>
      </trkpt>
      <trkpt lat="46.85717" lon="0.45829">
        <ele>58.78</ele>
        <time>2023-10-15T08:34:32Z</time>
      </trkpt>
      <trkpt lat="46.85701" lon="0.45806">
        <ele>57.82</ele>
        <time>2023-10-15T08:34:37Z</time>
      </trkpt>
      <trkpt lat="46.85698" lon="0.45802">
        <ele>57.82</ele>
        <time>2023-10-15T08:34:38Z</time>
      </trkpt>
      <trkpt lat="46.85666" lon="0.45759">
        <ele>58.78</ele>
        <time>2023-10-15T08:34:47Z</time>
      </trkpt>
      <trkpt lat="46.85629" lon="0.45711">
        <ele>58.3</ele>
        <time>2023-10-15T08:34:57Z</time>
      </trkpt>
      <trkpt lat="46.85593" lon="0.45667">
        <ele>59.26</ele>
        <time>2023-10-15T08:35:06Z</time>
      </trkpt>
      <trkpt lat="46.85564" lon="0.4563">
        <ele>60.22</ele>
        <time>2023-10-15T08:35:14Z</time>
      </trkpt>
      <trkpt lat="46.85546" lon="0.45607">
        <ele>60.22</ele>
        <time>2023-10-15T08:35:19Z</time>
      </trkpt>
      <trkpt lat="46.85542" lon="0.45602">
        <ele>60.22</ele>
        <time>2023-10-15T08:35:20Z</time>
      </trkpt>
      <trkpt lat="46.85512" lon="0.45562">
        <ele>60.7</ele>
        <time>2023-10-15T08:35:28Z</time>
      </trkpt>
      <trkpt lat="46.85489" lon="0.45535">
        <ele>59.74</ele>
        <time>2023-10-15T08:35:34Z</time>
      </trkpt>
      <trkpt lat="46.85484" lon="0.45532">
        <ele>60.7</ele>
        <time>2023-10-15T08:35:35Z</time>
      </trkpt>
      <trkpt lat="46.8548" lon="0.45529">
        <ele>60.7</ele>
        <time>2023-10-15T08:35:36Z</time>
      </trkpt>
      <trkpt lat="46.85475" lon="0.45527">
        <ele>61.18</ele>
        <time>2023-10-15T08:35:37Z</time>
      </trkpt>
      <trkpt lat="46.85471" lon="0.45527">
        <ele>60.7</ele>
        <time>2023-10-15T08:35:38Z</time>
      </trkpt>
      <trkpt lat="46.85466" lon="0.45527">
        <ele>60.22</ele>
        <time>2023-10-15T08:35:39Z</time>
      </trkpt>
      <trkpt lat="46.85435" lon="0.45526">
        <ele>61.18</ele>
        <time>2023-10-15T08:35:45Z</time>
      </trkpt>
      <trkpt lat="46.85429" lon="0.45527">
        <ele>60.7</ele>
        <time>2023-10-15T08:35:46Z</time>
      </trkpt>
      <trkpt lat="46.85419" lon="0.45527">
        <ele>60.7</ele>
        <time>2023-10-15T08:35:48Z</time>
      </trkpt>
      <trkpt lat="46.85414" lon="0.45526">
        <ele>61.66</ele>
        <time>2023-10-15T08:35:49Z</time>
      </trkpt>
      <trkpt lat="46.85377" lon="0.45521">
        <ele>61.66</ele>
        <time>2023-10-15T08:35:57Z</time>
      </trkpt>
      <trkpt lat="46.85357" lon="0.45519">
        <ele>61.66</ele>
        <time>2023-10-15T08:36:01Z</time>
      </trkpt>
      <trkpt lat="46.85353" lon="0.45518">
        <ele>61.66</ele>
        <time>2023-10-15T08:36:02Z</time>
      </trkpt>
      <trkpt lat="46.85348" lon="0.45518">
        <ele>62.14</ele>
        <time>2023-10-15T08:36:03Z</time>
      </trkpt>
      <trkpt lat="46.85338" lon="0.45517">
        <ele>61.66</ele>
        <time>2023-10-15T08:36:05Z</time>
      </trkpt>
      <trkpt lat="46.85299" lon="0.45508">
        <ele>61.66</ele>
        <time>2023-10-15T08:36:13Z</time>
      </trkpt>
      <trkpt lat="46.85258" lon="0.45498">
        <ele>62.14</ele>
        <time>2023-10-15T08:36:21Z</time>
      </trkpt>
      <trkpt lat="46.8521" lon="0.45484">
        <ele>63.1</ele>
        <time>2023-10-15T08:36:30Z</time>
      </trkpt>
      <trkpt lat="46.85184" lon="0.45479">
        <ele>62.14</ele>
        <time>2023-10-15T08:36:35Z</time>
      </trkpt>
      <trkpt lat="46.85134" lon="0.45479">
        <ele>59.74</ele>
        <time>2023-10-15T08:36:44Z</time>
      </trkpt>
      <trkpt lat="46.85089" lon="0.45482">
        <ele>59.74</ele>
        <time>2023-10-15T08:36:52Z</time>
      </trkpt>
      <trkpt lat="46.85035" lon="0.45485">
        <ele>59.26</ele>
        <time>2023-10-15T08:37:01Z</time>
      </trkpt>
      <trkpt lat="46.84986" lon="0.45488">
        <ele>58.78</ele>
        <time>2023-10-15T08:37:09Z</time>
      </trkpt>
      <trkpt lat="46.84938" lon="0.45495">
        <ele>57.34</ele>
        <time>2023-10-15T08:37:17Z</time>
      </trkpt>
      <trkpt lat="46.84927" lon="0.455">
        <ele>57.34</ele>
        <time>2023-10-15T08:37:19Z</time>
      </trkpt>
      <trkpt lat="46.84916" lon="0.45507">
        <ele>57.82</ele>
        <time>2023-10-15T08:37:21Z</time>
      </trkpt>
      <trkpt lat="46.84911" lon="0.45512">
        <ele>56.37</ele>
        <time>2023-10-15T08:37:22Z</time>
      </trkpt>
      <trkpt lat="46.84906" lon="0.45517">
        <ele>56.37</ele>
        <time>2023-10-15T08:37:23Z</time>
      </trkpt>
      <trkpt lat="46.84873" lon="0.45558">
        <ele>54.93</ele>
        <time>2023-10-15T08:37:30Z</time>
      </trkpt>
      <trkpt lat="46.84844" lon="0.45599">
        <ele>51.57</ele>
        <time>2023-10-15T08:37:36Z</time>
      </trkpt>
      <trkpt lat="46.8484" lon="0.45604">
        <ele>53.01</ele>
        <time>2023-10-15T08:37:37Z</time>
      </trkpt>
      <trkpt lat="46.84836" lon="0.45607">
        <ele>52.53</ele>
        <time>2023-10-15T08:37:38Z</time>
      </trkpt>
      <trkpt lat="46.84832" lon="0.45608">
        <ele>51.57</ele>
        <time>2023-10-15T08:37:39Z</time>
      </trkpt>
      <trkpt lat="46.84829" lon="0.45605">
        <ele>52.05</ele>
        <time>2023-10-15T08:37:40Z</time>
      </trkpt>
      <trkpt lat="46.84828" lon="0.45602">
        <ele>52.53</ele>
        <time>2023-10-15T08:37:41Z</time>
      </trkpt>
      <trkpt lat="46.84827" lon="0.456">
        <ele>52.05</ele>
        <time>2023-10-15T08:37:42Z</time>
      </trkpt>
      <trkpt lat="46.84825" lon="0.45598">
        <ele>52.05</ele>
        <time>2023-10-15T08:37:44Z</time>
      </trkpt>
      <trkpt lat="46.84824" lon="0.45598">
        <ele>52.05</ele>
        <time>2023-10-15T08:37:45Z</time>
      </trkpt>
      <trkpt lat="46.84816" lon="0.45595">
        <ele>51.09</ele>
        <time>2023-10-15T08:37:49Z</time>
      </trkpt>
      <trkpt lat="46.84814" lon="0.45592">
        <ele>52.53</ele>
        <time>2023-10-15T08:37:50Z</time>
      </trkpt>
      <trkpt lat="46.84812" lon="0.45588">
        <ele>51.57</ele>
        <time>2023-10-15T08:37:51Z</time>
      </trkpt>
      <trkpt lat="46.84799" lon="0.45552">
        <ele>53.01</ele>
        <time>2023-10-15T08:37:59Z</time>
      </trkpt>
      <trkpt lat="46.84788" lon="0.45513">
        <ele>53.97</ele>
        <time>2023-10-15T08:38:07Z</time>
      </trkpt>
      <trkpt lat="46.84781" lon="0.45491">
        <ele>54.45</ele>
        <time>2023-10-15T08:38:13Z</time>
      </trkpt>
      <trkpt lat="46.84777" lon="0.45451">
        <ele>54.93</ele>
        <time>2023-10-15T08:38:21Z</time>
      </trkpt>
      <trkpt lat="46.84774" lon="0.45405">
        <ele>55.41</ele>
        <time>2023-10-15T08:38:29Z</time>
      </trkpt>
      <trkpt lat="46.84768" lon="0.45362">
        <ele>55.41</ele>
        <time>2023-10-15T08:38:36Z</time>
      </trkpt>
      <trkpt lat="46.84756" lon="0.45323">
        <ele>55.41</ele>
        <time>2023-10-15T08:38:43Z</time>
      </trkpt>
      <trkpt lat="46.84743" lon="0.45283">
        <ele>55.89</ele>
        <time>2023-10-15T08:38:50Z</time>
      </trkpt>
      <trkpt lat="46.84742" lon="0.45277">
        <ele>56.37</ele>
        <time>2023-10-15T08:38:51Z</time>
      </trkpt>
      <trkpt lat="46.8474" lon="0.45271">
        <ele>56.86</ele>
        <time>2023-10-15T08:38:52Z</time>
      </trkpt>
      <trkpt lat="46.84736" lon="0.45253">
        <ele>57.34</ele>
        <time>2023-10-15T08:38:55Z</time>
      </trkpt>
      <trkpt lat="46.84733" lon="0.4524">
        <ele>56.86</ele>
        <time>2023-10-15T08:38:57Z</time>
      </trkpt>
      <trkpt lat="46.84731" lon="0.45234">
        <ele>56.37</ele>
        <time>2023-10-15T08:38:58Z</time>
      </trkpt>
      <trkpt lat="46.84729" lon="0.45228">
        <ele>56.37</ele>
        <time>2023-10-15T08:38:59Z</time>
      </trkpt>
      <trkpt lat="46.84727" lon="0.45224">
        <ele>56.37</ele>
        <time>2023-10-15T08:39:00Z</time>
      </trkpt>
      <trkpt lat="46.84726" lon="0.45219">
        <ele>55.89</ele>
        <time>2023-10-15T08:39:01Z</time>
      </trkpt>
      <trkpt lat="46.84724" lon="0.45214">
        <ele>56.37</ele>
        <time>2023-10-15T08:39:02Z</time>
      </trkpt>
      <trkpt lat="46.84723" lon="0.45209">
        <ele>56.37</ele>
        <time>2023-10-15T08:39:03Z</time>
      </trkpt>
      <trkpt lat="46.84718" lon="0.45192">
        <ele>57.34</ele>
        <time>2023-10-15T08:39:06Z</time>
      </trkpt>
      <trkpt lat="46.84716" lon="0.45186">
        <ele>56.37</ele>
        <time>2023-10-15T08:39:07Z</time>
      </trkpt>
      <trkpt lat="46.84714" lon="0.4518">
        <ele>56.37</ele>
        <time>2023-10-15T08:39:08Z</time>
      </trkpt>
      <trkpt lat="46.84712" lon="0.45173">
        <ele>57.34</ele>
        <time>2023-10-15T08:39:09Z</time>
      </trkpt>
      <trkpt lat="46.84711" lon="0.45167">
        <ele>56.37</ele>
        <time>2023-10-15T08:39:10Z</time>
      </trkpt>
      <trkpt lat="46.84709" lon="0.45161">
        <ele>55.89</ele>
        <time>2023-10-15T08:39:11Z</time>
      </trkpt>
      <trkpt lat="46.84708" lon="0.45155">
        <ele>56.37</ele>
        <time>2023-10-15T08:39:12Z</time>
      </trkpt>
      <trkpt lat="46.84698" lon="0.4512">
        <ele>55.41</ele>
        <time>2023-10-15T08:39:18Z</time>
      </trkpt>
      <trkpt lat="46.84696" lon="0.45114">
        <ele>56.86</ele>
        <time>2023-10-15T08:39:19Z</time>
      </trkpt>
      <trkpt lat="46.84694" lon="0.45108">
        <ele>56.86</ele>
        <time>2023-10-15T08:39:20Z</time>
      </trkpt>
      <trkpt lat="46.84681" lon="0.45064">
        <ele>56.86</ele>
        <time>2023-10-15T08:39:27Z</time>
      </trkpt>
      <trkpt lat="46.84673" lon="0.45032">
        <ele>56.86</ele>
        <time>2023-10-15T08:39:32Z</time>
      </trkpt>
      <trkpt lat="46.84658" lon="0.44988">
        <ele>56.86</ele>
        <time>2023-10-15T08:39:39Z</time>
      </trkpt>
      <trkpt lat="46.84643" lon="0.44935">
        <ele>57.82</ele>
        <time>2023-10-15T08:39:47Z</time>
      </trkpt>
      <trkpt lat="46.84642" lon="0.44928">
        <ele>57.82</ele>
        <time>2023-10-15T08:39:48Z</time>
      </trkpt>
      <trkpt lat="46.8464" lon="0.44921">
        <ele>57.34</ele>
        <time>2023-10-15T08:39:49Z</time>
      </trkpt>
      <trkpt lat="46.84638" lon="0.44913">
        <ele>57.34</ele>
        <time>2023-10-15T08:39:50Z</time>
      </trkpt>
      <trkpt lat="46.84637" lon="0.44906">
        <ele>56.86</ele>
        <time>2023-10-15T08:39:51Z</time>
      </trkpt>
      <trkpt lat="46.84635" lon="0.44899">
        <ele>57.34</ele>
        <time>2023-10-15T08:39:52Z</time>
      </trkpt>
      <trkpt lat="46.84634" lon="0.44892">
        <ele>57.82</ele>
        <time>2023-10-15T08:39:53Z</time>
      </trkpt>
      <trkpt lat="46.84634" lon="0.44885">
        <ele>57.82</ele>
        <time>2023-10-15T08:39:54Z</time>
      </trkpt>
      <trkpt lat="46.84634" lon="0.44879">
        <ele>56.86</ele>
        <time>2023-10-15T08:39:55Z</time>
      </trkpt>
      <trkpt lat="46.84634" lon="0.44872">
        <ele>56.86</ele>
        <time>2023-10-15T08:39:56Z</time>
      </trkpt>
      <trkpt lat="46.84634" lon="0.44864">
        <ele>57.82</ele>
        <time>2023-10-15T08:39:57Z</time>
      </trkpt>
      <trkpt lat="46.84632" lon="0.44843">
        <ele>57.82</ele>
        <time>2023-10-15T08:40:00Z</time>
      </trkpt>
      <trkpt lat="46.8463" lon="0.44835">
        <ele>58.3</ele>
        <time>2023-10-15T08:40:01Z</time>
      </trkpt>
      <trkpt lat="46.84628" lon="0.44828">
        <ele>57.82</ele>
        <time>2023-10-15T08:40:02Z</time>
      </trkpt>
      <trkpt lat="46.84614" lon="0.44779">
        <ele>57.34</ele>
        <time>2023-10-15T08:40:09Z</time>
      </trkpt>
      <trkpt lat="46.84609" lon="0.44765">
        <ele>57.82</ele>
        <time>2023-10-15T08:40:11Z</time>
      </trkpt>
      <trkpt lat="46.84608" lon="0.44758">
        <ele>56.86</ele>
        <time>2023-10-15T08:40:12Z</time>
      </trkpt>
      <trkpt lat="46.84606" lon="0.4475">
        <ele>56.86</ele>
        <time>2023-10-15T08:40:13Z</time>
      </trkpt>
      <trkpt lat="46.84605" lon="0.44743">
        <ele>57.82</ele>
        <time>2023-10-15T08:40:14Z</time>
      </trkpt>
      <trkpt lat="46.84604" lon="0.44736">
        <ele>57.34</ele>
        <time>2023-10-15T08:40:15Z</time>
      </trkpt>
      <trkpt lat="46.84603" lon="0.44729">
        <ele>57.34</ele>
        <time>2023-10-15T08:40:16Z</time>
      </trkpt>
      <trkpt lat="46.84603" lon="0.44723">
        <ele>57.82</ele>
        <time>2023-10-15T08:40:17Z</time>
      </trkpt>
      <trkpt lat="46.84603" lon="0.44717">
        <ele>58.3</ele>
        <time>2023-10-15T08:40:18Z</time>
      </trkpt>
      <trkpt lat="46.84604" lon="0.44685">
        <ele>57.34</ele>
        <time>2023-10-15T08:40:24Z</time>
      </trkpt>
      <trkpt lat="46.84606" lon="0.4468">
        <ele>57.82</ele>
        <time>2023-10-15T08:40:25Z</time>
      </trkpt>
      <trkpt lat="46.84608" lon="0.44677">
        <ele>58.78</ele>
        <time>2023-10-15T08:40:26Z</time>
      </trkpt>
      <trkpt lat="46.84611" lon="0.44674">
        <ele>59.26</ele>
        <time>2023-10-15T08:40:27Z</time>
      </trkpt>
      <trkpt lat="46.84615" lon="0.44671">
        <ele>58.3</ele>
        <time>2023-10-15T08:40:28Z</time>
      </trkpt>
      <trkpt lat="46.84618" lon="0.44668">
        <ele>58.3</ele>
        <time>2023-10-15T08:40:29Z</time>
      </trkpt>
      <trkpt lat="46.84622" lon="0.44666">
        <ele>58.78</ele>
        <time>2023-10-15T08:40:30Z</time>
      </trkpt>
      <trkpt lat="46.84651" lon="0.44649">
        <ele>59.26</ele>
        <time>2023-10-15T08:40:37Z</time>
      </trkpt>
      <trkpt lat="46.8468" lon="0.44637">
        <ele>60.22</ele>
        <time>2023-10-15T08:40:44Z</time>
      </trkpt>
      <trkpt lat="46.84704" lon="0.44624">
        <ele>60.22</ele>
        <time>2023-10-15T08:40:50Z</time>
      </trkpt>
      <trkpt lat="46.84724" lon="0.44612">
        <ele>60.7</ele>
        <time>2023-10-15T08:40:55Z</time>
      </trkpt>
      <trkpt lat="46.84749" lon="0.44596">
        <ele>61.66</ele>
        <time>2023-10-15T08:41:02Z</time>
      </trkpt>
      <trkpt lat="46.84753" lon="0.44593">
        <ele>61.66</ele>
        <time>2023-10-15T08:41:03Z</time>
      </trkpt>
      <trkpt lat="46.84765" lon="0.44584">
        <ele>61.18</ele>
        <time>2023-10-15T08:41:06Z</time>
      </trkpt>
      <trkpt lat="46.84789" lon="0.44563">
        <ele>61.18</ele>
        <time>2023-10-15T08:41:12Z</time>
      </trkpt>
      <trkpt lat="46.84798" lon="0.44558">
        <ele>61.66</ele>
        <time>2023-10-15T08:41:14Z</time>
      </trkpt>
      <trkpt lat="46.84802" lon="0.44555">
        <ele>62.14</ele>
        <time>2023-10-15T08:41:15Z</time>
      </trkpt>
      <trkpt lat="46.84806" lon="0.44553">
        <ele>61.18</ele>
        <time>2023-10-15T08:41:16Z</time>
      </trkpt>
      <trkpt lat="46.84809" lon="0.44551">
        <ele>61.18</ele>
        <time>2023-10-15T08:41:17Z</time>
      </trkpt>
      <trkpt lat="46.84813" lon="0.44549">
        <ele>61.66</ele>
        <time>2023-10-15T08:41:18Z</time>
      </trkpt>
      <trkpt lat="46.84817" lon="0.44547">
        <ele>61.18</ele>
        <time>2023-10-15T08:41:19Z</time>
      </trkpt>
      <trkpt lat="46.84821" lon="0.44545">
        <ele>61.66</ele>
        <time>2023-10-15T08:41:20Z</time>
      </trkpt>
      <trkpt lat="46.84843" lon="0.44537">
        <ele>62.14</ele>
        <time>2023-10-15T08:41:25Z</time>
      </trkpt>
      <trkpt lat="46.8486" lon="0.44529">
        <ele>62.62</ele>
        <time>2023-10-15T08:41:29Z</time>
      </trkpt>
      <trkpt lat="46.84864" lon="0.44527">
        <ele>62.14</ele>
        <time>2023-10-15T08:41:30Z</time>
      </trkpt>
      <trkpt lat="46.84892" lon="0.44511">
        <ele>62.14</ele>
        <time>2023-10-15T08:41:36Z</time>
      </trkpt>
      <trkpt lat="46.84896" lon="0.44508">
        <ele>61.66</ele>
        <time>2023-10-15T08:41:37Z</time>
      </trkpt>
      <trkpt lat="46.84916" lon="0.44495">
        <ele>62.14</ele>
        <time>2023-10-15T08:41:41Z</time>
      </trkpt>
      <trkpt lat="46.84925" lon="0.44492">
        <ele>62.14</ele>
        <time>2023-10-15T08:41:43Z</time>
      </trkpt>
      <trkpt lat="46.84964" lon="0.44479">
        <ele>62.14</ele>
        <time>2023-10-15T08:41:50Z</time>
      </trkpt>
      <trkpt lat="46.8497" lon="0.44477">
        <ele>62.14</ele>
        <time>2023-10-15T08:41:51Z</time>
      </trkpt>
      <trkpt lat="46.84996" lon="0.44465">
        <ele>62.14</ele>
        <time>2023-10-15T08:41:56Z</time>
      </trkpt>
      <trkpt lat="46.85033" lon="0.44447">
        <ele>62.14</ele>
        <time>2023-10-15T08:42:03Z</time>
      </trkpt>
      <trkpt lat="46.85078" lon="0.44431">
        <ele>60.22</ele>
        <time>2023-10-15T08:42:11Z</time>
      </trkpt>
      <trkpt lat="46.85082" lon="0.4443">
        <ele>61.18</ele>
        <time>2023-10-15T08:42:12Z</time>
      </trkpt>
      <trkpt lat="46.85088" lon="0.44429">
        <ele>60.22</ele>
        <time>2023-10-15T08:42:13Z</time>
      </trkpt>
      <trkpt lat="46.85131" lon="0.44411">
        <ele>59.74</ele>
        <time>2023-10-15T08:42:21Z</time>
      </trkpt>
      <trkpt lat="46.85168" lon="0.4439">
        <ele>59.26</ele>
        <time>2023-10-15T08:42:28Z</time>
      </trkpt>
      <trkpt lat="46.85196" lon="0.44381">
        <ele>59.26</ele>
        <time>2023-10-15T08:42:34Z</time>
      </trkpt>
      <trkpt lat="46.85215" lon="0.44375">
        <ele>59.74</ele>
        <time>2023-10-15T08:42:39Z</time>
      </trkpt>
      <trkpt lat="46.85217" lon="0.4437">
        <ele>59.74</ele>
        <time>2023-10-15T08:42:40Z</time>
      </trkpt>
      <trkpt lat="46.85225" lon="0.44347">
        <ele>59.26</ele>
        <time>2023-10-15T08:42:44Z</time>
      </trkpt>
      <trkpt lat="46.85228" lon="0.44341">
        <ele>59.74</ele>
        <time>2023-10-15T08:42:45Z</time>
      </trkpt>
      <trkpt lat="46.8525" lon="0.44295">
        <ele>58.78</ele>
        <time>2023-10-15T08:42:53Z</time>
      </trkpt>
      <trkpt lat="46.85262" lon="0.4427">
        <ele>59.26</ele>
        <time>2023-10-15T08:42:58Z</time>
      </trkpt>
      <trkpt lat="46.85282" lon="0.44233">
        <ele>58.78</ele>
        <time>2023-10-15T08:43:05Z</time>
      </trkpt>
      <trkpt lat="46.85292" lon="0.44216">
        <ele>59.74</ele>
        <time>2023-10-15T08:43:08Z</time>
      </trkpt>
      <trkpt lat="46.85295" lon="0.4421">
        <ele>58.78</ele>
        <time>2023-10-15T08:43:09Z</time>
      </trkpt>
      <trkpt lat="46.85304" lon="0.44191">
        <ele>59.26</ele>
        <time>2023-10-15T08:43:12Z</time>
      </trkpt>
      <trkpt lat="46.85308" lon="0.44184">
        <ele>58.78</ele>
        <time>2023-10-15T08:43:13Z</time>
      </trkpt>
      <trkpt lat="46.85311" lon="0.44176">
        <ele>57.82</ele>
        <time>2023-10-15T08:43:14Z</time>
      </trkpt>
      <trkpt lat="46.85315" lon="0.44161">
        <ele>59.74</ele>
        <time>2023-10-15T08:43:16Z</time>
      </trkpt>
      <trkpt lat="46.85317" lon="0.44154">
        <ele>59.26</ele>
        <time>2023-10-15T08:43:17Z</time>
      </trkpt>
      <trkpt lat="46.85319" lon="0.4414">
        <ele>57.34</ele>
        <time>2023-10-15T08:43:19Z</time>
      </trkpt>
      <trkpt lat="46.85333" lon="0.44094">
        <ele>57.82</ele>
        <time>2023-10-15T08:43:26Z</time>
      </trkpt>
      <trkpt lat="46.85338" lon="0.44081">
        <ele>56.86</ele>
        <time>2023-10-15T08:43:28Z</time>
      </trkpt>
      <trkpt lat="46.85358" lon="0.44034">
        <ele>55.89</ele>
        <time>2023-10-15T08:43:35Z</time>
      </trkpt>
      <trkpt lat="46.85369" lon="0.44016">
        <ele>55.41</ele>
        <time>2023-10-15T08:43:38Z</time>
      </trkpt>
      <trkpt lat="46.8539" lon="0.43988">
        <ele>54.45</ele>
        <time>2023-10-15T08:43:44Z</time>
      </trkpt>
      <trkpt lat="46.85415" lon="0.43951">
        <ele>54.45</ele>
        <time>2023-10-15T08:43:51Z</time>
      </trkpt>
      <trkpt lat="46.85419" lon="0.43945">
        <ele>53.49</ele>
        <time>2023-10-15T08:43:52Z</time>
      </trkpt>
      <trkpt lat="46.85423" lon="0.4394">
        <ele>53.97</ele>
        <time>2023-10-15T08:43:53Z</time>
      </trkpt>
      <trkpt lat="46.85434" lon="0.43925">
        <ele>53.49</ele>
        <time>2023-10-15T08:43:56Z</time>
      </trkpt>
      <trkpt lat="46.85459" lon="0.43895">
        <ele>52.53</ele>
        <time>2023-10-15T08:44:02Z</time>
      </trkpt>
      <trkpt lat="46.85461" lon="0.43889">
        <ele>52.53</ele>
        <time>2023-10-15T08:44:03Z</time>
      </trkpt>
      <trkpt lat="46.85465" lon="0.43878">
        <ele>50.61</ele>
        <time>2023-10-15T08:44:05Z</time>
      </trkpt>
      <trkpt lat="46.85465" lon="0.43874">
        <ele>50.61</ele>
        <time>2023-10-15T08:44:06Z</time>
      </trkpt>
      <trkpt lat="46.85463" lon="0.43871">
        <ele>51.09</ele>
        <time>2023-10-15T08:44:07Z</time>
      </trkpt>
      <trkpt lat="46.85461" lon="0.43869">
        <ele>50.61</ele>
        <time>2023-10-15T08:44:08Z</time>
      </trkpt>
      <trkpt lat="46.85458" lon="0.43868">
        <ele>50.61</ele>
        <time>2023-10-15T08:44:09Z</time>
      </trkpt>
      <trkpt lat="46.85454" lon="0.43868">
        <ele>50.13</ele>
        <time>2023-10-15T08:44:10Z</time>
      </trkpt>
      <trkpt lat="46.85429" lon="0.43865">
        <ele>51.09</ele>
        <time>2023-10-15T08:44:15Z</time>
      </trkpt>
      <trkpt lat="46.85412" lon="0.4386">
        <ele>52.05</ele>
        <time>2023-10-15T08:44:19Z</time>
      </trkpt>
      <trkpt lat="46.85407" lon="0.4386">
        <ele>51.09</ele>
        <time>2023-10-15T08:44:20Z</time>
      </trkpt>
      <trkpt lat="46.85403" lon="0.4386">
        <ele>51.57</ele>
        <time>2023-10-15T08:44:21Z</time>
      </trkpt>
      <trkpt lat="46.85399" lon="0.4386">
        <ele>51.09</ele>
        <time>2023-10-15T08:44:22Z</time>
      </trkpt>
      <trkpt lat="46.85395" lon="0.43861">
        <ele>51.09</ele>
        <time>2023-10-15T08:44:23Z</time>
      </trkpt>
      <trkpt lat="46.85392" lon="0.43861">
        <ele>52.05</ele>
        <time>2023-10-15T08:44:24Z</time>
      </trkpt>
      <trkpt lat="46.85389" lon="0.43862">
        <ele>51.09</ele>
        <time>2023-10-15T08:44:25Z</time>
      </trkpt>
      <trkpt lat="46.85371" lon="0.43866">
        <ele>51.57</ele>
        <time>2023-10-15T08:44:31Z</time>
      </trkpt>
      <trkpt lat="46.8535" lon="0.43865">
        <ele>53.49</ele>
        <time>2023-10-15T08:44:36Z</time>
      </trkpt>
      <trkpt lat="46.85331" lon="0.4386">
        <ele>51.57</ele>
        <time>2023-10-15T08:44:41Z</time>
      </trkpt>
      <trkpt lat="46.85317" lon="0.43856">
        <ele>53.49</ele>
        <time>2023-10-15T08:44:45Z</time>
      </trkpt>
      <trkpt lat="46.85292" lon="0.43852">
        <ele>52.53</ele>
        <time>2023-10-15T08:44:51Z</time>
      </trkpt>
      <trkpt lat="46.85272" lon="0.43844">
        <ele>53.01</ele>
        <time>2023-10-15T08:44:57Z</time>
      </trkpt>
      <trkpt lat="46.85254" lon="0.43841">
        <ele>52.53</ele>
        <time>2023-10-15T08:45:02Z</time>
      </trkpt>
      <trkpt lat="46.85251" lon="0.43839">
        <ele>53.01</ele>
        <time>2023-10-15T08:45:03Z</time>
      </trkpt>
      <trkpt lat="46.85248" lon="0.43836">
        <ele>53.97</ele>
        <time>2023-10-15T08:45:04Z</time>
      </trkpt>
      <trkpt lat="46.85232" lon="0.43832">
        <ele>52.53</ele>
        <time>2023-10-15T08:45:09Z</time>
      </trkpt>
      <trkpt lat="46.85217" lon="0.43833">
        <ele>53.01</ele>
        <time>2023-10-15T08:45:13Z</time>
      </trkpt>
      <trkpt lat="46.85191" lon="0.43821">
        <ele>52.53</ele>
        <time>2023-10-15T08:45:20Z</time>
      </trkpt>
      <trkpt lat="46.8518" lon="0.43812">
        <ele>51.57</ele>
        <time>2023-10-15T08:45:23Z</time>
      </trkpt>
      <trkpt lat="46.8516" lon="0.43809">
        <ele>51.57</ele>
        <time>2023-10-15T08:45:29Z</time>
      </trkpt>
      <trkpt lat="46.85157" lon="0.43805">
        <ele>51.09</ele>
        <time>2023-10-15T08:45:32Z</time>
      </trkpt>
      <trkpt lat="46.85157" lon="0.43803">
        <ele>51.09</ele>
        <time>2023-10-15T08:45:33Z</time>
      </trkpt>
      <trkpt lat="46.85157" lon="0.438">
        <ele>50.13</ele>
        <time>2023-10-15T08:45:34Z</time>
      </trkpt>
      <trkpt lat="46.85158" lon="0.43798">
        <ele>51.09</ele>
        <time>2023-10-15T08:45:35Z</time>
      </trkpt>
      <trkpt lat="46.85159" lon="0.43796">
        <ele>50.61</ele>
        <time>2023-10-15T08:45:36Z</time>
      </trkpt>
      <trkpt lat="46.85161" lon="0.43794">
        <ele>51.57</ele>
        <time>2023-10-15T08:45:37Z</time>
      </trkpt>
      <trkpt lat="46.85163" lon="0.43792">
        <ele>51.09</ele>
        <time>2023-10-15T08:45:38Z</time>
      </trkpt>
      <trkpt lat="46.85165" lon="0.4379">
        <ele>50.61</ele>
        <time>2023-10-15T08:45:39Z</time>
      </trkpt>
      <trkpt lat="46.85167" lon="0.43788">
        <ele>50.61</ele>
        <time>2023-10-15T08:45:40Z</time>
      </trkpt>
      <trkpt lat="46.85169" lon="0.43786">
        <ele>49.65</ele>
        <time>2023-10-15T08:45:41Z</time>
      </trkpt>
      <trkpt lat="46.85173" lon="0.43776">
        <ele>49.16</ele>
        <time>2023-10-15T08:45:44Z</time>
      </trkpt>
      <trkpt lat="46.85172" lon="0.43771">
        <ele>48.68</ele>
        <time>2023-10-15T08:45:45Z</time>
      </trkpt>
      <trkpt lat="46.8517" lon="0.43759">
        <ele>48.2</ele>
        <time>2023-10-15T08:45:47Z</time>
      </trkpt>
      <trkpt lat="46.85171" lon="0.43752">
        <ele>49.16</ele>
        <time>2023-10-15T08:45:48Z</time>
      </trkpt>
      <trkpt lat="46.85175" lon="0.43731">
        <ele>46.76</ele>
        <time>2023-10-15T08:45:52Z</time>
      </trkpt>
      <trkpt lat="46.85177" lon="0.43728">
        <ele>46.28</ele>
        <time>2023-10-15T08:45:53Z</time>
      </trkpt>
      <trkpt lat="46.85179" lon="0.43727">
        <ele>45.8</ele>
        <time>2023-10-15T08:45:54Z</time>
      </trkpt>
      <trkpt lat="46.85181" lon="0.43727">
        <ele>46.28</ele>
        <time>2023-10-15T08:45:55Z</time>
      </trkpt>
      <trkpt lat="46.85183" lon="0.43725">
        <ele>45.8</ele>
        <time>2023-10-15T08:45:56Z</time>
      </trkpt>
      <trkpt lat="46.85186" lon="0.43723">
        <ele>46.28</ele>
        <time>2023-10-15T08:45:57Z</time>
      </trkpt>
      <trkpt lat="46.85188" lon="0.43721">
        <ele>45.8</ele>
        <time>2023-10-15T08:45:58Z</time>
      </trkpt>
      <trkpt lat="46.8519" lon="0.4372">
        <ele>45.8</ele>
        <time>2023-10-15T08:45:59Z</time>
      </trkpt>
      <trkpt lat="46.85193" lon="0.43717">
        <ele>45.32</ele>
        <time>2023-10-15T08:46:00Z</time>
      </trkpt>
      <trkpt lat="46.8521" lon="0.43708">
        <ele>44.84</ele>
        <time>2023-10-15T08:46:05Z</time>
      </trkpt>
      <trkpt lat="46.85212" lon="0.43709">
        <ele>44.36</ele>
        <time>2023-10-15T08:46:06Z</time>
      </trkpt>
      <trkpt lat="46.8522" lon="0.43714">
        <ele>44.36</ele>
        <time>2023-10-15T08:46:10Z</time>
      </trkpt>
      <trkpt lat="46.85234" lon="0.43721">
        <ele>45.32</ele>
        <time>2023-10-15T08:46:16Z</time>
      </trkpt>
      <trkpt lat="46.85248" lon="0.43724">
        <ele>46.76</ele>
        <time>2023-10-15T08:46:21Z</time>
      </trkpt>
      <trkpt lat="46.85266" lon="0.43727">
        <ele>47.24</ele>
        <time>2023-10-15T08:46:28Z</time>
      </trkpt>
      <trkpt lat="46.85268" lon="0.43725">
        <ele>46.76</ele>
        <time>2023-10-15T08:46:29Z</time>
      </trkpt>
      <trkpt lat="46.85275" lon="0.43696">
        <ele>43.88</ele>
        <time>2023-10-15T08:46:34Z</time>
      </trkpt>
      <trkpt lat="46.85279" lon="0.43683">
        <ele>41.95</ele>
        <time>2023-10-15T08:46:36Z</time>
      </trkpt>
      <trkpt lat="46.85282" lon="0.43679">
        <ele>41.95</ele>
        <time>2023-10-15T08:46:37Z</time>
      </trkpt>
      <trkpt lat="46.85287" lon="0.43679">
        <ele>42.92</ele>
        <time>2023-10-15T08:46:38Z</time>
      </trkpt>
      <trkpt lat="46.85291" lon="0.43678">
        <ele>42.92</ele>
        <time>2023-10-15T08:46:39Z</time>
      </trkpt>
      <trkpt lat="46.85295" lon="0.43677">
        <ele>40.99</ele>
        <time>2023-10-15T08:46:40Z</time>
      </trkpt>
      <trkpt lat="46.85299" lon="0.43676">
        <ele>41.47</ele>
        <time>2023-10-15T08:46:41Z</time>
      </trkpt>
      <trkpt lat="46.85302" lon="0.43675">
        <ele>40.99</ele>
        <time>2023-10-15T08:46:42Z</time>
      </trkpt>
      <trkpt lat="46.85306" lon="0.43673">
        <ele>40.99</ele>
        <time>2023-10-15T08:46:44Z</time>
      </trkpt>
      <trkpt lat="46.85319" lon="0.43663">
        <ele>40.03</ele>
        <time>2023-10-15T08:46:50Z</time>
      </trkpt>
      <trkpt lat="46.85323" lon="0.4366">
        <ele>39.55</ele>
        <time>2023-10-15T08:46:53Z</time>
      </trkpt>
      <trkpt lat="46.8532" lon="0.43648">
        <ele>40.99</ele>
        <time>2023-10-15T08:46:58Z</time>
      </trkpt>
      <trkpt lat="46.85318" lon="0.43643">
        <ele>41.95</ele>
        <time>2023-10-15T08:47:01Z</time>
      </trkpt>
      <trkpt lat="46.85317" lon="0.43631">
        <ele>43.4</ele>
        <time>2023-10-15T08:47:06Z</time>
      </trkpt>
      <trkpt lat="46.85316" lon="0.43623">
        <ele>44.36</ele>
        <time>2023-10-15T08:47:09Z</time>
      </trkpt>
      <trkpt lat="46.85313" lon="0.43603">
        <ele>46.28</ele>
        <time>2023-10-15T08:47:16Z</time>
      </trkpt>
      <trkpt lat="46.85312" lon="0.436">
        <ele>46.28</ele>
        <time>2023-10-15T08:47:17Z</time>
      </trkpt>
      <trkpt lat="46.85295" lon="0.43584">
        <ele>47.72</ele>
        <time>2023-10-15T08:47:26Z</time>
      </trkpt>
      <trkpt lat="46.85293" lon="0.43565">
        <ele>47.72</ele>
        <time>2023-10-15T08:47:32Z</time>
      </trkpt>
      <trkpt lat="46.85292" lon="0.4355">
        <ele>49.65</ele>
        <time>2023-10-15T08:47:37Z</time>
      </trkpt>
      <trkpt lat="46.85291" lon="0.43534">
        <ele>49.16</ele>
        <time>2023-10-15T08:47:43Z</time>
      </trkpt>
      <trkpt lat="46.85291" lon="0.43528">
        <ele>49.16</ele>
        <time>2023-10-15T08:47:50Z</time>
      </trkpt>
      <trkpt lat="46.85295" lon="0.43511">
        <ele>50.13</ele>
        <time>2023-10-15T08:47:57Z</time>
      </trkpt>
      <trkpt lat="46.85297" lon="0.43494">
        <ele>50.13</ele>
        <time>2023-10-15T08:48:02Z</time>
      </trkpt>
      <trkpt lat="46.85298" lon="0.43478">
        <ele>49.65</ele>
        <time>2023-10-15T08:48:06Z</time>
      </trkpt>
      <trkpt lat="46.85292" lon="0.43452">
        <ele>50.61</ele>
        <time>2023-10-15T08:48:13Z</time>
      </trkpt>
      <trkpt lat="46.85276" lon="0.43441">
        <ele>51.57</ele>
        <time>2023-10-15T08:48:18Z</time>
      </trkpt>
      <trkpt lat="46.85266" lon="0.43403">
        <ele>51.09</ele>
        <time>2023-10-15T08:48:26Z</time>
      </trkpt>
      <trkpt lat="46.85261" lon="0.43359">
        <ele>52.05</ele>
        <time>2023-10-15T08:48:34Z</time>
      </trkpt>
      <trkpt lat="46.85268" lon="0.4333">
        <ele>51.09</ele>
        <time>2023-10-15T08:48:40Z</time>
      </trkpt>
      <trkpt lat="46.85269" lon="0.43321">
        <ele>52.05</ele>
        <time>2023-10-15T08:48:42Z</time>
      </trkpt>
      <trkpt lat="46.85265" lon="0.43318">
        <ele>50.13</ele>
        <time>2023-10-15T08:48:46Z</time>
      </trkpt>
      <trkpt lat="46.85257" lon="0.43326">
        <ele>52.05</ele>
        <time>2023-10-15T08:48:53Z</time>
      </trkpt>
      <trkpt lat="46.85235" lon="0.43343">
        <ele>52.53</ele>
        <time>2023-10-15T08:48:59Z</time>
      </trkpt>
      <trkpt lat="46.85218" lon="0.43364">
        <ele>53.49</ele>
        <time>2023-10-15T08:49:05Z</time>
      </trkpt>
      <trkpt lat="46.85214" lon="0.43367">
        <ele>53.49</ele>
        <time>2023-10-15T08:49:06Z</time>
      </trkpt>
      <trkpt lat="46.85192" lon="0.43393">
        <ele>54.93</ele>
        <time>2023-10-15T08:49:13Z</time>
      </trkpt>
      <trkpt lat="46.85175" lon="0.43416">
        <ele>54.45</ele>
        <time>2023-10-15T08:49:19Z</time>
      </trkpt>
      <trkpt lat="46.85163" lon="0.43439">
        <ele>53.97</ele>
        <time>2023-10-15T08:49:25Z</time>
      </trkpt>
      <trkpt lat="46.85152" lon="0.43459">
        <ele>54.45</ele>
        <time>2023-10-15T08:49:30Z</time>
      </trkpt>
      <trkpt lat="46.85147" lon="0.43471">
        <ele>54.93</ele>
        <time>2023-10-15T08:49:33Z</time>
      </trkpt>
      <trkpt lat="46.85145" lon="0.43473">
        <ele>53.97</ele>
        <time>2023-10-15T08:49:34Z</time>
      </trkpt>
      <trkpt lat="46.85143" lon="0.43475">
        <ele>55.89</ele>
        <time>2023-10-15T08:49:35Z</time>
      </trkpt>
      <trkpt lat="46.85133" lon="0.43481">
        <ele>53.97</ele>
        <time>2023-10-15T08:49:38Z</time>
      </trkpt>
      <trkpt lat="46.85117" lon="0.43487">
        <ele>55.41</ele>
        <time>2023-10-15T08:49:44Z</time>
      </trkpt>
      <trkpt lat="46.85103" lon="0.43491">
        <ele>54.93</ele>
        <time>2023-10-15T08:49:49Z</time>
      </trkpt>
      <trkpt lat="46.85098" lon="0.43472">
        <ele>55.89</ele>
        <time>2023-10-15T08:49:55Z</time>
      </trkpt>
      <trkpt lat="46.85094" lon="0.43456">
        <ele>55.89</ele>
        <time>2023-10-15T08:50:00Z</time>
      </trkpt>
      <trkpt lat="46.85084" lon="0.4345">
        <ele>55.89</ele>
        <time>2023-10-15T08:50:05Z</time>
      </trkpt>
      <trkpt lat="46.85071" lon="0.43441">
        <ele>56.37</ele>
        <time>2023-10-15T08:50:10Z</time>
      </trkpt>
      <trkpt lat="46.85066" lon="0.43438">
        <ele>56.86</ele>
        <time>2023-10-15T08:50:12Z</time>
      </trkpt>
      <trkpt lat="46.8506" lon="0.43435">
        <ele>57.34</ele>
        <time>2023-10-15T08:50:14Z</time>
      </trkpt>
      <trkpt lat="46.85057" lon="0.43428">
        <ele>57.34</ele>
        <time>2023-10-15T08:50:16Z</time>
      </trkpt>
      <trkpt lat="46.85042" lon="0.4341">
        <ele>57.34</ele>
        <time>2023-10-15T08:50:23Z</time>
      </trkpt>
      <trkpt lat="46.85034" lon="0.43407">
        <ele>56.86</ele>
        <time>2023-10-15T08:50:28Z</time>
      </trkpt>
      <trkpt lat="46.85023" lon="0.43414">
        <ele>57.82</ele>
        <time>2023-10-15T08:50:34Z</time>
      </trkpt>
      <trkpt lat="46.85015" lon="0.43412">
        <ele>57.34</ele>
        <time>2023-10-15T08:50:38Z</time>
      </trkpt>
      <trkpt lat="46.85004" lon="0.4341">
        <ele>57.34</ele>
        <time>2023-10-15T08:50:42Z</time>
      </trkpt>
      <trkpt lat="46.84994" lon="0.43418">
        <ele>57.82</ele>
        <time>2023-10-15T08:50:48Z</time>
      </trkpt>
      <trkpt lat="46.84992" lon="0.43422">
        <ele>58.3</ele>
        <time>2023-10-15T08:50:50Z</time>
      </trkpt>
      <trkpt lat="46.84983" lon="0.4344">
        <ele>57.82</ele>
        <time>2023-10-15T08:50:56Z</time>
      </trkpt>
      <trkpt lat="46.84972" lon="0.4345">
        <ele>57.82</ele>
        <time>2023-10-15T08:51:01Z</time>
      </trkpt>
      <trkpt lat="46.84964" lon="0.43456">
        <ele>57.82</ele>
        <time>2023-10-15T08:51:05Z</time>
      </trkpt>
      <trkpt lat="46.84955" lon="0.43459">
        <ele>57.34</ele>
        <time>2023-10-15T08:51:08Z</time>
      </trkpt>
      <trkpt lat="46.84942" lon="0.43472">
        <ele>56.37</ele>
        <time>2023-10-15T08:51:12Z</time>
      </trkpt>
      <trkpt lat="46.84936" lon="0.43494">
        <ele>56.37</ele>
        <time>2023-10-15T08:51:18Z</time>
      </trkpt>
      <trkpt lat="46.84928" lon="0.43504">
        <ele>55.89</ele>
        <time>2023-10-15T08:51:21Z</time>
      </trkpt>
      <trkpt lat="46.84919" lon="0.43511">
        <ele>56.37</ele>
        <time>2023-10-15T08:51:27Z</time>
      </trkpt>
      <trkpt lat="46.84906" lon="0.4353">
        <ele>56.86</ele>
        <time>2023-10-15T08:51:33Z</time>
      </trkpt>
      <trkpt lat="46.84904" lon="0.43541">
        <ele>55.41</ele>
        <time>2023-10-15T08:51:37Z</time>
      </trkpt>
      <trkpt lat="46.84906" lon="0.43545">
        <ele>55.89</ele>
        <time>2023-10-15T08:51:39Z</time>
      </trkpt>
      <trkpt lat="46.84905" lon="0.43567">
        <ele>55.89</ele>
        <time>2023-10-15T08:51:45Z</time>
      </trkpt>
      <trkpt lat="46.84898" lon="0.43588">
        <ele>54.93</ele>
        <time>2023-10-15T08:51:50Z</time>
      </trkpt>
      <trkpt lat="46.84897" lon="0.43589">
        <ele>54.93</ele>
        <time>2023-10-15T08:51:51Z</time>
      </trkpt>
      <trkpt lat="46.84893" lon="0.43599">
        <ele>53.97</ele>
        <time>2023-10-15T08:51:59Z</time>
      </trkpt>
      <trkpt lat="46.84891" lon="0.43605">
        <ele>55.41</ele>
        <time>2023-10-15T08:52:07Z</time>
      </trkpt>
      <trkpt lat="46.8489" lon="0.43608">
        <ele>53.49</ele>
        <time>2023-10-15T08:52:11Z</time>
      </trkpt>
      <trkpt lat="46.84888" lon="0.43605">
        <ele>54.93</ele>
        <time>2023-10-15T08:53:00Z</time>
      </trkpt>
      <trkpt lat="46.84888" lon="0.43605">
        <ele>54.93</ele>
        <time>2023-10-15T08:53:01Z</time>
      </trkpt>
      <trkpt lat="46.84876" lon="0.43596">
        <ele>55.41</ele>
        <time>2023-10-15T08:53:08Z</time>
      </trkpt>
      <trkpt lat="46.84871" lon="0.43592">
        <ele>55.41</ele>
        <time>2023-10-15T08:53:10Z</time>
      </trkpt>
      <trkpt lat="46.84861" lon="0.4358">
        <ele>55.89</ele>
        <time>2023-10-15T08:53:16Z</time>
      </trkpt>
      <trkpt lat="46.84855" lon="0.43578">
        <ele>56.37</ele>
        <time>2023-10-15T08:53:22Z</time>
      </trkpt>
      <trkpt lat="46.84854" lon="0.43578">
        <ele>55.41</ele>
        <time>2023-10-15T08:53:30Z</time>
      </trkpt>
      <trkpt lat="46.84853" lon="0.43577">
        <ele>55.41</ele>
        <time>2023-10-15T08:53:38Z</time>
      </trkpt>
      <trkpt lat="46.84846" lon="0.43576">
        <ele>55.41</ele>
        <time>2023-10-15T08:53:43Z</time>
      </trkpt>
      <trkpt lat="46.84843" lon="0.43573">
        <ele>56.86</ele>
        <time>2023-10-15T08:53:48Z</time>
      </trkpt>
      <trkpt lat="46.84838" lon="0.43561">
        <ele>56.37</ele>
        <time>2023-10-15T08:53:53Z</time>
      </trkpt>
      <trkpt lat="46.84829" lon="0.4355">
        <ele>56.37</ele>
        <time>2023-10-15T08:53:58Z</time>
      </trkpt>
      <trkpt lat="46.84827" lon="0.43546">
        <ele>57.34</ele>
        <time>2023-10-15T08:54:00Z</time>
      </trkpt>
      <trkpt lat="46.84819" lon="0.43539">
        <ele>57.34</ele>
        <time>2023-10-15T08:54:05Z</time>
      </trkpt>
      <trkpt lat="46.84812" lon="0.4353">
        <ele>57.34</ele>
        <time>2023-10-15T08:54:11Z</time>
      </trkpt>
      <trkpt lat="46.84804" lon="0.43523">
        <ele>57.34</ele>
        <time>2023-10-15T08:54:15Z</time>
      </trkpt>
      <trkpt lat="46.848" lon="0.43517">
        <ele>57.82</ele>
        <time>2023-10-15T08:54:20Z</time>
      </trkpt>
      <trkpt lat="46.84789" lon="0.43508">
        <ele>57.82</ele>
        <time>2023-10-15T08:54:25Z</time>
      </trkpt>
      <trkpt lat="46.84782" lon="0.43501">
        <ele>57.82</ele>
        <time>2023-10-15T08:54:29Z</time>
      </trkpt>
      <trkpt lat="46.84774" lon="0.43492">
        <ele>57.82</ele>
        <time>2023-10-15T08:54:36Z</time>
      </trkpt>
      <trkpt lat="46.84772" lon="0.43488">
        <ele>58.3</ele>
        <time>2023-10-15T08:54:45Z</time>
      </trkpt>
      <trkpt lat="46.84771" lon="0.43488">
        <ele>58.78</ele>
        <time>2023-10-15T08:54:46Z</time>
      </trkpt>
      <trkpt lat="46.84761" lon="0.43478">
        <ele>59.26</ele>
        <time>2023-10-15T08:54:51Z</time>
      </trkpt>
      <trkpt lat="46.84755" lon="0.43471">
        <ele>59.26</ele>
        <time>2023-10-15T08:54:57Z</time>
      </trkpt>
      <trkpt lat="46.84747" lon="0.43464">
        <ele>58.78</ele>
        <time>2023-10-15T08:55:03Z</time>
      </trkpt>
      <trkpt lat="46.8474" lon="0.43456">
        <ele>59.26</ele>
        <time>2023-10-15T08:55:10Z</time>
      </trkpt>
      <trkpt lat="46.84737" lon="0.43453">
        <ele>58.78</ele>
        <time>2023-10-15T08:55:14Z</time>
      </trkpt>
      <trkpt lat="46.84735" lon="0.43448">
        <ele>57.82</ele>
        <time>2023-10-15T08:55:18Z</time>
      </trkpt>
      <trkpt lat="46.84732" lon="0.43438">
        <ele>59.26</ele>
        <time>2023-10-15T08:55:23Z</time>
      </trkpt>
      <trkpt lat="46.84733" lon="0.43434">
        <ele>57.82</ele>
        <time>2023-10-15T08:55:28Z</time>
      </trkpt>
      <trkpt lat="46.84737" lon="0.4342">
        <ele>58.3</ele>
        <time>2023-10-15T08:55:34Z</time>
      </trkpt>
      <trkpt lat="46.84735" lon="0.43408">
        <ele>59.26</ele>
        <time>2023-10-15T08:55:37Z</time>
      </trkpt>
      <trkpt lat="46.84727" lon="0.43395">
        <ele>59.74</ele>
        <time>2023-10-15T08:55:43Z</time>
      </trkpt>
      <trkpt lat="46.84721" lon="0.43387">
        <ele>59.74</ele>
        <time>2023-10-15T08:55:47Z</time>
      </trkpt>
      <trkpt lat="46.84706" lon="0.43383">
        <ele>59.74</ele>
        <time>2023-10-15T08:55:54Z</time>
      </trkpt>
      <trkpt lat="46.847" lon="0.43385">
        <ele>60.22</ele>
        <time>2023-10-15T08:55:56Z</time>
      </trkpt>
      <trkpt lat="46.84686" lon="0.43381">
        <ele>60.22</ele>
        <time>2023-10-15T08:56:02Z</time>
      </trkpt>
      <trkpt lat="46.84677" lon="0.43378">
        <ele>60.22</ele>
        <time>2023-10-15T08:56:05Z</time>
      </trkpt>
      <trkpt lat="46.84661" lon="0.43362">
        <ele>61.18</ele>
        <time>2023-10-15T08:56:11Z</time>
      </trkpt>
      <trkpt lat="46.84652" lon="0.43361">
        <ele>61.18</ele>
        <time>2023-10-15T08:56:16Z</time>
      </trkpt>
      <trkpt lat="46.84651" lon="0.43363">
        <ele>61.18</ele>
        <time>2023-10-15T08:56:17Z</time>
      </trkpt>
      <trkpt lat="46.84638" lon="0.4337">
        <ele>61.66</ele>
        <time>2023-10-15T08:56:23Z</time>
      </trkpt>
      <trkpt lat="46.84636" lon="0.43369">
        <ele>62.14</ele>
        <time>2023-10-15T08:56:24Z</time>
      </trkpt>
      <trkpt lat="46.8463" lon="0.43369">
        <ele>61.18</ele>
        <time>2023-10-15T08:56:27Z</time>
      </trkpt>
      <trkpt lat="46.84622" lon="0.43372">
        <ele>61.66</ele>
        <time>2023-10-15T08:56:31Z</time>
      </trkpt>
      <trkpt lat="46.8462" lon="0.43387">
        <ele>61.66</ele>
        <time>2023-10-15T08:56:36Z</time>
      </trkpt>
      <trkpt lat="46.84605" lon="0.43401">
        <ele>62.14</ele>
        <time>2023-10-15T08:56:41Z</time>
      </trkpt>
      <trkpt lat="46.84597" lon="0.43407">
        <ele>61.66</ele>
        <time>2023-10-15T08:56:46Z</time>
      </trkpt>
      <trkpt lat="46.84594" lon="0.43409">
        <ele>61.66</ele>
        <time>2023-10-15T08:56:47Z</time>
      </trkpt>
      <trkpt lat="46.8458" lon="0.43412">
        <ele>62.62</ele>
        <time>2023-10-15T08:56:53Z</time>
      </trkpt>
      <trkpt lat="46.84567" lon="0.43406">
        <ele>62.14</ele>
        <time>2023-10-15T08:56:57Z</time>
      </trkpt>
      <trkpt lat="46.84561" lon="0.4339">
        <ele>62.14</ele>
        <time>2023-10-15T08:57:01Z</time>
      </trkpt>
      <trkpt lat="46.8456" lon="0.43386">
        <ele>62.14</ele>
        <time>2023-10-15T08:57:02Z</time>
      </trkpt>
      <trkpt lat="46.84542" lon="0.43362">
        <ele>61.18</ele>
        <time>2023-10-15T08:57:10Z</time>
      </trkpt>
      <trkpt lat="46.84535" lon="0.43346">
        <ele>62.14</ele>
        <time>2023-10-15T08:57:15Z</time>
      </trkpt>
      <trkpt lat="46.84531" lon="0.43342">
        <ele>61.66</ele>
        <time>2023-10-15T08:57:17Z</time>
      </trkpt>
      <trkpt lat="46.8452" lon="0.43327">
        <ele>62.62</ele>
        <time>2023-10-15T08:57:23Z</time>
      </trkpt>
      <trkpt lat="46.84523" lon="0.43306">
        <ele>61.18</ele>
        <time>2023-10-15T08:57:28Z</time>
      </trkpt>
      <trkpt lat="46.84528" lon="0.43292">
        <ele>62.14</ele>
        <time>2023-10-15T08:57:32Z</time>
      </trkpt>
      <trkpt lat="46.8453" lon="0.43289">
        <ele>61.18</ele>
        <time>2023-10-15T08:57:33Z</time>
      </trkpt>
      <trkpt lat="46.84529" lon="0.43278">
        <ele>62.14</ele>
        <time>2023-10-15T08:57:37Z</time>
      </trkpt>
      <trkpt lat="46.84513" lon="0.43264">
        <ele>61.18</ele>
        <time>2023-10-15T08:57:43Z</time>
      </trkpt>
      <trkpt lat="46.84509" lon="0.43252">
        <ele>60.7</ele>
        <time>2023-10-15T08:57:46Z</time>
      </trkpt>
      <trkpt lat="46.84499" lon="0.43244">
        <ele>60.7</ele>
        <time>2023-10-15T08:57:51Z</time>
      </trkpt>
      <trkpt lat="46.84495" lon="0.4324">
        <ele>60.22</ele>
        <time>2023-10-15T08:57:53Z</time>
      </trkpt>
      <trkpt lat="46.84489" lon="0.4323">
        <ele>60.22</ele>
        <time>2023-10-15T08:57:57Z</time>
      </trkpt>
      <trkpt lat="46.84493" lon="0.43221">
        <ele>60.22</ele>
        <time>2023-10-15T08:58:00Z</time>
      </trkpt>
      <trkpt lat="46.84491" lon="0.43213">
        <ele>61.18</ele>
        <time>2023-10-15T08:58:02Z</time>
      </trkpt>
      <trkpt lat="46.84488" lon="0.43188">
        <ele>60.22</ele>
        <time>2023-10-15T08:58:07Z</time>
      </trkpt>
      <trkpt lat="46.84485" lon="0.43172">
        <ele>59.74</ele>
        <time>2023-10-15T08:58:10Z</time>
      </trkpt>
      <trkpt lat="46.84485" lon="0.43139">
        <ele>61.18</ele>
        <time>2023-10-15T08:58:17Z</time>
      </trkpt>
      <trkpt lat="46.84487" lon="0.43136">
        <ele>60.7</ele>
        <time>2023-10-15T08:58:18Z</time>
      </trkpt>
      <trkpt lat="46.84491" lon="0.43118">
        <ele>59.74</ele>
        <time>2023-10-15T08:58:23Z</time>
      </trkpt>
      <trkpt lat="46.84496" lon="0.43102">
        <ele>60.22</ele>
        <time>2023-10-15T08:58:29Z</time>
      </trkpt>
      <trkpt lat="46.84504" lon="0.43087">
        <ele>59.74</ele>
        <time>2023-10-15T08:58:34Z</time>
      </trkpt>
      <trkpt lat="46.8451" lon="0.43065">
        <ele>58.3</ele>
        <time>2023-10-15T08:58:40Z</time>
      </trkpt>
      <trkpt lat="46.84512" lon="0.43052">
        <ele>59.26</ele>
        <time>2023-10-15T08:58:43Z</time>
      </trkpt>
      <trkpt lat="46.84523" lon="0.43043">
        <ele>58.3</ele>
        <time>2023-10-15T08:58:48Z</time>
      </trkpt>
      <trkpt lat="46.84531" lon="0.43032">
        <ele>59.26</ele>
        <time>2023-10-15T08:58:52Z</time>
      </trkpt>
      <trkpt lat="46.84543" lon="0.43008">
        <ele>58.78</ele>
        <time>2023-10-15T08:58:58Z</time>
      </trkpt>
      <trkpt lat="46.84546" lon="0.43005">
        <ele>58.3</ele>
        <time>2023-10-15T08:58:59Z</time>
      </trkpt>
      <trkpt lat="46.84548" lon="0.43001">
        <ele>59.26</ele>
        <time>2023-10-15T08:59:00Z</time>
      </trkpt>
      <trkpt lat="46.8455" lon="0.42993">
        <ele>59.26</ele>
        <time>2023-10-15T08:59:02Z</time>
      </trkpt>
      <trkpt lat="46.84551" lon="0.4297">
        <ele>59.26</ele>
        <time>2023-10-15T08:59:07Z</time>
      </trkpt>
      <trkpt lat="46.84559" lon="0.42953">
        <ele>58.3</ele>
        <time>2023-10-15T08:59:12Z</time>
      </trkpt>
      <trkpt lat="46.84561" lon="0.42946">
        <ele>58.3</ele>
        <time>2023-10-15T08:59:14Z</time>
      </trkpt>
      <trkpt lat="46.84567" lon="0.42932">
        <ele>57.82</ele>
        <time>2023-10-15T08:59:19Z</time>
      </trkpt>
      <trkpt lat="46.84575" lon="0.42924">
        <ele>57.82</ele>
        <time>2023-10-15T08:59:23Z</time>
      </trkpt>
      <trkpt lat="46.84579" lon="0.42905">
        <ele>58.78</ele>
        <time>2023-10-15T08:59:29Z</time>
      </trkpt>
      <trkpt lat="46.84583" lon="0.42892">
        <ele>58.3</ele>
        <time>2023-10-15T08:59:33Z</time>
      </trkpt>
      <trkpt lat="46.84588" lon="0.4288">
        <ele>58.78</ele>
        <time>2023-10-15T08:59:37Z</time>
      </trkpt>
      <trkpt lat="46.8459" lon="0.42874">
        <ele>58.78</ele>
        <time>2023-10-15T08:59:39Z</time>
      </trkpt>
      <trkpt lat="46.84605" lon="0.42863">
        <ele>58.3</ele>
        <time>2023-10-15T08:59:45Z</time>
      </trkpt>
      <trkpt lat="46.84612" lon="0.42852">
        <ele>57.82</ele>
        <time>2023-10-15T08:59:49Z</time>
      </trkpt>
      <trkpt lat="46.84618" lon="0.42839">
        <ele>57.34</ele>
        <time>2023-10-15T08:59:53Z</time>
      </trkpt>
      <trkpt lat="46.84623" lon="0.42832">
        <ele>57.34</ele>
        <time>2023-10-15T08:59:56Z</time>
      </trkpt>
      <trkpt lat="46.84632" lon="0.42812">
        <ele>57.82</ele>
        <time>2023-10-15T09:00:02Z</time>
      </trkpt>
      <trkpt lat="46.84632" lon="0.428">
        <ele>57.34</ele>
        <time>2023-10-15T09:00:06Z</time>
      </trkpt>
      <trkpt lat="46.84636" lon="0.42782">
        <ele>57.82</ele>
        <time>2023-10-15T09:00:11Z</time>
      </trkpt>
      <trkpt lat="46.84645" lon="0.42775">
        <ele>57.34</ele>
        <time>2023-10-15T09:00:16Z</time>
      </trkpt>
      <trkpt lat="46.84647" lon="0.42772">
        <ele>57.82</ele>
        <time>2023-10-15T09:00:22Z</time>
      </trkpt>
      <trkpt lat="46.84648" lon="0.42772">
        <ele>56.86</ele>
        <time>2023-10-15T09:00:26Z</time>
      </trkpt>
      <trkpt lat="46.84652" lon="0.42772">
        <ele>56.86</ele>
        <time>2023-10-15T09:00:30Z</time>
      </trkpt>
      <trkpt lat="46.84657" lon="0.42776">
        <ele>56.37</ele>
        <time>2023-10-15T09:00:37Z</time>
      </trkpt>
      <trkpt lat="46.84657" lon="0.42776">
        <ele>56.86</ele>
        <time>2023-10-15T09:00:39Z</time>
      </trkpt>
      <trkpt lat="46.8466" lon="0.42774">
        <ele>56.86</ele>
        <time>2023-10-15T09:00:41Z</time>
      </trkpt>
      <trkpt lat="46.84665" lon="0.4276">
        <ele>56.37</ele>
        <time>2023-10-15T09:00:46Z</time>
      </trkpt>
      <trkpt lat="46.84672" lon="0.42747">
        <ele>56.86</ele>
        <time>2023-10-15T09:00:51Z</time>
      </trkpt>
      <trkpt lat="46.84675" lon="0.42731">
        <ele>55.89</ele>
        <time>2023-10-15T09:00:56Z</time>
      </trkpt>
      <trkpt lat="46.84675" lon="0.42715">
        <ele>56.37</ele>
        <time>2023-10-15T09:01:00Z</time>
      </trkpt>
      <trkpt lat="46.84686" lon="0.42698">
        <ele>55.89</ele>
        <time>2023-10-15T09:01:06Z</time>
      </trkpt>
      <trkpt lat="46.84689" lon="0.42673">
        <ele>55.41</ele>
        <time>2023-10-15T09:01:12Z</time>
      </trkpt>
      <trkpt lat="46.84701" lon="0.42649">
        <ele>55.41</ele>
        <time>2023-10-15T09:01:18Z</time>
      </trkpt>
      <trkpt lat="46.84709" lon="0.42642">
        <ele>56.37</ele>
        <time>2023-10-15T09:01:21Z</time>
      </trkpt>
      <trkpt lat="46.84714" lon="0.42635">
        <ele>54.93</ele>
        <time>2023-10-15T09:01:24Z</time>
      </trkpt>
      <trkpt lat="46.84722" lon="0.4262">
        <ele>55.41</ele>
        <time>2023-10-15T09:01:29Z</time>
      </trkpt>
      <trkpt lat="46.84725" lon="0.42608">
        <ele>55.41</ele>
        <time>2023-10-15T09:01:33Z</time>
      </trkpt>
      <trkpt lat="46.84728" lon="0.42601">
        <ele>55.41</ele>
        <time>2023-10-15T09:01:35Z</time>
      </trkpt>
      <trkpt lat="46.84735" lon="0.42589">
        <ele>55.41</ele>
        <time>2023-10-15T09:01:40Z</time>
      </trkpt>
      <trkpt lat="46.84737" lon="0.42579">
        <ele>54.93</ele>
        <time>2023-10-15T09:01:48Z</time>
      </trkpt>
      <trkpt lat="46.84737" lon="0.42579">
        <ele>55.89</ele>
        <time>2023-10-15T09:01:52Z</time>
      </trkpt>
      <trkpt lat="46.84743" lon="0.42577">
        <ele>55.41</ele>
        <time>2023-10-15T09:01:57Z</time>
      </trkpt>
      <trkpt lat="46.84745" lon="0.42578">
        <ele>55.89</ele>
        <time>2023-10-15T09:01:59Z</time>
      </trkpt>
      <trkpt lat="46.84749" lon="0.42575">
        <ele>55.41</ele>
        <time>2023-10-15T09:02:02Z</time>
      </trkpt>
      <trkpt lat="46.8475" lon="0.42563">
        <ele>54.93</ele>
        <time>2023-10-15T09:02:08Z</time>
      </trkpt>
      <trkpt lat="46.84749" lon="0.42564">
        <ele>54.45</ele>
        <time>2023-10-15T09:02:14Z</time>
      </trkpt>
      <trkpt lat="46.84749" lon="0.42564">
        <ele>54.45</ele>
        <time>2023-10-15T09:02:42Z</time>
      </trkpt>
      <trkpt lat="46.84749" lon="0.42562">
        <ele>55.41</ele>
        <time>2023-10-15T09:02:51Z</time>
      </trkpt>
      <trkpt lat="46.84738" lon="0.42552">
        <ele>54.93</ele>
        <time>2023-10-15T09:02:57Z</time>
      </trkpt>
      <trkpt lat="46.84735" lon="0.42546">
        <ele>54.93</ele>
        <time>2023-10-15T09:02:59Z</time>
      </trkpt>
      <trkpt lat="46.84731" lon="0.42542">
        <ele>54.45</ele>
        <time>2023-10-15T09:03:03Z</time>
      </trkpt>
      <trkpt lat="46.84724" lon="0.42544">
        <ele>54.45</ele>
        <time>2023-10-15T09:03:07Z</time>
      </trkpt>
      <trkpt lat="46.84717" lon="0.4253">
        <ele>53.97</ele>
        <time>2023-10-15T09:03:14Z</time>
      </trkpt>
      <trkpt lat="46.84719" lon="0.42527">
        <ele>53.97</ele>
        <time>2023-10-15T09:03:15Z</time>
      </trkpt>
      <trkpt lat="46.84735" lon="0.42501">
        <ele>53.01</ele>
        <time>2023-10-15T09:03:22Z</time>
      </trkpt>
      <trkpt lat="46.84746" lon="0.42472">
        <ele>53.01</ele>
        <time>2023-10-15T09:03:29Z</time>
      </trkpt>
      <trkpt lat="46.84753" lon="0.42447">
        <ele>53.01</ele>
        <time>2023-10-15T09:03:35Z</time>
      </trkpt>
      <trkpt lat="46.8476" lon="0.42423">
        <ele>52.53</ele>
        <time>2023-10-15T09:03:40Z</time>
      </trkpt>
      <trkpt lat="46.84768" lon="0.42398">
        <ele>53.01</ele>
        <time>2023-10-15T09:03:45Z</time>
      </trkpt>
      <trkpt lat="46.84769" lon="0.42393">
        <ele>53.01</ele>
        <time>2023-10-15T09:03:46Z</time>
      </trkpt>
      <trkpt lat="46.84769" lon="0.42388">
        <ele>53.01</ele>
        <time>2023-10-15T09:03:47Z</time>
      </trkpt>
      <trkpt lat="46.84771" lon="0.42382">
        <ele>52.53</ele>
        <time>2023-10-15T09:03:48Z</time>
      </trkpt>
      <trkpt lat="46.84774" lon="0.42377">
        <ele>52.53</ele>
        <time>2023-10-15T09:03:49Z</time>
      </trkpt>
      <trkpt lat="46.84778" lon="0.42375">
        <ele>52.53</ele>
        <time>2023-10-15T09:03:50Z</time>
      </trkpt>
      <trkpt lat="46.8478" lon="0.42371">
        <ele>52.05</ele>
        <time>2023-10-15T09:03:51Z</time>
      </trkpt>
      <trkpt lat="46.84784" lon="0.42361">
        <ele>52.05</ele>
        <time>2023-10-15T09:03:53Z</time>
      </trkpt>
      <trkpt lat="46.84785" lon="0.42355">
        <ele>52.53</ele>
        <time>2023-10-15T09:03:54Z</time>
      </trkpt>
      <trkpt lat="46.84786" lon="0.42349">
        <ele>51.57</ele>
        <time>2023-10-15T09:03:55Z</time>
      </trkpt>
      <trkpt lat="46.84786" lon="0.42343">
        <ele>52.53</ele>
        <time>2023-10-15T09:03:56Z</time>
      </trkpt>
      <trkpt lat="46.84786" lon="0.42338">
        <ele>52.05</ele>
        <time>2023-10-15T09:03:57Z</time>
      </trkpt>
      <trkpt lat="46.84787" lon="0.42333">
        <ele>52.05</ele>
        <time>2023-10-15T09:03:58Z</time>
      </trkpt>
      <trkpt lat="46.84787" lon="0.42328">
        <ele>52.05</ele>
        <time>2023-10-15T09:03:59Z</time>
      </trkpt>
      <trkpt lat="46.84787" lon="0.42323">
        <ele>52.05</ele>
        <time>2023-10-15T09:04:00Z</time>
      </trkpt>
      <trkpt lat="46.84788" lon="0.42316">
        <ele>52.05</ele>
        <time>2023-10-15T09:04:01Z</time>
      </trkpt>
      <trkpt lat="46.84791" lon="0.42286">
        <ele>51.57</ele>
        <time>2023-10-15T09:04:06Z</time>
      </trkpt>
      <trkpt lat="46.84793" lon="0.4228">
        <ele>51.57</ele>
        <time>2023-10-15T09:04:07Z</time>
      </trkpt>
      <trkpt lat="46.84794" lon="0.42274">
        <ele>51.09</ele>
        <time>2023-10-15T09:04:08Z</time>
      </trkpt>
      <trkpt lat="46.84796" lon="0.42258">
        <ele>51.57</ele>
        <time>2023-10-15T09:04:12Z</time>
      </trkpt>
      <trkpt lat="46.84802" lon="0.42225">
        <ele>51.57</ele>
        <time>2023-10-15T09:04:18Z</time>
      </trkpt>
      <trkpt lat="46.84803" lon="0.42219">
        <ele>50.61</ele>
        <time>2023-10-15T09:04:19Z</time>
      </trkpt>
      <trkpt lat="46.84803" lon="0.42213">
        <ele>51.57</ele>
        <time>2023-10-15T09:04:20Z</time>
      </trkpt>
      <trkpt lat="46.84803" lon="0.42208">
        <ele>50.61</ele>
        <time>2023-10-15T09:04:21Z</time>
      </trkpt>
      <trkpt lat="46.84803" lon="0.42204">
        <ele>50.61</ele>
        <time>2023-10-15T09:04:22Z</time>
      </trkpt>
      <trkpt lat="46.84804" lon="0.42191">
        <ele>50.61</ele>
        <time>2023-10-15T09:04:25Z</time>
      </trkpt>
      <trkpt lat="46.84808" lon="0.42189">
        <ele>50.61</ele>
        <time>2023-10-15T09:04:26Z</time>
      </trkpt>
      <trkpt lat="46.84812" lon="0.42188">
        <ele>51.57</ele>
        <time>2023-10-15T09:04:27Z</time>
      </trkpt>
      <trkpt lat="46.84831" lon="0.42191">
        <ele>50.13</ele>
        <time>2023-10-15T09:04:32Z</time>
      </trkpt>
      <trkpt lat="46.84846" lon="0.4218">
        <ele>49.65</ele>
        <time>2023-10-15T09:04:36Z</time>
      </trkpt>
      <trkpt lat="46.84863" lon="0.42176">
        <ele>49.16</ele>
        <time>2023-10-15T09:04:40Z</time>
      </trkpt>
      <trkpt lat="46.84867" lon="0.42174">
        <ele>48.68</ele>
        <time>2023-10-15T09:04:41Z</time>
      </trkpt>
      <trkpt lat="46.8487" lon="0.42172">
        <ele>48.68</ele>
        <time>2023-10-15T09:04:42Z</time>
      </trkpt>
      <trkpt lat="46.84874" lon="0.42169">
        <ele>48.68</ele>
        <time>2023-10-15T09:04:43Z</time>
      </trkpt>
      <trkpt lat="46.84878" lon="0.42165">
        <ele>47.72</ele>
        <time>2023-10-15T09:04:44Z</time>
      </trkpt>
      <trkpt lat="46.84879" lon="0.42161">
        <ele>46.76</ele>
        <time>2023-10-15T09:04:45Z</time>
      </trkpt>
      <trkpt lat="46.84879" lon="0.42155">
        <ele>47.72</ele>
        <time>2023-10-15T09:04:46Z</time>
      </trkpt>
      <trkpt lat="46.84879" lon="0.4215">
        <ele>47.24</ele>
        <time>2023-10-15T09:04:47Z</time>
      </trkpt>
      <trkpt lat="46.8488" lon="0.42145">
        <ele>47.24</ele>
        <time>2023-10-15T09:04:48Z</time>
      </trkpt>
      <trkpt lat="46.84881" lon="0.42139">
        <ele>46.76</ele>
        <time>2023-10-15T09:04:49Z</time>
      </trkpt>
      <trkpt lat="46.84885" lon="0.42131">
        <ele>47.72</ele>
        <time>2023-10-15T09:04:51Z</time>
      </trkpt>
      <trkpt lat="46.84888" lon="0.42128">
        <ele>46.76</ele>
        <time>2023-10-15T09:04:52Z</time>
      </trkpt>
      <trkpt lat="46.84891" lon="0.42126">
        <ele>47.72</ele>
        <time>2023-10-15T09:04:53Z</time>
      </trkpt>
      <trkpt lat="46.84895" lon="0.42123">
        <ele>47.24</ele>
        <time>2023-10-15T09:04:54Z</time>
      </trkpt>
      <trkpt lat="46.84899" lon="0.42119">
        <ele>46.76</ele>
        <time>2023-10-15T09:04:55Z</time>
      </trkpt>
      <trkpt lat="46.84902" lon="0.42115">
        <ele>46.28</ele>
        <time>2023-10-15T09:04:56Z</time>
      </trkpt>
      <trkpt lat="46.84906" lon="0.4211">
        <ele>45.8</ele>
        <time>2023-10-15T09:04:57Z</time>
      </trkpt>
      <trkpt lat="46.84909" lon="0.42105">
        <ele>46.28</ele>
        <time>2023-10-15T09:04:58Z</time>
      </trkpt>
      <trkpt lat="46.84912" lon="0.421">
        <ele>45.8</ele>
        <time>2023-10-15T09:04:59Z</time>
      </trkpt>
      <trkpt lat="46.84915" lon="0.42094">
        <ele>46.28</ele>
        <time>2023-10-15T09:05:00Z</time>
      </trkpt>
      <trkpt lat="46.84917" lon="0.4209">
        <ele>46.28</ele>
        <time>2023-10-15T09:05:01Z</time>
      </trkpt>
      <trkpt lat="46.8492" lon="0.42085">
        <ele>44.36</ele>
        <time>2023-10-15T09:05:02Z</time>
      </trkpt>
      <trkpt lat="46.84922" lon="0.42082">
        <ele>44.84</ele>
        <time>2023-10-15T09:05:03Z</time>
      </trkpt>
      <trkpt lat="46.84925" lon="0.42078">
        <ele>43.88</ele>
        <time>2023-10-15T09:05:04Z</time>
      </trkpt>
      <trkpt lat="46.84928" lon="0.42074">
        <ele>43.88</ele>
        <time>2023-10-15T09:05:05Z</time>
      </trkpt>
      <trkpt lat="46.84938" lon="0.4206">
        <ele>41.95</ele>
        <time>2023-10-15T09:05:09Z</time>
      </trkpt>
      <trkpt lat="46.84939" lon="0.42055">
        <ele>42.44</ele>
        <time>2023-10-15T09:05:10Z</time>
      </trkpt>
      <trkpt lat="46.8494" lon="0.4205">
        <ele>41.95</ele>
        <time>2023-10-15T09:05:11Z</time>
      </trkpt>
      <trkpt lat="46.84943" lon="0.42046">
        <ele>41.95</ele>
        <time>2023-10-15T09:05:12Z</time>
      </trkpt>
      <trkpt lat="46.84945" lon="0.42041">
        <ele>41.47</ele>
        <time>2023-10-15T09:05:13Z</time>
      </trkpt>
      <trkpt lat="46.84947" lon="0.42036">
        <ele>40.51</ele>
        <time>2023-10-15T09:05:14Z</time>
      </trkpt>
      <trkpt lat="46.8495" lon="0.42031">
        <ele>40.51</ele>
        <time>2023-10-15T09:05:15Z</time>
      </trkpt>
      <trkpt lat="46.84954" lon="0.42027">
        <ele>40.03</ele>
        <time>2023-10-15T09:05:16Z</time>
      </trkpt>
      <trkpt lat="46.84958" lon="0.42023">
        <ele>39.55</ele>
        <time>2023-10-15T09:05:17Z</time>
      </trkpt>
      <trkpt lat="46.84961" lon="0.42019">
        <ele>39.55</ele>
        <time>2023-10-15T09:05:18Z</time>
      </trkpt>
      <trkpt lat="46.84964" lon="0.42014">
        <ele>38.11</ele>
        <time>2023-10-15T09:05:19Z</time>
      </trkpt>
      <trkpt lat="46.84976" lon="0.41988">
        <ele>38.11</ele>
        <time>2023-10-15T09:05:24Z</time>
      </trkpt>
      <trkpt lat="46.84982" lon="0.41978">
        <ele>36.67</ele>
        <time>2023-10-15T09:05:26Z</time>
      </trkpt>
      <trkpt lat="46.84986" lon="0.41973">
        <ele>36.67</ele>
        <time>2023-10-15T09:05:27Z</time>
      </trkpt>
      <trkpt lat="46.8499" lon="0.41967">
        <ele>36.19</ele>
        <time>2023-10-15T09:05:28Z</time>
      </trkpt>
      <trkpt lat="46.84994" lon="0.41961">
        <ele>36.19</ele>
        <time>2023-10-15T09:05:29Z</time>
      </trkpt>
      <trkpt lat="46.84996" lon="0.41955">
        <ele>34.74</ele>
        <time>2023-10-15T09:05:30Z</time>
      </trkpt>
      <trkpt lat="46.84997" lon="0.41949">
        <ele>34.74</ele>
        <time>2023-10-15T09:05:31Z</time>
      </trkpt>
      <trkpt lat="46.84999" lon="0.41942">
        <ele>34.26</ele>
        <time>2023-10-15T09:05:32Z</time>
      </trkpt>
      <trkpt lat="46.85012" lon="0.419">
        <ele>32.82</ele>
        <time>2023-10-15T09:05:38Z</time>
      </trkpt>
      <trkpt lat="46.85014" lon="0.41893">
        <ele>33.78</ele>
        <time>2023-10-15T09:05:39Z</time>
      </trkpt>
      <trkpt lat="46.85015" lon="0.41887">
        <ele>31.86</ele>
        <time>2023-10-15T09:05:40Z</time>
      </trkpt>
      <trkpt lat="46.85014" lon="0.41883">
        <ele>31.86</ele>
        <time>2023-10-15T09:05:41Z</time>
      </trkpt>
      <trkpt lat="46.85012" lon="0.41879">
        <ele>31.86</ele>
        <time>2023-10-15T09:05:42Z</time>
      </trkpt>
      <trkpt lat="46.8501" lon="0.41877">
        <ele>33.3</ele>
        <time>2023-10-15T09:05:43Z</time>
      </trkpt>
      <trkpt lat="46.85009" lon="0.41874">
        <ele>32.82</ele>
        <time>2023-10-15T09:05:44Z</time>
      </trkpt>
      <trkpt lat="46.85009" lon="0.41871">
        <ele>33.78</ele>
        <time>2023-10-15T09:05:45Z</time>
      </trkpt>
      <trkpt lat="46.85008" lon="0.41868">
        <ele>32.34</ele>
        <time>2023-10-15T09:05:46Z</time>
      </trkpt>
      <trkpt lat="46.85009" lon="0.41866">
        <ele>33.3</ele>
        <time>2023-10-15T09:05:47Z</time>
      </trkpt>
      <trkpt lat="46.85015" lon="0.41858">
        <ele>32.82</ele>
        <time>2023-10-15T09:05:49Z</time>
      </trkpt>
      <trkpt lat="46.85016" lon="0.41854">
        <ele>32.82</ele>
        <time>2023-10-15T09:05:50Z</time>
      </trkpt>
      <trkpt lat="46.85015" lon="0.41851">
        <ele>32.34</ele>
        <time>2023-10-15T09:05:51Z</time>
      </trkpt>
      <trkpt lat="46.85014" lon="0.41847">
        <ele>32.34</ele>
        <time>2023-10-15T09:05:52Z</time>
      </trkpt>
      <trkpt lat="46.85014" lon="0.41843">
        <ele>31.86</ele>
        <time>2023-10-15T09:05:53Z</time>
      </trkpt>
      <trkpt lat="46.85014" lon="0.41839">
        <ele>31.86</ele>
        <time>2023-10-15T09:05:54Z</time>
      </trkpt>
      <trkpt lat="46.85014" lon="0.41834">
        <ele>31.86</ele>
        <time>2023-10-15T09:05:55Z</time>
      </trkpt>
      <trkpt lat="46.85014" lon="0.41828">
        <ele>31.86</ele>
        <time>2023-10-15T09:05:56Z</time>
      </trkpt>
      <trkpt lat="46.85013" lon="0.41823">
        <ele>31.86</ele>
        <time>2023-10-15T09:05:57Z</time>
      </trkpt>
      <trkpt lat="46.85012" lon="0.41817">
        <ele>32.34</ele>
        <time>2023-10-15T09:05:58Z</time>
      </trkpt>
      <trkpt lat="46.8501" lon="0.41804">
        <ele>31.38</ele>
        <time>2023-10-15T09:06:00Z</time>
      </trkpt>
      <trkpt lat="46.85009" lon="0.41798">
        <ele>30.9</ele>
        <time>2023-10-15T09:06:01Z</time>
      </trkpt>
      <trkpt lat="46.8501" lon="0.4179">
        <ele>30.42</ele>
        <time>2023-10-15T09:06:02Z</time>
      </trkpt>
      <trkpt lat="46.85011" lon="0.41783">
        <ele>30.42</ele>
        <time>2023-10-15T09:06:03Z</time>
      </trkpt>
      <trkpt lat="46.85013" lon="0.41776">
        <ele>29.94</ele>
        <time>2023-10-15T09:06:04Z</time>
      </trkpt>
      <trkpt lat="46.85014" lon="0.4177">
        <ele>30.42</ele>
        <time>2023-10-15T09:06:05Z</time>
      </trkpt>
      <trkpt lat="46.85014" lon="0.41763">
        <ele>29.46</ele>
        <time>2023-10-15T09:06:06Z</time>
      </trkpt>
      <trkpt lat="46.85015" lon="0.41756">
        <ele>29.46</ele>
        <time>2023-10-15T09:06:07Z</time>
      </trkpt>
      <trkpt lat="46.85016" lon="0.4175">
        <ele>28.98</ele>
        <time>2023-10-15T09:06:08Z</time>
      </trkpt>
      <trkpt lat="46.85017" lon="0.41744">
        <ele>28.98</ele>
        <time>2023-10-15T09:06:09Z</time>
      </trkpt>
      <trkpt lat="46.85016" lon="0.41738">
        <ele>28.5</ele>
        <time>2023-10-15T09:06:10Z</time>
      </trkpt>
      <trkpt lat="46.85015" lon="0.41734">
        <ele>29.94</ele>
        <time>2023-10-15T09:06:11Z</time>
      </trkpt>
      <trkpt lat="46.85014" lon="0.41731">
        <ele>29.94</ele>
        <time>2023-10-15T09:06:12Z</time>
      </trkpt>
      <trkpt lat="46.8501" lon="0.41723">
        <ele>29.46</ele>
        <time>2023-10-15T09:06:14Z</time>
      </trkpt>
      <trkpt lat="46.85011" lon="0.41719">
        <ele>29.94</ele>
        <time>2023-10-15T09:06:15Z</time>
      </trkpt>
      <trkpt lat="46.85013" lon="0.41716">
        <ele>29.46</ele>
        <time>2023-10-15T09:06:16Z</time>
      </trkpt>
      <trkpt lat="46.85025" lon="0.41693">
        <ele>27.05</ele>
        <time>2023-10-15T09:06:21Z</time>
      </trkpt>
      <trkpt lat="46.85023" lon="0.41689">
        <ele>26.57</ele>
        <time>2023-10-15T09:06:22Z</time>
      </trkpt>
      <trkpt lat="46.85013" lon="0.4168">
        <ele>28.02</ele>
        <time>2023-10-15T09:06:27Z</time>
      </trkpt>
      <trkpt lat="46.85" lon="0.41674">
        <ele>29.94</ele>
        <time>2023-10-15T09:06:33Z</time>
      </trkpt>
      <trkpt lat="46.84992" lon="0.41672">
        <ele>31.38</ele>
        <time>2023-10-15T09:06:38Z</time>
      </trkpt>
      <trkpt lat="46.84988" lon="0.41671">
        <ele>32.82</ele>
        <time>2023-10-15T09:06:40Z</time>
      </trkpt>
      <trkpt lat="46.84982" lon="0.4167">
        <ele>34.74</ele>
        <time>2023-10-15T09:06:43Z</time>
      </trkpt>
      <trkpt lat="46.84968" lon="0.41672">
        <ele>36.67</ele>
        <time>2023-10-15T09:06:51Z</time>
      </trkpt>
      <trkpt lat="46.84954" lon="0.4167">
        <ele>36.19</ele>
        <time>2023-10-15T09:06:58Z</time>
      </trkpt>
      <trkpt lat="46.84954" lon="0.4167">
        <ele>37.15</ele>
        <time>2023-10-15T09:06:59Z</time>
      </trkpt>
      <trkpt lat="46.84944" lon="0.41673">
        <ele>38.11</ele>
        <time>2023-10-15T09:07:05Z</time>
      </trkpt>
      <trkpt lat="46.84932" lon="0.41666">
        <ele>40.51</ele>
        <time>2023-10-15T09:07:14Z</time>
      </trkpt>
      <trkpt lat="46.84922" lon="0.41656">
        <ele>40.51</ele>
        <time>2023-10-15T09:07:23Z</time>
      </trkpt>
      <trkpt lat="46.84916" lon="0.41648">
        <ele>42.92</ele>
        <time>2023-10-15T09:07:30Z</time>
      </trkpt>
      <trkpt lat="46.84915" lon="0.41647">
        <ele>42.44</ele>
        <time>2023-10-15T09:07:31Z</time>
      </trkpt>
      <trkpt lat="46.84911" lon="0.41643">
        <ele>41.47</ele>
        <time>2023-10-15T09:07:38Z</time>
      </trkpt>
      <trkpt lat="46.84911" lon="0.41643">
        <ele>42.92</ele>
        <time>2023-10-15T09:07:57Z</time>
      </trkpt>
      <trkpt lat="46.8491" lon="0.41641">
        <ele>42.44</ele>
        <time>2023-10-15T09:08:04Z</time>
      </trkpt>
      <trkpt lat="46.84907" lon="0.41641">
        <ele>42.44</ele>
        <time>2023-10-15T09:08:06Z</time>
      </trkpt>
      <trkpt lat="46.84901" lon="0.41643">
        <ele>43.88</ele>
        <time>2023-10-15T09:08:10Z</time>
      </trkpt>
      <trkpt lat="46.84899" lon="0.41655">
        <ele>44.36</ele>
        <time>2023-10-15T09:08:15Z</time>
      </trkpt>
      <trkpt lat="46.84899" lon="0.41659">
        <ele>44.84</ele>
        <time>2023-10-15T09:08:16Z</time>
      </trkpt>
      <trkpt lat="46.849" lon="0.41673">
        <ele>43.88</ele>
        <time>2023-10-15T09:08:20Z</time>
      </trkpt>
      <trkpt lat="46.84907" lon="0.41677">
        <ele>43.88</ele>
        <time>2023-10-15T09:08:24Z</time>
      </trkpt>
      <trkpt lat="46.84908" lon="0.41696">
        <ele>42.92</ele>
        <time>2023-10-15T09:08:29Z</time>
      </trkpt>
      <trkpt lat="46.84904" lon="0.41705">
        <ele>42.44</ele>
        <time>2023-10-15T09:08:32Z</time>
      </trkpt>
      <trkpt lat="46.84904" lon="0.41713">
        <ele>41.95</ele>
        <time>2023-10-15T09:08:34Z</time>
      </trkpt>
      <trkpt lat="46.84899" lon="0.41728">
        <ele>42.92</ele>
        <time>2023-10-15T09:08:39Z</time>
      </trkpt>
      <trkpt lat="46.84896" lon="0.41729">
        <ele>42.92</ele>
        <time>2023-10-15T09:08:43Z</time>
      </trkpt>
      <trkpt lat="46.84895" lon="0.41731">
        <ele>44.36</ele>
        <time>2023-10-15T09:08:45Z</time>
      </trkpt>
      <trkpt lat="46.84887" lon="0.41731">
        <ele>43.88</ele>
        <time>2023-10-15T09:08:49Z</time>
      </trkpt>
      <trkpt lat="46.84875" lon="0.41723">
        <ele>44.84</ele>
        <time>2023-10-15T09:08:54Z</time>
      </trkpt>
      <trkpt lat="46.84871" lon="0.41724">
        <ele>46.28</ele>
        <time>2023-10-15T09:08:56Z</time>
      </trkpt>
      <trkpt lat="46.84867" lon="0.41726">
        <ele>45.8</ele>
        <time>2023-10-15T09:08:58Z</time>
      </trkpt>
      <trkpt lat="46.84862" lon="0.41743">
        <ele>46.76</ele>
        <time>2023-10-15T09:09:04Z</time>
      </trkpt>
      <trkpt lat="46.84856" lon="0.41764">
        <ele>46.76</ele>
        <time>2023-10-15T09:09:09Z</time>
      </trkpt>
      <trkpt lat="46.84856" lon="0.41774">
        <ele>47.24</ele>
        <time>2023-10-15T09:09:11Z</time>
      </trkpt>
      <trkpt lat="46.84851" lon="0.41793">
        <ele>46.28</ele>
        <time>2023-10-15T09:09:16Z</time>
      </trkpt>
      <trkpt lat="46.84851" lon="0.418">
        <ele>47.24</ele>
        <time>2023-10-15T09:09:18Z</time>
      </trkpt>
      <trkpt lat="46.84867" lon="0.41803">
        <ele>46.28</ele>
        <time>2023-10-15T09:09:23Z</time>
      </trkpt>
      <trkpt lat="46.84873" lon="0.41807">
        <ele>46.28</ele>
        <time>2023-10-15T09:09:25Z</time>
      </trkpt>
      <trkpt lat="46.84872" lon="0.41837">
        <ele>45.32</ele>
        <time>2023-10-15T09:09:31Z</time>
      </trkpt>
      <trkpt lat="46.84871" lon="0.4186">
        <ele>45.32</ele>
        <time>2023-10-15T09:09:36Z</time>
      </trkpt>
      <trkpt lat="46.84866" lon="0.41884">
        <ele>47.72</ele>
        <time>2023-10-15T09:09:41Z</time>
      </trkpt>
      <trkpt lat="46.84856" lon="0.41893">
        <ele>46.28</ele>
        <time>2023-10-15T09:09:45Z</time>
      </trkpt>
      <trkpt lat="46.84852" lon="0.4189">
        <ele>46.76</ele>
        <time>2023-10-15T09:09:47Z</time>
      </trkpt>
      <trkpt lat="46.84839" lon="0.41875">
        <ele>47.72</ele>
        <time>2023-10-15T09:09:54Z</time>
      </trkpt>
      <trkpt lat="46.84833" lon="0.41868">
        <ele>46.76</ele>
        <time>2023-10-15T09:09:57Z</time>
      </trkpt>
      <trkpt lat="46.84814" lon="0.41864">
        <ele>48.68</ele>
        <time>2023-10-15T09:10:03Z</time>
      </trkpt>
      <trkpt lat="46.84797" lon="0.41851">
        <ele>48.68</ele>
        <time>2023-10-15T09:10:08Z</time>
      </trkpt>
      <trkpt lat="46.84786" lon="0.41854">
        <ele>47.72</ele>
        <time>2023-10-15T09:10:12Z</time>
      </trkpt>
      <trkpt lat="46.8477" lon="0.41848">
        <ele>47.24</ele>
        <time>2023-10-15T09:10:17Z</time>
      </trkpt>
      <trkpt lat="46.8476" lon="0.41858">
        <ele>47.24</ele>
        <time>2023-10-15T09:10:21Z</time>
      </trkpt>
      <trkpt lat="46.8475" lon="0.41865">
        <ele>46.76</ele>
        <time>2023-10-15T09:10:24Z</time>
      </trkpt>
      <trkpt lat="46.84733" lon="0.41866">
        <ele>46.28</ele>
        <time>2023-10-15T09:10:28Z</time>
      </trkpt>
      <trkpt lat="46.8473" lon="0.4187">
        <ele>46.28</ele>
        <time>2023-10-15T09:10:29Z</time>
      </trkpt>
      <trkpt lat="46.84729" lon="0.41875">
        <ele>45.8</ele>
        <time>2023-10-15T09:10:30Z</time>
      </trkpt>
      <trkpt lat="46.84727" lon="0.4188">
        <ele>45.8</ele>
        <time>2023-10-15T09:10:31Z</time>
      </trkpt>
      <trkpt lat="46.84725" lon="0.41891">
        <ele>46.28</ele>
        <time>2023-10-15T09:10:33Z</time>
      </trkpt>
      <trkpt lat="46.84718" lon="0.41929">
        <ele>46.76</ele>
        <time>2023-10-15T09:10:40Z</time>
      </trkpt>
      <trkpt lat="46.84709" lon="0.41968">
        <ele>48.68</ele>
        <time>2023-10-15T09:10:47Z</time>
      </trkpt>
      <trkpt lat="46.84708" lon="0.41973">
        <ele>47.72</ele>
        <time>2023-10-15T09:10:48Z</time>
      </trkpt>
      <trkpt lat="46.84701" lon="0.41981">
        <ele>47.72</ele>
        <time>2023-10-15T09:10:51Z</time>
      </trkpt>
      <trkpt lat="46.84687" lon="0.41984">
        <ele>47.72</ele>
        <time>2023-10-15T09:10:56Z</time>
      </trkpt>
      <trkpt lat="46.84677" lon="0.41991">
        <ele>47.24</ele>
        <time>2023-10-15T09:11:00Z</time>
      </trkpt>
      <trkpt lat="46.84664" lon="0.41984">
        <ele>45.8</ele>
        <time>2023-10-15T09:11:04Z</time>
      </trkpt>
      <trkpt lat="46.8465" lon="0.41972">
        <ele>44.84</ele>
        <time>2023-10-15T09:11:08Z</time>
      </trkpt>
      <trkpt lat="46.84649" lon="0.41966">
        <ele>43.88</ele>
        <time>2023-10-15T09:11:09Z</time>
      </trkpt>
      <trkpt lat="46.84648" lon="0.4196">
        <ele>43.4</ele>
        <time>2023-10-15T09:11:10Z</time>
      </trkpt>
      <trkpt lat="46.84644" lon="0.41942">
        <ele>40.99</ele>
        <time>2023-10-15T09:11:14Z</time>
      </trkpt>
      <trkpt lat="46.84642" lon="0.41939">
        <ele>41.47</ele>
        <time>2023-10-15T09:11:15Z</time>
      </trkpt>
      <trkpt lat="46.84633" lon="0.41938">
        <ele>39.55</ele>
        <time>2023-10-15T09:11:18Z</time>
      </trkpt>
      <trkpt lat="46.84629" lon="0.41939">
        <ele>39.55</ele>
        <time>2023-10-15T09:11:19Z</time>
      </trkpt>
      <trkpt lat="46.84617" lon="0.41939">
        <ele>38.11</ele>
        <time>2023-10-15T09:11:22Z</time>
      </trkpt>
      <trkpt lat="46.84608" lon="0.41946">
        <ele>39.07</ele>
        <time>2023-10-15T09:11:25Z</time>
      </trkpt>
      <trkpt lat="46.84603" lon="0.41955">
        <ele>39.07</ele>
        <time>2023-10-15T09:11:30Z</time>
      </trkpt>
      <trkpt lat="46.846" lon="0.41962">
        <ele>40.51</ele>
        <time>2023-10-15T09:11:34Z</time>
      </trkpt>
      <trkpt lat="46.8459" lon="0.41971">
        <ele>40.99</ele>
        <time>2023-10-15T09:11:37Z</time>
      </trkpt>
      <trkpt lat="46.84579" lon="0.41991">
        <ele>40.99</ele>
        <time>2023-10-15T09:11:43Z</time>
      </trkpt>
      <trkpt lat="46.84577" lon="0.41997">
        <ele>41.95</ele>
        <time>2023-10-15T09:11:45Z</time>
      </trkpt>
      <trkpt lat="46.84573" lon="0.42006">
        <ele>42.44</ele>
        <time>2023-10-15T09:11:48Z</time>
      </trkpt>
      <trkpt lat="46.84573" lon="0.42025">
        <ele>42.92</ele>
        <time>2023-10-15T09:11:55Z</time>
      </trkpt>
      <trkpt lat="46.84573" lon="0.42032">
        <ele>41.95</ele>
        <time>2023-10-15T09:11:57Z</time>
      </trkpt>
      <trkpt lat="46.84576" lon="0.42041">
        <ele>43.4</ele>
        <time>2023-10-15T09:12:00Z</time>
      </trkpt>
      <trkpt lat="46.8457" lon="0.42058">
        <ele>42.92</ele>
        <time>2023-10-15T09:12:06Z</time>
      </trkpt>
      <trkpt lat="46.8457" lon="0.42063">
        <ele>42.44</ele>
        <time>2023-10-15T09:12:07Z</time>
      </trkpt>
      <trkpt lat="46.84569" lon="0.42071">
        <ele>42.92</ele>
        <time>2023-10-15T09:12:09Z</time>
      </trkpt>
      <trkpt lat="46.84573" lon="0.42089">
        <ele>44.36</ele>
        <time>2023-10-15T09:12:14Z</time>
      </trkpt>
      <trkpt lat="46.8458" lon="0.42109">
        <ele>45.32</ele>
        <time>2023-10-15T09:12:22Z</time>
      </trkpt>
      <trkpt lat="46.8458" lon="0.42112">
        <ele>46.28</ele>
        <time>2023-10-15T09:12:23Z</time>
      </trkpt>
      <trkpt lat="46.84578" lon="0.42118">
        <ele>44.36</ele>
        <time>2023-10-15T09:12:28Z</time>
      </trkpt>
      <trkpt lat="46.84571" lon="0.4212">
        <ele>43.4</ele>
        <time>2023-10-15T09:12:32Z</time>
      </trkpt>
      <trkpt lat="46.84566" lon="0.42122">
        <ele>40.03</ele>
        <time>2023-10-15T09:12:36Z</time>
      </trkpt>
      <trkpt lat="46.84558" lon="0.42127">
        <ele>36.19</ele>
        <time>2023-10-15T09:12:41Z</time>
      </trkpt>
      <trkpt lat="46.84555" lon="0.4213">
        <ele>34.74</ele>
        <time>2023-10-15T09:12:43Z</time>
      </trkpt>
      <trkpt lat="46.84554" lon="0.42132">
        <ele>34.74</ele>
        <time>2023-10-15T09:12:44Z</time>
      </trkpt>
      <trkpt lat="46.84552" lon="0.42143">
        <ele>35.23</ele>
        <time>2023-10-15T09:12:48Z</time>
      </trkpt>
      <trkpt lat="46.84555" lon="0.42152">
        <ele>34.26</ele>
        <time>2023-10-15T09:12:53Z</time>
      </trkpt>
      <trkpt lat="46.84554" lon="0.42159">
        <ele>34.26</ele>
        <time>2023-10-15T09:12:56Z</time>
      </trkpt>
      <trkpt lat="46.84556" lon="0.42179">
        <ele>32.82</ele>
        <time>2023-10-15T09:13:01Z</time>
      </trkpt>
      <trkpt lat="46.84555" lon="0.422">
        <ele>32.82</ele>
        <time>2023-10-15T09:13:06Z</time>
      </trkpt>
      <trkpt lat="46.84552" lon="0.42214">
        <ele>32.82</ele>
        <time>2023-10-15T09:13:09Z</time>
      </trkpt>
      <trkpt lat="46.84539" lon="0.42214">
        <ele>32.34</ele>
        <time>2023-10-15T09:13:14Z</time>
      </trkpt>
      <trkpt lat="46.84524" lon="0.42209">
        <ele>32.34</ele>
        <time>2023-10-15T09:13:19Z</time>
      </trkpt>
      <trkpt lat="46.84501" lon="0.42216">
        <ele>32.82</ele>
        <time>2023-10-15T09:13:24Z</time>
      </trkpt>
      <trkpt lat="46.84482" lon="0.42224">
        <ele>32.82</ele>
        <time>2023-10-15T09:13:30Z</time>
      </trkpt>
      <trkpt lat="46.84469" lon="0.42234">
        <ele>32.82</ele>
        <time>2023-10-15T09:13:34Z</time>
      </trkpt>
      <trkpt lat="46.84465" lon="0.42245">
        <ele>33.3</ele>
        <time>2023-10-15T09:13:37Z</time>
      </trkpt>
      <trkpt lat="46.84458" lon="0.42259">
        <ele>34.74</ele>
        <time>2023-10-15T09:13:41Z</time>
      </trkpt>
      <trkpt lat="46.84456" lon="0.42265">
        <ele>34.74</ele>
        <time>2023-10-15T09:13:43Z</time>
      </trkpt>
      <trkpt lat="46.8445" lon="0.42275">
        <ele>35.23</ele>
        <time>2023-10-15T09:13:47Z</time>
      </trkpt>
      <trkpt lat="46.84444" lon="0.42285">
        <ele>36.67</ele>
        <time>2023-10-15T09:13:53Z</time>
      </trkpt>
      <trkpt lat="46.84437" lon="0.42292">
        <ele>37.15</ele>
        <time>2023-10-15T09:13:59Z</time>
      </trkpt>
      <trkpt lat="46.84433" lon="0.42294">
        <ele>37.63</ele>
        <time>2023-10-15T09:14:02Z</time>
      </trkpt>
      <trkpt lat="46.84424" lon="0.42298">
        <ele>39.07</ele>
        <time>2023-10-15T09:14:07Z</time>
      </trkpt>
      <trkpt lat="46.84423" lon="0.42299">
        <ele>39.07</ele>
        <time>2023-10-15T09:14:08Z</time>
      </trkpt>
      <trkpt lat="46.84417" lon="0.42305">
        <ele>39.07</ele>
        <time>2023-10-15T09:14:11Z</time>
      </trkpt>
      <trkpt lat="46.84413" lon="0.42321">
        <ele>37.63</ele>
        <time>2023-10-15T09:14:18Z</time>
      </trkpt>
      <trkpt lat="46.84408" lon="0.42328">
        <ele>39.07</ele>
        <time>2023-10-15T09:14:22Z</time>
      </trkpt>
      <trkpt lat="46.84399" lon="0.42336">
        <ele>40.99</ele>
        <time>2023-10-15T09:14:29Z</time>
      </trkpt>
      <trkpt lat="46.84398" lon="0.4234">
        <ele>41.47</ele>
        <time>2023-10-15T09:14:32Z</time>
      </trkpt>
      <trkpt lat="46.84396" lon="0.42343">
        <ele>42.44</ele>
        <time>2023-10-15T09:14:34Z</time>
      </trkpt>
      <trkpt lat="46.84392" lon="0.42353">
        <ele>41.95</ele>
        <time>2023-10-15T09:14:38Z</time>
      </trkpt>
      <trkpt lat="46.84385" lon="0.4237">
        <ele>41.47</ele>
        <time>2023-10-15T09:14:44Z</time>
      </trkpt>
      <trkpt lat="46.84378" lon="0.42385">
        <ele>42.44</ele>
        <time>2023-10-15T09:14:49Z</time>
      </trkpt>
      <trkpt lat="46.84376" lon="0.42387">
        <ele>41.95</ele>
        <time>2023-10-15T09:14:51Z</time>
      </trkpt>
      <trkpt lat="46.84375" lon="0.42389">
        <ele>42.44</ele>
        <time>2023-10-15T09:14:52Z</time>
      </trkpt>
      <trkpt lat="46.84372" lon="0.42403">
        <ele>43.4</ele>
        <time>2023-10-15T09:14:57Z</time>
      </trkpt>
      <trkpt lat="46.84367" lon="0.42413">
        <ele>43.4</ele>
        <time>2023-10-15T09:15:01Z</time>
      </trkpt>
      <trkpt lat="46.84366" lon="0.42416">
        <ele>43.88</ele>
        <time>2023-10-15T09:15:02Z</time>
      </trkpt>
      <trkpt lat="46.84361" lon="0.42428">
        <ele>44.36</ele>
        <time>2023-10-15T09:15:08Z</time>
      </trkpt>
      <trkpt lat="46.84359" lon="0.42434">
        <ele>44.36</ele>
        <time>2023-10-15T09:15:10Z</time>
      </trkpt>
      <trkpt lat="46.84353" lon="0.42452">
        <ele>44.84</ele>
        <time>2023-10-15T09:15:17Z</time>
      </trkpt>
      <trkpt lat="46.84342" lon="0.42456">
        <ele>46.28</ele>
        <time>2023-10-15T09:15:24Z</time>
      </trkpt>
      <trkpt lat="46.8434" lon="0.42457">
        <ele>46.28</ele>
        <time>2023-10-15T09:15:25Z</time>
      </trkpt>
      <trkpt lat="46.84339" lon="0.42458">
        <ele>46.76</ele>
        <time>2023-10-15T09:15:26Z</time>
      </trkpt>
      <trkpt lat="46.84334" lon="0.42476">
        <ele>46.28</ele>
        <time>2023-10-15T09:15:32Z</time>
      </trkpt>
      <trkpt lat="46.84332" lon="0.42482">
        <ele>46.76</ele>
        <time>2023-10-15T09:15:34Z</time>
      </trkpt>
      <trkpt lat="46.8433" lon="0.42496">
        <ele>46.28</ele>
        <time>2023-10-15T09:15:38Z</time>
      </trkpt>
      <trkpt lat="46.84328" lon="0.42501">
        <ele>46.28</ele>
        <time>2023-10-15T09:15:40Z</time>
      </trkpt>
      <trkpt lat="46.84326" lon="0.42519">
        <ele>46.76</ele>
        <time>2023-10-15T09:15:47Z</time>
      </trkpt>
      <trkpt lat="46.84325" lon="0.4253">
        <ele>47.72</ele>
        <time>2023-10-15T09:15:52Z</time>
      </trkpt>
      <trkpt lat="46.84324" lon="0.4254">
        <ele>48.68</ele>
        <time>2023-10-15T09:15:58Z</time>
      </trkpt>
      <trkpt lat="46.8432" lon="0.42547">
        <ele>48.2</ele>
        <time>2023-10-15T09:16:02Z</time>
      </trkpt>
      <trkpt lat="46.8432" lon="0.42549">
        <ele>49.65</ele>
        <time>2023-10-15T09:16:03Z</time>
      </trkpt>
      <trkpt lat="46.84319" lon="0.42556">
        <ele>49.65</ele>
        <time>2023-10-15T09:16:06Z</time>
      </trkpt>
      <trkpt lat="46.84313" lon="0.42565">
        <ele>50.13</ele>
        <time>2023-10-15T09:16:11Z</time>
      </trkpt>
      <trkpt lat="46.84311" lon="0.4258">
        <ele>51.57</ele>
        <time>2023-10-15T09:16:17Z</time>
      </trkpt>
      <trkpt lat="46.84313" lon="0.42587">
        <ele>51.57</ele>
        <time>2023-10-15T09:16:21Z</time>
      </trkpt>
      <trkpt lat="46.84315" lon="0.426">
        <ele>51.09</ele>
        <time>2023-10-15T09:16:26Z</time>
      </trkpt>
      <trkpt lat="46.84316" lon="0.42604">
        <ele>52.05</ele>
        <time>2023-10-15T09:16:28Z</time>
      </trkpt>
      <trkpt lat="46.84297" lon="0.42608">
        <ele>53.01</ele>
        <time>2023-10-15T09:16:36Z</time>
      </trkpt>
      <trkpt lat="46.84278" lon="0.42604">
        <ele>53.49</ele>
        <time>2023-10-15T09:16:42Z</time>
      </trkpt>
      <trkpt lat="46.84265" lon="0.42598">
        <ele>53.97</ele>
        <time>2023-10-15T09:16:47Z</time>
      </trkpt>
      <trkpt lat="46.84251" lon="0.42595">
        <ele>55.41</ele>
        <time>2023-10-15T09:16:52Z</time>
      </trkpt>
      <trkpt lat="46.84234" lon="0.42592">
        <ele>55.41</ele>
        <time>2023-10-15T09:16:57Z</time>
      </trkpt>
      <trkpt lat="46.84211" lon="0.42585">
        <ele>55.89</ele>
        <time>2023-10-15T09:17:04Z</time>
      </trkpt>
      <trkpt lat="46.84207" lon="0.42584">
        <ele>55.89</ele>
        <time>2023-10-15T09:17:05Z</time>
      </trkpt>
      <trkpt lat="46.84183" lon="0.42574">
        <ele>56.37</ele>
        <time>2023-10-15T09:17:12Z</time>
      </trkpt>
      <trkpt lat="46.84158" lon="0.42558">
        <ele>56.37</ele>
        <time>2023-10-15T09:17:19Z</time>
      </trkpt>
      <trkpt lat="46.84141" lon="0.42547">
        <ele>55.41</ele>
        <time>2023-10-15T09:17:24Z</time>
      </trkpt>
      <trkpt lat="46.84115" lon="0.42526">
        <ele>56.86</ele>
        <time>2023-10-15T09:17:31Z</time>
      </trkpt>
      <trkpt lat="46.84098" lon="0.42511">
        <ele>56.37</ele>
        <time>2023-10-15T09:17:36Z</time>
      </trkpt>
      <trkpt lat="46.84094" lon="0.42509">
        <ele>56.86</ele>
        <time>2023-10-15T09:17:37Z</time>
      </trkpt>
      <trkpt lat="46.84068" lon="0.42493">
        <ele>55.89</ele>
        <time>2023-10-15T09:17:43Z</time>
      </trkpt>
      <trkpt lat="46.84065" lon="0.4249">
        <ele>55.89</ele>
        <time>2023-10-15T09:17:44Z</time>
      </trkpt>
      <trkpt lat="46.8406" lon="0.42487">
        <ele>55.89</ele>
        <time>2023-10-15T09:17:45Z</time>
      </trkpt>
      <trkpt lat="46.84056" lon="0.42483">
        <ele>55.89</ele>
        <time>2023-10-15T09:17:46Z</time>
      </trkpt>
      <trkpt lat="46.84052" lon="0.42479">
        <ele>55.41</ele>
        <time>2023-10-15T09:17:47Z</time>
      </trkpt>
      <trkpt lat="46.84048" lon="0.42475">
        <ele>55.41</ele>
        <time>2023-10-15T09:17:48Z</time>
      </trkpt>
      <trkpt lat="46.84017" lon="0.42452">
        <ele>55.41</ele>
        <time>2023-10-15T09:17:54Z</time>
      </trkpt>
      <trkpt lat="46.8398" lon="0.42424">
        <ele>52.05</ele>
        <time>2023-10-15T09:18:01Z</time>
      </trkpt>
      <trkpt lat="46.83968" lon="0.42416">
        <ele>51.57</ele>
        <time>2023-10-15T09:18:03Z</time>
      </trkpt>
      <trkpt lat="46.83948" lon="0.42401">
        <ele>49.65</ele>
        <time>2023-10-15T09:18:06Z</time>
      </trkpt>
      <trkpt lat="46.83918" lon="0.42374">
        <ele>46.28</ele>
        <time>2023-10-15T09:18:10Z</time>
      </trkpt>
      <trkpt lat="46.83898" lon="0.42352">
        <ele>47.24</ele>
        <time>2023-10-15T09:18:14Z</time>
      </trkpt>
      <trkpt lat="46.83891" lon="0.42343">
        <ele>48.2</ele>
        <time>2023-10-15T09:18:17Z</time>
      </trkpt>
      <trkpt lat="46.8389" lon="0.4234">
        <ele>49.65</ele>
        <time>2023-10-15T09:18:18Z</time>
      </trkpt>
      <trkpt lat="46.83888" lon="0.42338">
        <ele>47.72</ele>
        <time>2023-10-15T09:18:19Z</time>
      </trkpt>
      <trkpt lat="46.83886" lon="0.42336">
        <ele>49.16</ele>
        <time>2023-10-15T09:18:20Z</time>
      </trkpt>
      <trkpt lat="46.83883" lon="0.42334">
        <ele>50.13</ele>
        <time>2023-10-15T09:18:21Z</time>
      </trkpt>
      <trkpt lat="46.8388" lon="0.42331">
        <ele>50.13</ele>
        <time>2023-10-15T09:18:22Z</time>
      </trkpt>
      <trkpt lat="46.83878" lon="0.42329">
        <ele>50.13</ele>
        <time>2023-10-15T09:18:23Z</time>
      </trkpt>
      <trkpt lat="46.83876" lon="0.42326">
        <ele>50.61</ele>
        <time>2023-10-15T09:18:24Z</time>
      </trkpt>
      <trkpt lat="46.83873" lon="0.42324">
        <ele>50.61</ele>
        <time>2023-10-15T09:18:25Z</time>
      </trkpt>
      <trkpt lat="46.83871" lon="0.42322">
        <ele>51.09</ele>
        <time>2023-10-15T09:18:26Z</time>
      </trkpt>
      <trkpt lat="46.83868" lon="0.4232">
        <ele>51.57</ele>
        <time>2023-10-15T09:18:27Z</time>
      </trkpt>
      <trkpt lat="46.83855" lon="0.42311">
        <ele>52.53</ele>
        <time>2023-10-15T09:18:32Z</time>
      </trkpt>
      <trkpt lat="46.83841" lon="0.42303">
        <ele>54.45</ele>
        <time>2023-10-15T09:18:37Z</time>
      </trkpt>
      <trkpt lat="46.83828" lon="0.42298">
        <ele>53.97</ele>
        <time>2023-10-15T09:18:42Z</time>
      </trkpt>
      <trkpt lat="46.83823" lon="0.42297">
        <ele>54.93</ele>
        <time>2023-10-15T09:18:44Z</time>
      </trkpt>
      <trkpt lat="46.83811" lon="0.4229">
        <ele>55.41</ele>
        <time>2023-10-15T09:18:49Z</time>
      </trkpt>
      <trkpt lat="46.83809" lon="0.4229">
        <ele>56.37</ele>
        <time>2023-10-15T09:18:50Z</time>
      </trkpt>
      <trkpt lat="46.83806" lon="0.42289">
        <ele>56.86</ele>
        <time>2023-10-15T09:18:51Z</time>
      </trkpt>
      <trkpt lat="46.83792" lon="0.42282">
        <ele>56.37</ele>
        <time>2023-10-15T09:18:56Z</time>
      </trkpt>
      <trkpt lat="46.8379" lon="0.4228">
        <ele>56.86</ele>
        <time>2023-10-15T09:18:57Z</time>
      </trkpt>
      <trkpt lat="46.83774" lon="0.42273">
        <ele>57.34</ele>
        <time>2023-10-15T09:19:03Z</time>
      </trkpt>
      <trkpt lat="46.83763" lon="0.42268">
        <ele>58.3</ele>
        <time>2023-10-15T09:19:08Z</time>
      </trkpt>
      <trkpt lat="46.83761" lon="0.42266">
        <ele>58.78</ele>
        <time>2023-10-15T09:19:09Z</time>
      </trkpt>
      <trkpt lat="46.83759" lon="0.42265">
        <ele>57.82</ele>
        <time>2023-10-15T09:19:10Z</time>
      </trkpt>
      <trkpt lat="46.83757" lon="0.42264">
        <ele>58.3</ele>
        <time>2023-10-15T09:19:11Z</time>
      </trkpt>
      <trkpt lat="46.83754" lon="0.42264">
        <ele>58.3</ele>
        <time>2023-10-15T09:19:12Z</time>
      </trkpt>
      <trkpt lat="46.83751" lon="0.42263">
        <ele>58.3</ele>
        <time>2023-10-15T09:19:13Z</time>
      </trkpt>
      <trkpt lat="46.83738" lon="0.42261">
        <ele>59.26</ele>
        <time>2023-10-15T09:19:17Z</time>
      </trkpt>
      <trkpt lat="46.83734" lon="0.4226">
        <ele>59.26</ele>
        <time>2023-10-15T09:19:19Z</time>
      </trkpt>
      <trkpt lat="46.83719" lon="0.42256">
        <ele>59.74</ele>
        <time>2023-10-15T09:19:25Z</time>
      </trkpt>
      <trkpt lat="46.83706" lon="0.42253">
        <ele>61.18</ele>
        <time>2023-10-15T09:19:30Z</time>
      </trkpt>
      <trkpt lat="46.8369" lon="0.42249">
        <ele>61.66</ele>
        <time>2023-10-15T09:19:36Z</time>
      </trkpt>
      <trkpt lat="46.8367" lon="0.42243">
        <ele>62.14</ele>
        <time>2023-10-15T09:19:43Z</time>
      </trkpt>
      <trkpt lat="46.83655" lon="0.42241">
        <ele>61.18</ele>
        <time>2023-10-15T09:19:48Z</time>
      </trkpt>
      <trkpt lat="46.83654" lon="0.4224">
        <ele>61.66</ele>
        <time>2023-10-15T09:19:49Z</time>
      </trkpt>
      <trkpt lat="46.83634" lon="0.4224">
        <ele>62.14</ele>
        <time>2023-10-15T09:19:55Z</time>
      </trkpt>
      <trkpt lat="46.83614" lon="0.42241">
        <ele>62.14</ele>
        <time>2023-10-15T09:20:00Z</time>
      </trkpt>
      <trkpt lat="46.836" lon="0.42243">
        <ele>62.62</ele>
        <time>2023-10-15T09:20:05Z</time>
      </trkpt>
      <trkpt lat="46.83578" lon="0.42245">
        <ele>63.1</ele>
        <time>2023-10-15T09:20:10Z</time>
      </trkpt>
      <trkpt lat="46.83557" lon="0.42241">
        <ele>63.1</ele>
        <time>2023-10-15T09:20:16Z</time>
      </trkpt>
      <trkpt lat="46.83537" lon="0.42239">
        <ele>64.07</ele>
        <time>2023-10-15T09:20:23Z</time>
      </trkpt>
      <trkpt lat="46.83517" lon="0.42235">
        <ele>62.62</ele>
        <time>2023-10-15T09:20:29Z</time>
      </trkpt>
      <trkpt lat="46.83506" lon="0.42233">
        <ele>64.07</ele>
        <time>2023-10-15T09:20:33Z</time>
      </trkpt>
      <trkpt lat="46.83491" lon="0.42228">
        <ele>63.1</ele>
        <time>2023-10-15T09:20:39Z</time>
      </trkpt>
      <trkpt lat="46.8347" lon="0.42225">
        <ele>63.58</ele>
        <time>2023-10-15T09:20:46Z</time>
      </trkpt>
      <trkpt lat="46.83452" lon="0.42221">
        <ele>63.1</ele>
        <time>2023-10-15T09:20:51Z</time>
      </trkpt>
      <trkpt lat="46.83448" lon="0.4222">
        <ele>62.62</ele>
        <time>2023-10-15T09:20:52Z</time>
      </trkpt>
      <trkpt lat="46.83444" lon="0.42218">
        <ele>62.62</ele>
        <time>2023-10-15T09:20:53Z</time>
      </trkpt>
      <trkpt lat="46.83427" lon="0.42209">
        <ele>63.58</ele>
        <time>2023-10-15T09:20:57Z</time>
      </trkpt>
      <trkpt lat="46.83422" lon="0.42208">
        <ele>62.62</ele>
        <time>2023-10-15T09:20:58Z</time>
      </trkpt>
      <trkpt lat="46.83418" lon="0.42206">
        <ele>63.58</ele>
        <time>2023-10-15T09:20:59Z</time>
      </trkpt>
      <trkpt lat="46.83415" lon="0.42204">
        <ele>63.1</ele>
        <time>2023-10-15T09:21:00Z</time>
      </trkpt>
      <trkpt lat="46.83411" lon="0.42201">
        <ele>63.1</ele>
        <time>2023-10-15T09:21:01Z</time>
      </trkpt>
      <trkpt lat="46.83397" lon="0.42195">
        <ele>62.62</ele>
        <time>2023-10-15T09:21:04Z</time>
      </trkpt>
      <trkpt lat="46.83393" lon="0.42194">
        <ele>63.58</ele>
        <time>2023-10-15T09:21:05Z</time>
      </trkpt>
      <trkpt lat="46.83389" lon="0.42193">
        <ele>62.62</ele>
        <time>2023-10-15T09:21:06Z</time>
      </trkpt>
      <trkpt lat="46.8338" lon="0.42192">
        <ele>63.1</ele>
        <time>2023-10-15T09:21:08Z</time>
      </trkpt>
      <trkpt lat="46.8337" lon="0.42189">
        <ele>62.62</ele>
        <time>2023-10-15T09:21:10Z</time>
      </trkpt>
      <trkpt lat="46.83365" lon="0.42189">
        <ele>62.62</ele>
        <time>2023-10-15T09:21:11Z</time>
      </trkpt>
      <trkpt lat="46.8336" lon="0.42189">
        <ele>63.58</ele>
        <time>2023-10-15T09:21:12Z</time>
      </trkpt>
      <trkpt lat="46.83355" lon="0.42189">
        <ele>63.1</ele>
        <time>2023-10-15T09:21:13Z</time>
      </trkpt>
      <trkpt lat="46.83351" lon="0.42189">
        <ele>62.14</ele>
        <time>2023-10-15T09:21:14Z</time>
      </trkpt>
      <trkpt lat="46.83346" lon="0.42189">
        <ele>62.62</ele>
        <time>2023-10-15T09:21:15Z</time>
      </trkpt>
      <trkpt lat="46.83317" lon="0.42193">
        <ele>63.1</ele>
        <time>2023-10-15T09:21:21Z</time>
      </trkpt>
      <trkpt lat="46.83301" lon="0.42198">
        <ele>63.58</ele>
        <time>2023-10-15T09:21:25Z</time>
      </trkpt>
      <trkpt lat="46.83297" lon="0.42198">
        <ele>62.62</ele>
        <time>2023-10-15T09:21:26Z</time>
      </trkpt>
      <trkpt lat="46.83292" lon="0.42198">
        <ele>62.62</ele>
        <time>2023-10-15T09:21:27Z</time>
      </trkpt>
      <trkpt lat="46.83262" lon="0.42189">
        <ele>62.62</ele>
        <time>2023-10-15T09:21:34Z</time>
      </trkpt>
      <trkpt lat="46.8323" lon="0.42177">
        <ele>62.14</ele>
        <time>2023-10-15T09:21:41Z</time>
      </trkpt>
      <trkpt lat="46.83225" lon="0.42176">
        <ele>62.14</ele>
        <time>2023-10-15T09:21:42Z</time>
      </trkpt>
      <trkpt lat="46.8322" lon="0.42174">
        <ele>62.62</ele>
        <time>2023-10-15T09:21:43Z</time>
      </trkpt>
      <trkpt lat="46.83217" lon="0.42172">
        <ele>61.18</ele>
        <time>2023-10-15T09:21:44Z</time>
      </trkpt>
      <trkpt lat="46.83213" lon="0.4217">
        <ele>62.14</ele>
        <time>2023-10-15T09:21:45Z</time>
      </trkpt>
      <trkpt lat="46.83209" lon="0.42169">
        <ele>62.14</ele>
        <time>2023-10-15T09:21:46Z</time>
      </trkpt>
      <trkpt lat="46.83204" lon="0.42167">
        <ele>62.14</ele>
        <time>2023-10-15T09:21:47Z</time>
      </trkpt>
      <trkpt lat="46.8318" lon="0.42159">
        <ele>62.14</ele>
        <time>2023-10-15T09:21:52Z</time>
      </trkpt>
      <trkpt lat="46.83152" lon="0.42152">
        <ele>61.66</ele>
        <time>2023-10-15T09:21:58Z</time>
      </trkpt>
      <trkpt lat="46.83117" lon="0.42145">
        <ele>61.18</ele>
        <time>2023-10-15T09:22:05Z</time>
      </trkpt>
      <trkpt lat="46.83112" lon="0.42144">
        <ele>60.7</ele>
        <time>2023-10-15T09:22:06Z</time>
      </trkpt>
      <trkpt lat="46.83107" lon="0.42141">
        <ele>60.7</ele>
        <time>2023-10-15T09:22:07Z</time>
      </trkpt>
      <trkpt lat="46.83093" lon="0.42132">
        <ele>60.7</ele>
        <time>2023-10-15T09:22:10Z</time>
      </trkpt>
      <trkpt lat="46.83087" lon="0.42131">
        <ele>60.7</ele>
        <time>2023-10-15T09:22:11Z</time>
      </trkpt>
      <trkpt lat="46.83061" lon="0.42128">
        <ele>60.22</ele>
        <time>2023-10-15T09:22:16Z</time>
      </trkpt>
      <trkpt lat="46.83055" lon="0.42127">
        <ele>60.22</ele>
        <time>2023-10-15T09:22:17Z</time>
      </trkpt>
      <trkpt lat="46.83019" lon="0.42125">
        <ele>59.74</ele>
        <time>2023-10-15T09:22:24Z</time>
      </trkpt>
      <trkpt lat="46.82985" lon="0.42124">
        <ele>58.78</ele>
        <time>2023-10-15T09:22:30Z</time>
      </trkpt>
      <trkpt lat="46.82943" lon="0.42119">
        <ele>57.82</ele>
        <time>2023-10-15T09:22:37Z</time>
      </trkpt>
      <trkpt lat="46.82937" lon="0.42118">
        <ele>57.34</ele>
        <time>2023-10-15T09:22:38Z</time>
      </trkpt>
      <trkpt lat="46.82931" lon="0.42118">
        <ele>56.86</ele>
        <time>2023-10-15T09:22:39Z</time>
      </trkpt>
      <trkpt lat="46.82925" lon="0.42119">
        <ele>57.82</ele>
        <time>2023-10-15T09:22:40Z</time>
      </trkpt>
      <trkpt lat="46.82919" lon="0.42122">
        <ele>57.82</ele>
        <time>2023-10-15T09:22:41Z</time>
      </trkpt>
      <trkpt lat="46.82915" lon="0.42125">
        <ele>56.86</ele>
        <time>2023-10-15T09:22:42Z</time>
      </trkpt>
      <trkpt lat="46.8291" lon="0.42128">
        <ele>56.37</ele>
        <time>2023-10-15T09:22:43Z</time>
      </trkpt>
      <trkpt lat="46.82906" lon="0.42132">
        <ele>56.37</ele>
        <time>2023-10-15T09:22:44Z</time>
      </trkpt>
      <trkpt lat="46.82902" lon="0.42135">
        <ele>56.37</ele>
        <time>2023-10-15T09:22:45Z</time>
      </trkpt>
      <trkpt lat="46.82897" lon="0.42138">
        <ele>56.37</ele>
        <time>2023-10-15T09:22:46Z</time>
      </trkpt>
      <trkpt lat="46.82893" lon="0.42141">
        <ele>57.34</ele>
        <time>2023-10-15T09:22:47Z</time>
      </trkpt>
      <trkpt lat="46.82879" lon="0.4215">
        <ele>55.41</ele>
        <time>2023-10-15T09:22:50Z</time>
      </trkpt>
      <trkpt lat="46.82874" lon="0.42153">
        <ele>53.49</ele>
        <time>2023-10-15T09:22:51Z</time>
      </trkpt>
      <trkpt lat="46.8287" lon="0.42158">
        <ele>54.93</ele>
        <time>2023-10-15T09:22:52Z</time>
      </trkpt>
      <trkpt lat="46.82868" lon="0.42165">
        <ele>55.89</ele>
        <time>2023-10-15T09:22:53Z</time>
      </trkpt>
      <trkpt lat="46.82867" lon="0.42173">
        <ele>54.45</ele>
        <time>2023-10-15T09:22:54Z</time>
      </trkpt>
      <trkpt lat="46.82866" lon="0.42182">
        <ele>55.41</ele>
        <time>2023-10-15T09:22:55Z</time>
      </trkpt>
      <trkpt lat="46.82867" lon="0.4219">
        <ele>53.49</ele>
        <time>2023-10-15T09:22:56Z</time>
      </trkpt>
      <trkpt lat="46.8287" lon="0.4222">
        <ele>53.49</ele>
        <time>2023-10-15T09:22:59Z</time>
      </trkpt>
      <trkpt lat="46.82874" lon="0.42258">
        <ele>51.09</ele>
        <time>2023-10-15T09:23:02Z</time>
      </trkpt>
      <trkpt lat="46.82874" lon="0.42272">
        <ele>49.65</ele>
        <time>2023-10-15T09:23:03Z</time>
      </trkpt>
      <trkpt lat="46.82872" lon="0.42287">
        <ele>49.16</ele>
        <time>2023-10-15T09:23:04Z</time>
      </trkpt>
      <trkpt lat="46.82871" lon="0.42302">
        <ele>46.76</ele>
        <time>2023-10-15T09:23:05Z</time>
      </trkpt>
      <trkpt lat="46.82871" lon="0.42316">
        <ele>46.28</ele>
        <time>2023-10-15T09:23:06Z</time>
      </trkpt>
      <trkpt lat="46.82872" lon="0.42328">
        <ele>43.88</ele>
        <time>2023-10-15T09:23:07Z</time>
      </trkpt>
      <trkpt lat="46.82871" lon="0.42338">
        <ele>41.47</ele>
        <time>2023-10-15T09:23:08Z</time>
      </trkpt>
      <trkpt lat="46.82869" lon="0.42346">
        <ele>40.99</ele>
        <time>2023-10-15T09:23:09Z</time>
      </trkpt>
      <trkpt lat="46.82864" lon="0.42351">
        <ele>40.03</ele>
        <time>2023-10-15T09:23:10Z</time>
      </trkpt>
      <trkpt lat="46.8286" lon="0.42353">
        <ele>40.03</ele>
        <time>2023-10-15T09:23:11Z</time>
      </trkpt>
      <trkpt lat="46.82855" lon="0.42352">
        <ele>39.07</ele>
        <time>2023-10-15T09:23:12Z</time>
      </trkpt>
      <trkpt lat="46.82851" lon="0.4235">
        <ele>39.55</ele>
        <time>2023-10-15T09:23:13Z</time>
      </trkpt>
      <trkpt lat="46.82848" lon="0.42348">
        <ele>38.11</ele>
        <time>2023-10-15T09:23:14Z</time>
      </trkpt>
      <trkpt lat="46.82836" lon="0.42342">
        <ele>39.55</ele>
        <time>2023-10-15T09:23:19Z</time>
      </trkpt>
      <trkpt lat="46.82835" lon="0.42343">
        <ele>40.03</ele>
        <time>2023-10-15T09:23:24Z</time>
      </trkpt>
      <trkpt lat="46.82835" lon="0.42343">
        <ele>39.07</ele>
        <time>2023-10-15T09:23:36Z</time>
      </trkpt>
      <trkpt lat="46.82833" lon="0.42342">
        <ele>40.03</ele>
        <time>2023-10-15T09:23:50Z</time>
      </trkpt>
      <trkpt lat="46.82832" lon="0.42342">
        <ele>40.51</ele>
        <time>2023-10-15T09:23:51Z</time>
      </trkpt>
      <trkpt lat="46.82831" lon="0.42341">
        <ele>40.51</ele>
        <time>2023-10-15T09:23:52Z</time>
      </trkpt>
      <trkpt lat="46.82829" lon="0.4234">
        <ele>40.03</ele>
        <time>2023-10-15T09:23:53Z</time>
      </trkpt>
      <trkpt lat="46.82827" lon="0.42338">
        <ele>40.99</ele>
        <time>2023-10-15T09:23:54Z</time>
      </trkpt>
      <trkpt lat="46.82825" lon="0.42337">
        <ele>40.99</ele>
        <time>2023-10-15T09:23:55Z</time>
      </trkpt>
      <trkpt lat="46.82822" lon="0.42335">
        <ele>41.47</ele>
        <time>2023-10-15T09:23:56Z</time>
      </trkpt>
      <trkpt lat="46.82819" lon="0.42332">
        <ele>41.47</ele>
        <time>2023-10-15T09:23:57Z</time>
      </trkpt>
      <trkpt lat="46.82816" lon="0.42329">
        <ele>40.99</ele>
        <time>2023-10-15T09:23:58Z</time>
      </trkpt>
      <trkpt lat="46.82813" lon="0.42326">
        <ele>40.99</ele>
        <time>2023-10-15T09:23:59Z</time>
      </trkpt>
      <trkpt lat="46.82789" lon="0.42302">
        <ele>40.03</ele>
        <time>2023-10-15T09:24:07Z</time>
      </trkpt>
      <trkpt lat="46.82748" lon="0.42277">
        <ele>39.07</ele>
        <time>2023-10-15T09:24:15Z</time>
      </trkpt>
      <trkpt lat="46.82741" lon="0.42276">
        <ele>39.07</ele>
        <time>2023-10-15T09:24:16Z</time>
      </trkpt>
      <trkpt lat="46.82734" lon="0.42275">
        <ele>39.55</ele>
        <time>2023-10-15T09:24:17Z</time>
      </trkpt>
      <trkpt lat="46.82717" lon="0.42273">
        <ele>38.59</ele>
        <time>2023-10-15T09:24:20Z</time>
      </trkpt>
      <trkpt lat="46.82711" lon="0.4227">
        <ele>39.07</ele>
        <time>2023-10-15T09:24:21Z</time>
      </trkpt>
      <trkpt lat="46.82708" lon="0.42266">
        <ele>39.07</ele>
        <time>2023-10-15T09:24:22Z</time>
      </trkpt>
      <trkpt lat="46.82705" lon="0.4226">
        <ele>39.07</ele>
        <time>2023-10-15T09:24:23Z</time>
      </trkpt>
      <trkpt lat="46.82703" lon="0.42255">
        <ele>40.99</ele>
        <time>2023-10-15T09:24:24Z</time>
      </trkpt>
      <trkpt lat="46.827" lon="0.42243">
        <ele>40.03</ele>
        <time>2023-10-15T09:24:28Z</time>
      </trkpt>
      <trkpt lat="46.827" lon="0.42243">
        <ele>40.03</ele>
        <time>2023-10-15T09:24:38Z</time>
      </trkpt>
      <trkpt lat="46.82701" lon="0.42244">
        <ele>40.99</ele>
        <time>2023-10-15T09:24:42Z</time>
      </trkpt>
      <trkpt lat="46.82701" lon="0.42242">
        <ele>40.03</ele>
        <time>2023-10-15T09:24:48Z</time>
      </trkpt>
      <trkpt lat="46.82702" lon="0.42242">
        <ele>40.99</ele>
        <time>2023-10-15T09:27:30Z</time>
      </trkpt>
      <trkpt lat="46.82699" lon="0.42239">
        <ele>40.51</ele>
        <time>2023-10-15T09:27:33Z</time>
      </trkpt>
      <trkpt lat="46.82699" lon="0.42237">
        <ele>41.47</ele>
        <time>2023-10-15T09:27:34Z</time>
      </trkpt>
      <trkpt lat="46.82699" lon="0.42234">
        <ele>41.95</ele>
        <time>2023-10-15T09:27:41Z</time>
      </trkpt>
      <trkpt lat="46.82698" lon="0.42232">
        <ele>41.47</ele>
        <time>2023-10-15T09:28:01Z</time>
      </trkpt>
      <trkpt lat="46.82692" lon="0.42217">
        <ele>42.44</ele>
        <time>2023-10-15T09:28:06Z</time>
      </trkpt>
      <trkpt lat="46.82682" lon="0.4219">
        <ele>44.36</ele>
        <time>2023-10-15T09:28:11Z</time>
      </trkpt>
      <trkpt lat="46.82664" lon="0.42165">
        <ele>44.84</ele>
        <time>2023-10-15T09:28:17Z</time>
      </trkpt>
      <trkpt lat="46.82661" lon="0.42162">
        <ele>44.84</ele>
        <time>2023-10-15T09:28:18Z</time>
      </trkpt>
      <trkpt lat="46.82657" lon="0.4216">
        <ele>44.84</ele>
        <time>2023-10-15T09:28:19Z</time>
      </trkpt>
      <trkpt lat="46.82652" lon="0.42159">
        <ele>44.36</ele>
        <time>2023-10-15T09:28:20Z</time>
      </trkpt>
      <trkpt lat="46.82647" lon="0.42159">
        <ele>44.36</ele>
        <time>2023-10-15T09:28:21Z</time>
      </trkpt>
      <trkpt lat="46.82641" lon="0.4216">
        <ele>42.92</ele>
        <time>2023-10-15T09:28:22Z</time>
      </trkpt>
      <trkpt lat="46.82636" lon="0.42162">
        <ele>43.4</ele>
        <time>2023-10-15T09:28:23Z</time>
      </trkpt>
      <trkpt lat="46.8263" lon="0.42164">
        <ele>43.4</ele>
        <time>2023-10-15T09:28:24Z</time>
      </trkpt>
      <trkpt lat="46.82584" lon="0.42187">
        <ele>40.03</ele>
        <time>2023-10-15T09:28:31Z</time>
      </trkpt>
      <trkpt lat="46.82537" lon="0.42215">
        <ele>37.15</ele>
        <time>2023-10-15T09:28:38Z</time>
      </trkpt>
      <trkpt lat="46.8253" lon="0.42219">
        <ele>37.15</ele>
        <time>2023-10-15T09:28:39Z</time>
      </trkpt>
      <trkpt lat="46.82501" lon="0.42229">
        <ele>34.74</ele>
        <time>2023-10-15T09:28:43Z</time>
      </trkpt>
      <trkpt lat="46.82476" lon="0.42233">
        <ele>33.3</ele>
        <time>2023-10-15T09:28:46Z</time>
      </trkpt>
      <trkpt lat="46.82441" lon="0.42241">
        <ele>28.98</ele>
        <time>2023-10-15T09:28:50Z</time>
      </trkpt>
      <trkpt lat="46.82432" lon="0.42239">
        <ele>28.98</ele>
        <time>2023-10-15T09:28:51Z</time>
      </trkpt>
      <trkpt lat="46.82424" lon="0.42234">
        <ele>28.02</ele>
        <time>2023-10-15T09:28:52Z</time>
      </trkpt>
      <trkpt lat="46.82417" lon="0.42228">
        <ele>26.57</ele>
        <time>2023-10-15T09:28:53Z</time>
      </trkpt>
      <trkpt lat="46.82412" lon="0.42222">
        <ele>26.09</ele>
        <time>2023-10-15T09:28:54Z</time>
      </trkpt>
      <trkpt lat="46.82399" lon="0.42207">
        <ele>23.21</ele>
        <time>2023-10-15T09:28:58Z</time>
      </trkpt>
      <trkpt lat="46.82389" lon="0.422">
        <ele>22.73</ele>
        <time>2023-10-15T09:29:01Z</time>
      </trkpt>
      <trkpt lat="46.82366" lon="0.42183">
        <ele>20.32</ele>
        <time>2023-10-15T09:29:05Z</time>
      </trkpt>
      <trkpt lat="46.82325" lon="0.42162">
        <ele>17.44</ele>
        <time>2023-10-15T09:29:10Z</time>
      </trkpt>
      <trkpt lat="46.82298" lon="0.42152">
        <ele>14.08</ele>
        <time>2023-10-15T09:29:13Z</time>
      </trkpt>
      <trkpt lat="46.82288" lon="0.42152">
        <ele>13.6</ele>
        <time>2023-10-15T09:29:14Z</time>
      </trkpt>
      <trkpt lat="46.82279" lon="0.42155">
        <ele>13.6</ele>
        <time>2023-10-15T09:29:15Z</time>
      </trkpt>
      <trkpt lat="46.82234" lon="0.42171">
        <ele>12.15</ele>
        <time>2023-10-15T09:29:20Z</time>
      </trkpt>
      <trkpt lat="46.82225" lon="0.4217">
        <ele>11.67</ele>
        <time>2023-10-15T09:29:21Z</time>
      </trkpt>
      <trkpt lat="46.82217" lon="0.42166">
        <ele>12.15</ele>
        <time>2023-10-15T09:29:22Z</time>
      </trkpt>
      <trkpt lat="46.8221" lon="0.4216">
        <ele>10.23</ele>
        <time>2023-10-15T09:29:23Z</time>
      </trkpt>
      <trkpt lat="46.82203" lon="0.42153">
        <ele>9.27</ele>
        <time>2023-10-15T09:29:24Z</time>
      </trkpt>
      <trkpt lat="46.82197" lon="0.42145">
        <ele>8.79</ele>
        <time>2023-10-15T09:29:25Z</time>
      </trkpt>
      <trkpt lat="46.82191" lon="0.42137">
        <ele>8.31</ele>
        <time>2023-10-15T09:29:26Z</time>
      </trkpt>
      <trkpt lat="46.82185" lon="0.42128">
        <ele>8.31</ele>
        <time>2023-10-15T09:29:27Z</time>
      </trkpt>
      <trkpt lat="46.8218" lon="0.4212">
        <ele>9.75</ele>
        <time>2023-10-15T09:29:28Z</time>
      </trkpt>
      <trkpt lat="46.82169" lon="0.42103">
        <ele>8.31</ele>
        <time>2023-10-15T09:29:30Z</time>
      </trkpt>
      <trkpt lat="46.82164" lon="0.42097">
        <ele>8.31</ele>
        <time>2023-10-15T09:29:31Z</time>
      </trkpt>
      <trkpt lat="46.82158" lon="0.42095">
        <ele>8.31</ele>
        <time>2023-10-15T09:29:32Z</time>
      </trkpt>
      <trkpt lat="46.82152" lon="0.42097">
        <ele>7.83</ele>
        <time>2023-10-15T09:29:33Z</time>
      </trkpt>
      <trkpt lat="46.82147" lon="0.42101">
        <ele>7.35</ele>
        <time>2023-10-15T09:29:34Z</time>
      </trkpt>
      <trkpt lat="46.82143" lon="0.42106">
        <ele>7.35</ele>
        <time>2023-10-15T09:29:35Z</time>
      </trkpt>
      <trkpt lat="46.82105" lon="0.42144">
        <ele>6.87</ele>
        <time>2023-10-15T09:29:42Z</time>
      </trkpt>
      <trkpt lat="46.82098" lon="0.42148">
        <ele>6.39</ele>
        <time>2023-10-15T09:29:43Z</time>
      </trkpt>
      <trkpt lat="46.82092" lon="0.42151">
        <ele>6.87</ele>
        <time>2023-10-15T09:29:44Z</time>
      </trkpt>
      <trkpt lat="46.82086" lon="0.42153">
        <ele>6.87</ele>
        <time>2023-10-15T09:29:45Z</time>
      </trkpt>
      <trkpt lat="46.82079" lon="0.42154">
        <ele>5.42</ele>
        <time>2023-10-15T09:29:46Z</time>
      </trkpt>
      <trkpt lat="46.82073" lon="0.42155">
        <ele>6.39</ele>
        <time>2023-10-15T09:29:47Z</time>
      </trkpt>
      <trkpt lat="46.82018" lon="0.42154">
        <ele>4.94</ele>
        <time>2023-10-15T09:29:55Z</time>
      </trkpt>
      <trkpt lat="46.81963" lon="0.4215">
        <ele>3.02</ele>
        <time>2023-10-15T09:30:03Z</time>
      </trkpt>
      <trkpt lat="46.81956" lon="0.42152">
        <ele>3.02</ele>
        <time>2023-10-15T09:30:04Z</time>
      </trkpt>
      <trkpt lat="46.81902" lon="0.42179">
        <ele>1.1</ele>
        <time>2023-10-15T09:30:12Z</time>
      </trkpt>
      <trkpt lat="46.81869" lon="0.42197">
        <ele>-1.3</ele>
        <time>2023-10-15T09:30:17Z</time>
      </trkpt>
      <trkpt lat="46.81813" lon="0.42227">
        <ele>-1.79</ele>
        <time>2023-10-15T09:30:26Z</time>
      </trkpt>
      <trkpt lat="46.81775" lon="0.42248">
        <ele>-3.23</ele>
        <time>2023-10-15T09:30:32Z</time>
      </trkpt>
      <trkpt lat="46.81769" lon="0.42252">
        <ele>-3.71</ele>
        <time>2023-10-15T09:30:33Z</time>
      </trkpt>
      <trkpt lat="46.81763" lon="0.42258">
        <ele>-2.75</ele>
        <time>2023-10-15T09:30:34Z</time>
      </trkpt>
      <trkpt lat="46.81717" lon="0.42292">
        <ele>-2.75</ele>
        <time>2023-10-15T09:30:41Z</time>
      </trkpt>
      <trkpt lat="46.81683" lon="0.42314">
        <ele>-5.15</ele>
        <time>2023-10-15T09:30:46Z</time>
      </trkpt>
      <trkpt lat="46.81641" lon="0.42357">
        <ele>-3.71</ele>
        <time>2023-10-15T09:30:53Z</time>
      </trkpt>
      <trkpt lat="46.81626" lon="0.42374">
        <ele>-5.15</ele>
        <time>2023-10-15T09:30:56Z</time>
      </trkpt>
      <trkpt lat="46.81604" lon="0.42398">
        <ele>-6.11</ele>
        <time>2023-10-15T09:31:00Z</time>
      </trkpt>
      <trkpt lat="46.8155" lon="0.42457">
        <ele>-6.11</ele>
        <time>2023-10-15T09:31:10Z</time>
      </trkpt>
      <trkpt lat="46.81545" lon="0.42463">
        <ele>-6.59</ele>
        <time>2023-10-15T09:31:11Z</time>
      </trkpt>
      <trkpt lat="46.81534" lon="0.42473">
        <ele>-7.55</ele>
        <time>2023-10-15T09:31:13Z</time>
      </trkpt>
      <trkpt lat="46.81512" lon="0.42499">
        <ele>-9.48</ele>
        <time>2023-10-15T09:31:18Z</time>
      </trkpt>
      <trkpt lat="46.81508" lon="0.42501">
        <ele>-9</ele>
        <time>2023-10-15T09:31:19Z</time>
      </trkpt>
      <trkpt lat="46.81504" lon="0.42503">
        <ele>-9.96</ele>
        <time>2023-10-15T09:31:20Z</time>
      </trkpt>
      <trkpt lat="46.81501" lon="0.42503">
        <ele>-11.88</ele>
        <time>2023-10-15T09:31:21Z</time>
      </trkpt>
      <trkpt lat="46.81499" lon="0.42502">
        <ele>-10.44</ele>
        <time>2023-10-15T09:31:22Z</time>
      </trkpt>
      <trkpt lat="46.81497" lon="0.425">
        <ele>-9.48</ele>
        <time>2023-10-15T09:31:23Z</time>
      </trkpt>
      <trkpt lat="46.81496" lon="0.42497">
        <ele>-9.48</ele>
        <time>2023-10-15T09:31:24Z</time>
      </trkpt>
      <trkpt lat="46.81495" lon="0.42494">
        <ele>-9.48</ele>
        <time>2023-10-15T09:31:25Z</time>
      </trkpt>
      <trkpt lat="46.81496" lon="0.4249">
        <ele>-9.96</ele>
        <time>2023-10-15T09:31:26Z</time>
      </trkpt>
      <trkpt lat="46.81497" lon="0.42485">
        <ele>-9.96</ele>
        <time>2023-10-15T09:31:27Z</time>
      </trkpt>
      <trkpt lat="46.81498" lon="0.42481">
        <ele>-9.48</ele>
        <time>2023-10-15T09:31:28Z</time>
      </trkpt>
      <trkpt lat="46.81504" lon="0.42442">
        <ele>-9.48</ele>
        <time>2023-10-15T09:31:35Z</time>
      </trkpt>
      <trkpt lat="46.81506" lon="0.4243">
        <ele>-8.03</ele>
        <time>2023-10-15T09:31:37Z</time>
      </trkpt>
      <trkpt lat="46.81514" lon="0.42382">
        <ele>-9</ele>
        <time>2023-10-15T09:31:44Z</time>
      </trkpt>
      <trkpt lat="46.8152" lon="0.42339">
        <ele>-8.51</ele>
        <time>2023-10-15T09:31:50Z</time>
      </trkpt>
      <trkpt lat="46.81521" lon="0.42332">
        <ele>-8.03</ele>
        <time>2023-10-15T09:31:51Z</time>
      </trkpt>
      <trkpt lat="46.81522" lon="0.42324">
        <ele>-6.59</ele>
        <time>2023-10-15T09:31:52Z</time>
      </trkpt>
      <trkpt lat="46.81523" lon="0.42316">
        <ele>-6.59</ele>
        <time>2023-10-15T09:31:53Z</time>
      </trkpt>
      <trkpt lat="46.81526" lon="0.42285">
        <ele>-8.03</ele>
        <time>2023-10-15T09:31:57Z</time>
      </trkpt>
      <trkpt lat="46.8153" lon="0.42218">
        <ele>-7.55</ele>
        <time>2023-10-15T09:32:05Z</time>
      </trkpt>
      <trkpt lat="46.81529" lon="0.42183">
        <ele>-6.59</ele>
        <time>2023-10-15T09:32:09Z</time>
      </trkpt>
      <trkpt lat="46.81529" lon="0.42174">
        <ele>-7.55</ele>
        <time>2023-10-15T09:32:10Z</time>
      </trkpt>
      <trkpt lat="46.81528" lon="0.42166">
        <ele>-8.51</ele>
        <time>2023-10-15T09:32:11Z</time>
      </trkpt>
      <trkpt lat="46.81527" lon="0.42124">
        <ele>-7.07</ele>
        <time>2023-10-15T09:32:16Z</time>
      </trkpt>
      <trkpt lat="46.81519" lon="0.42065">
        <ele>-7.07</ele>
        <time>2023-10-15T09:32:23Z</time>
      </trkpt>
      <trkpt lat="46.81516" lon="0.42049">
        <ele>-7.07</ele>
        <time>2023-10-15T09:32:25Z</time>
      </trkpt>
      <trkpt lat="46.81515" lon="0.4204">
        <ele>-7.55</ele>
        <time>2023-10-15T09:32:26Z</time>
      </trkpt>
      <trkpt lat="46.81501" lon="0.41961">
        <ele>-7.55</ele>
        <time>2023-10-15T09:32:35Z</time>
      </trkpt>
      <trkpt lat="46.81499" lon="0.41953">
        <ele>-7.55</ele>
        <time>2023-10-15T09:32:36Z</time>
      </trkpt>
      <trkpt lat="46.81493" lon="0.41919">
        <ele>-8.03</ele>
        <time>2023-10-15T09:32:40Z</time>
      </trkpt>
      <trkpt lat="46.8148" lon="0.41843">
        <ele>-6.59</ele>
        <time>2023-10-15T09:32:49Z</time>
      </trkpt>
      <trkpt lat="46.81469" lon="0.41782">
        <ele>-8.03</ele>
        <time>2023-10-15T09:32:56Z</time>
      </trkpt>
      <trkpt lat="46.81456" lon="0.41705">
        <ele>-8.03</ele>
        <time>2023-10-15T09:33:05Z</time>
      </trkpt>
      <trkpt lat="46.81447" lon="0.4166">
        <ele>-8.51</ele>
        <time>2023-10-15T09:33:11Z</time>
      </trkpt>
      <trkpt lat="46.81435" lon="0.41584">
        <ele>-7.07</ele>
        <time>2023-10-15T09:33:20Z</time>
      </trkpt>
      <trkpt lat="46.81431" lon="0.4156">
        <ele>-8.51</ele>
        <time>2023-10-15T09:33:23Z</time>
      </trkpt>
      <trkpt lat="46.8142" lon="0.41501">
        <ele>-6.59</ele>
        <time>2023-10-15T09:33:32Z</time>
      </trkpt>
      <trkpt lat="46.81413" lon="0.41453">
        <ele>-7.55</ele>
        <time>2023-10-15T09:33:40Z</time>
      </trkpt>
      <trkpt lat="46.81413" lon="0.41447">
        <ele>-6.59</ele>
        <time>2023-10-15T09:33:41Z</time>
      </trkpt>
      <trkpt lat="46.81412" lon="0.4144">
        <ele>-8.03</ele>
        <time>2023-10-15T09:33:42Z</time>
      </trkpt>
      <trkpt lat="46.81401" lon="0.41383">
        <ele>-7.07</ele>
        <time>2023-10-15T09:33:49Z</time>
      </trkpt>
      <trkpt lat="46.81384" lon="0.41292">
        <ele>-5.63</ele>
        <time>2023-10-15T09:33:59Z</time>
      </trkpt>
      <trkpt lat="46.8137" lon="0.41217">
        <ele>-8.51</ele>
        <time>2023-10-15T09:34:08Z</time>
      </trkpt>
      <trkpt lat="46.81369" lon="0.41211">
        <ele>-8.03</ele>
        <time>2023-10-15T09:34:09Z</time>
      </trkpt>
      <trkpt lat="46.81368" lon="0.41203">
        <ele>-7.07</ele>
        <time>2023-10-15T09:34:14Z</time>
      </trkpt>
      <trkpt lat="46.81364" lon="0.41194">
        <ele>-6.59</ele>
        <time>2023-10-15T09:34:18Z</time>
      </trkpt>
      <trkpt lat="46.81349" lon="0.41192">
        <ele>-7.07</ele>
        <time>2023-10-15T09:34:22Z</time>
      </trkpt>
      <trkpt lat="46.81329" lon="0.41189">
        <ele>-8.03</ele>
        <time>2023-10-15T09:34:26Z</time>
      </trkpt>
      <trkpt lat="46.81285" lon="0.41185">
        <ele>-8.03</ele>
        <time>2023-10-15T09:34:34Z</time>
      </trkpt>
      <trkpt lat="46.81253" lon="0.41177">
        <ele>-8.51</ele>
        <time>2023-10-15T09:34:40Z</time>
      </trkpt>
      <trkpt lat="46.81248" lon="0.41174">
        <ele>-7.55</ele>
        <time>2023-10-15T09:34:41Z</time>
      </trkpt>
      <trkpt lat="46.81243" lon="0.4117">
        <ele>-8.51</ele>
        <time>2023-10-15T09:34:42Z</time>
      </trkpt>
      <trkpt lat="46.81199" lon="0.41135">
        <ele>-9</ele>
        <time>2023-10-15T09:34:50Z</time>
      </trkpt>
      <trkpt lat="46.81162" lon="0.41118">
        <ele>-9</ele>
        <time>2023-10-15T09:34:57Z</time>
      </trkpt>
      <trkpt lat="46.81133" lon="0.41109">
        <ele>-9.96</ele>
        <time>2023-10-15T09:35:03Z</time>
      </trkpt>
      <trkpt lat="46.81116" lon="0.41111">
        <ele>-10.44</ele>
        <time>2023-10-15T09:35:08Z</time>
      </trkpt>
      <trkpt lat="46.81107" lon="0.41128">
        <ele>-10.44</ele>
        <time>2023-10-15T09:35:12Z</time>
      </trkpt>
      <trkpt lat="46.81099" lon="0.41146">
        <ele>-10.44</ele>
        <time>2023-10-15T09:35:15Z</time>
      </trkpt>
      <trkpt lat="46.81096" lon="0.41151">
        <ele>-9.96</ele>
        <time>2023-10-15T09:35:16Z</time>
      </trkpt>
      <trkpt lat="46.81066" lon="0.41193">
        <ele>-9.96</ele>
        <time>2023-10-15T09:35:24Z</time>
      </trkpt>
      <trkpt lat="46.81062" lon="0.412">
        <ele>-10.44</ele>
        <time>2023-10-15T09:35:26Z</time>
      </trkpt>
      <trkpt lat="46.81047" lon="0.41228">
        <ele>-10.92</ele>
        <time>2023-10-15T09:35:34Z</time>
      </trkpt>
      <trkpt lat="46.81041" lon="0.41244">
        <ele>-11.88</ele>
        <time>2023-10-15T09:40:35Z</time>
      </trkpt>
    </trkseg>
  </trk>
</gpx>